
Distance (Route):
Temperature : 9.9°C
Humidity : 0%
Pressure : 0hPa| Receiver | Frames | First received | Last received |
|---|---|---|---|
| OM5KV | 777 | 2026-09-02 04:36:26 | 2026-09-02 06:42:21 |
| PETON7-10 | 417 | 2026-09-02 04:33:33 | 2026-09-02 06:39:19 |
| ATIDSZ-14 | 249 | 2026-09-02 04:38:13 | 2026-09-02 06:36:24 |
| DO3MHA-11 | 222 | 2026-09-02 05:27:11 | 2026-09-02 06:20:11 |
| OE5DRO-10 | 211 | 2026-09-02 04:58:32 | 2026-09-02 06:27:51 |
| PG1ADW-2 | 196 | 2026-09-02 04:58:57 | 2026-09-02 06:27:16 |
| OE3JTB-15 | 189 | 2026-09-02 04:33:49 | 2026-09-02 06:41:23 |
| OE5MMP-10 | 147 | 2026-09-02 05:44:08 | 2026-09-02 06:15:52 |
| OE5DXL-15 | 115 | 2026-09-02 05:09:29 | 2026-09-02 06:21:48 |
| SP9KGR-15 | 82 | 2026-09-02 05:44:23 | 2026-09-02 06:18:11 |
| POL1PZ | 60 | 2026-09-02 05:37:07 | 2026-09-02 06:24:14 |
| OE5WHR-10 | 27 | 2026-09-02 05:56:05 | 2026-09-02 06:12:07 |
| GYPAP8-17 | 20 | 2026-09-02 05:11:23 | 2026-09-02 06:29:13 |
| SQ9EZE-14 | 11 | 2026-09-02 05:38:24 | 2026-09-02 06:15:21 |
| NBG1-10 | 10 | 2026-09-02 06:03:53 | 2026-09-02 06:09:57 |
| OE3OSB-13 | 3 | 2026-09-02 05:19:03 | 2026-09-02 06:31:02 |
| S52SK | 2 | 2026-09-02 05:13:32 | 2026-09-02 05:16:05 |
| Receiver | Date | Latitude | Longitude | Direction | Speed | Altitude | Climb | Temperature | Humidity | Pressure | Voltage | Killtimer | Uptime | BKT | XDATA |
|---|---|---|---|---|---|---|---|---|---|---|---|---|---|---|---|
| OM5KV | 2026-09-02 06:42:21 | 48.74668 | 18.73206 | 134° | 15km/h | 1520m | -7.1m/s | 9.9°C | 0% | 0hPa | 0V | 00:00:00 | 00:00:00 | 00:00:00 | |
| OM5KV | 2026-09-02 06:42:16 | 48.74679 | 18.73187 | 135° | 15km/h | 1559m | -7.3m/s | 9.5°C | 0% | 0hPa | 0V | 00:00:00 | 00:00:00 | 00:00:00 | |
| OM5KV | 2026-09-02 06:42:05 | 48.74704 | 18.73144 | 120° | 15km/h | 1651m | -8.6m/s | 8.7°C | 0% | 0hPa | 0V | 00:00:00 | 00:00:00 | 00:00:00 | |
| OM5KV | 2026-09-02 06:41:59 | 48.74721 | 18.73116 | 139° | 16km/h | 1705m | -9.8m/s | 8.2°C | 0% | 0hPa | 0V | 00:00:00 | 00:00:00 | 00:00:00 | |
| OM5KV | 2026-09-02 06:41:53 | 48.74734 | 18.73092 | 124° | 15km/h | 1758m | -9.9m/s | 7.7°C | 0% | 0hPa | 0V | 00:00:00 | 00:00:00 | 00:00:00 | |
| OM5KV | 2026-09-02 06:41:48 | 48.74748 | 18.73070 | 136° | 15km/h | 1806m | -10.0m/s | 7.3°C | 0% | 0hPa | 0V | 00:00:00 | 00:00:00 | 00:00:00 | |
| OM5KV | 2026-09-02 06:41:37 | 48.74772 | 18.73025 | 133° | 11km/h | 1900m | -8.9m/s | 6.5°C | 0% | 0hPa | 0V | 00:00:00 | 00:00:00 | 00:00:00 | |
| OM5KV | 2026-09-02 06:41:31 | 48.74786 | 18.73006 | 139° | 15km/h | 1955m | -10.1m/s | 6.0°C | 0% | 0hPa | 0V | 00:00:00 | 00:00:00 | 00:00:00 | |
| OM5KV | 2026-09-02 06:41:25 | 48.74800 | 18.72984 | 133° | 13km/h | 2004m | -8.8m/s | 5.5°C | 0% | 0hPa | 0V | 00:00:00 | 00:00:00 | 00:00:00 | |
| OE3JTB-15 | 2026-09-02 06:41:23 | 48.74805 | 18.72976 | 134° | 15km/h | 2071m | -9.0m/s | 0°C | 0% | 0hPa | 0V | 00:00:00 | 00:00:00 | 00:00:00 | |
| OM5KV | 2026-09-02 06:41:20 | 48.74812 | 18.72965 | 136° | 13km/h | 2045m | -8.5m/s | 5.1°C | 0% | 0hPa | 0V | 00:00:00 | 00:00:00 | 00:00:00 | |
| OM5KV | 2026-09-02 06:41:14 | 48.74826 | 18.72939 | 124° | 18km/h | 2099m | -9.1m/s | 4.5°C | 0% | 0hPa | 0V | 00:00:00 | 00:00:00 | 00:00:00 | |
| OE3JTB-15 | 2026-09-02 06:41:11 | 48.74834 | 18.72922 | 121° | 22km/h | 2137m | -8.7m/s | 0°C | 0% | 0hPa | 0V | 00:00:00 | 00:00:00 | 00:00:00 | |
| OM5KV | 2026-09-02 06:41:09 | 48.74839 | 18.72909 | 123° | 20km/h | 2146m | -9.4m/s | 4.2°C | 0% | 0hPa | 0V | 00:00:00 | 00:00:00 | 00:00:00 | |
| OE3JTB-15 | 2026-09-02 06:41:02 | 48.74857 | 18.72858 | 113° | 24km/h | 2224m | -10.0m/s | 0°C | 0% | 0hPa | 0V | 00:00:00 | 00:00:00 | 00:00:00 | |
| OM5KV | 2026-09-02 06:40:57 | 48.74871 | 18.72816 | 121° | 26km/h | 2263m | -6.8m/s | 3.3°C | 0% | 0hPa | 0V | 00:00:00 | 00:00:00 | 00:00:00 | |
| OE3JTB-15 | 2026-09-02 06:40:53 | 48.74883 | 18.72781 | 117° | 27km/h | 2307m | -10.1m/s | 0°C | 0% | 0hPa | 0V | 00:00:00 | 00:00:00 | 00:00:00 | |
| OM5KV | 2026-09-02 06:40:52 | 48.74886 | 18.72772 | 120° | 27km/h | 2307m | -10.2m/s | 2.8°C | 0% | 0hPa | 0V | 00:00:00 | 00:00:00 | 00:00:00 | |
| OE3JTB-15 | 2026-09-02 06:40:44 | 48.74913 | 18.72697 | 118° | 31km/h | 2389m | -8.6m/s | 0°C | 0% | 0hPa | 0V | 00:00:00 | 00:00:00 | 00:00:00 | |
| OE3JTB-15 | 2026-09-02 06:40:26 | 48.74977 | 18.72503 | 116° | 35km/h | 2534m | -8.4m/s | 0°C | 0% | 0hPa | 0V | 00:00:00 | 00:00:00 | 00:00:00 | |
| OM5KV | 2026-09-02 06:40:24 | 48.74984 | 18.72480 | 116° | 33km/h | 2552m | -9.3m/s | 1.1°C | 0% | 0hPa | 0V | 00:00:00 | 00:00:00 | 00:00:00 | |
| OM5KV | 2026-09-02 06:40:18 | 48.75009 | 18.72405 | 117° | 37km/h | 2605m | -9.8m/s | 0.9°C | 0% | 0hPa | 0V | 00:00:00 | 00:00:00 | 00:00:00 | |
| OE3JTB-15 | 2026-09-02 06:40:16 | 48.75017 | 18.72380 | 114° | 47km/h | 2633m | -8.9m/s | 0°C | 0% | 0hPa | 0V | 00:00:00 | 00:00:00 | 00:00:00 | |
| OM5KV | 2026-09-02 06:40:13 | 48.75029 | 18.72338 | 113° | 42km/h | 2653m | -9.2m/s | 1.0°C | 0% | 0hPa | 0V | 00:00:00 | 00:00:00 | 00:00:00 | |
| OM5KV | 2026-09-02 06:40:02 | 48.75086 | 18.72154 | 116° | 53km/h | 2752m | -9.9m/s | 0.7°C | 0% | 0hPa | 0V | 00:00:00 | 00:00:00 | 00:00:00 | |
| OE3JTB-15 | 2026-09-02 06:39:57 | 48.75112 | 18.72058 | 112° | 57km/h | 2803m | -8.8m/s | 0°C | 0% | 0hPa | 0V | 00:00:00 | 00:00:00 | 00:00:00 | |
| OM5KV | 2026-09-02 06:39:56 | 48.75118 | 18.72038 | 113° | 57km/h | 2803m | -8.9m/s | 0.4°C | 0% | 0hPa | 0V | 00:00:00 | 00:00:00 | 00:00:00 | |
| OM5KV | 2026-09-02 06:39:51 | 48.75153 | 18.71915 | 114° | 58km/h | 2858m | -8.9m/s | 0.3°C | 0% | 0hPa | 0V | 00:00:00 | 00:00:00 | 00:00:00 | |
| OM5KV | 2026-09-02 06:39:44 | 48.75187 | 18.71794 | 112° | 57km/h | 2911m | -9.2m/s | 0.0°C | 0% | 0hPa | 0V | 00:00:00 | 00:00:00 | 00:00:00 | |
| OE3JTB-15 | 2026-09-02 06:39:38 | 48.75217 | 18.71671 | 109° | 55km/h | 2975m | -8.8m/s | 0°C | 0% | 0hPa | 0V | 00:00:00 | 00:00:00 | 00:00:00 | |
| OM5KV | 2026-09-02 06:39:30 | 48.75253 | 18.71503 | 109° | 57km/h | 3042m | -9.6m/s | -0.9°C | 0% | 0hPa | 0V | 00:00:00 | 00:00:00 | 00:00:00 | |
| PETON7-10 | 2026-09-02 06:39:19 | 48.75301 | 18.71295 | 113° | 44km/h | 3168m | -8.2m/s | 0°C | 0% | 0hPa | 0V | 00:00:00 | 00:00:00 | 00:00:00 | |
| OM5KV | 2026-09-02 06:39:13 | 48.75327 | 18.71201 | 114° | 42km/h | 3196m | -9.0m/s | -1.0°C | 0% | 0hPa | 0V | 00:00:00 | 00:00:00 | 00:00:00 | |
| PETON7-10 | 2026-09-02 06:39:04 | 48.75363 | 18.71068 | 109° | 40km/h | 3274m | -7.2m/s | 0°C | 0% | 0hPa | 0V | 00:00:00 | 00:00:00 | 00:00:00 | |
| OM5KV | 2026-09-02 06:39:01 | 48.75373 | 18.71024 | 110° | 40km/h | 3298m | -8.1m/s | -0.9°C | 0% | 0hPa | 0V | 00:00:00 | 00:00:00 | 00:00:00 | |
| OE3JTB-15 | 2026-09-02 06:39:00 | 48.75376 | 18.71009 | 108° | 38km/h | 3316m | -9.6m/s | 0°C | 0% | 0hPa | 0V | 00:00:00 | 00:00:00 | 00:00:00 | |
| OM5KV | 2026-09-02 06:38:55 | 48.75390 | 18.70934 | 106° | 38km/h | 3350m | -9.8m/s | -0.6°C | 0% | 0hPa | 0V | 00:00:00 | 00:00:00 | 00:00:00 | |
| PETON7-10 | 2026-09-02 06:38:49 | 48.75402 | 18.70845 | 96° | 37km/h | 3416m | -8.7m/s | 0°C | 0% | 0hPa | 0V | 00:00:00 | 00:00:00 | 00:00:00 | |
| OM5KV | 2026-09-02 06:38:43 | 48.75409 | 18.70758 | 101° | 37km/h | 3459m | -8.9m/s | -0.7°C | 0% | 0hPa | 0V | 00:00:00 | 00:00:00 | 00:00:00 | |
| OE3JTB-15 | 2026-09-02 06:38:41 | 48.75413 | 18.70731 | 104° | 35km/h | 3488m | -10.3m/s | 0°C | 0% | 0hPa | 0V | 00:00:00 | 00:00:00 | 00:00:00 | |
| OM5KV | 2026-09-02 06:38:38 | 48.75418 | 18.70691 | 101° | 35km/h | 3505m | -7.0m/s | -1.1°C | 0% | 0hPa | 0V | 00:00:00 | 00:00:00 | 00:00:00 | |
| PETON7-10 | 2026-09-02 06:38:34 | 48.75425 | 18.70638 | 101° | 33km/h | 3549m | -10.2m/s | 0°C | 0% | 0hPa | 0V | 00:00:00 | 00:00:00 | 00:00:00 | |
| OM5KV | 2026-09-02 06:38:31 | 48.75430 | 18.70599 | 102° | 35km/h | 3566m | -7.9m/s | -1.5°C | 0% | 0hPa | 0V | 00:00:00 | 00:00:00 | 00:00:00 | |
| OE3JTB-15 | 2026-09-02 06:38:22 | 48.75447 | 18.70485 | 104° | 33km/h | 3661m | -7.7m/s | 0°C | 0% | 0hPa | 0V | 00:00:00 | 00:00:00 | 00:00:00 | |
| OM5KV | 2026-09-02 06:38:19 | 48.75455 | 18.70438 | 104° | 33km/h | 3685m | -7.1m/s | -2.4°C | 0% | 0hPa | 0V | 00:00:00 | 00:00:00 | 00:00:00 | |
| OM5KV | 2026-09-02 06:38:12 | 48.75471 | 18.70364 | 105° | 33km/h | 3736m | -10.3m/s | -2.8°C | 0% | 0hPa | 0V | 00:00:00 | 00:00:00 | 00:00:00 | |
| OM5KV | 2026-09-02 06:38:06 | 48.75484 | 18.70290 | 103° | 35km/h | 3795m | -10.5m/s | -3.3°C | 0% | 0hPa | 0V | 00:00:00 | 00:00:00 | 00:00:00 | |
| PETON7-10 | 2026-09-02 06:38:04 | 48.75488 | 18.70262 | 104° | 33km/h | 3821m | -7.5m/s | 0°C | 0% | 0hPa | 0V | 00:00:00 | 00:00:00 | 00:00:00 | |
| OE3JTB-15 | 2026-09-02 06:37:54 | 48.75504 | 18.70142 | 101° | 33km/h | 3907m | -10.3m/s | 0°C | 0% | 0hPa | 0V | 00:00:00 | 00:00:00 | 00:00:00 | |
| PETON7-10 | 2026-09-02 06:37:49 | 48.75512 | 18.70081 | 99° | 35km/h | 3952m | -8.2m/s | 0°C | 0% | 0hPa | 0V | 00:00:00 | 00:00:00 | 00:00:00 | |
| OM5KV | 2026-09-02 06:37:43 | 48.75519 | 18.70003 | 96° | 35km/h | 3997m | -9.3m/s | -4.7°C | 0% | 0hPa | 0V | 00:00:00 | 00:00:00 | 00:00:00 | |
| PETON7-10 | 2026-09-02 06:37:34 | 48.75530 | 18.69889 | 99° | 33km/h | 4093m | -9.8m/s | 0°C | 0% | 0hPa | 0V | 00:00:00 | 00:00:00 | 00:00:00 | |
| OM5KV | 2026-09-02 06:37:27 | 48.75541 | 18.69801 | 104° | 33km/h | 4155m | -9.3m/s | -5.7°C | 0% | 0hPa | 0V | 00:00:00 | 00:00:00 | 00:00:00 | |
| OE3JTB-15 | 2026-09-02 06:37:25 | 48.75545 | 18.69777 | 99° | 33km/h | 4184m | -8.6m/s | 0°C | 0% | 0hPa | 0V | 00:00:00 | 00:00:00 | 00:00:00 | |
| OM5KV | 2026-09-02 06:37:11 | 48.75568 | 18.69595 | 102° | 33km/h | 4314m | -10.7m/s | -6.6°C | 0% | 0hPa | 0V | 00:00:00 | 00:00:00 | 00:00:00 | |
| PETON7-10 | 2026-09-02 06:37:04 | 48.75579 | 18.69523 | 105° | 33km/h | 4381m | -9.0m/s | 0°C | 0% | 0hPa | 0V | 00:00:00 | 00:00:00 | 00:00:00 | |
| OM5KV | 2026-09-02 06:37:03 | 48.75581 | 18.69510 | 105° | 33km/h | 4381m | -9.1m/s | -6.9°C | 0% | 0hPa | 0V | 00:00:00 | 00:00:00 | 00:00:00 | |
| OE3JTB-15 | 2026-09-02 06:36:56 | 48.75597 | 18.69429 | 111° | 33km/h | 4453m | -9.1m/s | 0°C | 0% | 0hPa | 0V | 00:00:00 | 00:00:00 | 00:00:00 | |
| OM5KV | 2026-09-02 06:36:50 | 48.75615 | 18.69358 | 114° | 33km/h | 4507m | -10.7m/s | -7.8°C | 0% | 0hPa | 0V | 00:00:00 | 00:00:00 | 00:00:00 | |
| PETON7-10 | 2026-09-02 06:36:49 | 48.75618 | 18.69346 | 112° | 33km/h | 4528m | -11.8m/s | 0°C | 0% | 0hPa | 0V | 00:00:00 | 00:00:00 | 00:00:00 | |
| OM5KV | 2026-09-02 06:36:44 | 48.75635 | 18.69288 | 116° | 33km/h | 4572m | -9.3m/s | -8.2°C | 0% | 0hPa | 0V | 00:00:00 | 00:00:00 | 00:00:00 | |
| OM5KV | 2026-09-02 06:36:39 | 48.75657 | 18.69217 | 117° | 35km/h | 4631m | -8.8m/s | -8.6°C | 0% | 0hPa | 0V | 00:00:00 | 00:00:00 | 00:00:00 | |
| PETON7-10 | 2026-09-02 06:36:34 | 48.75672 | 18.69169 | 114° | 33km/h | 4685m | -10.4m/s | 0°C | 0% | 0hPa | 0V | 00:00:00 | 00:00:00 | 00:00:00 | |
| OM5KV | 2026-09-02 06:36:33 | 48.75675 | 18.69158 | 116° | 33km/h | 4685m | -10.4m/s | -9.0°C | 0% | 0hPa | 0V | 00:00:00 | 00:00:00 | 00:00:00 | |
| OE3JTB-15 | 2026-09-02 06:36:27 | 48.75695 | 18.69087 | 113° | 35km/h | 4757m | -9.5m/s | 0°C | 0% | 0hPa | 0V | 00:00:00 | 00:00:00 | 00:00:00 | |
| OM5KV | 2026-09-02 06:36:26 | 48.75698 | 18.69076 | 114° | 33km/h | 4757m | -9.6m/s | -9.5°C | 0% | 0hPa | 0V | 00:00:00 | 00:00:00 | 00:00:00 | |
| ATIDSZ-14 | 2026-09-02 06:36:24 | 48.75704 | 18.69053 | 111° | 33km/h | 4775m | -7.4m/s | -9.7°C | 0% | 0hPa | 0V | 00:00:00 | 00:00:00 | 00:00:00 | |
| OM5KV | 2026-09-02 06:36:20 | 48.75714 | 18.69006 | 109° | 31km/h | 4812m | -9.9m/s | -10.0°C | 0% | 0hPa | 0V | 00:00:00 | 00:00:00 | 00:00:00 | |
| PETON7-10 | 2026-09-02 06:36:19 | 48.75717 | 18.68995 | 108° | 35km/h | 4831m | -9.0m/s | 0°C | 0% | 0hPa | 0V | 00:00:00 | 00:00:00 | 00:00:00 | |
| OM5KV | 2026-09-02 06:36:14 | 48.75728 | 18.68936 | 109° | 35km/h | 4873m | -10.9m/s | -10.4°C | 0% | 0hPa | 0V | 00:00:00 | 00:00:00 | 00:00:00 | |
| OM5KV | 2026-09-02 06:36:08 | 48.75742 | 18.68860 | 104° | 35km/h | 4937m | -10.8m/s | -10.8°C | 0% | 0hPa | 0V | 00:00:00 | 00:00:00 | 00:00:00 | |
| PETON7-10 | 2026-09-02 06:36:04 | 48.75751 | 18.68807 | 106° | 40km/h | 4984m | -9.0m/s | 0°C | 0% | 0hPa | 0V | 00:00:00 | 00:00:00 | 00:00:00 | |
| OM5KV | 2026-09-02 06:36:03 | 48.75753 | 18.68793 | 104° | 37km/h | 4984m | -9.0m/s | -11.3°C | 0% | 0hPa | 0V | 00:00:00 | 00:00:00 | 00:00:00 | |
| OE3JTB-15 | 2026-09-02 06:35:58 | 48.75765 | 18.68723 | 106° | 46km/h | 5040m | -9.6m/s | 0°C | 0% | 0hPa | 0V | 00:00:00 | 00:00:00 | 00:00:00 | |
| OM5KV | 2026-09-02 06:35:56 | 48.75770 | 18.68694 | 107° | 40km/h | 5050m | -9.5m/s | -11.9°C | 0% | 0hPa | 0V | 00:00:00 | 00:00:00 | 00:00:00 | |
| OM5KV | 2026-09-02 06:35:50 | 48.75786 | 18.68604 | 106° | 42km/h | 5104m | -10.0m/s | -12.4°C | 0% | 0hPa | 0V | 00:00:00 | 00:00:00 | 00:00:00 | |
| PETON7-10 | 2026-09-02 06:35:49 | 48.75789 | 18.68588 | 104° | 46km/h | 5123m | -8.9m/s | 0°C | 0% | 0hPa | 0V | 00:00:00 | 00:00:00 | 00:00:00 | |
| OM5KV | 2026-09-02 06:35:44 | 48.75801 | 18.68504 | 103° | 46km/h | 5159m | -9.7m/s | -12.8°C | 0% | 0hPa | 0V | 00:00:00 | 00:00:00 | 00:00:00 | |
| ATIDSZ-14 | 2026-09-02 06:35:38 | 48.75815 | 18.68381 | 99° | 47km/h | 5231m | -10.4m/s | -13.3°C | 0% | 0hPa | 0V | 00:00:00 | 00:00:00 | 00:00:00 | |
| PETON7-10 | 2026-09-02 06:35:34 | 48.75820 | 18.68327 | 97° | 51km/h | 5265m | -10.0m/s | 0°C | 0% | 0hPa | 0V | 00:00:00 | 00:00:00 | 00:00:00 | |
| OM5KV | 2026-09-02 06:35:33 | 48.75821 | 18.68308 | 97° | 47km/h | 5265m | -10.0m/s | -13.7°C | 0% | 0hPa | 0V | 00:00:00 | 00:00:00 | 00:00:00 | |
| OE3JTB-15 | 2026-09-02 06:35:29 | 48.75826 | 18.68234 | 94° | 53km/h | 5313m | -10.6m/s | 0°C | 0% | 0hPa | 0V | 00:00:00 | 00:00:00 | 00:00:00 | |
| OM5KV | 2026-09-02 06:35:27 | 48.75827 | 18.68195 | 94° | 51km/h | 5323m | -9.5m/s | -20.4°C | 0% | 0hPa | 0V | 00:00:00 | 00:00:00 | 00:00:00 | |
| PETON7-10 | 2026-09-02 06:35:19 | 48.75829 | 18.68038 | 90° | 55km/h | 5410m | -9.1m/s | 0°C | 0% | 0hPa | 0V | 00:00:00 | 00:00:00 | 00:00:00 | |
| ATIDSZ-14 | 2026-09-02 06:35:17 | 48.75827 | 18.67977 | 88° | 53km/h | 5428m | -8.2m/s | -14.8°C | 0% | 0hPa | 0V | 00:00:00 | 00:00:00 | 00:00:00 | |
| OM5KV | 2026-09-02 06:35:06 | 48.75814 | 18.67769 | 85° | 55km/h | 5518m | -8.7m/s | -15.3°C | 0% | 0hPa | 0V | 00:00:00 | 00:00:00 | 00:00:00 | |
| PETON7-10 | 2026-09-02 06:35:04 | 48.75811 | 18.67728 | 86° | 55km/h | 5546m | -11.1m/s | 0°C | 0% | 0hPa | 0V | 00:00:00 | 00:00:00 | 00:00:00 | |
| OE3JTB-15 | 2026-09-02 06:35:00 | 48.75805 | 18.67645 | 85° | 55km/h | 5589m | -11.0m/s | 0°C | 0% | 0hPa | 0V | 00:00:00 | 00:00:00 | 00:00:00 | |
| ATIDSZ-14 | 2026-09-02 06:34:55 | 48.75797 | 18.67542 | 83° | 55km/h | 5631m | -8.3m/s | -16.2°C | 0% | 0hPa | 0V | 00:00:00 | 00:00:00 | 00:00:00 | |
| PETON7-10 | 2026-09-02 06:34:49 | 48.75785 | 18.67414 | 84° | 55km/h | 5693m | -9.3m/s | 0°C | 0% | 0hPa | 0V | 00:00:00 | 00:00:00 | 00:00:00 | |
| OM5KV | 2026-09-02 06:34:45 | 48.75777 | 18.67330 | 81° | 55km/h | 5720m | -10.4m/s | -16.5°C | 0% | 0hPa | 0V | 00:00:00 | 00:00:00 | 00:00:00 | |
| OM5KV | 2026-09-02 06:34:39 | 48.75764 | 18.67205 | 83° | 55km/h | 5781m | -8.4m/s | -16.9°C | 0% | 0hPa | 0V | 00:00:00 | 00:00:00 | 00:00:00 | |
| OM5KV | 2026-09-02 06:34:34 | 48.75754 | 18.67077 | 84° | 57km/h | 5836m | -11.3m/s | -17.2°C | 0% | 0hPa | 0V | 00:00:00 | 00:00:00 | 00:00:00 | |
| ATIDSZ-14 | 2026-09-02 06:34:32 | 48.75752 | 18.67056 | 85° | 57km/h | 5847m | -10.7m/s | -17.2°C | 0% | 0hPa | 0V | 00:00:00 | 00:00:00 | 00:00:00 | |
| OE3JTB-15 | 2026-09-02 06:34:31 | 48.75750 | 18.67035 | 84° | 57km/h | 5866m | -9.0m/s | 0°C | 0% | 0hPa | 0V | 00:00:00 | 00:00:00 | 00:00:00 | |
| OM5KV | 2026-09-02 06:34:24 | 48.75739 | 18.66887 | 85° | 55km/h | 5923m | -11.0m/s | -17.8°C | 0% | 0hPa | 0V | 00:00:00 | 00:00:00 | 00:00:00 | |
| OM5KV | 2026-09-02 06:34:19 | 48.75730 | 18.66762 | 83° | 55km/h | 5990m | -9.7m/s | -18.2°C | 0% | 0hPa | 0V | 00:00:00 | 00:00:00 | 00:00:00 | |
| OM5KV | 2026-09-02 06:34:12 | 48.75717 | 18.66634 | 81° | 57km/h | 6047m | -8.5m/s | -18.5°C | 0% | 0hPa | 0V | 00:00:00 | 00:00:00 | 00:00:00 | |
| ATIDSZ-14 | 2026-09-02 06:34:09 | 48.75710 | 18.66569 | 79° | 58km/h | 6077m | -10.2m/s | -18.5°C | 0% | 0hPa | 0V | 00:00:00 | 00:00:00 | 00:00:00 | |
| PETON7-10 | 2026-09-02 06:34:04 | 48.75695 | 18.66460 | 81° | 55km/h | 6140m | -11.3m/s | 0°C | 0% | 0hPa | 0V | 00:00:00 | 00:00:00 | 00:00:00 | |
| OE3JTB-15 | 2026-09-02 06:34:02 | 48.75690 | 18.66419 | 79° | 53km/h | 6163m | -11.1m/s | 0°C | 0% | 0hPa | 0V | 00:00:00 | 00:00:00 | 00:00:00 | |
| OM5KV | 2026-09-02 06:33:58 | 48.75678 | 18.66339 | 76° | 57km/h | 6196m | -11.3m/s | -19.6°C | 0% | 0hPa | 0V | 00:00:00 | 00:00:00 | 00:00:00 | |
| ATIDSZ-14 | 2026-09-02 06:33:49 | 48.75645 | 18.66137 | 78° | 53km/h | 6306m | -11.0m/s | -20.3°C | 0% | 0hPa | 0V | 00:00:00 | 00:00:00 | 00:00:00 | |
| OM5KV | 2026-09-02 06:33:46 | 48.75640 | 18.66096 | 81° | 53km/h | 6327m | -10.9m/s | -20.4°C | 0% | 0hPa | 0V | 00:00:00 | 00:00:00 | 00:00:00 | |
| OM5KV | 2026-09-02 06:33:41 | 48.75628 | 18.65998 | 82° | 53km/h | 6376m | -9.2m/s | -20.8°C | 0% | 0hPa | 0V | 00:00:00 | 00:00:00 | 00:00:00 | |
| OM5KV | 2026-09-02 06:33:35 | 48.75615 | 18.65877 | 82° | 53km/h | 6437m | -11.2m/s | -21.2°C | 0% | 0hPa | 0V | 00:00:00 | 00:00:00 | 00:00:00 | |
| PETON7-10 | 2026-09-02 06:33:34 | 48.75613 | 18.65856 | 83° | 60km/h | 6459m | -9.6m/s | 0°C | 0% | 0hPa | 0V | 00:00:00 | 00:00:00 | 00:00:00 | |
| OE3JTB-15 | 2026-09-02 06:33:33 | 48.75611 | 18.65835 | 82° | 62km/h | 6467m | -7.3m/s | 0°C | 0% | 0hPa | 0V | 00:00:00 | 00:00:00 | 00:00:00 | |
| OM5KV | 2026-09-02 06:33:30 | 48.75605 | 18.65769 | 83° | 60km/h | 6487m | -11.0m/s | -21.4°C | 0% | 0hPa | 0V | 00:00:00 | 00:00:00 | 00:00:00 | |
| ATIDSZ-14 | 2026-09-02 06:33:28 | 48.75600 | 18.65723 | 81° | 60km/h | 6509m | -9.4m/s | -21.6°C | 0% | 0hPa | 0V | 00:00:00 | 00:00:00 | 00:00:00 | |
| OM5KV | 2026-09-02 06:33:24 | 48.75587 | 18.65607 | 83° | 62km/h | 6563m | -10.8m/s | -22.0°C | 0% | 0hPa | 0V | 00:00:00 | 00:00:00 | 00:00:00 | |
| PETON7-10 | 2026-09-02 06:33:19 | 48.75578 | 18.65512 | 82° | 62km/h | 6617m | -10.5m/s | 0°C | 0% | 0hPa | 0V | 00:00:00 | 00:00:00 | 00:00:00 | |
| ATIDSZ-14 | 2026-09-02 06:33:08 | 48.75550 | 18.65229 | 83° | 62km/h | 6721m | -9.5m/s | -23.1°C | 0% | 0hPa | 0V | 00:00:00 | 00:00:00 | 00:00:00 | |
| OE3JTB-15 | 2026-09-02 06:33:04 | 48.75543 | 18.65158 | 81° | 64km/h | 6757m | -8.9m/s | 0°C | 0% | 0hPa | 0V | 00:00:00 | 00:00:00 | 00:00:00 | |
| PETON7-10 | 2026-09-02 06:32:49 | 48.75494 | 18.64812 | 76° | 66km/h | 6897m | -9.3m/s | 0°C | 0% | 0hPa | 0V | 00:00:00 | 00:00:00 | 00:00:00 | |
| ATIDSZ-14 | 2026-09-02 06:32:47 | 48.75486 | 18.64764 | 77° | 64km/h | 6906m | -8.7m/s | -23.9°C | 0% | 0hPa | 0V | 00:00:00 | 00:00:00 | 00:00:00 | |
| OE3JTB-15 | 2026-09-02 06:32:35 | 48.75429 | 18.64479 | 71° | 66km/h | 7027m | -8.8m/s | 0°C | 0% | 0hPa | 0V | 00:00:00 | 00:00:00 | 00:00:00 | |
| PETON7-10 | 2026-09-02 06:32:34 | 48.75424 | 18.64455 | 71° | 64km/h | 7036m | -7.7m/s | 0°C | 0% | 0hPa | 0V | 00:00:00 | 00:00:00 | 00:00:00 | |
| ATIDSZ-14 | 2026-09-02 06:32:26 | 48.75381 | 18.64268 | 74° | 64km/h | 7102m | -8.1m/s | -25.1°C | 0% | 0hPa | 0V | 00:00:00 | 00:00:00 | 00:00:00 | |
| PETON7-10 | 2026-09-02 06:32:19 | 48.75346 | 18.64105 | 73° | 66km/h | 7177m | -8.7m/s | 0°C | 0% | 0hPa | 0V | 00:00:00 | 00:00:00 | 00:00:00 | |
| OE3JTB-15 | 2026-09-02 06:32:06 | 48.75277 | 18.63795 | 70° | 71km/h | 7294m | -8.7m/s | 0°C | 0% | 0hPa | 0V | 00:00:00 | 00:00:00 | 00:00:00 | |
| PETON7-10 | 2026-09-02 06:32:04 | 48.75266 | 18.63747 | 70° | 69km/h | 7311m | -8.8m/s | 0°C | 0% | 0hPa | 0V | 00:00:00 | 00:00:00 | 00:00:00 | |
| PETON7-10 | 2026-09-02 06:31:49 | 48.75178 | 18.63369 | 72° | 73km/h | 7441m | -8.1m/s | 0°C | 0% | 0hPa | 0V | 00:00:00 | 00:00:00 | 00:00:00 | |
| ATIDSZ-14 | 2026-09-02 06:31:46 | 48.75156 | 18.63262 | 75° | 73km/h | 7472m | -9.9m/s | -27.2°C | 0% | 0hPa | 0V | 00:00:00 | 00:00:00 | 00:00:00 | |
| OE3JTB-15 | 2026-09-02 06:31:37 | 48.75114 | 18.63044 | 75° | 78km/h | 7558m | -12.1m/s | 0°C | 0% | 0hPa | 0V | 00:00:00 | 00:00:00 | 00:00:00 | |
| PETON7-10 | 2026-09-02 06:31:34 | 48.75099 | 18.62962 | 75° | 78km/h | 7589m | -10.4m/s | 0°C | 0% | 0hPa | 0V | 00:00:00 | 00:00:00 | 00:00:00 | |
| ATIDSZ-14 | 2026-09-02 06:31:24 | 48.75042 | 18.62679 | 74° | 80km/h | 7680m | -7.5m/s | -28.6°C | 0% | 0hPa | 0V | 00:00:00 | 00:00:00 | 00:00:00 | |
| PETON7-10 | 2026-09-02 06:31:19 | 48.75012 | 18.62533 | 74° | 82km/h | 7737m | -9.3m/s | 0°C | 0% | 0hPa | 0V | 00:00:00 | 00:00:00 | 00:00:00 | |
| OE3JTB-15 | 2026-09-02 06:31:08 | 48.74944 | 18.62207 | 73° | 84km/h | 7833m | -12.1m/s | 0°C | 0% | 0hPa | 0V | 00:00:00 | 00:00:00 | 00:00:00 | |
| PETON7-10 | 2026-09-02 06:31:04 | 48.74918 | 18.62086 | 72° | 84km/h | 7874m | -9.1m/s | 0°C | 0% | 0hPa | 0V | 00:00:00 | 00:00:00 | 00:00:00 | |
| OE3OSB-13 | 2026-09-02 06:31:02 | 48.74898 | 18.61995 | 72° | 84km/h | 7894m | -10.1m/s | -30.1°C | -1.0% | -1.0hPa | 0V | 00:00:00 | 00:00:00 | 00:00:00 | |
| PETON7-10 | 2026-09-02 06:30:49 | 48.74819 | 18.61630 | 71° | 84km/h | 8046m | -12.3m/s | 0°C | 0% | 0hPa | 0V | 00:00:00 | 00:00:00 | 00:00:00 | |
| ATIDSZ-14 | 2026-09-02 06:30:43 | 48.74782 | 18.61442 | 75° | 84km/h | 8102m | -10.9m/s | -31.7°C | 0% | 0hPa | 0V | 00:00:00 | 00:00:00 | 00:00:00 | |
| OE3JTB-15 | 2026-09-02 06:30:39 | 48.74757 | 18.61322 | 70° | 78km/h | 8156m | -11.6m/s | 0°C | 0% | 0hPa | 0V | 00:00:00 | 00:00:00 | 00:00:00 | |
| PETON7-10 | 2026-09-02 06:30:34 | 48.74724 | 18.61169 | 75° | 78km/h | 8211m | -12.0m/s | 0°C | 0% | 0hPa | 0V | 00:00:00 | 00:00:00 | 00:00:00 | |
| ATIDSZ-14 | 2026-09-02 06:30:23 | 48.74665 | 18.60848 | 75° | 77km/h | 8322m | -10.9m/s | -33.5°C | 0% | 0hPa | 0V | 00:00:00 | 00:00:00 | 00:00:00 | |
| PETON7-10 | 2026-09-02 06:30:19 | 48.74644 | 18.60734 | 75° | 73km/h | 8377m | -10.5m/s | 0°C | 0% | 0hPa | 0V | 00:00:00 | 00:00:00 | 00:00:00 | |
| OE3JTB-15 | 2026-09-02 06:30:10 | 48.74598 | 18.60492 | 72° | 75km/h | 8478m | -11.8m/s | 0°C | 0% | 0hPa | 0V | 00:00:00 | 00:00:00 | 00:00:00 | |
| PETON7-10 | 2026-09-02 06:30:04 | 48.74563 | 18.60331 | 73° | 75km/h | 8541m | -10.5m/s | 0°C | 0% | 0hPa | 0V | 00:00:00 | 00:00:00 | 00:00:00 | |
| PETON7-10 | 2026-09-02 06:29:49 | 48.74470 | 18.59928 | 71° | 77km/h | 8714m | -11.3m/s | 0°C | 0% | 0hPa | 0V | 00:00:00 | 00:00:00 | 00:00:00 | |
| ATIDSZ-14 | 2026-09-02 06:29:42 | 48.74425 | 18.59737 | 71° | 77km/h | 8780m | -12.0m/s | -37.0°C | 0% | 0hPa | 0V | 00:00:00 | 00:00:00 | 00:00:00 | |
| OE3JTB-15 | 2026-09-02 06:29:41 | 48.74418 | 18.59710 | 71° | 75km/h | 8803m | -11.7m/s | 0°C | 0% | 0hPa | 0V | 00:00:00 | 00:00:00 | 00:00:00 | |
| PETON7-10 | 2026-09-02 06:29:34 | 48.74373 | 18.59517 | 72° | 75km/h | 8880m | -9.5m/s | 0°C | 0% | 0hPa | 0V | 00:00:00 | 00:00:00 | 00:00:00 | |
| ATIDSZ-14 | 2026-09-02 06:29:22 | 48.74296 | 18.59158 | 74° | 69km/h | 9014m | -11.5m/s | -38.6°C | 0% | 0hPa | 0V | 00:00:00 | 00:00:00 | 00:00:00 | |
| PETON7-10 | 2026-09-02 06:29:19 | 48.74286 | 18.59108 | 75° | 73km/h | 9048m | -10.5m/s | 0°C | 0% | 0hPa | 0V | 00:00:00 | 00:00:00 | 00:00:00 | |
| GYPAP8-17 | 2026-09-02 06:29:13 | 48.74253 | 18.58925 | 75° | 73km/h | 9116m | -10.6m/s | -39.3°C | 0% | 0hPa | 0V | 00:00:00 | 00:00:00 | 00:00:00 | |
| OE3JTB-15 | 2026-09-02 06:29:12 | 48.74253 | 18.58925 | 75° | 77km/h | 9127m | -11.1m/s | 0°C | 0% | 0hPa | 0V | 00:00:00 | 00:00:00 | 00:00:00 | |
| PETON7-10 | 2026-09-02 06:29:04 | 48.74216 | 18.58701 | 79° | 77km/h | 9218m | -11.5m/s | 0°C | 0% | 0hPa | 0V | 00:00:00 | 00:00:00 | 00:00:00 | |
| ATIDSZ-14 | 2026-09-02 06:29:01 | 48.74204 | 18.58617 | 77° | 73km/h | 9241m | -10.8m/s | -40.0°C | 0% | 0hPa | 0V | 00:00:00 | 00:00:00 | 00:00:00 | |
| PETON7-10 | 2026-09-02 06:28:49 | 48.74154 | 18.58273 | 78° | 77km/h | 9379m | -9.5m/s | 0°C | 0% | 0hPa | 0V | 00:00:00 | 00:00:00 | 00:00:00 | |
| OE3JTB-15 | 2026-09-02 06:28:43 | 48.74136 | 18.58095 | 84° | 78km/h | 9436m | -10.2m/s | 0°C | 0% | 0hPa | 0V | 00:00:00 | 00:00:00 | 00:00:00 | |
| ATIDSZ-14 | 2026-09-02 06:28:40 | 48.74129 | 18.58006 | 84° | 77km/h | 9458m | -10.5m/s | -41.6°C | 0% | 0hPa | 0V | 00:00:00 | 00:00:00 | 00:00:00 | |
| PETON7-10 | 2026-09-02 06:28:34 | 48.74109 | 18.57834 | 80° | 78km/h | 9539m | -9.6m/s | 0°C | 0% | 0hPa | 0V | 00:00:00 | 00:00:00 | 00:00:00 | |
| PETON7-10 | 2026-09-02 06:28:19 | 48.74051 | 18.57390 | 78° | 77km/h | 9713m | -11.5m/s | 0°C | 0% | 0hPa | 0V | 00:00:00 | 00:00:00 | 00:00:00 | |
| OE3JTB-15 | 2026-09-02 06:28:14 | 48.74030 | 18.57247 | 78° | 80km/h | 9775m | -11.6m/s | 0°C | 0% | 0hPa | 0V | 00:00:00 | 00:00:00 | 00:00:00 | |
| PETON7-10 | 2026-09-02 06:28:04 | 48.73984 | 18.56958 | 76° | 80km/h | 9884m | -10.0m/s | 0°C | 0% | 0hPa | 0V | 00:00:00 | 00:00:00 | 00:00:00 | |
| ATIDSZ-14 | 2026-09-02 06:27:57 | 48.73948 | 18.56755 | 75° | 80km/h | 9952m | -11.4m/s | -45.3°C | 0% | 0hPa | 0V | 00:00:00 | 00:00:00 | 00:00:00 | |
| OE5DRO-10 | 2026-09-02 06:27:51 | 48.73914 | 18.56573 | 75° | 86km/h | 10029m | -11.2m/s | 0°C | 0% | 0hPa | 0V | 00:00:00 | 00:00:00 | 00:00:00 | |
| PETON7-10 | 2026-09-02 06:27:49 | 48.73903 | 18.56511 | 75° | 86km/h | 10053m | -12.6m/s | 0°C | 0% | 0hPa | 0V | 00:00:00 | 00:00:00 | 00:00:00 | |
| ATIDSZ-14 | 2026-09-02 06:27:37 | 48.73834 | 18.56133 | 76° | 88km/h | 10173m | -10.0m/s | -47.1°C | 0% | 0hPa | 0V | 00:00:00 | 00:00:00 | 00:00:00 | |
| PETON7-10 | 2026-09-02 06:27:34 | 48.73819 | 18.56037 | 77° | 88km/h | 10218m | -10.7m/s | 0°C | 0% | 0hPa | 0V | 00:00:00 | 00:00:00 | 00:00:00 | |
| OE5DRO-10 | 2026-09-02 06:27:32 | 48.73808 | 18.55976 | 76° | 88km/h | 10288m | -12.0m/s | 0°C | 0% | 0hPa | 0V | 00:00:00 | 00:00:00 | 00:00:00 | |
| PETON7-10 | 2026-09-02 06:27:19 | 48.73733 | 18.55556 | 74° | 91km/h | 10387m | -12.2m/s | 0°C | 0% | 0hPa | 0V | 00:00:00 | 00:00:00 | 00:00:00 | |
| PG1ADW-2 | 2026-09-02 06:27:16 | 48.73714 | 18.55459 | 73° | 95km/h | 10446m | -11.2m/s | 0°C | 0% | 0hPa | 0V | 00:00:00 | 00:00:00 | 00:00:00 | |
| OE5DRO-10 | 2026-09-02 06:27:11 | 48.73677 | 18.55297 | 72° | 95km/h | 10478m | -10.7m/s | 0°C | 0% | 0hPa | 0V | 00:00:00 | 00:00:00 | 00:00:00 | |
| PETON7-10 | 2026-09-02 06:27:04 | 48.73626 | 18.55057 | 73° | 97km/h | 10554m | -10.3m/s | 0°C | 0% | 0hPa | 0V | 00:00:00 | 00:00:00 | 00:00:00 | |
| ATIDSZ-14 | 2026-09-02 06:26:55 | 48.73550 | 18.54744 | 72° | 95km/h | 10648m | -11.0m/s | -50.1°C | 0% | 0hPa | 0V | 00:00:00 | 00:00:00 | 00:00:00 | |
| PG1ADW-2 | 2026-09-02 06:26:52 | 48.73527 | 18.54639 | 72° | 102km/h | 10693m | -10.5m/s | 0°C | 0% | 0hPa | 0V | 00:00:00 | 00:00:00 | 00:00:00 | |
| PETON7-10 | 2026-09-02 06:26:49 | 48.73503 | 18.54532 | 72° | 104km/h | 10725m | -10.2m/s | 0°C | 0% | 0hPa | 0V | 00:00:00 | 00:00:00 | 00:00:00 | |
| OE3JTB-15 | 2026-09-02 06:26:47 | 48.73486 | 18.54458 | 70° | 104km/h | 10745m | -10.1m/s | 0°C | 0% | 0hPa | 0V | 00:00:00 | 00:00:00 | 00:00:00 | |
| PETON7-10 | 2026-09-02 06:26:34 | 48.73367 | 18.53973 | 71° | 104km/h | 10882m | -12.0m/s | 0°C | 0% | 0hPa | 0V | 00:00:00 | 00:00:00 | 00:00:00 | |
| ATIDSZ-14 | 2026-09-02 06:26:33 | 48.73358 | 18.53935 | 71° | 106km/h | 10882m | -12.1m/s | -51.9°C | 0% | 0hPa | 0V | 00:00:00 | 00:00:00 | 00:00:00 | |
| PG1ADW-2 | 2026-09-02 06:26:32 | 48.73349 | 18.53897 | 71° | 104km/h | 10904m | -11.7m/s | 0°C | 0% | 0hPa | 0V | 00:00:00 | 00:00:00 | 00:00:00 | |
| PETON7-10 | 2026-09-02 06:26:19 | 48.73233 | 18.53408 | 72° | 106km/h | 11058m | -10.8m/s | 0°C | 0% | 0hPa | 0V | 00:00:00 | 00:00:00 | 00:00:00 | |
| OE3JTB-15 | 2026-09-02 06:26:18 | 48.73224 | 18.53371 | 72° | 110km/h | 11069m | -11.5m/s | 0°C | 0% | 0hPa | 0V | 00:00:00 | 00:00:00 | 00:00:00 | |
| PG1ADW-2 | 2026-09-02 06:26:12 | 48.73171 | 18.53144 | 71° | 111km/h | 11135m | -10.2m/s | 0°C | 0% | 0hPa | 0V | 00:00:00 | 00:00:00 | 00:00:00 | |
| PETON7-10 | 2026-09-02 06:26:04 | 48.73093 | 18.52834 | 68° | 113km/h | 11230m | -13.9m/s | 0°C | 0% | 0hPa | 0V | 00:00:00 | 00:00:00 | 00:00:00 | |
| PG1ADW-2 | 2026-09-02 06:25:52 | 48.72967 | 18.52350 | 71° | 113km/h | 11414m | -11.7m/s | 0°C | 0% | 0hPa | 0V | 00:00:00 | 00:00:00 | 00:00:00 | |
| OE5DRO-10 | 2026-09-02 06:25:51 | 48.72957 | 18.52308 | 70° | 113km/h | 11379m | -11.8m/s | 0°C | 0% | 0hPa | 0V | 00:00:00 | 00:00:00 | 00:00:00 | |
| PETON7-10 | 2026-09-02 06:25:49 | 48.72936 | 18.52224 | 71° | 113km/h | 11414m | -11.7m/s | 0°C | 0% | 0hPa | 0V | 00:00:00 | 00:00:00 | 00:00:00 | |
| GYPAP8-17 | 2026-09-02 06:25:36 | 48.72818 | 18.51692 | 72° | 110km/h | 11553m | -10.6m/s | -55.4°C | 0% | 0hPa | 0V | 00:00:00 | 00:00:00 | 00:00:00 | |
| PETON7-10 | 2026-09-02 06:25:34 | 48.72800 | 18.51612 | 72° | 108km/h | 11588m | -11.8m/s | 0°C | 0% | 0hPa | 0V | 00:00:00 | 00:00:00 | 00:00:00 | |
| ATIDSZ-14 | 2026-09-02 06:25:30 | 48.72764 | 18.51446 | 74° | 115km/h | 11624m | -12.1m/s | -55.6°C | 0% | 0hPa | 0V | 00:00:00 | 00:00:00 | 00:00:00 | |
| OE3JTB-15 | 2026-09-02 06:25:20 | 48.72675 | 18.51062 | 70° | 100km/h | 11769m | -10.8m/s | 0°C | 0% | 0hPa | 0V | 00:00:00 | 00:00:00 | 00:00:00 | |
| PETON7-10 | 2026-09-02 06:25:19 | 48.72667 | 18.51027 | 72° | 102km/h | 11781m | -11.8m/s | 0°C | 0% | 0hPa | 0V | 00:00:00 | 00:00:00 | 00:00:00 | |
| OE5DRO-10 | 2026-09-02 06:25:10 | 48.72598 | 18.50707 | 73° | 102km/h | 11883m | -10.6m/s | 0°C | 0% | 0hPa | 0V | 00:00:00 | 00:00:00 | 00:00:00 | |
| PG1ADW-2 | 2026-09-02 06:25:09 | 48.72590 | 18.50668 | 73° | 100km/h | 11894m | -10.8m/s | 0°C | 0% | 0hPa | 0V | 00:00:00 | 00:00:00 | 00:00:00 | |
| OE3JTB-15 | 2026-09-02 06:24:51 | 48.72447 | 18.50009 | 72° | 97km/h | 12094m | -13.3m/s | 0°C | 0% | 0hPa | 0V | 00:00:00 | 00:00:00 | 00:00:00 | |
| PETON7-10 | 2026-09-02 06:24:49 | 48.72431 | 18.49942 | 71° | 99km/h | 12119m | -12.2m/s | 0°C | 0% | 0hPa | 0V | 00:00:00 | 00:00:00 | 00:00:00 | |
| PETON7-10 | 2026-09-02 06:24:34 | 48.72325 | 18.49402 | 81° | 97km/h | 12284m | -12.0m/s | 0°C | 0% | 0hPa | 0V | 00:00:00 | 00:00:00 | 00:00:00 | |
| OE5DRO-10 | 2026-09-02 06:24:32 | 48.72317 | 18.49329 | 81° | 95km/h | 12308m | -11.3m/s | 0°C | 0% | 0hPa | 0V | 00:00:00 | 00:00:00 | 00:00:00 | |
| PG1ADW-2 | 2026-09-02 06:24:29 | 48.72307 | 18.49219 | 84° | 93km/h | 12346m | -12.1m/s | 0°C | 0% | 0hPa | 0V | 00:00:00 | 00:00:00 | 00:00:00 | |
| ATIDSZ-14 | 2026-09-02 06:24:28 | 48.72304 | 18.49182 | 84° | 97km/h | 12346m | -12.2m/s | -52.3°C | 0% | 0hPa | 0V | 00:00:00 | 00:00:00 | 00:00:00 | |
| OE3JTB-15 | 2026-09-02 06:24:22 | 48.72282 | 18.48963 | 82° | 89km/h | 12424m | -12.5m/s | 0°C | 0% | 0hPa | 0V | 00:00:00 | 00:00:00 | 00:00:00 | |
| PETON7-10 | 2026-09-02 06:24:19 | 48.72271 | 18.48856 | 81° | 91km/h | 12460m | -12.7m/s | 0°C | 0% | 0hPa | 0V | 00:00:00 | 00:00:00 | 00:00:00 | |
| POL1PZ | 2026-09-02 06:24:14 | 48.72250 | 18.48688 | 79° | 89km/h | 12506m | -9.8m/s | -52.6°C | 0% | 0hPa | 0V | 00:00:00 | 00:00:00 | 00:00:00 | |
| OE5DRO-10 | 2026-09-02 06:24:13 | 48.72245 | 18.48654 | 78° | 88km/h | 12526m | -11.4m/s | 0°C | 0% | 0hPa | 0V | 00:00:00 | 00:00:00 | 00:00:00 | |
| PG1ADW-2 | 2026-09-02 06:24:09 | 48.72226 | 18.48516 | 80° | 88km/h | 12572m | -12.9m/s | 0°C | 0% | 0hPa | 0V | 00:00:00 | 00:00:00 | 00:00:00 | |
| ATIDSZ-14 | 2026-09-02 06:24:07 | 48.72218 | 18.48447 | 81° | 89km/h | 12585m | -12.2m/s | -52.4°C | 0% | 0hPa | 0V | 00:00:00 | 00:00:00 | 00:00:00 | |
| PETON7-10 | 2026-09-02 06:24:04 | 48.72205 | 18.48349 | 80° | 88km/h | 12635m | -12.3m/s | 0°C | 0% | 0hPa | 0V | 00:00:00 | 00:00:00 | 00:00:00 | |
| OE5DRO-10 | 2026-09-02 06:23:54 | 48.72167 | 18.48018 | 81° | 84km/h | 12749m | -11.6m/s | 0°C | 0% | 0hPa | 0V | 00:00:00 | 00:00:00 | 00:00:00 | |
| OE3JTB-15 | 2026-09-02 06:23:53 | 48.72164 | 18.47986 | 83° | 86km/h | 12760m | -10.9m/s | 0°C | 0% | 0hPa | 0V | 00:00:00 | 00:00:00 | 00:00:00 | |
| PETON7-10 | 2026-09-02 06:23:49 | 48.72152 | 18.47854 | 83° | 84km/h | 12806m | -11.3m/s | 0°C | 0% | 0hPa | 0V | 00:00:00 | 00:00:00 | 00:00:00 | |
| ATIDSZ-14 | 2026-09-02 06:23:45 | 48.72140 | 18.47724 | 82° | 86km/h | 12843m | -11.3m/s | -51.5°C | 0% | 0hPa | 0V | 00:00:00 | 00:00:00 | 00:00:00 | |
| OE5DRO-10 | 2026-09-02 06:23:35 | 48.72101 | 18.47411 | 79° | 86km/h | 12966m | -9.6m/s | 0°C | 0% | 0hPa | 0V | 00:00:00 | 00:00:00 | 00:00:00 | |
| PETON7-10 | 2026-09-02 06:23:34 | 48.72097 | 18.47379 | 79° | 86km/h | 12977m | -12.0m/s | 0°C | 0% | 0hPa | 0V | 00:00:00 | 00:00:00 | 00:00:00 | |
| PG1ADW-2 | 2026-09-02 06:23:29 | 48.72077 | 18.47220 | 81° | 82km/h | 13037m | -11.3m/s | 0°C | 0% | 0hPa | 0V | 00:00:00 | 00:00:00 | 00:00:00 | |
| ATIDSZ-14 | 2026-09-02 06:23:25 | 48.72062 | 18.47090 | 81° | 88km/h | 13070m | -12.1m/s | -51.4°C | 0% | 0hPa | 0V | 00:00:00 | 00:00:00 | 00:00:00 | |
| OE3JTB-15 | 2026-09-02 06:23:24 | 48.72059 | 18.47057 | 82° | 75km/h | 13094m | -11.7m/s | 0°C | 0% | 0hPa | 0V | 00:00:00 | 00:00:00 | 00:00:00 | |
| PETON7-10 | 2026-09-02 06:23:19 | 48.72044 | 18.46894 | 85° | 77km/h | 13159m | -11.1m/s | 0°C | 0% | 0hPa | 0V | 00:00:00 | 00:00:00 | 00:00:00 | |
| OE5DRO-10 | 2026-09-02 06:23:16 | 48.72039 | 18.46799 | 87° | 71km/h | 13195m | -13.0m/s | 0°C | 0% | 0hPa | 0V | 00:00:00 | 00:00:00 | 00:00:00 | |
| PG1ADW-2 | 2026-09-02 06:23:09 | 48.72030 | 18.46593 | 86° | 66km/h | 13282m | -13.1m/s | 0°C | 0% | 0hPa | 0V | 00:00:00 | 00:00:00 | 00:00:00 | |
| PETON7-10 | 2026-09-02 06:23:04 | 48.72019 | 18.46457 | 82° | 66km/h | 13342m | -10.4m/s | 0°C | 0% | 0hPa | 0V | 00:00:00 | 00:00:00 | 00:00:00 | |
| OE5DRO-10 | 2026-09-02 06:22:57 | 48.71996 | 18.46286 | 73° | 66km/h | 13425m | -11.3m/s | 0°C | 0% | 0hPa | 0V | 00:00:00 | 00:00:00 | 00:00:00 | |
| OE3JTB-15 | 2026-09-02 06:22:55 | 48.71986 | 18.46238 | 70° | 69km/h | 13450m | -14.1m/s | 0°C | 0% | 0hPa | 0V | 00:00:00 | 00:00:00 | 00:00:00 | |
| PETON7-10 | 2026-09-02 06:22:49 | 48.71951 | 18.46099 | 68° | 68km/h | 13526m | -10.8m/s | 0°C | 0% | 0hPa | 0V | 00:00:00 | 00:00:00 | 00:00:00 | |
| PG1ADW-2 | 2026-09-02 06:22:48 | 48.71944 | 18.46077 | 66° | 69km/h | 13539m | -13.0m/s | 0°C | 0% | 0hPa | 0V | 00:00:00 | 00:00:00 | 00:00:00 | |
| ATIDSZ-14 | 2026-09-02 06:22:44 | 48.71916 | 18.45982 | 67° | 68km/h | 13575m | -12.5m/s | -51.7°C | 0% | 0hPa | 0V | 00:00:00 | 00:00:00 | 00:00:00 | |
| OE5DRO-10 | 2026-09-02 06:22:38 | 48.71869 | 18.45843 | 64° | 75km/h | 13708m | -12.1m/s | 0°C | 0% | 0hPa | 0V | 00:00:00 | 00:00:00 | 00:00:00 | |
| PETON7-10 | 2026-09-02 06:22:34 | 48.71839 | 18.45746 | 66° | 75km/h | 13720m | -11.0m/s | 0°C | 0% | 0hPa | 0V | 00:00:00 | 00:00:00 | 00:00:00 | |
| PG1ADW-2 | 2026-09-02 06:22:28 | 48.71788 | 18.45597 | 62° | 77km/h | 13794m | -12.1m/s | 0°C | 0% | 0hPa | 0V | 00:00:00 | 00:00:00 | 00:00:00 | |
| OE3JTB-15 | 2026-09-02 06:22:26 | 48.71771 | 18.45544 | 65° | 75km/h | 13817m | -12.2m/s | 0°C | 0% | 0hPa | 0V | 00:00:00 | 00:00:00 | 00:00:00 | |
| ATIDSZ-14 | 2026-09-02 06:22:23 | 48.71747 | 18.45463 | 69° | 77km/h | 13843m | -13.7m/s | -53.1°C | 0% | 0hPa | 0V | 00:00:00 | 00:00:00 | 00:00:00 | |
| PETON7-10 | 2026-09-02 06:22:19 | 48.71723 | 18.45352 | 75° | 75km/h | 13907m | -11.7m/s | 0°C | 0% | 0hPa | 0V | 00:00:00 | 00:00:00 | 00:00:00 | |
| OE5DRO-10 | 2026-09-02 06:22:16 | 48.71708 | 18.45267 | 78° | 73km/h | 13942m | -12.0m/s | 0°C | 0% | 0hPa | 0V | 00:00:00 | 00:00:00 | 00:00:00 | |
| PG1ADW-2 | 2026-09-02 06:22:08 | 48.71683 | 18.45041 | 84° | 75km/h | 14041m | -13.5m/s | 0°C | 0% | 0hPa | 0V | 00:00:00 | 00:00:00 | 00:00:00 | |
| PETON7-10 | 2026-09-02 06:22:04 | 48.71675 | 18.44935 | 83° | 75km/h | 14092m | -12.6m/s | 0°C | 0% | 0hPa | 0V | 00:00:00 | 00:00:00 | 00:00:00 | |
| ATIDSZ-14 | 2026-09-02 06:22:03 | 48.71672 | 18.44908 | 82° | 71km/h | 14092m | -12.6m/s | -53.8°C | 0% | 0hPa | 0V | 00:00:00 | 00:00:00 | 00:00:00 | |
| OE3JTB-15 | 2026-09-02 06:21:57 | 48.71652 | 18.44746 | 76° | 84km/h | 14179m | -13.6m/s | 0°C | 0% | 0hPa | 0V | 00:00:00 | 00:00:00 | 00:00:00 | |
| PETON7-10 | 2026-09-02 06:21:49 | 48.71601 | 18.44519 | 69° | 86km/h | 14281m | -11.6m/s | 0°C | 0% | 0hPa | 0V | 00:00:00 | 00:00:00 | 00:00:00 | |
| OE5DXL-15 | 2026-09-02 06:21:48 | 48.71592 | 18.44490 | 68° | 84km/h | 14305m | -10.9m/s | 0°C | 0% | 0hPa | 0V | 00:00:00 | 00:00:00 | 00:00:00 | |
| ATIDSZ-14 | 2026-09-02 06:21:42 | 48.71545 | 18.44300 | 74° | 88km/h | 14352m | -13.1m/s | -54.3°C | 0% | 0hPa | 0V | 00:00:00 | 00:00:00 | 00:00:00 | |
| OE5DRO-10 | 2026-09-02 06:21:38 | 48.71523 | 18.44172 | 80° | 82km/h | 14419m | -13.1m/s | 0°C | 0% | 0hPa | 0V | 00:00:00 | 00:00:00 | 00:00:00 | |
| PETON7-10 | 2026-09-02 06:21:34 | 48.71510 | 18.44044 | 85° | 80km/h | 14468m | -12.0m/s | 0°C | 0% | 0hPa | 0V | 00:00:00 | 00:00:00 | 00:00:00 | |
| PG1ADW-2 | 2026-09-02 06:21:28 | 48.71507 | 18.43852 | 93° | 80km/h | 14537m | -11.9m/s | 0°C | 0% | 0hPa | 0V | 00:00:00 | 00:00:00 | 00:00:00 | |
| ATIDSZ-14 | 2026-09-02 06:21:22 | 48.71516 | 18.43669 | 95° | 77km/h | 14599m | -11.1m/s | -53.3°C | 0% | 0hPa | 0V | 00:00:00 | 00:00:00 | 00:00:00 | |
| PETON7-10 | 2026-09-02 06:21:19 | 48.71519 | 18.43584 | 91° | 82km/h | 14645m | -13.9m/s | 0°C | 0% | 0hPa | 0V | 00:00:00 | 00:00:00 | 00:00:00 | |
| OE5DXL-15 | 2026-09-02 06:21:18 | 48.71518 | 18.43556 | 88° | 86km/h | 14659m | -14.8m/s | 0°C | 0% | 0hPa | 0V | 00:00:00 | 00:00:00 | 00:00:00 | |
| GYPAP8-17 | 2026-09-02 06:21:17 | 48.71516 | 18.43495 | 86° | 78km/h | 14673m | -13.2m/s | -53.4°C | 0% | 0hPa | 0V | 00:00:00 | 00:00:00 | 00:00:00 | |
| PG1ADW-2 | 2026-09-02 06:21:09 | 48.71499 | 18.43243 | 87° | 88km/h | 14785m | -10.7m/s | 0°C | 0% | 0hPa | 0V | 00:00:00 | 00:00:00 | 00:00:00 | |
| PETON7-10 | 2026-09-02 06:21:04 | 48.71498 | 18.43113 | 91° | 88km/h | 14831m | -10.8m/s | 0°C | 0% | 0hPa | 0V | 00:00:00 | 00:00:00 | 00:00:00 | |
| OE5DRO-10 | 2026-09-02 06:21:00 | 48.71497 | 18.42980 | 88° | 82km/h | 14908m | -11.8m/s | 0°C | 0% | 0hPa | 0V | 00:00:00 | 00:00:00 | 00:00:00 | |
| OE3JTB-15 | 2026-09-02 06:20:59 | 48.71497 | 18.42946 | 89° | 77km/h | 14887m | -10.8m/s | 0°C | 0% | 0hPa | 0V | 00:00:00 | 00:00:00 | 00:00:00 | |
| POL1PZ | 2026-09-02 06:20:50 | 48.71498 | 18.42643 | 95° | 86km/h | 14985m | -12.9m/s | -51.9°C | 0% | 0hPa | 0V | 00:00:00 | 00:00:00 | 00:00:00 | |
| PETON7-10 | 2026-09-02 06:20:49 | 48.71499 | 18.42610 | 94° | 75km/h | 15010m | -11.6m/s | 0°C | 0% | 0hPa | 0V | 00:00:00 | 00:00:00 | 00:00:00 | |
| PG1ADW-2 | 2026-09-02 06:20:48 | 48.71501 | 18.42578 | 95° | 69km/h | 15023m | -12.9m/s | 0°C | 0% | 0hPa | 0V | 00:00:00 | 00:00:00 | 00:00:00 | |
| OE5DXL-15 | 2026-09-02 06:20:46 | 48.71505 | 18.42516 | 98° | 64km/h | 15047m | -10.8m/s | 0°C | 0% | 0hPa | 0V | 00:00:00 | 00:00:00 | 00:00:00 | |
| ATIDSZ-14 | 2026-09-02 06:20:41 | 48.71525 | 18.42372 | 107° | 75km/h | 15099m | -13.0m/s | -51.6°C | 0% | 0hPa | 0V | 00:00:00 | 00:00:00 | 00:00:00 | |
| OE5DRO-10 | 2026-09-02 06:20:39 | 48.71535 | 18.42318 | 108° | 62km/h | 15132m | -11.0m/s | 0°C | 0% | 0hPa | 0V | 00:00:00 | 00:00:00 | 00:00:00 | |
| PETON7-10 | 2026-09-02 06:20:34 | 48.71559 | 18.42199 | 106° | 60km/h | 15195m | -12.7m/s | 0°C | 0% | 0hPa | 0V | 00:00:00 | 00:00:00 | 00:00:00 | |
| OE3JTB-15 | 2026-09-02 06:20:30 | 48.71572 | 18.42110 | 100° | 53km/h | 15245m | -14.0m/s | 0°C | 0% | 0hPa | 0V | 00:00:00 | 00:00:00 | 00:00:00 | |
| PG1ADW-2 | 2026-09-02 06:20:28 | 48.71577 | 18.42065 | 98° | 55km/h | 15259m | -13.0m/s | 0°C | 0% | 0hPa | 0V | 00:00:00 | 00:00:00 | 00:00:00 | |
| OE5DRO-10 | 2026-09-02 06:20:20 | 48.71590 | 18.41879 | 97° | 47km/h | 15376m | -11.8m/s | 0°C | 0% | 0hPa | 0V | 00:00:00 | 00:00:00 | 00:00:00 | |
| PETON7-10 | 2026-09-02 06:20:19 | 48.71592 | 18.41856 | 97° | 51km/h | 15388m | -11.5m/s | 0°C | 0% | 0hPa | 0V | 00:00:00 | 00:00:00 | 00:00:00 | |
| OE5DXL-15 | 2026-09-02 06:20:16 | 48.71595 | 18.41795 | 92° | 42km/h | 15542m | -13.8m/s | 0°C | 0% | 0hPa | 0V | 00:00:00 | 00:00:00 | 00:00:00 | |
| DO3MHA-11 | 2026-09-02 06:20:11 | 48.71595 | 18.41693 | 93° | 47km/h | 15486m | -12.6m/s | 0°C | 0% | 0hPa | 0V | 00:00:00 | 00:00:00 | 00:00:00 | |
| PG1ADW-2 | 2026-09-02 06:20:05 | 48.71597 | 18.41582 | 89° | 42km/h | 15570m | -15.1m/s | 0°C | 0% | 0hPa | 0V | 00:00:00 | 00:00:00 | 00:00:00 | |
| PETON7-10 | 2026-09-02 06:20:04 | 48.71597 | 18.41566 | 86° | 40km/h | 15585m | -14.5m/s | 0°C | 0% | 0hPa | 0V | 00:00:00 | 00:00:00 | 00:00:00 | |
| DO3MHA-11 | 2026-09-02 06:20:01 | 48.71593 | 18.41520 | 83° | 40km/h | 15623m | -11.3m/s | 0°C | 0% | 0hPa | 0V | 00:00:00 | 00:00:00 | 00:00:00 | |
| OE5DRO-10 | 2026-09-02 06:19:59 | 48.71590 | 18.41489 | 82° | 42km/h | 15651m | -13.3m/s | 0°C | 0% | 0hPa | 0V | 00:00:00 | 00:00:00 | 00:00:00 | |
| DO3MHA-11 | 2026-09-02 06:19:51 | 48.71571 | 18.41368 | 73° | 42km/h | 15760m | -12.4m/s | 0°C | 0% | 0hPa | 0V | 00:00:00 | 00:00:00 | 00:00:00 | |
| PETON7-10 | 2026-09-02 06:19:49 | 48.71565 | 18.41336 | 77° | 44km/h | 15786m | -12.7m/s | 0°C | 0% | 0hPa | 0V | 00:00:00 | 00:00:00 | 00:00:00 | |
| PG1ADW-2 | 2026-09-02 06:19:45 | 48.71556 | 18.41273 | 74° | 46km/h | 15837m | -12.5m/s | 0°C | 0% | 0hPa | 0V | 00:00:00 | 00:00:00 | 00:00:00 | |
| OE5DRO-10 | 2026-09-02 06:19:40 | 48.71539 | 18.41195 | 72° | 47km/h | 15901m | -13.5m/s | 0°C | 0% | 0hPa | 0V | 00:00:00 | 00:00:00 | 00:00:00 | |
| ATIDSZ-14 | 2026-09-02 06:19:39 | 48.71536 | 18.41179 | 75° | 47km/h | 15901m | -13.5m/s | -52.5°C | 0% | 0hPa | 0V | 00:00:00 | 00:00:00 | 00:00:00 | |
| OE5DXL-15 | 2026-09-02 06:19:36 | 48.71529 | 18.41126 | 83° | 49km/h | 15961m | -14.6m/s | 0°C | 0% | 0hPa | 0V | 00:00:00 | 00:00:00 | 00:00:00 | |
| PETON7-10 | 2026-09-02 06:19:34 | 48.71526 | 18.41089 | 81° | 49km/h | 15986m | -12.2m/s | 0°C | 0% | 0hPa | 0V | 00:00:00 | 00:00:00 | 00:00:00 | |
| POL1PZ | 2026-09-02 06:19:33 | 48.71524 | 18.41072 | 82° | 46km/h | 15986m | -12.3m/s | -52.9°C | 0% | 0hPa | 0V | 00:00:00 | 00:00:00 | 00:00:00 | |
| OE3JTB-15 | 2026-09-02 06:19:32 | 48.71522 | 18.41055 | 80° | 49km/h | 16014m | -15.4m/s | 0°C | 0% | 0hPa | 0V | 00:00:00 | 00:00:00 | 00:00:00 | |
| PG1ADW-2 | 2026-09-02 06:19:25 | 48.71509 | 18.40924 | 81° | 49km/h | 16108m | -13.2m/s | 0°C | 0% | 0hPa | 0V | 00:00:00 | 00:00:00 | 00:00:00 | |
| OE5DRO-10 | 2026-09-02 06:19:21 | 48.71495 | 18.40852 | 71° | 49km/h | 16172m | -16.9m/s | 0°C | 0% | 0hPa | 0V | 00:00:00 | 00:00:00 | 00:00:00 | |
| PETON7-10 | 2026-09-02 06:19:19 | 48.71487 | 18.40815 | 75° | 49km/h | 16205m | -15.0m/s | 0°C | 0% | 0hPa | 0V | 00:00:00 | 00:00:00 | 00:00:00 | |
| ATIDSZ-14 | 2026-09-02 06:19:18 | 48.71483 | 18.40795 | 75° | 55km/h | 16205m | -15.0m/s | -53.5°C | 0% | 0hPa | 0V | 00:00:00 | 00:00:00 | 00:00:00 | |
| POL1PZ | 2026-09-02 06:19:08 | 48.71473 | 18.40588 | 88° | 46km/h | 16363m | -13.4m/s | 0°C | 0% | 0hPa | 0V | 00:00:00 | 00:00:00 | 00:00:00 | |
| OE5DXL-15 | 2026-09-02 06:19:06 | 48.71472 | 18.40571 | 84° | 47km/h | 16391m | -13.7m/s | 0°C | 0% | 0hPa | 0V | 00:00:00 | 00:00:00 | 00:00:00 | |
| PG1ADW-2 | 2026-09-02 06:19:05 | 48.71471 | 18.40553 | 84° | 49km/h | 16405m | -15.1m/s | 0°C | 0% | 0hPa | 0V | 00:00:00 | 00:00:00 | 00:00:00 | |
| PETON7-10 | 2026-09-02 06:19:04 | 48.71469 | 18.40536 | 83° | 51km/h | 16419m | -13.1m/s | 0°C | 0% | 0hPa | 0V | 00:00:00 | 00:00:00 | 00:00:00 | |
| OE3JTB-15 | 2026-09-02 06:19:03 | 48.71468 | 18.40517 | 83° | 47km/h | 16433m | -13.0m/s | 0°C | 0% | 0hPa | 0V | 00:00:00 | 00:00:00 | 00:00:00 | |
| OE5DRO-10 | 2026-09-02 06:19:02 | 48.71466 | 18.40499 | 85° | 49km/h | 16445m | -12.9m/s | 0°C | 0% | 0hPa | 0V | 00:00:00 | 00:00:00 | 00:00:00 | |
| ATIDSZ-14 | 2026-09-02 06:18:58 | 48.71462 | 18.40415 | 89° | 55km/h | 16489m | -14.4m/s | -52.9°C | 0% | 0hPa | 0V | 00:00:00 | 00:00:00 | 00:00:00 | |
| PETON7-10 | 2026-09-02 06:18:49 | 48.71468 | 18.40240 | 97° | 44km/h | 16622m | -12.5m/s | 0°C | 0% | 0hPa | 0V | 00:00:00 | 00:00:00 | 00:00:00 | |
| PG1ADW-2 | 2026-09-02 06:18:45 | 48.71472 | 18.40175 | 94° | 42km/h | 16679m | -12.1m/s | 0°C | 0% | 0hPa | 0V | 00:00:00 | 00:00:00 | 00:00:00 | |
| OE5DRO-10 | 2026-09-02 06:18:43 | 48.71473 | 18.40143 | 95° | 42km/h | 16708m | -14.6m/s | 0°C | 0% | 0hPa | 0V | 00:00:00 | 00:00:00 | 00:00:00 | |
| ATIDSZ-14 | 2026-09-02 06:18:37 | 48.71476 | 18.40039 | 89° | 46km/h | 16779m | -13.1m/s | -52.3°C | 0% | 0hPa | 0V | 00:00:00 | 00:00:00 | 00:00:00 | |
| PETON7-10 | 2026-09-02 06:18:34 | 48.71475 | 18.39988 | 90° | 38km/h | 16831m | -12.8m/s | 0°C | 0% | 0hPa | 0V | 00:00:00 | 00:00:00 | 00:00:00 | |
| DO3MHA-11 | 2026-09-02 06:18:27 | 48.71478 | 18.39882 | 96° | 38km/h | 16941m | -14.3m/s | 0°C | 0% | 0hPa | 0V | 00:00:00 | 00:00:00 | 00:00:00 | |
| PG1ADW-2 | 2026-09-02 06:18:25 | 48.71480 | 18.39856 | 92° | 46km/h | 16956m | -14.3m/s | 0°C | 0% | 0hPa | 0V | 00:00:00 | 00:00:00 | 00:00:00 | |
| OE5DRO-10 | 2026-09-02 06:18:24 | 48.71480 | 18.39842 | 92° | 46km/h | 16970m | -13.9m/s | 0°C | 0% | 0hPa | 0V | 00:00:00 | 00:00:00 | 00:00:00 | |
| PETON7-10 | 2026-09-02 06:18:19 | 48.71478 | 18.39771 | 86° | 49km/h | 17038m | -12.3m/s | 0°C | 0% | 0hPa | 0V | 00:00:00 | 00:00:00 | 00:00:00 | |
| DO3MHA-11 | 2026-09-02 06:18:17 | 48.71476 | 18.39738 | 87° | 49km/h | 17078m | -14.8m/s | 0°C | 0% | 0hPa | 0V | 00:00:00 | 00:00:00 | 00:00:00 | |
| SP9KGR-15 | 2026-09-02 06:18:11 | 48.71476 | 18.39585 | 101° | 51km/h | 17166m | -14.3m/s | -51.4°C | 0% | 0hPa | 0V | 00:00:00 | 00:00:00 | 00:00:00 | |
| DO3MHA-11 | 2026-09-02 06:18:07 | 48.71482 | 18.39546 | 105° | 47km/h | 17207m | -13.9m/s | 0°C | 0% | 0hPa | 0V | 00:00:00 | 00:00:00 | 00:00:00 | |
| OE5DXL-15 | 2026-09-02 06:18:06 | 48.71485 | 18.39526 | 106° | 42km/h | 17221m | -15.7m/s | 0°C | 0% | 0hPa | 0V | 00:00:00 | 00:00:00 | 00:00:00 | |
| PG1ADW-2 | 2026-09-02 06:18:05 | 48.71489 | 18.39506 | 106° | 38km/h | 17251m | -13.3m/s | 0°C | 0% | 0hPa | 0V | 00:00:00 | 00:00:00 | 00:00:00 | |
| PETON7-10 | 2026-09-02 06:18:04 | 48.71493 | 18.39486 | 108° | 44km/h | 17251m | -13.3m/s | 0°C | 0% | 0hPa | 0V | 00:00:00 | 00:00:00 | 00:00:00 | |
| ATIDSZ-14 | 2026-09-02 06:17:56 | 48.71520 | 18.39351 | 107° | 38km/h | 17343m | -12.6m/s | -50.7°C | 0% | 0hPa | 0V | 00:00:00 | 00:00:00 | 00:00:00 | |
| DO3MHA-11 | 2026-09-02 06:17:50 | 48.71526 | 18.39264 | 86° | 35km/h | 17489m | -13.5m/s | 0°C | 0% | 0hPa | 0V | 00:00:00 | 00:00:00 | 00:00:00 | |
| PETON7-10 | 2026-09-02 06:17:49 | 48.71525 | 18.39250 | 79° | 33km/h | 17452m | -12.3m/s | 0°C | 0% | 0hPa | 0V | 00:00:00 | 00:00:00 | 00:00:00 | |
| PG1ADW-2 | 2026-09-02 06:17:45 | 48.71516 | 18.39202 | 68° | 31km/h | 17503m | -13.4m/s | 0°C | 0% | 0hPa | 0V | 00:00:00 | 00:00:00 | 00:00:00 | |
| DO3MHA-11 | 2026-09-02 06:17:39 | 48.71497 | 18.39129 | 76° | 29km/h | 17586m | -13.3m/s | 0°C | 0% | 0hPa | 0V | 00:00:00 | 00:00:00 | 00:00:00 | |
| GYPAP8-17 | 2026-09-02 06:17:38 | 48.71495 | 18.39117 | 79° | 31km/h | 17586m | -13.3m/s | -51.1°C | 0% | 0hPa | 0V | 00:00:00 | 00:00:00 | 00:00:00 | |
| OE5DXL-15 | 2026-09-02 06:17:36 | 48.71493 | 18.39093 | 92° | 33km/h | 17625m | -13.4m/s | 0°C | 0% | 0hPa | 0V | 00:00:00 | 00:00:00 | 00:00:00 | |
| PETON7-10 | 2026-09-02 06:17:34 | 48.71493 | 18.39071 | 93° | 31km/h | 17652m | -13.7m/s | 0°C | 0% | 0hPa | 0V | 00:00:00 | 00:00:00 | 00:00:00 | |
| POL1PZ | 2026-09-02 06:17:27 | 48.71497 | 18.38985 | 92° | 29km/h | 17746m | -14.6m/s | -51.1°C | 0% | 0hPa | 0V | 00:00:00 | 00:00:00 | 00:00:00 | |
| PG1ADW-2 | 2026-09-02 06:17:25 | 48.71497 | 18.38975 | 88° | 35km/h | 17776m | -15.2m/s | 0°C | 0% | 0hPa | 0V | 00:00:00 | 00:00:00 | 00:00:00 | |
| PETON7-10 | 2026-09-02 06:17:19 | 48.71491 | 18.38894 | 82° | 35km/h | 17865m | -11.3m/s | 0°C | 0% | 0hPa | 0V | 00:00:00 | 00:00:00 | 00:00:00 | |
| ATIDSZ-14 | 2026-09-02 06:17:16 | 48.71485 | 18.38838 | 81° | 35km/h | 17902m | -13.4m/s | -51.9°C | 0% | 0hPa | 0V | 00:00:00 | 00:00:00 | 00:00:00 | |
| SP9KGR-15 | 2026-09-02 06:17:13 | 48.71483 | 18.38813 | 88° | 33km/h | 17929m | -13.5m/s | -51.7°C | 0% | 0hPa | 0V | 00:00:00 | 00:00:00 | 00:00:00 | |
| OE5DRO-10 | 2026-09-02 06:17:08 | 48.71484 | 18.38753 | 95° | 27km/h | 18021m | -15.8m/s | 0°C | 0% | 0hPa | 0V | 00:00:00 | 00:00:00 | 00:00:00 | |
| OE3JTB-15 | 2026-09-02 06:17:07 | 48.71485 | 18.38740 | 95° | 22km/h | 18037m | -15.1m/s | 0°C | 0% | 0hPa | 0V | 00:00:00 | 00:00:00 | 00:00:00 | |
| OE5DXL-15 | 2026-09-02 06:17:06 | 48.71486 | 18.38727 | 100° | 24km/h | 18051m | -13.1m/s | 0°C | 0% | 0hPa | 0V | 00:00:00 | 00:00:00 | 00:00:00 | |
| PG1ADW-2 | 2026-09-02 06:17:05 | 48.71488 | 18.38714 | 100° | 24km/h | 18063m | -10.3m/s | 0°C | 0% | 0hPa | 0V | 00:00:00 | 00:00:00 | 00:00:00 | |
| PETON7-10 | 2026-09-02 06:17:04 | 48.71489 | 18.38701 | 102° | 26km/h | 18075m | -12.8m/s | 0°C | 0% | 0hPa | 0V | 00:00:00 | 00:00:00 | 00:00:00 | |
| OE3OSB-13 | 2026-09-02 06:17:03 | 48.71495 | 18.38664 | 104° | 31km/h | 18100m | -12.5m/s | -52.8°C | -1.0% | -1.0hPa | 0V | 00:00:00 | 00:00:00 | 00:00:00 | |
| SP9KGR-15 | 2026-09-02 06:16:57 | 48.71502 | 18.38626 | 108° | 22km/h | 18154m | -14.9m/s | -51.7°C | 0% | 0hPa | 0V | 00:00:00 | 00:00:00 | 00:00:00 | |
| ATIDSZ-14 | 2026-09-02 06:16:55 | 48.71506 | 18.38612 | 112° | 20km/h | 18184m | -13.5m/s | -51.7°C | 0% | 0hPa | 0V | 00:00:00 | 00:00:00 | 00:00:00 | |
| PETON7-10 | 2026-09-02 06:16:49 | 48.71515 | 18.38569 | 103° | 16km/h | 18280m | -11.8m/s | 0°C | 0% | 0hPa | 0V | 00:00:00 | 00:00:00 | 00:00:00 | |
| PG1ADW-2 | 2026-09-02 06:16:45 | 48.71514 | 18.38544 | 71° | 20km/h | 18332m | -14.9m/s | 0°C | 0% | 0hPa | 0V | 00:00:00 | 00:00:00 | 00:00:00 | |
| SP9KGR-15 | 2026-09-02 06:16:42 | 48.71510 | 18.38528 | 65° | 16km/h | 18361m | -14.0m/s | -52.5°C | 0% | 0hPa | 0V | 00:00:00 | 00:00:00 | 00:00:00 | |
| DO3MHA-11 | 2026-09-02 06:16:40 | 48.71506 | 18.38517 | 61° | 24km/h | 18390m | -16.1m/s | 0°C | 0% | 0hPa | 0V | 00:00:00 | 00:00:00 | 00:00:00 | |
| OE3JTB-15 | 2026-09-02 06:16:38 | 48.71501 | 18.38506 | 56° | 16km/h | 18433m | -13.9m/s | 0°C | 0% | 0hPa | 0V | 00:00:00 | 00:00:00 | 00:00:00 | |
| OE5DXL-15 | 2026-09-02 06:16:36 | 48.71496 | 18.38495 | 57° | 29km/h | 18460m | -13.7m/s | 0°C | 0% | 0hPa | 0V | 00:00:00 | 00:00:00 | 00:00:00 | |
| ATIDSZ-14 | 2026-09-02 06:16:35 | 48.71492 | 18.38484 | 59° | 18km/h | 18474m | -14.8m/s | -53.2°C | 0% | 0hPa | 0V | 00:00:00 | 00:00:00 | 00:00:00 | |
| PETON7-10 | 2026-09-02 06:16:34 | 48.71491 | 18.38484 | 59° | 29km/h | 18488m | -13.5m/s | 0°C | 0% | 0hPa | 0V | 00:00:00 | 00:00:00 | 00:00:00 | |
| OE5DRO-10 | 2026-09-02 06:16:30 | 48.71481 | 18.38455 | 60° | 33km/h | 18544m | -12.7m/s | 0°C | 0% | 0hPa | 0V | 00:00:00 | 00:00:00 | 00:00:00 | |
| DO3MHA-11 | 2026-09-02 06:16:27 | 48.71469 | 18.38434 | 48° | 37km/h | 18585m | -13.6m/s | 0°C | 0% | 0hPa | 0V | 00:00:00 | 00:00:00 | 00:00:00 | |
| PG1ADW-2 | 2026-09-02 06:16:25 | 48.71459 | 18.38414 | 50° | 35km/h | 18614m | -16.2m/s | 0°C | 0% | 0hPa | 0V | 00:00:00 | 00:00:00 | 00:00:00 | |
| PETON7-10 | 2026-09-02 06:16:19 | 48.71428 | 18.38341 | 64° | 33km/h | 18704m | -17.0m/s | 0°C | 0% | 0hPa | 0V | 00:00:00 | 00:00:00 | 00:00:00 | |
| DO3MHA-11 | 2026-09-02 06:16:16 | 48.71416 | 18.38302 | 65° | 33km/h | 18735m | -14.3m/s | 0°C | 0% | 0hPa | 0V | 00:00:00 | 00:00:00 | 00:00:00 | |
| ATIDSZ-14 | 2026-09-02 06:16:14 | 48.71409 | 18.38280 | 70° | 29km/h | 18763m | -15.9m/s | -53.9°C | 0% | 0hPa | 0V | 00:00:00 | 00:00:00 | 00:00:00 | |
| OE5DRO-10 | 2026-09-02 06:16:11 | 48.71404 | 18.38248 | 85° | 38km/h | 18822m | -15.2m/s | 0°C | 0% | 0hPa | 0V | 00:00:00 | 00:00:00 | 00:00:00 | |
| OE5DXL-15 | 2026-09-02 06:16:07 | 48.71400 | 18.38187 | 80° | 38km/h | 18896m | -14.1m/s | 0°C | 0% | 0hPa | 0V | 00:00:00 | 00:00:00 | 00:00:00 | |
| PG1ADW-2 | 2026-09-02 06:16:05 | 48.71399 | 18.38174 | 74° | 40km/h | 18911m | -14.6m/s | 0°C | 0% | 0hPa | 0V | 00:00:00 | 00:00:00 | 00:00:00 | |
| PETON7-10 | 2026-09-02 06:16:04 | 48.71396 | 18.38162 | 69° | 40km/h | 18926m | -15.6m/s | 0°C | 0% | 0hPa | 0V | 00:00:00 | 00:00:00 | 00:00:00 | |
| SP9KGR-15 | 2026-09-02 06:15:56 | 48.71369 | 18.38047 | 82° | 47km/h | 19028m | -16.0m/s | -54.5°C | 0% | 0hPa | 0V | 00:00:00 | 00:00:00 | 00:00:00 | |
| ATIDSZ-14 | 2026-09-02 06:15:53 | 48.71366 | 18.37994 | 89° | 46km/h | 19073m | -13.5m/s | -54.5°C | 0% | 0hPa | 0V | 00:00:00 | 00:00:00 | 00:00:00 | |
| OE5MMP-10 | 2026-09-02 06:15:52 | 48.71366 | 18.37978 | 90° | 38km/h | 19103m | -14.2m/s | 0°C | 0% | 0hPa | 0V | 00:00:00 | 00:00:00 | 00:00:00 | |
| POL1PZ | 2026-09-02 06:15:51 | 48.71366 | 18.37962 | 91° | 38km/h | 19103m | -14.3m/s | -54.3°C | 0% | 0hPa | 0V | 00:00:00 | 00:00:00 | 00:00:00 | |
| PETON7-10 | 2026-09-02 06:15:49 | 48.71366 | 18.37934 | 92° | 33km/h | 19146m | -13.0m/s | 0°C | 0% | 0hPa | 0V | 00:00:00 | 00:00:00 | 00:00:00 | |
| PG1ADW-2 | 2026-09-02 06:15:45 | 48.71371 | 18.37876 | 102° | 35km/h | 19194m | -12.9m/s | 0°C | 0% | 0hPa | 0V | 00:00:00 | 00:00:00 | 00:00:00 | |
| OE5MMP-10 | 2026-09-02 06:15:42 | 48.71375 | 18.37835 | 97° | 31km/h | 19237m | -16.7m/s | 0°C | 0% | 0hPa | 0V | 00:00:00 | 00:00:00 | 00:00:00 | |
| SP9KGR-15 | 2026-09-02 06:15:41 | 48.71377 | 18.37812 | 96° | 31km/h | 19254m | -16.5m/s | -54.1°C | 0% | 0hPa | 0V | 00:00:00 | 00:00:00 | 00:00:00 | |
| OE5DXL-15 | 2026-09-02 06:15:35 | 48.71377 | 18.37755 | 75° | 27km/h | 19335m | -15.6m/s | 0°C | 0% | 0hPa | 0V | 00:00:00 | 00:00:00 | 00:00:00 | |
| PETON7-10 | 2026-09-02 06:15:34 | 48.71371 | 18.37743 | 71° | 35km/h | 19367m | -15.0m/s | 0°C | 0% | 0hPa | 0V | 00:00:00 | 00:00:00 | 00:00:00 | |
| OE5DRO-10 | 2026-09-02 06:15:33 | 48.71368 | 18.37731 | 67° | 31km/h | 19382m | -14.2m/s | 0°C | 0% | 0hPa | 0V | 00:00:00 | 00:00:00 | 00:00:00 | |
| OE5MMP-10 | 2026-09-02 06:15:32 | 48.71365 | 18.37718 | 67° | 37km/h | 19425m | -15.1m/s | 0°C | 0% | 0hPa | 0V | 00:00:00 | 00:00:00 | 00:00:00 | |
| GYPAP8-17 | 2026-09-02 06:15:29 | 48.71355 | 18.37678 | 71° | 37km/h | 19425m | -15.2m/s | -53.6°C | 0% | 0hPa | 0V | 00:00:00 | 00:00:00 | 00:00:00 | |
| PG1ADW-2 | 2026-09-02 06:15:25 | 48.71342 | 18.37623 | 75° | 22km/h | 19498m | -14.5m/s | 0°C | 0% | 0hPa | 0V | 00:00:00 | 00:00:00 | 00:00:00 | |
| SP9KGR-15 | 2026-09-02 06:15:23 | 48.71338 | 18.37597 | 84° | 33km/h | 19512m | -14.9m/s | -53.0°C | 0% | 0hPa | 0V | 00:00:00 | 00:00:00 | 00:00:00 | |
| OE5MMP-10 | 2026-09-02 06:15:22 | 48.71338 | 18.37582 | 92° | 20km/h | 19559m | -15.4m/s | 0°C | 0% | 0hPa | 0V | 00:00:00 | 00:00:00 | 00:00:00 | |
| SQ9EZE-14 | 2026-09-02 06:15:21 | 48.71337 | 18.37573 | 90° | 29km/h | 19543m | -16.4m/s | -53.0°C | 0% | 0hPa | 0V | 00:00:00 | 00:00:00 | 00:00:00 | |
| PETON7-10 | 2026-09-02 06:15:19 | 48.71338 | 18.37552 | 93° | 16km/h | 19589m | -16.4m/s | 0°C | 0% | 0hPa | 0V | 00:00:00 | 00:00:00 | 00:00:00 | |
| OE5DRO-10 | 2026-09-02 06:15:14 | 48.71339 | 18.37516 | 104° | 11km/h | 19668m | -15.8m/s | 0°C | 0% | 0hPa | 0V | 00:00:00 | 00:00:00 | 00:00:00 | |
| ATIDSZ-14 | 2026-09-02 06:15:12 | 48.71341 | 18.37506 | 109° | 13km/h | 19682m | -14.0m/s | -51.3°C | 0% | 0hPa | 0V | 00:00:00 | 00:00:00 | 00:00:00 | |
| OE5MMP-10 | 2026-09-02 06:15:11 | 48.71342 | 18.37501 | 109° | 11km/h | 19708m | -10.6m/s | 0°C | 0% | 0hPa | 0V | 00:00:00 | 00:00:00 | 00:00:00 | |
| SP9KGR-15 | 2026-09-02 06:15:08 | 48.71344 | 18.37485 | 96° | 15km/h | 19731m | -12.1m/s | -51.3°C | 0% | 0hPa | 0V | 00:00:00 | 00:00:00 | 00:00:00 | |
| OE5DXL-15 | 2026-09-02 06:15:06 | 48.71344 | 18.37474 | 84° | 9km/h | 19771m | -15.5m/s | 0°C | 0% | 0hPa | 0V | 00:00:00 | 00:00:00 | 00:00:00 | |
| PETON7-10 | 2026-09-02 06:15:04 | 48.71342 | 18.37467 | 63° | 9km/h | 19797m | -11.6m/s | 0°C | 0% | 0hPa | 0V | 00:00:00 | 00:00:00 | 00:00:00 | |
| OE5MMP-10 | 2026-09-02 06:15:01 | 48.71338 | 18.37463 | 18° | 7km/h | 19840m | -15.5m/s | 0°C | 0% | 0hPa | 0V | 00:00:00 | 00:00:00 | 00:00:00 | |
| OE5DRO-10 | 2026-09-02 06:14:55 | 48.71329 | 18.37455 | 41° | 18km/h | 19941m | -16.8m/s | 0°C | 0% | 0hPa | 0V | 00:00:00 | 00:00:00 | 00:00:00 | |
| SP9KGR-15 | 2026-09-02 06:14:53 | 48.71326 | 18.37451 | 54° | 9km/h | 19957m | -16.4m/s | -51.8°C | 0% | 0hPa | 0V | 00:00:00 | 00:00:00 | 00:00:00 | |
| ATIDSZ-14 | 2026-09-02 06:14:52 | 48.71324 | 18.37444 | 70° | 11km/h | 19993m | -19.1m/s | -52.0°C | 0% | 0hPa | 0V | 00:00:00 | 00:00:00 | 00:00:00 | |
| OE5MMP-10 | 2026-09-02 06:14:51 | 48.71324 | 18.37444 | 70° | 18km/h | 20011m | -18.3m/s | 0°C | 0% | 0hPa | 0V | 00:00:00 | 00:00:00 | 00:00:00 | |
| PETON7-10 | 2026-09-02 06:14:49 | 48.71321 | 18.37434 | 69° | 22km/h | 20047m | -17.4m/s | 0°C | 0% | 0hPa | 0V | 00:00:00 | 00:00:00 | 00:00:00 | |
| OE5MMP-10 | 2026-09-02 06:14:41 | 48.71306 | 18.37377 | 71° | 26km/h | 20173m | -15.2m/s | 0°C | 0% | 0hPa | 0V | 00:00:00 | 00:00:00 | 00:00:00 | |
| SP9KGR-15 | 2026-09-02 06:14:37 | 48.71297 | 18.37340 | 68° | 26km/h | 20219m | -15.0m/s | -52.5°C | 0% | 0hPa | 0V | 00:00:00 | 00:00:00 | 00:00:00 | |
| OE5DRO-10 | 2026-09-02 06:14:36 | 48.71295 | 18.37331 | 71° | 22km/h | 20252m | -15.8m/s | 0°C | 0% | 0hPa | 0V | 00:00:00 | 00:00:00 | 00:00:00 | |
| PETON7-10 | 2026-09-02 06:14:34 | 48.71290 | 18.37312 | 73° | 22km/h | 20282m | -13.8m/s | 0°C | 0% | 0hPa | 0V | 00:00:00 | 00:00:00 | 00:00:00 | |
| OE5MMP-10 | 2026-09-02 06:14:31 | 48.71286 | 18.37280 | 93° | 20km/h | 20325m | -15.7m/s | 0°C | 0% | 0hPa | 0V | 00:00:00 | 00:00:00 | 00:00:00 | |
| OE5MMP-10 | 2026-09-02 06:14:21 | 48.71272 | 18.37216 | 60° | 16km/h | 20475m | -14.6m/s | 0°C | 0% | 0hPa | 0V | 00:00:00 | 00:00:00 | 00:00:00 | |
| PETON7-10 | 2026-09-02 06:14:19 | 48.71267 | 18.37201 | 62° | 13km/h | 20501m | -13.8m/s | 0°C | 0% | 0hPa | 0V | 00:00:00 | 00:00:00 | 00:00:00 | |
| POL1PZ | 2026-09-02 06:14:17 | 48.71260 | 18.37182 | 63° | 18km/h | 20531m | -15.5m/s | -53.1°C | 0% | 0hPa | 0V | 00:00:00 | 00:00:00 | 00:00:00 | |
| OE5MMP-10 | 2026-09-02 06:14:11 | 48.71257 | 18.37159 | 113° | 11km/h | 20637m | -17.8m/s | 0°C | 0% | 0hPa | 0V | 00:00:00 | 00:00:00 | 00:00:00 | |
| ATIDSZ-14 | 2026-09-02 06:14:10 | 48.71258 | 18.37155 | 113° | 11km/h | 20637m | -17.8m/s | -52.8°C | 0% | 0hPa | 0V | 00:00:00 | 00:00:00 | 00:00:00 | |
| OE5DXL-15 | 2026-09-02 06:14:07 | 48.71260 | 18.37143 | 72° | 24km/h | 20700m | -13.8m/s | 0°C | 0% | 0hPa | 0V | 00:00:00 | 00:00:00 | 00:00:00 | |
| SP9KGR-15 | 2026-09-02 06:14:05 | 48.71258 | 18.37136 | 58° | 13km/h | 20713m | -12.1m/s | -52.3°C | 0% | 0hPa | 0V | 00:00:00 | 00:00:00 | 00:00:00 | |
| PETON7-10 | 2026-09-02 06:14:04 | 48.71256 | 18.37131 | 64° | 24km/h | 20740m | -14.6m/s | 0°C | 0% | 0hPa | 0V | 00:00:00 | 00:00:00 | 00:00:00 | |
| OE5MMP-10 | 2026-09-02 06:14:01 | 48.71254 | 18.37116 | 88° | 26km/h | 20787m | -19.7m/s | 0°C | 0% | 0hPa | 0V | 00:00:00 | 00:00:00 | 00:00:00 | |
| OE5DRO-10 | 2026-09-02 06:13:58 | 48.71252 | 18.37092 | 73° | 27km/h | 20839m | -15.3m/s | 0°C | 0% | 0hPa | 0V | 00:00:00 | 00:00:00 | 00:00:00 | |
| DO3MHA-11 | 2026-09-02 06:13:57 | 48.71251 | 18.37082 | 73° | 20km/h | 20869m | -17.1m/s | 0°C | 0% | 0hPa | 0V | 00:00:00 | 00:00:00 | 00:00:00 | |
| POL1PZ | 2026-09-02 06:13:56 | 48.71245 | 18.37062 | 70° | 29km/h | 20869m | -17.2m/s | -51.6°C | 0% | 0hPa | 0V | 00:00:00 | 00:00:00 | 00:00:00 | |
| OE5MMP-10 | 2026-09-02 06:13:51 | 48.71239 | 18.37018 | 88° | 27km/h | 20946m | -14.3m/s | 0°C | 0% | 0hPa | 0V | 00:00:00 | 00:00:00 | 00:00:00 | |
| ATIDSZ-14 | 2026-09-02 06:13:50 | 48.71239 | 18.37008 | 92° | 26km/h | 20946m | -14.4m/s | -51.4°C | 0% | 0hPa | 0V | 00:00:00 | 00:00:00 | 00:00:00 | |
| PETON7-10 | 2026-09-02 06:13:49 | 48.71238 | 18.36998 | 90° | 29km/h | 20976m | -13.8m/s | 0°C | 0% | 0hPa | 0V | 00:00:00 | 00:00:00 | 00:00:00 | |
| OE5MMP-10 | 2026-09-02 06:13:41 | 48.71250 | 18.36917 | 120° | 31km/h | 21117m | -19.8m/s | 0°C | 0% | 0hPa | 0V | 00:00:00 | 00:00:00 | 00:00:00 | |
| OE5DRO-10 | 2026-09-02 06:13:39 | 48.71258 | 18.36893 | 128° | 20km/h | 21174m | -17.3m/s | 0°C | 0% | 0hPa | 0V | 00:00:00 | 00:00:00 | 00:00:00 | |
| OE5DXL-15 | 2026-09-02 06:13:37 | 48.71268 | 18.36871 | 131° | 15km/h | 21192m | -17.8m/s | 0°C | 0% | 0hPa | 0V | 00:00:00 | 00:00:00 | 00:00:00 | |
| SP9KGR-15 | 2026-09-02 06:13:35 | 48.71279 | 18.36854 | 136° | 29km/h | 21211m | -18.9m/s | -51.9°C | 0% | 0hPa | 0V | 00:00:00 | 00:00:00 | 00:00:00 | |
| PETON7-10 | 2026-09-02 06:13:34 | 48.71284 | 18.36846 | 139° | 16km/h | 21246m | -15.7m/s | 0°C | 0% | 0hPa | 0V | 00:00:00 | 00:00:00 | 00:00:00 | |
| POL1PZ | 2026-09-02 06:13:33 | 48.71289 | 18.36840 | 143° | 26km/h | 21246m | -15.8m/s | -52.0°C | 0% | 0hPa | 0V | 00:00:00 | 00:00:00 | 00:00:00 | |
| OE5MMP-10 | 2026-09-02 06:13:31 | 48.71299 | 18.36830 | 148° | 16km/h | 21292m | -13.0m/s | 0°C | 0% | 0hPa | 0V | 00:00:00 | 00:00:00 | 00:00:00 | |
| ATIDSZ-14 | 2026-09-02 06:13:29 | 48.71306 | 18.36822 | 139° | 16km/h | 21306m | -13.1m/s | -52.0°C | 0% | 0hPa | 0V | 00:00:00 | 00:00:00 | 00:00:00 | |
| GYPAP8-17 | 2026-09-02 06:13:21 | 48.71327 | 18.36792 | 232° | 9km/h | 21442m | -14.4m/s | -52.2°C | 0% | 0hPa | 0V | 00:00:00 | 00:00:00 | 00:00:00 | |
| OE5DRO-10 | 2026-09-02 06:13:20 | 48.71327 | 18.36793 | 232° | 7km/h | 21456m | -13.6m/s | 0°C | 0% | 0hPa | 0V | 00:00:00 | 00:00:00 | 00:00:00 | |
| PETON7-10 | 2026-09-02 06:13:19 | 48.71329 | 18.36796 | 238° | 7km/h | 21470m | -13.1m/s | 0°C | 0% | 0hPa | 0V | 00:00:00 | 00:00:00 | 00:00:00 | |
| OE5MMP-10 | 2026-09-02 06:13:11 | 48.71341 | 18.36819 | 280° | 5km/h | 21598m | -18.1m/s | 0°C | 0% | 0hPa | 0V | 00:00:00 | 00:00:00 | 00:00:00 | |
| ATIDSZ-14 | 2026-09-02 06:13:08 | 48.71340 | 18.36822 | 302° | 2km/h | 21630m | -14.5m/s | -51.2°C | 0% | 0hPa | 0V | 00:00:00 | 00:00:00 | 00:00:00 | |
| OE5DXL-15 | 2026-09-02 06:13:07 | 48.71340 | 18.36824 | 69° | 13km/h | 21660m | -16.8m/s | 0°C | 0% | 0hPa | 0V | 00:00:00 | 00:00:00 | 00:00:00 | |
| SP9KGR-15 | 2026-09-02 06:13:05 | 48.71339 | 18.36819 | 90° | 7km/h | 21690m | -14.9m/s | -51.5°C | 0% | 0hPa | 0V | 00:00:00 | 00:00:00 | 00:00:00 | |
| PETON7-10 | 2026-09-02 06:13:04 | 48.71339 | 18.36819 | 89° | 13km/h | 21706m | -15.8m/s | 0°C | 0% | 0hPa | 0V | 00:00:00 | 00:00:00 | 00:00:00 | |
| OE5MMP-10 | 2026-09-02 06:13:01 | 48.71342 | 18.36809 | 136° | 15km/h | 21752m | -13.7m/s | 0°C | 0% | 0hPa | 0V | 00:00:00 | 00:00:00 | 00:00:00 | |
| SQ9EZE-14 | 2026-09-02 06:12:56 | 48.71358 | 18.36799 | 166° | 16km/h | 21822m | -17.2m/s | -51.7°C | 0% | 0hPa | 0V | 00:00:00 | 00:00:00 | 00:00:00 | |
| DO3MHA-11 | 2026-09-02 06:12:51 | 48.71377 | 18.36790 | 152° | 15km/h | 21920m | -14.8m/s | 0°C | 0% | 0hPa | 0V | 00:00:00 | 00:00:00 | 00:00:00 | |
| PETON7-10 | 2026-09-02 06:12:49 | 48.71383 | 18.36782 | 127° | 15km/h | 21951m | -14.6m/s | 0°C | 0% | 0hPa | 0V | 00:00:00 | 00:00:00 | 00:00:00 | |
| ATIDSZ-14 | 2026-09-02 06:12:43 | 48.71388 | 18.36748 | 108° | 15km/h | 22030m | -16.5m/s | -52.0°C | 0% | 0hPa | 0V | 00:00:00 | 00:00:00 | 00:00:00 | |
| OE3JTB-15 | 2026-09-02 06:12:42 | 48.71390 | 18.36743 | 121° | 11km/h | 22064m | -15.8m/s | 0°C | 0% | 0hPa | 0V | 00:00:00 | 00:00:00 | 00:00:00 | |
| PG1ADW-2 | 2026-09-02 06:12:41 | 48.71392 | 18.36738 | 122° | 11km/h | 22080m | -16.2m/s | 0°C | 0% | 0hPa | 0V | 00:00:00 | 00:00:00 | 00:00:00 | |
| OE5DXL-15 | 2026-09-02 06:12:37 | 48.71399 | 18.36720 | 123° | 11km/h | 22145m | -16.8m/s | 0°C | 0% | 0hPa | 0V | 00:00:00 | 00:00:00 | 00:00:00 | |
| PETON7-10 | 2026-09-02 06:12:34 | 48.71406 | 18.36705 | 141° | 9km/h | 22193m | -16.2m/s | 0°C | 0% | 0hPa | 0V | 00:00:00 | 00:00:00 | 00:00:00 | |
| OE5MMP-10 | 2026-09-02 06:12:31 | 48.71413 | 18.36701 | 178° | 9km/h | 22244m | -17.6m/s | 0°C | 0% | 0hPa | 0V | 00:00:00 | 00:00:00 | 00:00:00 | |
| OE5DRO-10 | 2026-09-02 06:12:23 | 48.71426 | 18.36717 | 243° | 13km/h | 22375m | -13.3m/s | 0°C | 0% | 0hPa | 0V | 00:00:00 | 00:00:00 | 00:00:00 | |
| ATIDSZ-14 | 2026-09-02 06:12:22 | 48.71428 | 18.36721 | 241° | 9km/h | 22375m | -13.3m/s | -53.1°C | 0% | 0hPa | 0V | 00:00:00 | 00:00:00 | 00:00:00 | |
| DO3MHA-11 | 2026-09-02 06:12:21 | 48.71429 | 18.36724 | 243° | 11km/h | 22409m | -10.0m/s | 0°C | 0% | 0hPa | 0V | 00:00:00 | 00:00:00 | 00:00:00 | |
| PETON7-10 | 2026-09-02 06:12:19 | 48.71430 | 18.36728 | 290° | 15km/h | 22419m | -10.5m/s | 0°C | 0% | 0hPa | 0V | 00:00:00 | 00:00:00 | 00:00:00 | |
| SP9KGR-15 | 2026-09-02 06:12:18 | 48.71429 | 18.36731 | 290° | 5km/h | 22419m | -10.6m/s | -53.2°C | 0% | 0hPa | 0V | 00:00:00 | 00:00:00 | 00:00:00 | |
| OE3JTB-15 | 2026-09-02 06:12:13 | 48.71425 | 18.36755 | 271° | 15km/h | 22507m | -17.8m/s | 0°C | 0% | 0hPa | 0V | 00:00:00 | 00:00:00 | 00:00:00 | |
| OE5MMP-10 | 2026-09-02 06:12:11 | 48.71424 | 18.36771 | 279° | 16km/h | 22523m | -14.8m/s | 0°C | 0% | 0hPa | 0V | 00:00:00 | 00:00:00 | 00:00:00 | |
| OE5WHR-10 | 2026-09-02 06:12:07 | 48.71419 | 18.36792 | 312° | 13km/h | 22588m | -18.2m/s | 0°C | 0% | 0hPa | 0V | 00:00:00 | 00:00:00 | 00:00:00 | |
| OE5DXL-15 | 2026-09-02 06:12:06 | 48.71419 | 18.36797 | 321° | 11km/h | 22588m | -18.2m/s | 0°C | 0% | 0hPa | 0V | 00:00:00 | 00:00:00 | 00:00:00 | |
| OE5DRO-10 | 2026-09-02 06:12:04 | 48.71409 | 18.36804 | 323° | 15km/h | 22640m | -19.2m/s | 0°C | 0% | 0hPa | 0V | 00:00:00 | 00:00:00 | 00:00:00 | |
| SP9KGR-15 | 2026-09-02 06:12:03 | 48.71405 | 18.36809 | 326° | 20km/h | 22640m | -19.2m/s | -52.6°C | 0% | 0hPa | 0V | 00:00:00 | 00:00:00 | 00:00:00 | |
| OE5MMP-10 | 2026-09-02 06:12:01 | 48.71397 | 18.36819 | 323° | 15km/h | 22689m | -14.6m/s | 0°C | 0% | 0hPa | 0V | 00:00:00 | 00:00:00 | 00:00:00 | |
| OE5MMP-10 | 2026-09-02 06:11:51 | 48.71363 | 18.36831 | 20° | 9km/h | 22836m | -15.3m/s | 0°C | 0% | 0hPa | 0V | 00:00:00 | 00:00:00 | 00:00:00 | |
| PETON7-10 | 2026-09-02 06:11:49 | 48.71359 | 18.36830 | 21° | 7km/h | 22867m | -14.2m/s | 0°C | 0% | 0hPa | 0V | 00:00:00 | 00:00:00 | 00:00:00 | |
| SP9KGR-15 | 2026-09-02 06:11:47 | 48.71355 | 18.36827 | 37° | 9km/h | 22883m | -17.8m/s | -52.4°C | 0% | 0hPa | 0V | 00:00:00 | 00:00:00 | 00:00:00 | |
| OE3JTB-15 | 2026-09-02 06:11:44 | 48.71350 | 18.36817 | 70° | 7km/h | 22954m | -18.6m/s | 0°C | 0% | 0hPa | 0V | 00:00:00 | 00:00:00 | 00:00:00 | |
| OE5WHR-10 | 2026-09-02 06:11:42 | 48.71349 | 18.36810 | 90° | 7km/h | 23043m | -18.5m/s | 0°C | 0% | 0hPa | 0V | 00:00:00 | 00:00:00 | 00:00:00 | |
| PG1ADW-2 | 2026-09-02 06:11:41 | 48.71349 | 18.36807 | 88° | 5km/h | 23004m | -18.6m/s | 0°C | 0% | 0hPa | 0V | 00:00:00 | 00:00:00 | 00:00:00 | |
| ATIDSZ-14 | 2026-09-02 06:11:38 | 48.71347 | 18.36801 | 39° | 4km/h | 23043m | -18.5m/s | -52.5°C | 0% | 0hPa | 0V | 00:00:00 | 00:00:00 | 00:00:00 | |
| OE5DXL-15 | 2026-09-02 06:11:37 | 48.71347 | 18.36800 | 39° | 7km/h | 23079m | -20.2m/s | 0°C | 0% | 0hPa | 0V | 00:00:00 | 00:00:00 | 00:00:00 | |
| PETON7-10 | 2026-09-02 06:11:34 | 48.71344 | 18.36795 | 78° | 5km/h | 23138m | -21.3m/s | 0°C | 0% | 0hPa | 0V | 00:00:00 | 00:00:00 | 00:00:00 | |
| SP9KGR-15 | 2026-09-02 06:11:32 | 48.71343 | 18.36791 | 88° | 5km/h | 23158m | -19.6m/s | -52.5°C | 0% | 0hPa | 0V | 00:00:00 | 00:00:00 | 00:00:00 | |
| OE5MMP-10 | 2026-09-02 06:11:31 | 48.71343 | 18.36790 | 121° | 5km/h | 23196m | -17.0m/s | 0°C | 0% | 0hPa | 0V | 00:00:00 | 00:00:00 | 00:00:00 | |
| DO3MHA-11 | 2026-09-02 06:11:30 | 48.71344 | 18.36788 | 179° | 7km/h | 23212m | -15.2m/s | 0°C | 0% | 0hPa | 0V | 00:00:00 | 00:00:00 | 00:00:00 | |
| OE5DRO-10 | 2026-09-02 06:11:25 | 48.71342 | 18.36787 | 28° | 13km/h | 23384m | -17.6m/s | 0°C | 0% | 0hPa | 0V | 00:00:00 | 00:00:00 | 00:00:00 | |
| OE5MMP-10 | 2026-09-02 06:11:21 | 48.71335 | 18.36774 | 42° | 5km/h | 23384m | -17.6m/s | 0°C | 0% | 0hPa | 0V | 00:00:00 | 00:00:00 | 00:00:00 | |
| DO3MHA-11 | 2026-09-02 06:11:20 | 48.71333 | 18.36773 | 42° | 7km/h | 23402m | -18.0m/s | 0°C | 0% | 0hPa | 0V | 00:00:00 | 00:00:00 | 00:00:00 | |
| SP9KGR-15 | 2026-09-02 06:11:17 | 48.71329 | 18.36770 | 13° | 7km/h | 23442m | -20.9m/s | -52.1°C | 0% | 0hPa | 0V | 00:00:00 | 00:00:00 | 00:00:00 | |
| OE3JTB-15 | 2026-09-02 06:11:15 | 48.71327 | 18.36770 | 68° | 15km/h | 23521m | -18.2m/s | 0°C | 0% | 0hPa | 0V | 00:00:00 | 00:00:00 | 00:00:00 | |
| OE5MMP-10 | 2026-09-02 06:11:11 | 48.71328 | 18.36760 | 127° | 18km/h | 23576m | -22.7m/s | 0°C | 0% | 0hPa | 0V | 00:00:00 | 00:00:00 | 00:00:00 | |
| DO3MHA-11 | 2026-09-02 06:11:10 | 48.71331 | 18.36754 | 164° | 18km/h | 23598m | -21.2m/s | 0°C | 0% | 0hPa | 0V | 00:00:00 | 00:00:00 | 00:00:00 | |
| OE5DXL-15 | 2026-09-02 06:11:07 | 48.71344 | 18.36749 | 172° | 16km/h | 23657m | -18.6m/s | 0°C | 0% | 0hPa | 0V | 00:00:00 | 00:00:00 | 00:00:00 | |
| PETON7-10 | 2026-09-02 06:11:04 | 48.71359 | 18.36748 | 190° | 13km/h | 23714m | -21.1m/s | 0°C | 0% | 0hPa | 0V | 00:00:00 | 00:00:00 | 00:00:00 | |
| OE5DRO-10 | 2026-09-02 06:11:02 | 48.71368 | 18.36752 | 200° | 16km/h | 23753m | -18.2m/s | 0°C | 0% | 0hPa | 0V | 00:00:00 | 00:00:00 | 00:00:00 | |
| OE5MMP-10 | 2026-09-02 06:11:01 | 48.71372 | 18.36753 | 200° | 11km/h | 23771m | -18.9m/s | 0°C | 0% | 0hPa | 0V | 00:00:00 | 00:00:00 | 00:00:00 | |
| OE5WHR-10 | 2026-09-02 06:11:00 | 48.71376 | 18.36755 | 194° | 16km/h | 23809m | -17.2m/s | 0°C | 0% | 0hPa | 0V | 00:00:00 | 00:00:00 | 00:00:00 | |
| ATIDSZ-14 | 2026-09-02 06:10:56 | 48.71382 | 18.36753 | 104° | 7km/h | 23848m | -20.7m/s | -51.4°C | 0% | 0hPa | 0V | 00:00:00 | 00:00:00 | 00:00:00 | |
| OE5MMP-10 | 2026-09-02 06:10:51 | 48.71374 | 18.36735 | 51° | 22km/h | 23958m | -18.8m/s | 0°C | 0% | 0hPa | 0V | 00:00:00 | 00:00:00 | 00:00:00 | |
| DO3MHA-11 | 2026-09-02 06:10:50 | 48.71370 | 18.36727 | 51° | 22km/h | 23977m | -19.3m/s | 0°C | 0% | 0hPa | 0V | 00:00:00 | 00:00:00 | 00:00:00 | |
| PETON7-10 | 2026-09-02 06:10:49 | 48.71366 | 18.36720 | 59° | 20km/h | 23996m | -18.2m/s | 0°C | 0% | 0hPa | 0V | 00:00:00 | 00:00:00 | 00:00:00 | |
| OE3JTB-15 | 2026-09-02 06:10:46 | 48.71357 | 18.36693 | 72° | 15km/h | 24049m | -17.6m/s | 0°C | 0% | 0hPa | 0V | 00:00:00 | 00:00:00 | 00:00:00 | |
| OE5DRO-10 | 2026-09-02 06:10:43 | 48.71355 | 18.36671 | 100° | 18km/h | 24207m | -18.7m/s | 0°C | 0% | 0hPa | 0V | 00:00:00 | 00:00:00 | 00:00:00 | |
| PG1ADW-2 | 2026-09-02 06:10:41 | 48.71358 | 18.36659 | 117° | 16km/h | 24146m | -20.1m/s | 0°C | 0% | 0hPa | 0V | 00:00:00 | 00:00:00 | 00:00:00 | |
| DO3MHA-11 | 2026-09-02 06:10:40 | 48.71360 | 18.36652 | 126° | 18km/h | 24166m | -20.8m/s | 0°C | 0% | 0hPa | 0V | 00:00:00 | 00:00:00 | 00:00:00 | |
| OE5WHR-10 | 2026-09-02 06:10:39 | 48.71363 | 18.36647 | 126° | 16km/h | 24187m | -20.2m/s | 0°C | 0% | 0hPa | 0V | 00:00:00 | 00:00:00 | 00:00:00 | |
| OE5DXL-15 | 2026-09-02 06:10:37 | 48.71369 | 18.36636 | 140° | 16km/h | 24225m | -17.3m/s | 0°C | 0% | 0hPa | 0V | 00:00:00 | 00:00:00 | 00:00:00 | |
| ATIDSZ-14 | 2026-09-02 06:10:35 | 48.71377 | 18.36629 | 161° | 18km/h | 24243m | -19.6m/s | -51.1°C | 0% | 0hPa | 0V | 00:00:00 | 00:00:00 | 00:00:00 | |
| PETON7-10 | 2026-09-02 06:10:34 | 48.71381 | 18.36627 | 179° | 15km/h | 24281m | -20.1m/s | 0°C | 0% | 0hPa | 0V | 00:00:00 | 00:00:00 | 00:00:00 | |
| SP9KGR-15 | 2026-09-02 06:10:31 | 48.71401 | 18.36631 | 197° | 22km/h | 24338m | -18.5m/s | -51.1°C | 0% | 0hPa | 0V | 00:00:00 | 00:00:00 | 00:00:00 | |
| DO3MHA-11 | 2026-09-02 06:10:30 | 48.71401 | 18.36631 | 197° | 13km/h | 24357m | -20.2m/s | 0°C | 0% | 0hPa | 0V | 00:00:00 | 00:00:00 | 00:00:00 | |
| OE5DRO-10 | 2026-09-02 06:10:24 | 48.71426 | 18.36636 | 203° | 16km/h | 24474m | -21.5m/s | 0°C | 0% | 0hPa | 0V | 00:00:00 | 00:00:00 | 00:00:00 | |
| PG1ADW-2 | 2026-09-02 06:10:21 | 48.71430 | 18.36642 | 246° | 15km/h | 24539m | -20.2m/s | 0°C | 0% | 0hPa | 0V | 00:00:00 | 00:00:00 | 00:00:00 | |
| DO3MHA-11 | 2026-09-02 06:10:20 | 48.71430 | 18.36645 | 246° | 16km/h | 24599m | -19.0m/s | 0°C | 0% | 0hPa | 0V | 00:00:00 | 00:00:00 | 00:00:00 | |
| PETON7-10 | 2026-09-02 06:10:19 | 48.71432 | 18.36647 | 244° | 18km/h | 24579m | -19.5m/s | 0°C | 0% | 0hPa | 0V | 00:00:00 | 00:00:00 | 00:00:00 | |
| OE5WHR-10 | 2026-09-02 06:10:18 | 48.71433 | 18.36652 | 244° | 15km/h | 24599m | -19.0m/s | 0°C | 0% | 0hPa | 0V | 00:00:00 | 00:00:00 | 00:00:00 | |
| OE3JTB-15 | 2026-09-02 06:10:17 | 48.71434 | 18.36658 | 249° | 13km/h | 24680m | -18.3m/s | 0°C | 0% | 0hPa | 0V | 00:00:00 | 00:00:00 | 00:00:00 | |
| SP9KGR-15 | 2026-09-02 06:10:14 | 48.71436 | 18.36679 | 275° | 18km/h | 24661m | -20.5m/s | -51.1°C | 0% | 0hPa | 0V | 00:00:00 | 00:00:00 | 00:00:00 | |
| ATIDSZ-14 | 2026-09-02 06:10:13 | 48.71436 | 18.36687 | 278° | 20km/h | 24680m | -18.3m/s | -51.2°C | 0% | 0hPa | 0V | 00:00:00 | 00:00:00 | 00:00:00 | |
| OE5MMP-10 | 2026-09-02 06:10:11 | 48.71434 | 18.36701 | 278° | 15km/h | 24741m | -18.4m/s | 0°C | 0% | 0hPa | 0V | 00:00:00 | 00:00:00 | 00:00:00 | |
| DO3MHA-11 | 2026-09-02 06:10:10 | 48.71434 | 18.36709 | 275° | 15km/h | 24759m | -18.9m/s | 0°C | 0% | 0hPa | 0V | 00:00:00 | 00:00:00 | 00:00:00 | |
| OE5DXL-15 | 2026-09-02 06:10:07 | 48.71432 | 18.36734 | 275° | 9km/h | 24842m | -22.5m/s | 0°C | 0% | 0hPa | 0V | 00:00:00 | 00:00:00 | 00:00:00 | |
| OE5DRO-10 | 2026-09-02 06:10:05 | 48.71431 | 18.36745 | 275° | 9km/h | 24863m | -21.3m/s | 0°C | 0% | 0hPa | 0V | 00:00:00 | 00:00:00 | 00:00:00 | |
| PETON7-10 | 2026-09-02 06:10:04 | 48.71431 | 18.36749 | 293° | 7km/h | 24885m | -22.0m/s | 0°C | 0% | 0hPa | 0V | 00:00:00 | 00:00:00 | 00:00:00 | |
| OE5MMP-10 | 2026-09-02 06:10:01 | 48.71428 | 18.36747 | 34° | 7km/h | 24946m | -19.7m/s | 0°C | 0% | 0hPa | 0V | 00:00:00 | 00:00:00 | 00:00:00 | |
| DO3MHA-11 | 2026-09-02 06:10:00 | 48.71426 | 18.36745 | 33° | 7km/h | 24965m | -18.0m/s | 0°C | 0% | 0hPa | 0V | 00:00:00 | 00:00:00 | 00:00:00 | |
| SP9KGR-15 | 2026-09-02 06:09:59 | 48.71422 | 18.36741 | 38° | 9km/h | 24984m | -19.0m/s | -51.4°C | 0% | 0hPa | 0V | 00:00:00 | 00:00:00 | 00:00:00 | |
| NBG1-10 | 2026-09-02 06:09:57 | 48.71420 | 18.36739 | 30° | 9km/h | 25004m | -21.5m/s | 0°C | 0% | 0hPa | 0V | 00:00:00 | 00:00:00 | 00:00:00 | |
| ATIDSZ-14 | 2026-09-02 06:09:53 | 48.71418 | 18.36742 | 286° | 5km/h | 25087m | -20.4m/s | -51.3°C | 0% | 0hPa | 0V | 00:00:00 | 00:00:00 | 00:00:00 | |
| OE5MMP-10 | 2026-09-02 06:09:51 | 48.71417 | 18.36747 | 305° | 13km/h | 25151m | -22.1m/s | 0°C | 0% | 0hPa | 0V | 00:00:00 | 00:00:00 | 00:00:00 | |
| DO3MHA-11 | 2026-09-02 06:09:50 | 48.71416 | 18.36750 | 305° | 13km/h | 25173m | -22.0m/s | 0°C | 0% | 0hPa | 0V | 00:00:00 | 00:00:00 | 00:00:00 | |
| PETON7-10 | 2026-09-02 06:09:49 | 48.71414 | 18.36753 | 317° | 13km/h | 25194m | -20.9m/s | 0°C | 0% | 0hPa | 0V | 00:00:00 | 00:00:00 | 00:00:00 | |
| OE5DRO-10 | 2026-09-02 06:09:44 | 48.71400 | 18.36767 | 353° | 11km/h | 25314m | -20.2m/s | 0°C | 0% | 0hPa | 0V | 00:00:00 | 00:00:00 | 00:00:00 | |
| OE3JTB-15 | 2026-09-02 06:09:43 | 48.71397 | 18.36767 | 353° | 7km/h | 25386m | -17.1m/s | 0°C | 0% | 0hPa | 0V | 00:00:00 | 00:00:00 | 00:00:00 | |
| SP9KGR-15 | 2026-09-02 06:09:42 | 48.71393 | 18.36767 | 359° | 13km/h | 25314m | -20.2m/s | -50.3°C | 0% | 0hPa | 0V | 00:00:00 | 00:00:00 | 00:00:00 | |
| PG1ADW-2 | 2026-09-02 06:09:41 | 48.71390 | 18.36767 | 9° | 7km/h | 25351m | -17.5m/s | 0°C | 0% | 0hPa | 0V | 00:00:00 | 00:00:00 | 00:00:00 | |
| DO3MHA-11 | 2026-09-02 06:09:40 | 48.71387 | 18.36768 | 49° | 11km/h | 25369m | -17.8m/s | 0°C | 0% | 0hPa | 0V | 00:00:00 | 00:00:00 | 00:00:00 | |
| OE5DXL-15 | 2026-09-02 06:09:37 | 48.71381 | 18.36758 | 71° | 7km/h | 25425m | -21.8m/s | 0°C | 0% | 0hPa | 0V | 00:00:00 | 00:00:00 | 00:00:00 | |
| OE5WHR-10 | 2026-09-02 06:09:34 | 48.71380 | 18.36745 | 90° | 7km/h | 25537m | -21.9m/s | 0°C | 0% | 0hPa | 0V | 00:00:00 | 00:00:00 | 00:00:00 | |
| OE5MMP-10 | 2026-09-02 06:09:31 | 48.71381 | 18.36732 | 104° | 4km/h | 25559m | -22.5m/s | 0°C | 0% | 0hPa | 0V | 00:00:00 | 00:00:00 | 00:00:00 | |
| DO3MHA-11 | 2026-09-02 06:09:30 | 48.71381 | 18.36730 | 106° | 5km/h | 25581m | -22.1m/s | 0°C | 0% | 0hPa | 0V | 00:00:00 | 00:00:00 | 00:00:00 | |
| SP9KGR-15 | 2026-09-02 06:09:27 | 48.71382 | 18.36721 | 85° | 4km/h | 25626m | -21.3m/s | -49.4°C | 0% | 0hPa | 0V | 00:00:00 | 00:00:00 | 00:00:00 | |
| OE5DRO-10 | 2026-09-02 06:09:25 | 48.71382 | 18.36719 | 333° | 7km/h | 25683m | -18.1m/s | 0°C | 0% | 0hPa | 0V | 00:00:00 | 00:00:00 | 00:00:00 | |
| NBG1-10 | 2026-09-02 06:09:23 | 48.71381 | 18.36720 | 275° | 7km/h | 25739m | -21.2m/s | 0°C | 0% | 0hPa | 0V | 00:00:00 | 00:00:00 | 00:00:00 | |
| PG1ADW-2 | 2026-09-02 06:09:21 | 48.71380 | 18.36723 | 301° | 7km/h | 25761m | -22.5m/s | 0°C | 0% | 0hPa | 0V | 00:00:00 | 00:00:00 | 00:00:00 | |
| DO3MHA-11 | 2026-09-02 06:09:20 | 48.71380 | 18.36724 | 328° | 9km/h | 25783m | -21.7m/s | 0°C | 0% | 0hPa | 0V | 00:00:00 | 00:00:00 | 00:00:00 | |
| PETON7-10 | 2026-09-02 06:09:19 | 48.71378 | 18.36725 | 341° | 9km/h | 25806m | -23.9m/s | 0°C | 0% | 0hPa | 0V | 00:00:00 | 00:00:00 | 00:00:00 | |
| ATIDSZ-14 | 2026-09-02 06:09:12 | 48.71363 | 18.36737 | 325° | 7km/h | 25956m | -19.4m/s | -49.3°C | 0% | 0hPa | 0V | 00:00:00 | 00:00:00 | 00:00:00 | |
| OE5MMP-10 | 2026-09-02 06:09:10 | 48.71360 | 18.36739 | 25° | 7km/h | 26014m | -17.7m/s | 0°C | 0% | 0hPa | 0V | 00:00:00 | 00:00:00 | 00:00:00 | |
| OE5DXL-15 | 2026-09-02 06:09:07 | 48.71354 | 18.36734 | 31° | 7km/h | 26073m | -24.1m/s | 0°C | 0% | 0hPa | 0V | 00:00:00 | 00:00:00 | 00:00:00 | |
| OE5DRO-10 | 2026-09-02 06:09:06 | 48.71352 | 18.36732 | 36° | 5km/h | 26122m | -23.5m/s | 0°C | 0% | 0hPa | 0V | 00:00:00 | 00:00:00 | 00:00:00 | |
| PETON7-10 | 2026-09-02 06:09:04 | 48.71348 | 18.36728 | 35° | 7km/h | 26144m | -21.2m/s | 0°C | 0% | 0hPa | 0V | 00:00:00 | 00:00:00 | 00:00:00 | |
| GYPAP8-17 | 2026-09-02 06:09:03 | 48.71346 | 18.36725 | 47° | 5km/h | 26166m | -21.7m/s | -48.6°C | 0% | 0hPa | 0V | 00:00:00 | 00:00:00 | 00:00:00 | |
| PG1ADW-2 | 2026-09-02 06:09:01 | 48.71345 | 18.36724 | 52° | 7km/h | 26204m | -18.2m/s | 0°C | 0% | 0hPa | 0V | 00:00:00 | 00:00:00 | 00:00:00 | |
| SP9KGR-15 | 2026-09-02 06:08:57 | 48.71339 | 18.36714 | 47° | 9km/h | 26256m | -15.8m/s | -48.1°C | 0% | 0hPa | 0V | 00:00:00 | 00:00:00 | 00:00:00 | |
| ATIDSZ-14 | 2026-09-02 06:08:51 | 48.71333 | 18.36706 | 324° | 4km/h | 26369m | -17.1m/s | -47.7°C | 0% | 0hPa | 0V | 00:00:00 | 00:00:00 | 00:00:00 | |
| DO3MHA-11 | 2026-09-02 06:08:50 | 48.71332 | 18.36708 | 301° | 7km/h | 26397m | -11.7m/s | 0°C | 0% | 0hPa | 0V | 00:00:00 | 00:00:00 | 00:00:00 | |
| PETON7-10 | 2026-09-02 06:08:49 | 48.71332 | 18.36709 | 301° | 7km/h | 26415m | -24.0m/s | 0°C | 0% | 0hPa | 0V | 00:00:00 | 00:00:00 | 00:00:00 | |
| OE5WHR-10 | 2026-09-02 06:08:48 | 48.71331 | 18.36712 | 67° | 9km/h | 26438m | -23.9m/s | 0°C | 0% | 0hPa | 0V | 00:00:00 | 00:00:00 | 00:00:00 | |
| OE5DRO-10 | 2026-09-02 06:08:47 | 48.71330 | 18.36709 | 67° | 9km/h | 26458m | -15.0m/s | 0°C | 0% | 0hPa | 0V | 00:00:00 | 00:00:00 | 00:00:00 | |
| PG1ADW-2 | 2026-09-02 06:08:41 | 48.71327 | 18.36692 | 74° | 9km/h | 26450m | 4.6m/s | 0°C | 0% | 0hPa | 0V | 00:00:00 | 00:00:00 | 00:00:00 | |
| DO3MHA-11 | 2026-09-02 06:08:40 | 48.71326 | 18.36689 | 75° | 7km/h | 26445m | 4.1m/s | 0°C | 0% | 0hPa | 0V | 00:00:00 | 00:00:00 | 00:00:00 | |
| OE5DXL-15 | 2026-09-02 06:08:37 | 48.71329 | 18.36688 | 220° | 9km/h | 26429m | 4.7m/s | 0°C | 0% | 0hPa | 0V | 00:00:00 | 00:00:00 | 00:00:00 | |
| PETON7-10 | 2026-09-02 06:08:34 | 48.71334 | 18.36695 | 20° | 11km/h | 26414m | 5.5m/s | 0°C | 0% | 0hPa | 0V | 00:00:00 | 00:00:00 | 00:00:00 | |
| ATIDSZ-14 | 2026-09-02 06:08:31 | 48.71331 | 18.36690 | 48° | 13km/h | 26404m | 4.4m/s | -47.5°C | 0% | 0hPa | 0V | 00:00:00 | 00:00:00 | 00:00:00 | |
| OE5MMP-10 | 2026-09-02 06:08:30 | 48.71329 | 18.36686 | 44° | 11km/h | 26394m | 5.7m/s | 0°C | 0% | 0hPa | 0V | 00:00:00 | 00:00:00 | 00:00:00 | |
| OE5DRO-10 | 2026-09-02 06:08:28 | 48.71321 | 18.36676 | 42° | 9km/h | 26385m | 4.3m/s | 0°C | 0% | 0hPa | 0V | 00:00:00 | 00:00:00 | 00:00:00 | |
| OE5WHR-10 | 2026-09-02 06:08:27 | 48.71318 | 18.36670 | 234° | 11km/h | 26356m | 5.3m/s | 0°C | 0% | 0hPa | 0V | 00:00:00 | 00:00:00 | 00:00:00 | |
| SP9KGR-15 | 2026-09-02 06:08:26 | 48.71318 | 18.36670 | 222° | 9km/h | 26375m | 4.7m/s | -47.7°C | 0% | 0hPa | 0V | 00:00:00 | 00:00:00 | 00:00:00 | |
| PG1ADW-2 | 2026-09-02 06:08:21 | 48.71322 | 18.36680 | 33° | 11km/h | 26350m | 5.5m/s | 0°C | 0% | 0hPa | 0V | 00:00:00 | 00:00:00 | 00:00:00 | |
| DO3MHA-11 | 2026-09-02 06:08:20 | 48.71320 | 18.36678 | 42° | 11km/h | 26345m | 5.0m/s | 0°C | 0% | 0hPa | 0V | 00:00:00 | 00:00:00 | 00:00:00 | |
| PETON7-10 | 2026-09-02 06:08:19 | 48.71317 | 18.36673 | 42° | 11km/h | 26340m | 4.6m/s | 0°C | 0% | 0hPa | 0V | 00:00:00 | 00:00:00 | 00:00:00 | |
| NBG1-10 | 2026-09-02 06:08:17 | 48.71310 | 18.36665 | 22° | 9km/h | 26330m | 4.4m/s | 0°C | 0% | 0hPa | 0V | 00:00:00 | 00:00:00 | 00:00:00 | |
| ATIDSZ-14 | 2026-09-02 06:08:11 | 48.71312 | 18.36666 | 55° | 4km/h | 26300m | 4.2m/s | -48.2°C | 0% | 0hPa | 0V | 00:00:00 | 00:00:00 | 00:00:00 | |
| DO3MHA-11 | 2026-09-02 06:08:10 | 48.71312 | 18.36666 | 55° | 9km/h | 26296m | 5.4m/s | 0°C | 0% | 0hPa | 0V | 00:00:00 | 00:00:00 | 00:00:00 | |
| OE5DRO-10 | 2026-09-02 06:08:09 | 48.71312 | 18.36665 | 49° | 11km/h | 26290m | 5.0m/s | 0°C | 0% | 0hPa | 0V | 00:00:00 | 00:00:00 | 00:00:00 | |
| OE5DXL-15 | 2026-09-02 06:08:07 | 48.71308 | 18.36654 | 26° | 11km/h | 26280m | 5.5m/s | 0°C | 0% | 0hPa | 0V | 00:00:00 | 00:00:00 | 00:00:00 | |
| OE5WHR-10 | 2026-09-02 06:08:05 | 48.71301 | 18.36649 | 17° | 7km/h | 26265m | 5.0m/s | 0°C | 0% | 0hPa | 0V | 00:00:00 | 00:00:00 | 00:00:00 | |
| PETON7-10 | 2026-09-02 06:08:04 | 48.71298 | 18.36649 | 17° | 9km/h | 26265m | 5.0m/s | 0°C | 0% | 0hPa | 0V | 00:00:00 | 00:00:00 | 00:00:00 | |
| PG1ADW-2 | 2026-09-02 06:08:01 | 48.71295 | 18.36648 | 112° | 11km/h | 26249m | 4.2m/s | 0°C | 0% | 0hPa | 0V | 00:00:00 | 00:00:00 | 00:00:00 | |
| OE5MMP-10 | 2026-09-02 06:08:00 | 48.71295 | 18.36648 | 112° | 13km/h | 26245m | 4.0m/s | 0°C | 0% | 0hPa | 0V | 00:00:00 | 00:00:00 | 00:00:00 | |
| DO3MHA-11 | 2026-09-02 06:07:50 | 48.71281 | 18.36614 | 76° | 9km/h | 26195m | 4.6m/s | 0°C | 0% | 0hPa | 0V | 00:00:00 | 00:00:00 | 00:00:00 | |
| PETON7-10 | 2026-09-02 06:07:49 | 48.71280 | 18.36613 | 76° | 9km/h | 26190m | 5.9m/s | 0°C | 0% | 0hPa | 0V | 00:00:00 | 00:00:00 | 00:00:00 | |
| NBG1-10 | 2026-09-02 06:07:44 | 48.71277 | 18.36600 | 41° | 11km/h | 26165m | 5.2m/s | 0°C | 0% | 0hPa | 0V | 00:00:00 | 00:00:00 | 00:00:00 | |
| OE5WHR-10 | 2026-09-02 06:07:43 | 48.71275 | 18.36596 | 18° | 11km/h | 26149m | 5.3m/s | 0°C | 0% | 0hPa | 0V | 00:00:00 | 00:00:00 | 00:00:00 | |
| PG1ADW-2 | 2026-09-02 06:07:41 | 48.71268 | 18.36595 | 344° | 11km/h | 26149m | 5.3m/s | 0°C | 0% | 0hPa | 0V | 00:00:00 | 00:00:00 | 00:00:00 | |
| DO3MHA-11 | 2026-09-02 06:07:40 | 48.71264 | 18.36597 | 344° | 11km/h | 26144m | 5.5m/s | 0°C | 0% | 0hPa | 0V | 00:00:00 | 00:00:00 | 00:00:00 | |
| OE5DXL-15 | 2026-09-02 06:07:37 | 48.71257 | 18.36599 | 33° | 9km/h | 26127m | 4.7m/s | 0°C | 0% | 0hPa | 0V | 00:00:00 | 00:00:00 | 00:00:00 | |
| PETON7-10 | 2026-09-02 06:07:34 | 48.71252 | 18.36593 | 65° | 11km/h | 26112m | 4.2m/s | 0°C | 0% | 0hPa | 0V | 00:00:00 | 00:00:00 | 00:00:00 | |
| OE5DRO-10 | 2026-09-02 06:07:31 | 48.71247 | 18.36579 | 18° | 11km/h | 26102m | 5.7m/s | 0°C | 0% | 0hPa | 0V | 00:00:00 | 00:00:00 | 00:00:00 | |
| OE5MMP-10 | 2026-09-02 06:07:30 | 48.71245 | 18.36577 | 352° | 11km/h | 26092m | 4.2m/s | 0°C | 0% | 0hPa | 0V | 00:00:00 | 00:00:00 | 00:00:00 | |
| ATIDSZ-14 | 2026-09-02 06:07:28 | 48.71240 | 18.36580 | 351° | 11km/h | 26087m | 5.4m/s | -48.8°C | 0% | 0hPa | 0V | 00:00:00 | 00:00:00 | 00:00:00 | |
| POL1PZ | 2026-09-02 06:07:27 | 48.71238 | 18.36580 | 10° | 9km/h | 26082m | 4.9m/s | -48.9°C | 0% | 0hPa | 0V | 00:00:00 | 00:00:00 | 00:00:00 | |
| SP9KGR-15 | 2026-09-02 06:07:22 | 48.71223 | 18.36568 | 55° | 11km/h | 26051m | 4.2m/s | -49.0°C | 0% | 0hPa | 0V | 00:00:00 | 00:00:00 | 00:00:00 | |
| PG1ADW-2 | 2026-09-02 06:07:21 | 48.71223 | 18.36568 | 55° | 9km/h | 26047m | 5.2m/s | 0°C | 0% | 0hPa | 0V | 00:00:00 | 00:00:00 | 00:00:00 | |
| OE5MMP-10 | 2026-09-02 06:07:20 | 48.71222 | 18.36563 | 353° | 9km/h | 26041m | 5.6m/s | 0°C | 0% | 0hPa | 0V | 00:00:00 | 00:00:00 | 00:00:00 | |
| DO3MHA-11 | 2026-09-02 06:07:19 | 48.71221 | 18.36564 | 353° | 9km/h | 26036m | 4.7m/s | 0°C | 0% | 0hPa | 0V | 00:00:00 | 00:00:00 | 00:00:00 | |
| NBG1-10 | 2026-09-02 06:07:11 | 48.71201 | 18.36562 | 358° | 13km/h | 25993m | 4.5m/s | 0°C | 0% | 0hPa | 0V | 00:00:00 | 00:00:00 | 00:00:00 | |
| OE5MMP-10 | 2026-09-02 06:07:10 | 48.71199 | 18.36562 | 358° | 11km/h | 25988m | 4.6m/s | 0°C | 0% | 0hPa | 0V | 00:00:00 | 00:00:00 | 00:00:00 | |
| DO3MHA-11 | 2026-09-02 06:07:09 | 48.71198 | 18.36560 | 318° | 11km/h | 25983m | 5.7m/s | 0°C | 0% | 0hPa | 0V | 00:00:00 | 00:00:00 | 00:00:00 | |
| SP9KGR-15 | 2026-09-02 06:07:07 | 48.71192 | 18.36570 | 316° | 15km/h | 25972m | 5.2m/s | -49.2°C | 0% | 0hPa | 0V | 00:00:00 | 00:00:00 | 00:00:00 | |
| PETON7-10 | 2026-09-02 06:07:04 | 48.71188 | 18.36577 | 338° | 11km/h | 25956m | 6.1m/s | 0°C | 0% | 0hPa | 0V | 00:00:00 | 00:00:00 | 00:00:00 | |
| POL1PZ | 2026-09-02 06:07:02 | 48.71182 | 18.36580 | 3° | 15km/h | 25951m | 4.7m/s | -49.2°C | 0% | 0hPa | 0V | 00:00:00 | 00:00:00 | 00:00:00 | |
| PG1ADW-2 | 2026-09-02 06:07:01 | 48.71179 | 18.36580 | 19° | 13km/h | 25940m | 6.1m/s | 0°C | 0% | 0hPa | 0V | 00:00:00 | 00:00:00 | 00:00:00 | |
| OE5MMP-10 | 2026-09-02 06:07:00 | 48.71176 | 18.36578 | 39° | 11km/h | 25935m | 4.2m/s | 0°C | 0% | 0hPa | 0V | 00:00:00 | 00:00:00 | 00:00:00 | |
| DO3MHA-11 | 2026-09-02 06:06:59 | 48.71175 | 18.36575 | 45° | 11km/h | 25931m | 3.9m/s | 0°C | 0% | 0hPa | 0V | 00:00:00 | 00:00:00 | 00:00:00 | |
| OE5WHR-10 | 2026-09-02 06:06:58 | 48.71173 | 18.36570 | 341° | 11km/h | 25925m | 5.9m/s | 0°C | 0% | 0hPa | 0V | 00:00:00 | 00:00:00 | 00:00:00 | |
| OE5DRO-10 | 2026-09-02 06:06:52 | 48.71160 | 18.36590 | 337° | 13km/h | 25887m | 5.3m/s | 0°C | 0% | 0hPa | 0V | 00:00:00 | 00:00:00 | 00:00:00 | |
| SP9KGR-15 | 2026-09-02 06:06:51 | 48.71158 | 18.36590 | 328° | 11km/h | 25893m | 6.1m/s | -49.1°C | 0% | 0hPa | 0V | 00:00:00 | 00:00:00 | 00:00:00 | |
| OE5MMP-10 | 2026-09-02 06:06:50 | 48.71156 | 18.36593 | 345° | 13km/h | 25881m | 5.7m/s | 0°C | 0% | 0hPa | 0V | 00:00:00 | 00:00:00 | 00:00:00 | |
| DO3MHA-11 | 2026-09-02 06:06:49 | 48.71153 | 18.36594 | 345° | 13km/h | 25876m | 5.6m/s | 0°C | 0% | 0hPa | 0V | 00:00:00 | 00:00:00 | 00:00:00 | |
| ATIDSZ-14 | 2026-09-02 06:06:47 | 48.71147 | 18.36596 | 321° | 9km/h | 25867m | 5.0m/s | -49.0°C | 0% | 0hPa | 0V | 00:00:00 | 00:00:00 | 00:00:00 | |
| POL1PZ | 2026-09-02 06:06:41 | 48.71133 | 18.36627 | 312° | 15km/h | 25834m | 5.9m/s | -48.9°C | 0% | 0hPa | 0V | 00:00:00 | 00:00:00 | 00:00:00 | |
| OE5MMP-10 | 2026-09-02 06:06:40 | 48.71133 | 18.36627 | 311° | 15km/h | 25829m | 5.0m/s | 0°C | 0% | 0hPa | 0V | 00:00:00 | 00:00:00 | 00:00:00 | |
| DO3MHA-11 | 2026-09-02 06:06:39 | 48.71131 | 18.36632 | 342° | 13km/h | 25823m | 4.9m/s | 0°C | 0% | 0hPa | 0V | 00:00:00 | 00:00:00 | 00:00:00 | |
| NBG1-10 | 2026-09-02 06:06:38 | 48.71128 | 18.36634 | 342° | 9km/h | 25817m | 6.3m/s | 0°C | 0% | 0hPa | 0V | 00:00:00 | 00:00:00 | 00:00:00 | |
| OE5DXL-15 | 2026-09-02 06:06:37 | 48.71125 | 18.36633 | 351° | 7km/h | 25812m | 4.6m/s | 0°C | 0% | 0hPa | 0V | 00:00:00 | 00:00:00 | 00:00:00 | |
| PETON7-10 | 2026-09-02 06:06:34 | 48.71117 | 18.36637 | 329° | 11km/h | 25797m | 4.3m/s | 0°C | 0% | 0hPa | 0V | 00:00:00 | 00:00:00 | 00:00:00 | |
| SP9KGR-15 | 2026-09-02 06:06:33 | 48.71110 | 18.36645 | 314° | 18km/h | 25792m | 4.9m/s | -48.9°C | 0% | 0hPa | 0V | 00:00:00 | 00:00:00 | 00:00:00 | |
| OE5MMP-10 | 2026-09-02 06:06:30 | 48.71105 | 18.36654 | 297° | 7km/h | 25776m | 5.0m/s | 0°C | 0% | 0hPa | 0V | 00:00:00 | 00:00:00 | 00:00:00 | |
| DO3MHA-11 | 2026-09-02 06:06:29 | 48.71104 | 18.36657 | 297° | 7km/h | 25771m | 5.7m/s | 0°C | 0% | 0hPa | 0V | 00:00:00 | 00:00:00 | 00:00:00 | |
| ATIDSZ-14 | 2026-09-02 06:06:26 | 48.71101 | 18.36665 | 3° | 5km/h | 25761m | 5.2m/s | -49.0°C | 0% | 0hPa | 0V | 00:00:00 | 00:00:00 | 00:00:00 | |
| PG1ADW-2 | 2026-09-02 06:06:21 | 48.71096 | 18.36665 | 283° | 7km/h | 25730m | 5.0m/s | 0°C | 0% | 0hPa | 0V | 00:00:00 | 00:00:00 | 00:00:00 | |
| OE5MMP-10 | 2026-09-02 06:06:20 | 48.71095 | 18.36669 | 275° | 7km/h | 25725m | 5.6m/s | 0°C | 0% | 0hPa | 0V | 00:00:00 | 00:00:00 | 00:00:00 | |
| DO3MHA-11 | 2026-09-02 06:06:19 | 48.71095 | 18.36673 | 268° | 5km/h | 25719m | 4.9m/s | 0°C | 0% | 0hPa | 0V | 00:00:00 | 00:00:00 | 00:00:00 | |
| SP9KGR-15 | 2026-09-02 06:06:17 | 48.71096 | 18.36678 | 317° | 4km/h | 25714m | 5.0m/s | -49.0°C | 0% | 0hPa | 0V | 00:00:00 | 00:00:00 | 00:00:00 | |
| OE5DRO-10 | 2026-09-02 06:06:14 | 48.71094 | 18.36680 | 72° | 7km/h | 25693m | 6.0m/s | 0°C | 0% | 0hPa | 0V | 00:00:00 | 00:00:00 | 00:00:00 | |
| DO3MHA-11 | 2026-09-02 06:06:09 | 48.71095 | 18.36673 | 247° | 9km/h | 25667m | 6.2m/s | 0°C | 0% | 0hPa | 0V | 00:00:00 | 00:00:00 | 00:00:00 | |
| OE5DXL-15 | 2026-09-02 06:06:07 | 48.71097 | 18.36674 | 19° | 9km/h | 25656m | 5.1m/s | 0°C | 0% | 0hPa | 0V | 00:00:00 | 00:00:00 | 00:00:00 | |
| NBG1-10 | 2026-09-02 06:06:05 | 48.71094 | 18.36672 | 13° | 9km/h | 25641m | 4.1m/s | 0°C | 0% | 0hPa | 0V | 00:00:00 | 00:00:00 | 00:00:00 | |
| SP9KGR-15 | 2026-09-02 06:06:02 | 48.71084 | 18.36666 | 86° | 11km/h | 25630m | 5.1m/s | -49.0°C | 0% | 0hPa | 0V | 00:00:00 | 00:00:00 | 00:00:00 | |
| PG1ADW-2 | 2026-09-02 06:06:01 | 48.71084 | 18.36666 | 86° | 9km/h | 25625m | 4.3m/s | 0°C | 0% | 0hPa | 0V | 00:00:00 | 00:00:00 | 00:00:00 | |
| OE5MMP-10 | 2026-09-02 06:06:00 | 48.71083 | 18.36660 | 119° | 7km/h | 25620m | 5.5m/s | 0°C | 0% | 0hPa | 0V | 00:00:00 | 00:00:00 | 00:00:00 | |
| DO3MHA-11 | 2026-09-02 06:05:59 | 48.71084 | 18.36658 | 119° | 7km/h | 25614m | 5.4m/s | 0°C | 0% | 0hPa | 0V | 00:00:00 | 00:00:00 | 00:00:00 | |
| POL1PZ | 2026-09-02 06:05:56 | 48.71086 | 18.36655 | 48° | 4km/h | 25599m | 5.3m/s | -49.3°C | 0% | 0hPa | 0V | 00:00:00 | 00:00:00 | 00:00:00 | |
| OE5DRO-10 | 2026-09-02 06:05:55 | 48.71086 | 18.36655 | 47° | 11km/h | 25594m | 4.7m/s | 0°C | 0% | 0hPa | 0V | 00:00:00 | 00:00:00 | 00:00:00 | |
| OE5MMP-10 | 2026-09-02 06:05:50 | 48.71078 | 18.36643 | 94° | 11km/h | 25568m | 4.3m/s | 0°C | 0% | 0hPa | 0V | 00:00:00 | 00:00:00 | 00:00:00 | |
| DO3MHA-11 | 2026-09-02 06:05:49 | 48.71078 | 18.36637 | 136° | 11km/h | 25563m | 5.4m/s | 0°C | 0% | 0hPa | 0V | 00:00:00 | 00:00:00 | 00:00:00 | |
| SP9KGR-15 | 2026-09-02 06:05:47 | 48.71082 | 18.36631 | 164° | 7km/h | 25552m | 4.3m/s | -49.2°C | 0% | 0hPa | 0V | 00:00:00 | 00:00:00 | 00:00:00 | |
| ATIDSZ-14 | 2026-09-02 06:05:45 | 48.71084 | 18.36630 | 147° | 9km/h | 25548m | 4.7m/s | -49.3°C | 0% | 0hPa | 0V | 00:00:00 | 00:00:00 | 00:00:00 | |
| PG1ADW-2 | 2026-09-02 06:05:41 | 48.71088 | 18.36619 | 82° | 9km/h | 25521m | 4.4m/s | 0°C | 0% | 0hPa | 0V | 00:00:00 | 00:00:00 | 00:00:00 | |
| OE5MMP-10 | 2026-09-02 06:05:40 | 48.71088 | 18.36614 | 82° | 9km/h | 25516m | 5.7m/s | 0°C | 0% | 0hPa | 0V | 00:00:00 | 00:00:00 | 00:00:00 | |
| OE5WHR-10 | 2026-09-02 06:05:39 | 48.71087 | 18.36610 | 95° | 9km/h | 25510m | 5.0m/s | 0°C | 0% | 0hPa | 0V | 00:00:00 | 00:00:00 | 00:00:00 | |
| OE5DXL-15 | 2026-09-02 06:05:37 | 48.71087 | 18.36600 | 108° | 7km/h | 25501m | 5.9m/s | 0°C | 0% | 0hPa | 0V | 00:00:00 | 00:00:00 | 00:00:00 | |
| OE5DRO-10 | 2026-09-02 06:05:36 | 48.71088 | 18.36596 | 126° | 9km/h | 25495m | 4.7m/s | 0°C | 0% | 0hPa | 0V | 00:00:00 | 00:00:00 | 00:00:00 | |
| POL1PZ | 2026-09-02 06:05:35 | 48.71089 | 18.36595 | 155° | 4km/h | 25495m | 4.8m/s | -49.6°C | 0% | 0hPa | 0V | 00:00:00 | 00:00:00 | 00:00:00 | |
| PETON7-10 | 2026-09-02 06:05:34 | 48.71090 | 18.36596 | 91° | 9km/h | 25486m | 5.5m/s | 0°C | 0% | 0hPa | 0V | 00:00:00 | 00:00:00 | 00:00:00 | |
| NBG1-10 | 2026-09-02 06:05:32 | 48.71093 | 18.36592 | 72° | 9km/h | 25481m | 4.5m/s | 0°C | 0% | 0hPa | 0V | 00:00:00 | 00:00:00 | 00:00:00 | |
| OE5MMP-10 | 2026-09-02 06:05:30 | 48.71089 | 18.36583 | 42° | 9km/h | 25466m | 5.0m/s | 0°C | 0% | 0hPa | 0V | 00:00:00 | 00:00:00 | 00:00:00 | |
| DO3MHA-11 | 2026-09-02 06:05:29 | 48.71087 | 18.36580 | 42° | 9km/h | 25461m | 4.6m/s | 0°C | 0% | 0hPa | 0V | 00:00:00 | 00:00:00 | 00:00:00 | |
| ATIDSZ-14 | 2026-09-02 06:05:24 | 48.71083 | 18.36566 | 60° | 4km/h | 25440m | 5.8m/s | -49.5°C | 0% | 0hPa | 0V | 00:00:00 | 00:00:00 | 00:00:00 | |
| PG1ADW-2 | 2026-09-02 06:05:21 | 48.71080 | 18.36564 | 35° | 7km/h | 25420m | 5.0m/s | 0°C | 0% | 0hPa | 0V | 00:00:00 | 00:00:00 | 00:00:00 | |
| OE5MMP-10 | 2026-09-02 06:05:20 | 48.71078 | 18.36562 | 39° | 7km/h | 25415m | 4.4m/s | 0°C | 0% | 0hPa | 0V | 00:00:00 | 00:00:00 | 00:00:00 | |
| DO3MHA-11 | 2026-09-02 06:05:19 | 48.71076 | 18.36558 | 24° | 7km/h | 25410m | 5.8m/s | 0°C | 0% | 0hPa | 0V | 00:00:00 | 00:00:00 | 00:00:00 | |
| OE5WHR-10 | 2026-09-02 06:05:18 | 48.71073 | 18.36556 | 24° | 7km/h | 25400m | 5.0m/s | 0°C | 0% | 0hPa | 0V | 00:00:00 | 00:00:00 | 00:00:00 | |
| OE5DRO-10 | 2026-09-02 06:05:17 | 48.71071 | 18.36555 | 18° | 7km/h | 25404m | 4.3m/s | 0°C | 0% | 0hPa | 0V | 00:00:00 | 00:00:00 | 00:00:00 | |
| GYPAP8-17 | 2026-09-02 06:05:16 | 48.71069 | 18.36554 | 24° | 7km/h | 25400m | 5.1m/s | -49.7°C | 0% | 0hPa | 0V | 00:00:00 | 00:00:00 | 00:00:00 | |
| POL1PZ | 2026-09-02 06:05:15 | 48.71068 | 18.36553 | 35° | 4km/h | 25395m | 5.3m/s | -49.8°C | 0% | 0hPa | 0V | 00:00:00 | 00:00:00 | 00:00:00 | |
| OE5MMP-10 | 2026-09-02 06:05:10 | 48.71067 | 18.36558 | 313° | 7km/h | 25365m | 5.3m/s | 0°C | 0% | 0hPa | 0V | 00:00:00 | 00:00:00 | 00:00:00 | |
| DO3MHA-11 | 2026-09-02 06:05:09 | 48.71066 | 18.36559 | 6° | 7km/h | 25360m | 4.3m/s | 0°C | 0% | 0hPa | 0V | 00:00:00 | 00:00:00 | 00:00:00 | |
| OE5DXL-15 | 2026-09-02 06:05:07 | 48.71064 | 18.36557 | 15° | 11km/h | 25350m | 5.3m/s | 0°C | 0% | 0hPa | 0V | 00:00:00 | 00:00:00 | 00:00:00 | |
| PETON7-10 | 2026-09-02 06:05:04 | 48.71056 | 18.36555 | 13° | 9km/h | 25335m | 5.2m/s | 0°C | 0% | 0hPa | 0V | 00:00:00 | 00:00:00 | 00:00:00 | |
| OE3JTB-15 | 2026-09-02 06:05:01 | 48.71051 | 18.36554 | 335° | 11km/h | 25321m | 5.7m/s | 0°C | 0% | 0hPa | 0V | 00:00:00 | 00:00:00 | 00:00:00 | |
| OE5MMP-10 | 2026-09-02 06:05:00 | 48.71049 | 18.36554 | 321° | 9km/h | 25315m | 4.8m/s | 0°C | 0% | 0hPa | 0V | 00:00:00 | 00:00:00 | 00:00:00 | |
| DO3MHA-11 | 2026-09-02 06:04:59 | 48.71047 | 18.36558 | 321° | 9km/h | 25310m | 5.4m/s | 0°C | 0% | 0hPa | 0V | 00:00:00 | 00:00:00 | 00:00:00 | |
| OE5DRO-10 | 2026-09-02 06:04:58 | 48.71044 | 18.36561 | 307° | 11km/h | 25305m | 5.4m/s | 0°C | 0% | 0hPa | 0V | 00:00:00 | 00:00:00 | 00:00:00 | |
| OE5WHR-10 | 2026-09-02 06:04:57 | 48.71042 | 18.36564 | 307° | 11km/h | 25300m | 4.7m/s | 0°C | 0% | 0hPa | 0V | 00:00:00 | 00:00:00 | 00:00:00 | |
| OE5MMP-10 | 2026-09-02 06:04:50 | 48.71036 | 18.36583 | 314° | 13km/h | 25264m | 4.7m/s | 0°C | 0% | 0hPa | 0V | 00:00:00 | 00:00:00 | 00:00:00 | |
| DO3MHA-11 | 2026-09-02 06:04:49 | 48.71035 | 18.36586 | 327° | 15km/h | 25259m | 3.8m/s | 0°C | 0% | 0hPa | 0V | 00:00:00 | 00:00:00 | 00:00:00 | |
| SP9KGR-15 | 2026-09-02 06:04:45 | 48.71023 | 18.36599 | 303° | 13km/h | 25240m | 4.7m/s | -50.5°C | 0% | 0hPa | 0V | 00:00:00 | 00:00:00 | 00:00:00 | |
| ATIDSZ-14 | 2026-09-02 06:04:43 | 48.71021 | 18.36604 | 299° | 16km/h | 25235m | 5.8m/s | -50.6°C | 0% | 0hPa | 0V | 00:00:00 | 00:00:00 | 00:00:00 | |
| PG1ADW-2 | 2026-09-02 06:04:41 | 48.71016 | 18.36617 | 291° | 9km/h | 25221m | 5.5m/s | 0°C | 0% | 0hPa | 0V | 00:00:00 | 00:00:00 | 00:00:00 | |
| OE5MMP-10 | 2026-09-02 06:04:40 | 48.71014 | 18.36623 | 283° | 11km/h | 25216m | 4.5m/s | 0°C | 0% | 0hPa | 0V | 00:00:00 | 00:00:00 | 00:00:00 | |
| DO3MHA-11 | 2026-09-02 06:04:39 | 48.71014 | 18.36628 | 280° | 11km/h | 25211m | 4.7m/s | 0°C | 0% | 0hPa | 0V | 00:00:00 | 00:00:00 | 00:00:00 | |
| OE5WHR-10 | 2026-09-02 06:04:36 | 48.71012 | 18.36641 | 343° | 7km/h | 25197m | 5.1m/s | 0°C | 0% | 0hPa | 0V | 00:00:00 | 00:00:00 | 00:00:00 | |
| PETON7-10 | 2026-09-02 06:04:34 | 48.71008 | 18.36642 | 336° | 9km/h | 25187m | 4.2m/s | 0°C | 0% | 0hPa | 0V | 00:00:00 | 00:00:00 | 00:00:00 | |
| OE3JTB-15 | 2026-09-02 06:04:32 | 48.71003 | 18.36643 | 319° | 7km/h | 25176m | 4.6m/s | 0°C | 0% | 0hPa | 0V | 00:00:00 | 00:00:00 | 00:00:00 | |
| OE5MMP-10 | 2026-09-02 06:04:30 | 48.70996 | 18.36653 | 305° | 7km/h | 25168m | 5.4m/s | 0°C | 0% | 0hPa | 0V | 00:00:00 | 00:00:00 | 00:00:00 | |
| SP9KGR-15 | 2026-09-02 06:04:29 | 48.70992 | 18.36659 | 294° | 7km/h | 25163m | 5.0m/s | -51.1°C | 0% | 0hPa | 0V | 00:00:00 | 00:00:00 | 00:00:00 | |
| NBG1-10 | 2026-09-02 06:04:26 | 48.70992 | 18.36661 | 342° | 5km/h | 25148m | 5.0m/s | 0°C | 0% | 0hPa | 0V | 00:00:00 | 00:00:00 | 00:00:00 | |
| POL1PZ | 2026-09-02 06:04:24 | 48.70990 | 18.36663 | 352° | 7km/h | 25144m | 4.4m/s | -51.0°C | 0% | 0hPa | 0V | 00:00:00 | 00:00:00 | 00:00:00 | |
| ATIDSZ-14 | 2026-09-02 06:04:22 | 48.70987 | 18.36663 | 24° | 7km/h | 25134m | 5.8m/s | -51.2°C | 0% | 0hPa | 0V | 00:00:00 | 00:00:00 | 00:00:00 | |
| PG1ADW-2 | 2026-09-02 06:04:21 | 48.70985 | 18.36660 | 343° | 5km/h | 25124m | 5.4m/s | 0°C | 0% | 0hPa | 0V | 00:00:00 | 00:00:00 | 00:00:00 | |
| OE5MMP-10 | 2026-09-02 06:04:20 | 48.70984 | 18.36660 | 343° | 5km/h | 25119m | 5.0m/s | 0°C | 0% | 0hPa | 0V | 00:00:00 | 00:00:00 | 00:00:00 | |
| PETON7-10 | 2026-09-02 06:04:19 | 48.70983 | 18.36660 | 275° | 7km/h | 25114m | 4.2m/s | 0°C | 0% | 0hPa | 0V | 00:00:00 | 00:00:00 | 00:00:00 | |
| OE5DRO-10 | 2026-09-02 06:04:18 | 48.70983 | 18.36662 | 275° | 5km/h | 25109m | 5.4m/s | 0°C | 0% | 0hPa | 0V | 00:00:00 | 00:00:00 | 00:00:00 | |
| OE5WHR-10 | 2026-09-02 06:04:15 | 48.70984 | 18.36667 | 352° | 7km/h | 25094m | 5.3m/s | 0°C | 0% | 0hPa | 0V | 00:00:00 | 00:00:00 | 00:00:00 | |
| SP9KGR-15 | 2026-09-02 06:04:14 | 48.70982 | 18.36670 | 2° | 7km/h | 25089m | 3.9m/s | -51.1°C | 0% | 0hPa | 0V | 00:00:00 | 00:00:00 | 00:00:00 | |
| OE5MMP-10 | 2026-09-02 06:04:10 | 48.70975 | 18.36664 | 36° | 5km/h | 25070m | 4.5m/s | 0°C | 0% | 0hPa | 0V | 00:00:00 | 00:00:00 | 00:00:00 | |
| DO3MHA-11 | 2026-09-02 06:04:09 | 48.70973 | 18.36661 | 36° | 5km/h | 25065m | 5.1m/s | 0°C | 0% | 0hPa | 0V | 00:00:00 | 00:00:00 | 00:00:00 | |
| OE5DXL-15 | 2026-09-02 06:04:07 | 48.70969 | 18.36659 | 331° | 7km/h | 25055m | 5.3m/s | 0°C | 0% | 0hPa | 0V | 00:00:00 | 00:00:00 | 00:00:00 | |
| PETON7-10 | 2026-09-02 06:04:04 | 48.70970 | 18.36660 | 271° | 7km/h | 25040m | 5.7m/s | 0°C | 0% | 0hPa | 0V | 00:00:00 | 00:00:00 | 00:00:00 | |
| OE3JTB-15 | 2026-09-02 06:04:03 | 48.70971 | 18.36661 | 271° | 5km/h | 25035m | 3.9m/s | 0°C | 0% | 0hPa | 0V | 00:00:00 | 00:00:00 | 00:00:00 | |
| ATIDSZ-14 | 2026-09-02 06:04:02 | 48.70972 | 18.36662 | 347° | 4km/h | 25035m | 4.0m/s | -51.1°C | 0% | 0hPa | 0V | 00:00:00 | 00:00:00 | 00:00:00 | |
| PG1ADW-2 | 2026-09-02 06:04:01 | 48.70971 | 18.36663 | 66° | 7km/h | 25027m | 6.1m/s | 0°C | 0% | 0hPa | 0V | 00:00:00 | 00:00:00 | 00:00:00 | |
| OE5MMP-10 | 2026-09-02 06:04:00 | 48.70971 | 18.36661 | 74° | 9km/h | 25021m | 4.7m/s | 0°C | 0% | 0hPa | 0V | 00:00:00 | 00:00:00 | 00:00:00 | |
| DO3MHA-11 | 2026-09-02 06:03:59 | 48.70970 | 18.36657 | 76° | 9km/h | 25016m | 4.8m/s | 0°C | 0% | 0hPa | 0V | 00:00:00 | 00:00:00 | 00:00:00 | |
| SP9KGR-15 | 2026-09-02 06:03:57 | 48.70968 | 18.36645 | 64° | 15km/h | 25011m | 5.7m/s | -51.2°C | 0% | 0hPa | 0V | 00:00:00 | 00:00:00 | 00:00:00 | |
| OE5WHR-10 | 2026-09-02 06:03:54 | 48.70964 | 18.36638 | 51° | 5km/h | 24987m | 3.9m/s | 0°C | 0% | 0hPa | 0V | 00:00:00 | 00:00:00 | 00:00:00 | |
| NBG1-10 | 2026-09-02 06:03:53 | 48.70963 | 18.36637 | 46° | 5km/h | 24982m | 5.9m/s | 0°C | 0% | 0hPa | 0V | 00:00:00 | 00:00:00 | 00:00:00 | |
| OE5MMP-10 | 2026-09-02 06:03:50 | 48.70961 | 18.36634 | 22° | 5km/h | 24971m | 4.6m/s | 0°C | 0% | 0hPa | 0V | 00:00:00 | 00:00:00 | 00:00:00 | |
| DO3MHA-11 | 2026-09-02 06:03:49 | 48.70960 | 18.36634 | 60° | 5km/h | 24966m | 5.4m/s | 0°C | 0% | 0hPa | 0V | 00:00:00 | 00:00:00 | 00:00:00 | |
| ATIDSZ-14 | 2026-09-02 06:03:42 | 48.70954 | 18.36630 | 329° | 7km/h | 24932m | 4.8m/s | -51.1°C | 0% | 0hPa | 0V | 00:00:00 | 00:00:00 | 00:00:00 | |
| PG1ADW-2 | 2026-09-02 06:03:41 | 48.70953 | 18.36630 | 329° | 11km/h | 24927m | 5.5m/s | 0°C | 0% | 0hPa | 0V | 00:00:00 | 00:00:00 | 00:00:00 | |
| OE5MMP-10 | 2026-09-02 06:03:40 | 48.70951 | 18.36632 | 324° | 7km/h | 24922m | 3.8m/s | 0°C | 0% | 0hPa | 0V | 00:00:00 | 00:00:00 | 00:00:00 | |
| DO3MHA-11 | 2026-09-02 06:03:39 | 48.70949 | 18.36634 | 324° | 7km/h | 24917m | 5.0m/s | 0°C | 0% | 0hPa | 0V | 00:00:00 | 00:00:00 | 00:00:00 | |
| PETON7-10 | 2026-09-02 06:03:34 | 48.70947 | 18.36642 | 271° | 11km/h | 24892m | 4.8m/s | 0°C | 0% | 0hPa | 0V | 00:00:00 | 00:00:00 | 00:00:00 | |
| OE5MMP-10 | 2026-09-02 06:03:30 | 48.70945 | 18.36654 | 315° | 13km/h | 24872m | 5.1m/s | 0°C | 0% | 0hPa | 0V | 00:00:00 | 00:00:00 | 00:00:00 | |
| DO3MHA-11 | 2026-09-02 06:03:29 | 48.70942 | 18.36659 | 313° | 13km/h | 24867m | 3.6m/s | 0°C | 0% | 0hPa | 0V | 00:00:00 | 00:00:00 | 00:00:00 | |
| SP9KGR-15 | 2026-09-02 06:03:26 | 48.70934 | 18.36672 | 282° | 7km/h | 24857m | 5.2m/s | -51.2°C | 0% | 0hPa | 0V | 00:00:00 | 00:00:00 | 00:00:00 | |
| PG1ADW-2 | 2026-09-02 06:03:21 | 48.70940 | 18.36685 | 282° | 20km/h | 24827m | 4.6m/s | 0°C | 0% | 0hPa | 0V | 00:00:00 | 00:00:00 | 00:00:00 | |
| OE5MMP-10 | 2026-09-02 06:03:20 | 48.70941 | 18.36691 | 282° | 18km/h | 24822m | 6.3m/s | 0°C | 0% | 0hPa | 0V | 00:00:00 | 00:00:00 | 00:00:00 | |
| DO3MHA-11 | 2026-09-02 06:03:19 | 48.70940 | 18.36697 | 289° | 18km/h | 24816m | 4.9m/s | 0°C | 0% | 0hPa | 0V | 00:00:00 | 00:00:00 | 00:00:00 | |
| POL1PZ | 2026-09-02 06:03:16 | 48.70933 | 18.36718 | 291° | 16km/h | 24806m | 4.8m/s | -51.0°C | 0% | 0hPa | 0V | 00:00:00 | 00:00:00 | 00:00:00 | |
| OE5MMP-10 | 2026-09-02 06:03:10 | 48.70938 | 18.36751 | 258° | 26km/h | 24771m | 3.5m/s | 0°C | 0% | 0hPa | 0V | 00:00:00 | 00:00:00 | 00:00:00 | |
| DO3MHA-11 | 2026-09-02 06:03:09 | 48.70940 | 18.36759 | 258° | 26km/h | 24767m | 6.2m/s | 0°C | 0% | 0hPa | 0V | 00:00:00 | 00:00:00 | 00:00:00 | |
| OE5DXL-15 | 2026-09-02 06:03:07 | 48.70942 | 18.36777 | 278° | 20km/h | 24756m | 5.1m/s | 0°C | 0% | 0hPa | 0V | 00:00:00 | 00:00:00 | 00:00:00 | |
| PETON7-10 | 2026-09-02 06:03:04 | 48.70936 | 18.36808 | 288° | 22km/h | 24741m | 5.0m/s | 0°C | 0% | 0hPa | 0V | 00:00:00 | 00:00:00 | 00:00:00 | |
| OE3JTB-15 | 2026-09-02 06:03:03 | 48.70934 | 18.36817 | 280° | 16km/h | 24736m | 5.3m/s | 0°C | 0% | 0hPa | 0V | 00:00:00 | 00:00:00 | 00:00:00 | |
| OE5DRO-10 | 2026-09-02 06:03:02 | 48.70934 | 18.36827 | 269° | 20km/h | 24731m | 4.2m/s | 0°C | 0% | 0hPa | 0V | 00:00:00 | 00:00:00 | 00:00:00 | |
| ATIDSZ-14 | 2026-09-02 06:03:01 | 48.70936 | 18.36846 | 251° | 24km/h | 24726m | 4.7m/s | -51.1°C | 0% | 0hPa | 0V | 00:00:00 | 00:00:00 | 00:00:00 | |
| OE5MMP-10 | 2026-09-02 06:03:00 | 48.70936 | 18.36846 | 250° | 22km/h | 24721m | 5.9m/s | 0°C | 0% | 0hPa | 0V | 00:00:00 | 00:00:00 | 00:00:00 | |
| DO3MHA-11 | 2026-09-02 06:02:59 | 48.70938 | 18.36854 | 251° | 22km/h | 24716m | 4.7m/s | 0°C | 0% | 0hPa | 0V | 00:00:00 | 00:00:00 | 00:00:00 | |
| SP9KGR-15 | 2026-09-02 06:02:55 | 48.70944 | 18.36884 | 269° | 24km/h | 24700m | 4.6m/s | -50.9°C | 0% | 0hPa | 0V | 00:00:00 | 00:00:00 | 00:00:00 | |
| SQ9EZE-14 | 2026-09-02 06:02:51 | 48.70946 | 18.36917 | 256° | 24km/h | 24679m | 5.6m/s | -50.7°C | 0% | 0hPa | 0V | 00:00:00 | 00:00:00 | 00:00:00 | |
| OE5MMP-10 | 2026-09-02 06:02:50 | 48.70947 | 18.36925 | 246° | 18km/h | 24670m | 5.0m/s | 0°C | 0% | 0hPa | 0V | 00:00:00 | 00:00:00 | 00:00:00 | |
| DO3MHA-11 | 2026-09-02 06:02:49 | 48.70949 | 18.36933 | 239° | 16km/h | 24664m | 5.8m/s | 0°C | 0% | 0hPa | 0V | 00:00:00 | 00:00:00 | 00:00:00 | |
| OE5WHR-10 | 2026-09-02 06:02:48 | 48.70952 | 18.36939 | 229° | 15km/h | 24655m | 4.1m/s | 0°C | 0% | 0hPa | 0V | 00:00:00 | 00:00:00 | 00:00:00 | |
| OE5DRO-10 | 2026-09-02 06:02:43 | 48.70964 | 18.36966 | 255° | 13km/h | 24634m | 6.0m/s | 0°C | 0% | 0hPa | 0V | 00:00:00 | 00:00:00 | 00:00:00 | |
| PG1ADW-2 | 2026-09-02 06:02:41 | 48.70967 | 18.36979 | 267° | 11km/h | 24624m | 5.0m/s | 0°C | 0% | 0hPa | 0V | 00:00:00 | 00:00:00 | 00:00:00 | |
| OE5MMP-10 | 2026-09-02 06:02:40 | 48.70967 | 18.36984 | 261° | 16km/h | 24618m | 5.5m/s | 0°C | 0% | 0hPa | 0V | 00:00:00 | 00:00:00 | 00:00:00 | |
| DO3MHA-11 | 2026-09-02 06:02:39 | 48.70966 | 18.36989 | 261° | 15km/h | 24613m | 4.4m/s | 0°C | 0% | 0hPa | 0V | 00:00:00 | 00:00:00 | 00:00:00 | |
| OE5DXL-15 | 2026-09-02 06:02:37 | 48.70968 | 18.36998 | 211° | 11km/h | 24603m | 5.7m/s | 0°C | 0% | 0hPa | 0V | 00:00:00 | 00:00:00 | 00:00:00 | |
| PETON7-10 | 2026-09-02 06:02:34 | 48.70978 | 18.37004 | 199° | 11km/h | 24587m | 5.2m/s | 0°C | 0% | 0hPa | 0V | 00:00:00 | 00:00:00 | 00:00:00 | |
| OE5MMP-10 | 2026-09-02 06:02:30 | 48.70989 | 18.37022 | 282° | 9km/h | 24567m | 5.0m/s | 0°C | 0% | 0hPa | 0V | 00:00:00 | 00:00:00 | 00:00:00 | |
| DO3MHA-11 | 2026-09-02 06:02:28 | 48.70988 | 18.37024 | 339° | 11km/h | 24557m | 5.7m/s | 0°C | 0% | 0hPa | 0V | 00:00:00 | 00:00:00 | 00:00:00 | |
| OE5WHR-10 | 2026-09-02 06:02:27 | 48.70987 | 18.37024 | 287° | 11km/h | 24552m | 4.2m/s | 0°C | 0% | 0hPa | 0V | 00:00:00 | 00:00:00 | 00:00:00 | |
| OE3JTB-15 | 2026-09-02 06:02:25 | 48.70986 | 18.37027 | 178° | 15km/h | 24542m | 6.2m/s | 0°C | 0% | 0hPa | 0V | 00:00:00 | 00:00:00 | 00:00:00 | |
| OE5DRO-10 | 2026-09-02 06:02:24 | 48.70987 | 18.37027 | 178° | 13km/h | 24514m | 5.2m/s | 0°C | 0% | 0hPa | 0V | 00:00:00 | 00:00:00 | 00:00:00 | |
| POL1PZ | 2026-09-02 06:02:22 | 48.70993 | 18.37026 | 182° | 16km/h | 24531m | 5.0m/s | -50.7°C | 0% | 0hPa | 0V | 00:00:00 | 00:00:00 | 00:00:00 | |
| PG1ADW-2 | 2026-09-02 06:02:21 | 48.70997 | 18.37027 | 189° | 15km/h | 24519m | 4.7m/s | 0°C | 0% | 0hPa | 0V | 00:00:00 | 00:00:00 | 00:00:00 | |
| OE5MMP-10 | 2026-09-02 06:02:20 | 48.71002 | 18.37028 | 198° | 11km/h | 24514m | 5.2m/s | 0°C | 0% | 0hPa | 0V | 00:00:00 | 00:00:00 | 00:00:00 | |
| PETON7-10 | 2026-09-02 06:02:19 | 48.71006 | 18.37030 | 194° | 13km/h | 24509m | 5.7m/s | 0°C | 0% | 0hPa | 0V | 00:00:00 | 00:00:00 | 00:00:00 | |
| DO3MHA-11 | 2026-09-02 06:02:18 | 48.71009 | 18.37032 | 170° | 11km/h | 24504m | 4.5m/s | 0°C | 0% | 0hPa | 0V | 00:00:00 | 00:00:00 | 00:00:00 | |
| OE5MMP-10 | 2026-09-02 06:02:10 | 48.71025 | 18.37032 | 191° | 18km/h | 24462m | 5.7m/s | 0°C | 0% | 0hPa | 0V | 00:00:00 | 00:00:00 | 00:00:00 | |
| SP9KGR-15 | 2026-09-02 06:02:09 | 48.71035 | 18.37036 | 193° | 20km/h | 24457m | 4.6m/s | -50.8°C | 0% | 0hPa | 0V | 00:00:00 | 00:00:00 | 00:00:00 | |
| DO3MHA-11 | 2026-09-02 06:02:08 | 48.71035 | 18.37036 | 193° | 20km/h | 24452m | 5.5m/s | 0°C | 0% | 0hPa | 0V | 00:00:00 | 00:00:00 | 00:00:00 | |
| OE5DXL-15 | 2026-09-02 06:02:07 | 48.71040 | 18.37037 | 185° | 20km/h | 24446m | 6.0m/s | 0°C | 0% | 0hPa | 0V | 00:00:00 | 00:00:00 | 00:00:00 | |
| OE5WHR-10 | 2026-09-02 06:02:06 | 48.71045 | 18.37038 | 177° | 22km/h | 24436m | 5.1m/s | 0°C | 0% | 0hPa | 0V | 00:00:00 | 00:00:00 | 00:00:00 | |
| OE5DRO-10 | 2026-09-02 06:02:05 | 48.71049 | 18.37036 | 174° | 20km/h | 24436m | 5.1m/s | 0°C | 0% | 0hPa | 0V | 00:00:00 | 00:00:00 | 00:00:00 | |
| PETON7-10 | 2026-09-02 06:02:04 | 48.71053 | 18.37035 | 174° | 20km/h | 24431m | 5.7m/s | 0°C | 0% | 0hPa | 0V | 00:00:00 | 00:00:00 | 00:00:00 | |
| PG1ADW-2 | 2026-09-02 06:02:01 | 48.71067 | 18.37037 | 192° | 20km/h | 24404m | 6.3m/s | 0°C | 0% | 0hPa | 0V | 00:00:00 | 00:00:00 | 00:00:00 | |
| OM5KV | 2026-09-02 06:02:00 | 48.71078 | 18.37042 | 194° | 24km/h | 24409m | 5.1m/s | -50.8°C | 0% | 0hPa | 0V | 00:00:00 | 00:00:00 | 00:00:00 | |
| ATIDSZ-14 | 2026-09-02 06:01:59 | 48.71078 | 18.37042 | 194° | 24km/h | 24409m | 5.1m/s | -50.8°C | 0% | 0hPa | 0V | 00:00:00 | 00:00:00 | 00:00:00 | |
| POL1PZ | 2026-09-02 06:01:58 | 48.71090 | 18.37048 | 205° | 27km/h | 24398m | 4.8m/s | -50.7°C | 0% | 0hPa | 0V | 00:00:00 | 00:00:00 | 00:00:00 | |
| OE3JTB-15 | 2026-09-02 06:01:56 | 48.71096 | 18.37051 | 202° | 18km/h | 24388m | 6.1m/s | 0°C | 0% | 0hPa | 0V | 00:00:00 | 00:00:00 | 00:00:00 | |
| OE5MMP-10 | 2026-09-02 06:01:50 | 48.71120 | 18.37057 | 182° | 20km/h | 24355m | 5.2m/s | 0°C | 0% | 0hPa | 0V | 00:00:00 | 00:00:00 | 00:00:00 | |
| PETON7-10 | 2026-09-02 06:01:49 | 48.71124 | 18.37058 | 182° | 20km/h | 24349m | 5.9m/s | 0°C | 0% | 0hPa | 0V | 00:00:00 | 00:00:00 | 00:00:00 | |
| DO3MHA-11 | 2026-09-02 06:01:48 | 48.71130 | 18.37057 | 193° | 20km/h | 24343m | 5.3m/s | 0°C | 0% | 0hPa | 0V | 00:00:00 | 00:00:00 | 00:00:00 | |
| OM5KV | 2026-09-02 06:01:47 | 48.71136 | 18.37060 | 194° | 27km/h | 24343m | 5.4m/s | -50.9°C | 0% | 0hPa | 0V | 00:00:00 | 00:00:00 | 00:00:00 | |
| OE5DRO-10 | 2026-09-02 06:01:46 | 48.71145 | 18.37062 | 192° | 18km/h | 24338m | 4.6m/s | 0°C | 0% | 0hPa | 0V | 00:00:00 | 00:00:00 | 00:00:00 | |
| OE5WHR-10 | 2026-09-02 06:01:43 | 48.71159 | 18.37063 | 172° | 20km/h | 24284m | 5.3m/s | 0°C | 0% | 0hPa | 0V | 00:00:00 | 00:00:00 | 00:00:00 | |
| OM5KV | 2026-09-02 06:01:42 | 48.71163 | 18.37062 | 170° | 15km/h | 24316m | 5.4m/s | -50.9°C | 0% | 0hPa | 0V | 00:00:00 | 00:00:00 | 00:00:00 | |
| PG1ADW-2 | 2026-09-02 06:01:41 | 48.71166 | 18.37062 | 161° | 18km/h | 24306m | 6.0m/s | 0°C | 0% | 0hPa | 0V | 00:00:00 | 00:00:00 | 00:00:00 | |
| OE5MMP-10 | 2026-09-02 06:01:40 | 48.71169 | 18.37060 | 151° | 20km/h | 24300m | 5.4m/s | 0°C | 0% | 0hPa | 0V | 00:00:00 | 00:00:00 | 00:00:00 | |
| ATIDSZ-14 | 2026-09-02 06:01:39 | 48.71177 | 18.37053 | 150° | 20km/h | 24296m | 4.4m/s | -50.6°C | 0% | 0hPa | 0V | 00:00:00 | 00:00:00 | 00:00:00 | |
| DO3MHA-11 | 2026-09-02 06:01:38 | 48.71176 | 18.37053 | 150° | 20km/h | 24290m | 6.5m/s | 0°C | 0% | 0hPa | 0V | 00:00:00 | 00:00:00 | 00:00:00 | |
| OE5DXL-15 | 2026-09-02 06:01:35 | 48.71193 | 18.37047 | 171° | 20km/h | 24274m | 5.8m/s | 0°C | 0% | 0hPa | 0V | 00:00:00 | 00:00:00 | 00:00:00 | |
| PETON7-10 | 2026-09-02 06:01:34 | 48.71199 | 18.37045 | 171° | 18km/h | 24269m | 5.2m/s | 0°C | 0% | 0hPa | 0V | 00:00:00 | 00:00:00 | 00:00:00 | |
| OM5KV | 2026-09-02 06:01:33 | 48.71204 | 18.37042 | 156° | 20km/h | 24269m | 5.2m/s | -50.8°C | 0% | 0hPa | 0V | 00:00:00 | 00:00:00 | 00:00:00 | |
| POL1PZ | 2026-09-02 06:01:32 | 48.71208 | 18.37039 | 143° | 16km/h | 24264m | 4.9m/s | -50.8°C | 0% | 0hPa | 0V | 00:00:00 | 00:00:00 | 00:00:00 | |
| OE5MMP-10 | 2026-09-02 06:01:30 | 48.71214 | 18.37032 | 127° | 20km/h | 24247m | 5.9m/s | 0°C | 0% | 0hPa | 0V | 00:00:00 | 00:00:00 | 00:00:00 | |
| DO3MHA-11 | 2026-09-02 06:01:28 | 48.71218 | 18.37022 | 123° | 20km/h | 24236m | 4.5m/s | 0°C | 0% | 0hPa | 0V | 00:00:00 | 00:00:00 | 00:00:00 | |
| OE3JTB-15 | 2026-09-02 06:01:27 | 48.71221 | 18.37016 | 129° | 20km/h | 24221m | 4.6m/s | 0°C | 0% | 0hPa | 0V | 00:00:00 | 00:00:00 | 00:00:00 | |
| OM5KV | 2026-09-02 06:01:25 | 48.71227 | 18.37005 | 147° | 20km/h | 24226m | 4.6m/s | -50.6°C | 0% | 0hPa | 0V | 00:00:00 | 00:00:00 | 00:00:00 | |
| SP9KGR-15 | 2026-09-02 06:01:23 | 48.71236 | 18.36995 | 138° | 22km/h | 24216m | 5.8m/s | -50.5°C | 0% | 0hPa | 0V | 00:00:00 | 00:00:00 | 00:00:00 | |
| PG1ADW-2 | 2026-09-02 06:01:21 | 48.71242 | 18.36982 | 114° | 22km/h | 24200m | 6.1m/s | 0°C | 0% | 0hPa | 0V | 00:00:00 | 00:00:00 | 00:00:00 | |
| OE5MMP-10 | 2026-09-02 06:01:20 | 48.71244 | 18.36977 | 100° | 20km/h | 24194m | 4.5m/s | 0°C | 0% | 0hPa | 0V | 00:00:00 | 00:00:00 | 00:00:00 | |
| PETON7-10 | 2026-09-02 06:01:19 | 48.71245 | 18.36971 | 100° | 22km/h | 24189m | 6.3m/s | 0°C | 0% | 0hPa | 0V | 00:00:00 | 00:00:00 | 00:00:00 | |
| DO3MHA-11 | 2026-09-02 06:01:18 | 48.71246 | 18.36966 | 99° | 20km/h | 24183m | 4.8m/s | 0°C | 0% | 0hPa | 0V | 00:00:00 | 00:00:00 | 00:00:00 | |
| OM5KV | 2026-09-02 06:01:16 | 48.71247 | 18.36949 | 105° | 24km/h | 24179m | 3.9m/s | -50.5°C | 0% | 0hPa | 0V | 00:00:00 | 00:00:00 | 00:00:00 | |
| OM5KV | 2026-09-02 06:01:14 | 48.71251 | 18.36934 | 118° | 18km/h | 24169m | 5.0m/s | -50.6°C | 0% | 0hPa | 0V | 00:00:00 | 00:00:00 | 00:00:00 | |
| OE5MMP-10 | 2026-09-02 06:01:10 | 48.71256 | 18.36904 | 95° | 24km/h | 24142m | 5.5m/s | 0°C | 0% | 0hPa | 0V | 00:00:00 | 00:00:00 | 00:00:00 | |
| SP9KGR-15 | 2026-09-02 06:01:09 | 48.71257 | 18.36886 | 90° | 24km/h | 24137m | 4.6m/s | -50.5°C | 0% | 0hPa | 0V | 00:00:00 | 00:00:00 | 00:00:00 | |
| DO3MHA-11 | 2026-09-02 06:01:08 | 48.71257 | 18.36886 | 90° | 24km/h | 24131m | 6.3m/s | 0°C | 0% | 0hPa | 0V | 00:00:00 | 00:00:00 | 00:00:00 | |
| OE5WHR-10 | 2026-09-02 06:01:07 | 48.71257 | 18.36875 | 92° | 24km/h | 24126m | 4.6m/s | 0°C | 0% | 0hPa | 0V | 00:00:00 | 00:00:00 | 00:00:00 | |
| OM5KV | 2026-09-02 06:01:06 | 48.71256 | 18.36867 | 89° | 27km/h | 24126m | 4.6m/s | -50.6°C | 0% | 0hPa | 0V | 00:00:00 | 00:00:00 | 00:00:00 | |
| OE5DXL-15 | 2026-09-02 06:01:05 | 48.71256 | 18.36855 | 99° | 24km/h | 24115m | 5.5m/s | 0°C | 0% | 0hPa | 0V | 00:00:00 | 00:00:00 | 00:00:00 | |
| PETON7-10 | 2026-09-02 06:01:04 | 48.71257 | 18.36847 | 99° | 24km/h | 24110m | 4.6m/s | 0°C | 0% | 0hPa | 0V | 00:00:00 | 00:00:00 | 00:00:00 | |
| OM5KV | 2026-09-02 06:01:02 | 48.71259 | 18.36831 | 99° | 20km/h | 24105m | 5.7m/s | -50.6°C | 0% | 0hPa | 0V | 00:00:00 | 00:00:00 | 00:00:00 | |
| PG1ADW-2 | 2026-09-02 06:01:01 | 48.71259 | 18.36823 | 80° | 24km/h | 24094m | 4.8m/s | 0°C | 0% | 0hPa | 0V | 00:00:00 | 00:00:00 | 00:00:00 | |
| OE5MMP-10 | 2026-09-02 06:01:00 | 48.71259 | 18.36814 | 80° | 24km/h | 24089m | 5.8m/s | 0°C | 0% | 0hPa | 0V | 00:00:00 | 00:00:00 | 00:00:00 | |
| DO3MHA-11 | 2026-09-02 06:00:58 | 48.71256 | 18.36797 | 78° | 24km/h | 24079m | 4.3m/s | 0°C | 0% | 0hPa | 0V | 00:00:00 | 00:00:00 | 00:00:00 | |
| ATIDSZ-14 | 2026-09-02 06:00:57 | 48.71255 | 18.36788 | 77° | 24km/h | 24079m | 4.3m/s | -50.9°C | 0% | 0hPa | 0V | 00:00:00 | 00:00:00 | 00:00:00 | |
| OM5KV | 2026-09-02 06:00:55 | 48.71251 | 18.36769 | 72° | 29km/h | 24067m | 5.1m/s | -50.8°C | 0% | 0hPa | 0V | 00:00:00 | 00:00:00 | 00:00:00 | |
| SP9KGR-15 | 2026-09-02 06:00:52 | 48.71245 | 18.36741 | 75° | 20km/h | 24051m | 5.7m/s | -50.9°C | 0% | 0hPa | 0V | 00:00:00 | 00:00:00 | 00:00:00 | |
| OE5MMP-10 | 2026-09-02 06:00:50 | 48.71242 | 18.36725 | 64° | 24km/h | 24036m | 3.9m/s | 0°C | 0% | 0hPa | 0V | 00:00:00 | 00:00:00 | 00:00:00 | |
| PETON7-10 | 2026-09-02 06:00:49 | 48.71240 | 18.36719 | 64° | 24km/h | 24030m | 6.2m/s | 0°C | 0% | 0hPa | 0V | 00:00:00 | 00:00:00 | 00:00:00 | |
| DO3MHA-11 | 2026-09-02 06:00:48 | 48.71237 | 18.36713 | 52° | 26km/h | 24025m | 5.1m/s | 0°C | 0% | 0hPa | 0V | 00:00:00 | 00:00:00 | 00:00:00 | |
| OE5WHR-10 | 2026-09-02 06:00:46 | 48.71232 | 18.36702 | 54° | 20km/h | 24015m | 6.1m/s | 0°C | 0% | 0hPa | 0V | 00:00:00 | 00:00:00 | 00:00:00 | |
| OM5KV | 2026-09-02 06:00:44 | 48.71225 | 18.36686 | 57° | 29km/h | 24009m | 5.3m/s | -51.2°C | 0% | 0hPa | 0V | 00:00:00 | 00:00:00 | 00:00:00 | |
| PG1ADW-2 | 2026-09-02 06:00:41 | 48.71212 | 18.36660 | 44° | 16km/h | 23988m | 4.9m/s | 0°C | 0% | 0hPa | 0V | 00:00:00 | 00:00:00 | 00:00:00 | |
| OE5MMP-10 | 2026-09-02 06:00:40 | 48.71208 | 18.36654 | 44° | 20km/h | 23983m | 5.5m/s | 0°C | 0% | 0hPa | 0V | 00:00:00 | 00:00:00 | 00:00:00 | |
| ATIDSZ-14 | 2026-09-02 06:00:37 | 48.71194 | 18.36636 | 31° | 24km/h | 23973m | 5.7m/s | -51.1°C | 0% | 0hPa | 0V | 00:00:00 | 00:00:00 | 00:00:00 | |
| DO3MHA-11 | 2026-09-02 06:00:36 | 48.71189 | 18.36633 | 27° | 16km/h | 23962m | 4.2m/s | 0°C | 0% | 0hPa | 0V | 00:00:00 | 00:00:00 | 00:00:00 | |
| OE5DXL-15 | 2026-09-02 06:00:35 | 48.71185 | 18.36631 | 46° | 11km/h | 23956m | 6.0m/s | 0°C | 0% | 0hPa | 0V | 00:00:00 | 00:00:00 | 00:00:00 | |
| PETON7-10 | 2026-09-02 06:00:34 | 48.71182 | 18.36627 | 46° | 13km/h | 23951m | 4.1m/s | 0°C | 0% | 0hPa | 0V | 00:00:00 | 00:00:00 | 00:00:00 | |
| OM5KV | 2026-09-02 06:00:33 | 48.71179 | 18.36622 | 60° | 16km/h | 23951m | 4.1m/s | -51.2°C | 0% | 0hPa | 0V | 00:00:00 | 00:00:00 | 00:00:00 | |
| POL1PZ | 2026-09-02 06:00:32 | 48.71177 | 18.36617 | 65° | 15km/h | 23946m | 5.8m/s | -51.2°C | 0% | 0hPa | 0V | 00:00:00 | 00:00:00 | 00:00:00 | |
| OM5KV | 2026-09-02 06:00:31 | 48.71176 | 18.36612 | 63° | 13km/h | 23941m | 5.3m/s | -51.3°C | 0% | 0hPa | 0V | 00:00:00 | 00:00:00 | 00:00:00 | |
| OE5MMP-10 | 2026-09-02 06:00:30 | 48.71174 | 18.36608 | 55° | 13km/h | 23930m | 6.4m/s | 0°C | 0% | 0hPa | 0V | 00:00:00 | 00:00:00 | 00:00:00 | |
| OE3JTB-15 | 2026-09-02 06:00:29 | 48.71172 | 18.36603 | 51° | 11km/h | 23920m | 4.6m/s | 0°C | 0% | 0hPa | 0V | 00:00:00 | 00:00:00 | 00:00:00 | |
| OM5KV | 2026-09-02 06:00:28 | 48.71164 | 18.36593 | 31° | 20km/h | 23920m | 4.6m/s | -51.2°C | 0% | 0hPa | 0V | 00:00:00 | 00:00:00 | 00:00:00 | |
| DO3MHA-11 | 2026-09-02 06:00:26 | 48.71160 | 18.36591 | 40° | 11km/h | 23909m | 4.6m/s | 0°C | 0% | 0hPa | 0V | 00:00:00 | 00:00:00 | 00:00:00 | |
| OE5WHR-10 | 2026-09-02 06:00:25 | 48.71158 | 18.36589 | 40° | 11km/h | 23904m | 5.6m/s | 0°C | 0% | 0hPa | 0V | 00:00:00 | 00:00:00 | 00:00:00 | |
| SP9KGR-15 | 2026-09-02 06:00:22 | 48.71157 | 18.36582 | 128° | 9km/h | 23893m | 5.1m/s | -51.1°C | 0% | 0hPa | 0V | 00:00:00 | 00:00:00 | 00:00:00 | |
| PG1ADW-2 | 2026-09-02 06:00:21 | 48.71159 | 18.36579 | 132° | 9km/h | 23882m | 4.7m/s | 0°C | 0% | 0hPa | 0V | 00:00:00 | 00:00:00 | 00:00:00 | |
| OE5MMP-10 | 2026-09-02 06:00:20 | 48.71161 | 18.36578 | 91° | 9km/h | 23877m | 5.5m/s | 0°C | 0% | 0hPa | 0V | 00:00:00 | 00:00:00 | 00:00:00 | |
| PETON7-10 | 2026-09-02 06:00:19 | 48.71162 | 18.36574 | 91° | 9km/h | 23871m | 5.6m/s | 0°C | 0% | 0hPa | 0V | 00:00:00 | 00:00:00 | 00:00:00 | |
| SQ9EZE-14 | 2026-09-02 06:00:18 | 48.71163 | 18.36570 | 63° | 11km/h | 23871m | 5.6m/s | -50.9°C | 0% | 0hPa | 0V | 00:00:00 | 00:00:00 | 00:00:00 | |
| DO3MHA-11 | 2026-09-02 06:00:16 | 48.71159 | 18.36562 | 37° | 9km/h | 23855m | 4.8m/s | 0°C | 0% | 0hPa | 0V | 00:00:00 | 00:00:00 | 00:00:00 | |
| OM5KV | 2026-09-02 06:00:14 | 48.71155 | 18.36558 | 116° | 4km/h | 23846m | 5.4m/s | -50.9°C | 0% | 0hPa | 0V | 00:00:00 | 00:00:00 | 00:00:00 | |
| OE5DRO-10 | 2026-09-02 06:00:11 | 48.71153 | 18.36554 | 145° | 13km/h | 23836m | 4.3m/s | 0°C | 0% | 0hPa | 0V | 00:00:00 | 00:00:00 | 00:00:00 | |
| OE5MMP-10 | 2026-09-02 06:00:10 | 48.71157 | 18.36552 | 170° | 9km/h | 23826m | 6.1m/s | 0°C | 0% | 0hPa | 0V | 00:00:00 | 00:00:00 | 00:00:00 | |
| POL1PZ | 2026-09-02 06:00:07 | 48.71165 | 18.36552 | 175° | 11km/h | 23815m | 6.0m/s | -51.1°C | 0% | 0hPa | 0V | 00:00:00 | 00:00:00 | 00:00:00 | |
| DO3MHA-11 | 2026-09-02 06:00:06 | 48.71168 | 18.36552 | 163° | 11km/h | 23804m | 6.0m/s | 0°C | 0% | 0hPa | 0V | 00:00:00 | 00:00:00 | 00:00:00 | |
| OE5DXL-15 | 2026-09-02 06:00:05 | 48.71170 | 18.36551 | 159° | 16km/h | 23799m | 4.8m/s | 0°C | 0% | 0hPa | 0V | 00:00:00 | 00:00:00 | 00:00:00 | |
| PETON7-10 | 2026-09-02 06:00:04 | 48.71172 | 18.36550 | 159° | 15km/h | 23795m | 4.0m/s | 0°C | 0% | 0hPa | 0V | 00:00:00 | 00:00:00 | 00:00:00 | |
| PG1ADW-2 | 2026-09-02 06:00:01 | 48.71177 | 18.36544 | 146° | 16km/h | 23779m | 5.3m/s | 0°C | 0% | 0hPa | 0V | 00:00:00 | 00:00:00 | 00:00:00 | |
| OE5MMP-10 | 2026-09-02 06:00:00 | 48.71179 | 18.36542 | 180° | 16km/h | 23774m | 5.6m/s | 0°C | 0% | 0hPa | 0V | 00:00:00 | 00:00:00 | 00:00:00 | |
| DO3MHA-11 | 2026-09-02 05:59:56 | 48.71190 | 18.36548 | 174° | 18km/h | 23754m | 5.0m/s | 0°C | 0% | 0hPa | 0V | 00:00:00 | 00:00:00 | 00:00:00 | |
| ATIDSZ-14 | 2026-09-02 05:59:54 | 48.71200 | 18.36546 | 174° | 22km/h | 23748m | 6.0m/s | -51.0°C | 0% | 0hPa | 0V | 00:00:00 | 00:00:00 | 00:00:00 | |
| OE5DRO-10 | 2026-09-02 05:59:51 | 48.71216 | 18.36541 | 160° | 18km/h | 23727m | 4.5m/s | 0°C | 0% | 0hPa | 0V | 00:00:00 | 00:00:00 | 00:00:00 | |
| OE5MMP-10 | 2026-09-02 05:59:50 | 48.71220 | 18.36537 | 176° | 20km/h | 23722m | 6.1m/s | 0°C | 0% | 0hPa | 0V | 00:00:00 | 00:00:00 | 00:00:00 | |
| PETON7-10 | 2026-09-02 05:59:49 | 48.71224 | 18.36537 | 176° | 20km/h | 23717m | 4.6m/s | 0°C | 0% | 0hPa | 0V | 00:00:00 | 00:00:00 | 00:00:00 | |
| OM5KV | 2026-09-02 05:59:48 | 48.71228 | 18.36537 | 185° | 16km/h | 23717m | 4.7m/s | -50.9°C | 0% | 0hPa | 0V | 00:00:00 | 00:00:00 | 00:00:00 | |
| OM5KV | 2026-09-02 05:59:44 | 48.71247 | 18.36534 | 164° | 24km/h | 23696m | 5.3m/s | -51.0°C | 0% | 0hPa | 0V | 00:00:00 | 00:00:00 | 00:00:00 | |
| POL1PZ | 2026-09-02 05:59:42 | 48.71259 | 18.36529 | 162° | 26km/h | 23686m | 4.3m/s | -51.0°C | 0% | 0hPa | 0V | 00:00:00 | 00:00:00 | 00:00:00 | |
| PG1ADW-2 | 2026-09-02 05:59:41 | 48.71264 | 18.36525 | 147° | 15km/h | 23675m | 4.7m/s | 0°C | 0% | 0hPa | 0V | 00:00:00 | 00:00:00 | 00:00:00 | |
| OE5MMP-10 | 2026-09-02 05:59:40 | 48.71269 | 18.36521 | 147° | 18km/h | 23670m | 5.1m/s | 0°C | 0% | 0hPa | 0V | 00:00:00 | 00:00:00 | 00:00:00 | |
| OM5KV | 2026-09-02 05:59:39 | 48.71272 | 18.36518 | 152° | 16km/h | 23670m | 5.1m/s | -51.2°C | 0% | 0hPa | 0V | 00:00:00 | 00:00:00 | 00:00:00 | |
| DO3MHA-11 | 2026-09-02 05:59:36 | 48.71284 | 18.36512 | 166° | 16km/h | 23649m | 5.0m/s | 0°C | 0% | 0hPa | 0V | 00:00:00 | 00:00:00 | 00:00:00 | |
| OE5DXL-15 | 2026-09-02 05:59:35 | 48.71288 | 18.36510 | 162° | 11km/h | 23644m | 4.7m/s | 0°C | 0% | 0hPa | 0V | 00:00:00 | 00:00:00 | 00:00:00 | |
| PETON7-10 | 2026-09-02 05:59:34 | 48.71293 | 18.36508 | 162° | 13km/h | 23639m | 5.9m/s | 0°C | 0% | 0hPa | 0V | 00:00:00 | 00:00:00 | 00:00:00 | |
| ATIDSZ-14 | 2026-09-02 05:59:33 | 48.71298 | 18.36506 | 165° | 20km/h | 23639m | 5.9m/s | -51.2°C | 0% | 0hPa | 0V | 00:00:00 | 00:00:00 | 00:00:00 | |
| OE5DRO-10 | 2026-09-02 05:59:32 | 48.71303 | 18.36503 | 160° | 13km/h | 23594m | 4.0m/s | 0°C | 0% | 0hPa | 0V | 00:00:00 | 00:00:00 | 00:00:00 | |
| OM5KV | 2026-09-02 05:59:31 | 48.71307 | 18.36501 | 151° | 16km/h | 23630m | 4.6m/s | -51.2°C | 0% | 0hPa | 0V | 00:00:00 | 00:00:00 | 00:00:00 | |
| OE5MMP-10 | 2026-09-02 05:59:30 | 48.71310 | 18.36498 | 123° | 11km/h | 23619m | 4.7m/s | 0°C | 0% | 0hPa | 0V | 00:00:00 | 00:00:00 | 00:00:00 | |
| DO3MHA-11 | 2026-09-02 05:59:26 | 48.71318 | 18.36480 | 133° | 9km/h | 23599m | 5.0m/s | 0°C | 0% | 0hPa | 0V | 00:00:00 | 00:00:00 | 00:00:00 | |
| OE3JTB-15 | 2026-09-02 05:59:24 | 48.71325 | 18.36475 | 155° | 9km/h | 23594m | 4.0m/s | 0°C | 0% | 0hPa | 0V | 00:00:00 | 00:00:00 | 00:00:00 | |
| OM5KV | 2026-09-02 05:59:22 | 48.71325 | 18.36473 | 173° | 13km/h | 23584m | 4.6m/s | -51.4°C | 0% | 0hPa | 0V | 00:00:00 | 00:00:00 | 00:00:00 | |
| PG1ADW-2 | 2026-09-02 05:59:21 | 48.71328 | 18.36472 | 166° | 11km/h | 23574m | 5.6m/s | 0°C | 0% | 0hPa | 0V | 00:00:00 | 00:00:00 | 00:00:00 | |
| PETON7-10 | 2026-09-02 05:59:19 | 48.71332 | 18.36469 | 104° | 9km/h | 23564m | 5.5m/s | 0°C | 0% | 0hPa | 0V | 00:00:00 | 00:00:00 | 00:00:00 | |
| OM5KV | 2026-09-02 05:59:17 | 48.71333 | 18.36462 | 96° | 11km/h | 23559m | 5.1m/s | -51.4°C | 0% | 0hPa | 0V | 00:00:00 | 00:00:00 | 00:00:00 | |
| DO3MHA-11 | 2026-09-02 05:59:16 | 48.71334 | 18.36457 | 85° | 9km/h | 23550m | 5.0m/s | 0°C | 0% | 0hPa | 0V | 00:00:00 | 00:00:00 | 00:00:00 | |
| ATIDSZ-14 | 2026-09-02 05:59:13 | 48.71331 | 18.36444 | 52° | 11km/h | 23539m | 5.0m/s | -51.5°C | 0% | 0hPa | 0V | 00:00:00 | 00:00:00 | 00:00:00 | |
| OE5DRO-10 | 2026-09-02 05:59:12 | 48.71329 | 18.36441 | 57° | 9km/h | 23528m | 4.4m/s | 0°C | 0% | 0hPa | 0V | 00:00:00 | 00:00:00 | 00:00:00 | |
| OM5KV | 2026-09-02 05:59:08 | 48.71328 | 18.36434 | 52° | 9km/h | 23513m | 5.3m/s | -51.6°C | 0% | 0hPa | 0V | 00:00:00 | 00:00:00 | 00:00:00 | |
| DO3MHA-11 | 2026-09-02 05:59:06 | 48.71325 | 18.36428 | 57° | 9km/h | 23498m | 4.6m/s | 0°C | 0% | 0hPa | 0V | 00:00:00 | 00:00:00 | 00:00:00 | |
| OE5DXL-15 | 2026-09-02 05:59:05 | 48.71323 | 18.36424 | 56° | 11km/h | 23493m | 5.5m/s | 0°C | 0% | 0hPa | 0V | 00:00:00 | 00:00:00 | 00:00:00 | |
| PETON7-10 | 2026-09-02 05:59:04 | 48.71321 | 18.36419 | 49° | 13km/h | 23488m | 4.8m/s | 0°C | 0% | 0hPa | 0V | 00:00:00 | 00:00:00 | 00:00:00 | |
| PG1ADW-2 | 2026-09-02 05:59:01 | 48.71314 | 18.36408 | 25° | 7km/h | 23473m | 5.2m/s | 0°C | 0% | 0hPa | 0V | 00:00:00 | 00:00:00 | 00:00:00 | |
| OE5MMP-10 | 2026-09-02 05:59:00 | 48.71312 | 18.36406 | 344° | 11km/h | 23468m | 4.8m/s | 0°C | 0% | 0hPa | 0V | 00:00:00 | 00:00:00 | 00:00:00 | |
| POL1PZ | 2026-09-02 05:58:59 | 48.71311 | 18.36407 | 344° | 4km/h | 23468m | 4.8m/s | -51.8°C | 0% | 0hPa | 0V | 00:00:00 | 00:00:00 | 00:00:00 | |
| OM5KV | 2026-09-02 05:58:56 | 48.71308 | 18.36408 | 65° | 4km/h | 23453m | 5.9m/s | -52.0°C | 0% | 0hPa | 0V | 00:00:00 | 00:00:00 | 00:00:00 | |
| DO3MHA-11 | 2026-09-02 05:58:55 | 48.71308 | 18.36406 | 70° | 13km/h | 23444m | 4.7m/s | 0°C | 0% | 0hPa | 0V | 00:00:00 | 00:00:00 | 00:00:00 | |
| OE5DRO-10 | 2026-09-02 05:58:53 | 48.71305 | 18.36397 | 61° | 13km/h | 23433m | 4.4m/s | 0°C | 0% | 0hPa | 0V | 00:00:00 | 00:00:00 | 00:00:00 | |
| ATIDSZ-14 | 2026-09-02 05:58:52 | 48.71302 | 18.36390 | 48° | 22km/h | 23433m | 4.4m/s | -52.2°C | 0% | 0hPa | 0V | 00:00:00 | 00:00:00 | 00:00:00 | |
| OE5MMP-10 | 2026-09-02 05:58:50 | 48.71295 | 18.36379 | 33° | 9km/h | 23419m | 4.3m/s | 0°C | 0% | 0hPa | 0V | 00:00:00 | 00:00:00 | 00:00:00 | |
| PETON7-10 | 2026-09-02 05:58:49 | 48.71292 | 18.36377 | 10° | 9km/h | 23414m | 5.3m/s | 0°C | 0% | 0hPa | 0V | 00:00:00 | 00:00:00 | 00:00:00 | |
| OM5KV | 2026-09-02 05:58:46 | 48.71286 | 18.36378 | 358° | 9km/h | 23405m | 4.0m/s | -52.2°C | 0% | 0hPa | 0V | 00:00:00 | 00:00:00 | 00:00:00 | |
| DO3MHA-11 | 2026-09-02 05:58:45 | 48.71284 | 18.36379 | 36° | 9km/h | 23396m | 5.2m/s | 0°C | 0% | 0hPa | 0V | 00:00:00 | 00:00:00 | 00:00:00 | |
| OM5KV | 2026-09-02 05:58:41 | 48.71277 | 18.36372 | 21° | 13km/h | 23382m | 4.8m/s | -52.5°C | 0% | 0hPa | 0V | 00:00:00 | 00:00:00 | 00:00:00 | |
| OE5MMP-10 | 2026-09-02 05:58:40 | 48.71275 | 18.36371 | 21° | 11km/h | 23373m | 5.2m/s | 0°C | 0% | 0hPa | 0V | 00:00:00 | 00:00:00 | 00:00:00 | |
| POL1PZ | 2026-09-02 05:58:39 | 48.71271 | 18.36369 | 29° | 15km/h | 23373m | 5.2m/s | -52.6°C | 0% | 0hPa | 0V | 00:00:00 | 00:00:00 | 00:00:00 | |
| DO3MHA-11 | 2026-09-02 05:58:35 | 48.71263 | 18.36360 | 63° | 11km/h | 23349m | 4.7m/s | 0°C | 0% | 0hPa | 0V | 00:00:00 | 00:00:00 | 00:00:00 | |
| PETON7-10 | 2026-09-02 05:58:34 | 48.71262 | 18.36359 | 87° | 9km/h | 23343m | 5.4m/s | 0°C | 0% | 0hPa | 0V | 00:00:00 | 00:00:00 | 00:00:00 | |
| OM5KV | 2026-09-02 05:58:33 | 48.71262 | 18.36353 | 88° | 13km/h | 23343m | 5.4m/s | -52.5°C | 0% | 0hPa | 0V | 00:00:00 | 00:00:00 | 00:00:00 | |
| ATIDSZ-14 | 2026-09-02 05:58:31 | 48.71262 | 18.36342 | 79° | 13km/h | 23334m | 5.5m/s | -52.6°C | 0% | 0hPa | 0V | 00:00:00 | 00:00:00 | 00:00:00 | |
| OE5MMP-10 | 2026-09-02 05:58:30 | 48.71261 | 18.36338 | 51° | 9km/h | 23323m | 4.9m/s | 0°C | 0% | 0hPa | 0V | 00:00:00 | 00:00:00 | 00:00:00 | |
| OM5KV | 2026-09-02 05:58:28 | 48.71258 | 18.36332 | 48° | 11km/h | 23318m | 5.0m/s | -52.6°C | 0% | 0hPa | 0V | 00:00:00 | 00:00:00 | 00:00:00 | |
| DO3MHA-11 | 2026-09-02 05:58:25 | 48.71252 | 18.36325 | 54° | 9km/h | 23299m | 5.4m/s | 0°C | 0% | 0hPa | 0V | 00:00:00 | 00:00:00 | 00:00:00 | |
| OM5KV | 2026-09-02 05:58:23 | 48.71252 | 18.36317 | 110° | 11km/h | 23289m | 4.8m/s | -52.5°C | 0% | 0hPa | 0V | 00:00:00 | 00:00:00 | 00:00:00 | |
| OE5MMP-10 | 2026-09-02 05:58:20 | 48.71253 | 18.36311 | 94° | 9km/h | 23275m | 4.5m/s | 0°C | 0% | 0hPa | 0V | 00:00:00 | 00:00:00 | 00:00:00 | |
| PETON7-10 | 2026-09-02 05:58:19 | 48.71253 | 18.36309 | 70° | 9km/h | 23270m | 5.3m/s | 0°C | 0% | 0hPa | 0V | 00:00:00 | 00:00:00 | 00:00:00 | |
| SP9KGR-15 | 2026-09-02 05:58:18 | 48.71253 | 18.36305 | 70° | 9km/h | 23270m | 5.3m/s | -52.2°C | 0% | 0hPa | 0V | 00:00:00 | 00:00:00 | 00:00:00 | |
| DO3MHA-11 | 2026-09-02 05:58:15 | 48.71249 | 18.36294 | 30° | 9km/h | 23250m | 3.4m/s | 0°C | 0% | 0hPa | 0V | 00:00:00 | 00:00:00 | 00:00:00 | |
| ATIDSZ-14 | 2026-09-02 05:58:11 | 48.71242 | 18.36285 | 103° | 9km/h | 23237m | 4.0m/s | -52.5°C | 0% | 0hPa | 0V | 00:00:00 | 00:00:00 | 00:00:00 | |
| OE5MMP-10 | 2026-09-02 05:58:10 | 48.71242 | 18.36282 | 105° | 5km/h | 23227m | 4.7m/s | 0°C | 0% | 0hPa | 0V | 00:00:00 | 00:00:00 | 00:00:00 | |
| DO3MHA-11 | 2026-09-02 05:58:05 | 48.71245 | 18.36266 | 85° | 5km/h | 23202m | 4.9m/s | 0°C | 0% | 0hPa | 0V | 00:00:00 | 00:00:00 | 00:00:00 | |
| PETON7-10 | 2026-09-02 05:58:04 | 48.71245 | 18.36264 | 351° | 5km/h | 23198m | 4.6m/s | 0°C | 0% | 0hPa | 0V | 00:00:00 | 00:00:00 | 00:00:00 | |
| SP9KGR-15 | 2026-09-02 05:58:02 | 48.71244 | 18.36264 | 0° | 0km/h | 23193m | 5.8m/s | -52.4°C | 0% | 0hPa | 0V | 00:00:00 | 00:00:00 | 00:00:00 | |
| SQ9EZE-14 | 2026-09-02 05:58:01 | 48.71244 | 18.36264 | 115° | 2km/h | 23187m | 4.4m/s | -52.3°C | 0% | 0hPa | 0V | 00:00:00 | 00:00:00 | 00:00:00 | |
| OE5MMP-10 | 2026-09-02 05:58:00 | 48.71244 | 18.36263 | 1° | 5km/h | 23178m | 5.5m/s | 0°C | 0% | 0hPa | 0V | 00:00:00 | 00:00:00 | 00:00:00 | |
| OE5DRO-10 | 2026-09-02 05:57:56 | 48.71244 | 18.36260 | 84° | 7km/h | 23154m | 5.3m/s | 0°C | 0% | 0hPa | 0V | 00:00:00 | 00:00:00 | 00:00:00 | |
| OM5KV | 2026-09-02 05:57:55 | 48.71244 | 18.36256 | 44° | 5km/h | 23154m | 5.4m/s | -52.2°C | 0% | 0hPa | 0V | 00:00:00 | 00:00:00 | 00:00:00 | |
| POL1PZ | 2026-09-02 05:57:54 | 48.71244 | 18.36256 | 44° | 5km/h | 23154m | 5.4m/s | -52.2°C | 0% | 0hPa | 0V | 00:00:00 | 00:00:00 | 00:00:00 | |
| OE5MMP-10 | 2026-09-02 05:57:50 | 48.71236 | 18.36246 | 41° | 5km/h | 23129m | 4.0m/s | 0°C | 0% | 0hPa | 0V | 00:00:00 | 00:00:00 | 00:00:00 | |
| PETON7-10 | 2026-09-02 05:57:49 | 48.71234 | 18.36244 | 79° | 7km/h | 23125m | 4.5m/s | 0°C | 0% | 0hPa | 0V | 00:00:00 | 00:00:00 | 00:00:00 | |
| OE5MMP-10 | 2026-09-02 05:57:40 | 48.71231 | 18.36232 | 53° | 9km/h | 23080m | 5.8m/s | 0°C | 0% | 0hPa | 0V | 00:00:00 | 00:00:00 | 00:00:00 | |
| PETON7-10 | 2026-09-02 05:57:34 | 48.71224 | 18.36207 | 87° | 7km/h | 23051m | 4.9m/s | 0°C | 0% | 0hPa | 0V | 00:00:00 | 00:00:00 | 00:00:00 | |
| OM5KV | 2026-09-02 05:57:33 | 48.71225 | 18.36206 | 87° | 5km/h | 23051m | 4.9m/s | -52.2°C | 0% | 0hPa | 0V | 00:00:00 | 00:00:00 | 00:00:00 | |
| SP9KGR-15 | 2026-09-02 05:57:31 | 48.71224 | 18.36204 | 112° | 2km/h | 23041m | 5.8m/s | -52.2°C | 0% | 0hPa | 0V | 00:00:00 | 00:00:00 | 00:00:00 | |
| OE5MMP-10 | 2026-09-02 05:57:30 | 48.71225 | 18.36203 | 108° | 9km/h | 23030m | 5.0m/s | 0°C | 0% | 0hPa | 0V | 00:00:00 | 00:00:00 | 00:00:00 | |
| ATIDSZ-14 | 2026-09-02 05:57:28 | 48.71225 | 18.36200 | 101° | 4km/h | 23025m | 4.9m/s | -52.1°C | 0% | 0hPa | 0V | 00:00:00 | 00:00:00 | 00:00:00 | |
| OM5KV | 2026-09-02 05:57:27 | 48.71225 | 18.36199 | 106° | 5km/h | 23021m | 4.2m/s | -52.1°C | 0% | 0hPa | 0V | 00:00:00 | 00:00:00 | 00:00:00 | |
| OM5KV | 2026-09-02 05:57:25 | 48.71227 | 18.36192 | 114° | 15km/h | 23010m | 5.1m/s | -52.1°C | 0% | 0hPa | 0V | 00:00:00 | 00:00:00 | 00:00:00 | |
| OE5MMP-10 | 2026-09-02 05:57:20 | 48.71232 | 18.36168 | 91° | 9km/h | 22980m | 6.0m/s | 0°C | 0% | 0hPa | 0V | 00:00:00 | 00:00:00 | 00:00:00 | |
| OM5KV | 2026-09-02 05:57:19 | 48.71231 | 18.36162 | 60° | 5km/h | 22975m | 4.5m/s | -52.1°C | 0% | 0hPa | 0V | 00:00:00 | 00:00:00 | 00:00:00 | |
| OE5DRO-10 | 2026-09-02 05:57:18 | 48.71231 | 18.36162 | 59° | 7km/h | 22966m | 5.1m/s | 0°C | 0% | 0hPa | 0V | 00:00:00 | 00:00:00 | 00:00:00 | |
| SP9KGR-15 | 2026-09-02 05:57:16 | 48.71230 | 18.36158 | 82° | 7km/h | 22966m | 5.1m/s | -52.0°C | 0% | 0hPa | 0V | 00:00:00 | 00:00:00 | 00:00:00 | |
| OM5KV | 2026-09-02 05:57:14 | 48.71229 | 18.36150 | 71° | 11km/h | 22957m | 4.5m/s | -52.0°C | 0% | 0hPa | 0V | 00:00:00 | 00:00:00 | 00:00:00 | |
| PG1ADW-2 | 2026-09-02 05:57:12 | 48.71227 | 18.36142 | 51° | 9km/h | 22940m | 5.6m/s | 0°C | 0% | 0hPa | 0V | 00:00:00 | 00:00:00 | 00:00:00 | |
| OE5MMP-10 | 2026-09-02 05:57:10 | 48.71223 | 18.36133 | 11° | 5km/h | 22931m | 4.3m/s | 0°C | 0% | 0hPa | 0V | 00:00:00 | 00:00:00 | 00:00:00 | |
| OM5KV | 2026-09-02 05:57:07 | 48.71218 | 18.36132 | 338° | 9km/h | 22920m | 5.2m/s | -51.8°C | 0% | 0hPa | 0V | 00:00:00 | 00:00:00 | 00:00:00 | |
| PETON7-10 | 2026-09-02 05:57:04 | 48.71216 | 18.36133 | 37° | 11km/h | 22900m | 5.6m/s | 0°C | 0% | 0hPa | 0V | 00:00:00 | 00:00:00 | 00:00:00 | |
| OM5KV | 2026-09-02 05:57:02 | 48.71214 | 18.36131 | 35° | 5km/h | 22895m | 4.4m/s | -51.8°C | 0% | 0hPa | 0V | 00:00:00 | 00:00:00 | 00:00:00 | |
| SP9KGR-15 | 2026-09-02 05:57:01 | 48.71213 | 18.36130 | 40° | 9km/h | 22890m | 5.0m/s | -51.8°C | 0% | 0hPa | 0V | 00:00:00 | 00:00:00 | 00:00:00 | |
| OE5MMP-10 | 2026-09-02 05:57:00 | 48.71211 | 18.36127 | 44° | 13km/h | 22880m | 4.2m/s | 0°C | 0% | 0hPa | 0V | 00:00:00 | 00:00:00 | 00:00:00 | |
| OE5DRO-10 | 2026-09-02 05:56:59 | 48.71209 | 18.36124 | 39° | 13km/h | 22876m | 4.5m/s | 0°C | 0% | 0hPa | 0V | 00:00:00 | 00:00:00 | 00:00:00 | |
| OE5DXL-15 | 2026-09-02 05:56:57 | 48.71203 | 18.36118 | 10° | 13km/h | 22865m | 4.7m/s | 0°C | 0% | 0hPa | 0V | 00:00:00 | 00:00:00 | 00:00:00 | |
| OM5KV | 2026-09-02 05:56:56 | 48.71200 | 18.36117 | 359° | 15km/h | 22865m | 4.7m/s | -51.7°C | 0% | 0hPa | 0V | 00:00:00 | 00:00:00 | 00:00:00 | |
| DO3MHA-11 | 2026-09-02 05:56:54 | 48.71194 | 18.36118 | 2° | 11km/h | 22844m | 4.7m/s | 0°C | 0% | 0hPa | 0V | 00:00:00 | 00:00:00 | 00:00:00 | |
| PG1ADW-2 | 2026-09-02 05:56:52 | 48.71188 | 18.36118 | 15° | 11km/h | 22840m | 3.9m/s | 0°C | 0% | 0hPa | 0V | 00:00:00 | 00:00:00 | 00:00:00 | |
| OE5MMP-10 | 2026-09-02 05:56:50 | 48.71183 | 18.36116 | 44° | 13km/h | 22830m | 4.7m/s | 0°C | 0% | 0hPa | 0V | 00:00:00 | 00:00:00 | 00:00:00 | |
| PETON7-10 | 2026-09-02 05:56:49 | 48.71180 | 18.36111 | 40° | 13km/h | 22825m | 4.4m/s | 0°C | 0% | 0hPa | 0V | 00:00:00 | 00:00:00 | 00:00:00 | |
| OE5WHR-10 | 2026-09-02 05:56:47 | 48.71177 | 18.36103 | 347° | 11km/h | 22815m | 4.9m/s | 0°C | 0% | 0hPa | 0V | 00:00:00 | 00:00:00 | 00:00:00 | |
| SP9KGR-15 | 2026-09-02 05:56:46 | 48.71174 | 18.36104 | 347° | 11km/h | 22815m | 4.9m/s | -51.6°C | 0% | 0hPa | 0V | 00:00:00 | 00:00:00 | 00:00:00 | |
| DO3MHA-11 | 2026-09-02 05:56:42 | 48.71164 | 18.36115 | 335° | 16km/h | 22790m | 3.8m/s | 0°C | 0% | 0hPa | 0V | 00:00:00 | 00:00:00 | 00:00:00 | |
| OE5MMP-10 | 2026-09-02 05:56:40 | 48.71157 | 18.36123 | 33° | 13km/h | 22780m | 5.3m/s | 0°C | 0% | 0hPa | 0V | 00:00:00 | 00:00:00 | 00:00:00 | |
| PETON7-10 | 2026-09-02 05:56:34 | 48.71142 | 18.36113 | 332° | 16km/h | 22750m | 5.0m/s | 0°C | 0% | 0hPa | 0V | 00:00:00 | 00:00:00 | 00:00:00 | |
| OE5MMP-10 | 2026-09-02 05:56:30 | 48.71127 | 18.36127 | 329° | 15km/h | 22730m | 4.3m/s | 0°C | 0% | 0hPa | 0V | 00:00:00 | 00:00:00 | 00:00:00 | |
| ATIDSZ-14 | 2026-09-02 05:56:27 | 48.71113 | 18.36135 | 342° | 9km/h | 22715m | 5.5m/s | -51.5°C | 0% | 0hPa | 0V | 00:00:00 | 00:00:00 | 00:00:00 | |
| OE5WHR-10 | 2026-09-02 05:56:26 | 48.71112 | 18.36135 | 341° | 18km/h | 22693m | 4.3m/s | 0°C | 0% | 0hPa | 0V | 00:00:00 | 00:00:00 | 00:00:00 | |
| POL1PZ | 2026-09-02 05:56:25 | 48.71110 | 18.36136 | 330° | 11km/h | 22709m | 5.3m/s | -51.5°C | 0% | 0hPa | 0V | 00:00:00 | 00:00:00 | 00:00:00 | |
| OE3JTB-15 | 2026-09-02 05:56:23 | 48.71106 | 18.36142 | 312° | 18km/h | 22698m | 6.0m/s | 0°C | 0% | 0hPa | 0V | 00:00:00 | 00:00:00 | 00:00:00 | |
| OE5DRO-10 | 2026-09-02 05:56:21 | 48.71100 | 18.36151 | 325° | 18km/h | 22683m | 5.6m/s | 0°C | 0% | 0hPa | 0V | 00:00:00 | 00:00:00 | 00:00:00 | |
| OE5MMP-10 | 2026-09-02 05:56:20 | 48.71096 | 18.36156 | 325° | 18km/h | 22678m | 4.0m/s | 0°C | 0% | 0hPa | 0V | 00:00:00 | 00:00:00 | 00:00:00 | |
| PETON7-10 | 2026-09-02 05:56:19 | 48.71090 | 18.36161 | 333° | 18km/h | 22673m | 5.6m/s | 0°C | 0% | 0hPa | 0V | 00:00:00 | 00:00:00 | 00:00:00 | |
| SP9KGR-15 | 2026-09-02 05:56:14 | 48.71083 | 18.36171 | 347° | 15km/h | 22653m | 4.5m/s | -51.7°C | 0% | 0hPa | 0V | 00:00:00 | 00:00:00 | 00:00:00 | |
| OE5MMP-10 | 2026-09-02 05:56:10 | 48.71058 | 18.36180 | 296° | 16km/h | 22627m | 4.9m/s | 0°C | 0% | 0hPa | 0V | 00:00:00 | 00:00:00 | 00:00:00 | |
| ATIDSZ-14 | 2026-09-02 05:56:06 | 48.71049 | 18.36211 | 305° | 18km/h | 22611m | 4.9m/s | -51.8°C | 0% | 0hPa | 0V | 00:00:00 | 00:00:00 | 00:00:00 | |
| OE5WHR-10 | 2026-09-02 05:56:05 | 48.71047 | 18.36216 | 317° | 16km/h | 22565m | 5.9m/s | 0°C | 0% | 0hPa | 0V | 00:00:00 | 00:00:00 | 00:00:00 | |
| PETON7-10 | 2026-09-02 05:56:04 | 48.71044 | 18.36220 | 323° | 15km/h | 22595m | 5.4m/s | 0°C | 0% | 0hPa | 0V | 00:00:00 | 00:00:00 | 00:00:00 | |
| OE5DRO-10 | 2026-09-02 05:56:02 | 48.71039 | 18.36226 | 281° | 15km/h | 22585m | 4.0m/s | 0°C | 0% | 0hPa | 0V | 00:00:00 | 00:00:00 | 00:00:00 | |
| OE5MMP-10 | 2026-09-02 05:56:00 | 48.71039 | 18.36234 | 274° | 16km/h | 22575m | 5.3m/s | 0°C | 0% | 0hPa | 0V | 00:00:00 | 00:00:00 | 00:00:00 | |
| SP9KGR-15 | 2026-09-02 05:55:58 | 48.71038 | 18.36244 | 284° | 16km/h | 22570m | 4.9m/s | -51.9°C | 0% | 0hPa | 0V | 00:00:00 | 00:00:00 | 00:00:00 | |
| OE5DXL-15 | 2026-09-02 05:55:57 | 48.71037 | 18.36251 | 286° | 16km/h | 22559m | 5.6m/s | 0°C | 0% | 0hPa | 0V | 00:00:00 | 00:00:00 | 00:00:00 | |
| DO3MHA-11 | 2026-09-02 05:55:54 | 48.71034 | 18.36271 | 294° | 16km/h | 22527m | 4.1m/s | 0°C | 0% | 0hPa | 0V | 00:00:00 | 00:00:00 | 00:00:00 | |
| OE5MMP-10 | 2026-09-02 05:55:50 | 48.71029 | 18.36291 | 263° | 16km/h | 22522m | 5.9m/s | 0°C | 0% | 0hPa | 0V | 00:00:00 | 00:00:00 | 00:00:00 | |
| PETON7-10 | 2026-09-02 05:55:49 | 48.71029 | 18.36296 | 266° | 16km/h | 22517m | 5.1m/s | 0°C | 0% | 0hPa | 0V | 00:00:00 | 00:00:00 | 00:00:00 | |
| ATIDSZ-14 | 2026-09-02 05:55:45 | 48.71030 | 18.36320 | 262° | 16km/h | 22501m | 5.1m/s | -52.0°C | 0% | 0hPa | 0V | 00:00:00 | 00:00:00 | 00:00:00 | |
| DO3MHA-11 | 2026-09-02 05:55:44 | 48.71028 | 18.36326 | 267° | 18km/h | 22497m | 4.6m/s | 0°C | 0% | 0hPa | 0V | 00:00:00 | 00:00:00 | 00:00:00 | |
| OE5DRO-10 | 2026-09-02 05:55:43 | 48.71031 | 18.36332 | 281° | 15km/h | 22486m | 4.6m/s | 0°C | 0% | 0hPa | 0V | 00:00:00 | 00:00:00 | 00:00:00 | |
| SP9KGR-15 | 2026-09-02 05:55:42 | 48.71030 | 18.36338 | 290° | 16km/h | 22486m | 4.7m/s | -52.2°C | 0% | 0hPa | 0V | 00:00:00 | 00:00:00 | 00:00:00 | |
| OE5MMP-10 | 2026-09-02 05:55:40 | 48.71027 | 18.36351 | 281° | 16km/h | 22470m | 4.6m/s | 0°C | 0% | 0hPa | 0V | 00:00:00 | 00:00:00 | 00:00:00 | |
| DO3MHA-11 | 2026-09-02 05:55:34 | 48.71027 | 18.36393 | 252° | 11km/h | 22439m | 5.8m/s | 0°C | 0% | 0hPa | 0V | 00:00:00 | 00:00:00 | 00:00:00 | |
| OE5MMP-10 | 2026-09-02 05:55:30 | 48.71029 | 18.36412 | 260° | 9km/h | 22418m | 4.4m/s | 0°C | 0% | 0hPa | 0V | 00:00:00 | 00:00:00 | 00:00:00 | |
| SQ9EZE-14 | 2026-09-02 05:55:28 | 48.71029 | 18.36419 | 266° | 9km/h | 22413m | 5.7m/s | -52.8°C | 0% | 0hPa | 0V | 00:00:00 | 00:00:00 | 00:00:00 | |
| OE5DXL-15 | 2026-09-02 05:55:27 | 48.71029 | 18.36423 | 222° | 11km/h | 22402m | 6.0m/s | 0°C | 0% | 0hPa | 0V | 00:00:00 | 00:00:00 | 00:00:00 | |
| SP9KGR-15 | 2026-09-02 05:55:26 | 48.71029 | 18.36425 | 223° | 7km/h | 22402m | 6.0m/s | -52.8°C | 0% | 0hPa | 0V | 00:00:00 | 00:00:00 | 00:00:00 | |
| ATIDSZ-14 | 2026-09-02 05:55:25 | 48.71033 | 18.36430 | 209° | 13km/h | 22393m | 4.4m/s | -52.7°C | 0% | 0hPa | 0V | 00:00:00 | 00:00:00 | 00:00:00 | |
| DO3MHA-11 | 2026-09-02 05:55:24 | 48.71033 | 18.36430 | 208° | 13km/h | 22388m | 5.7m/s | 0°C | 0% | 0hPa | 0V | 00:00:00 | 00:00:00 | 00:00:00 | |
| POL1PZ | 2026-09-02 05:55:23 | 48.71036 | 18.36432 | 210° | 11km/h | 22388m | 5.7m/s | -52.8°C | 0% | 0hPa | 0V | 00:00:00 | 00:00:00 | 00:00:00 | |
| OE5MMP-10 | 2026-09-02 05:55:20 | 48.71043 | 18.36438 | 199° | 11km/h | 22367m | 4.4m/s | 0°C | 0% | 0hPa | 0V | 00:00:00 | 00:00:00 | 00:00:00 | |
| PETON7-10 | 2026-09-02 05:55:19 | 48.71046 | 18.36439 | 203° | 13km/h | 22362m | 6.1m/s | 0°C | 0% | 0hPa | 0V | 00:00:00 | 00:00:00 | 00:00:00 | |
| SP9KGR-15 | 2026-09-02 05:55:12 | 48.71064 | 18.36457 | 207° | 15km/h | 22329m | 4.5m/s | -52.4°C | 0% | 0hPa | 0V | 00:00:00 | 00:00:00 | 00:00:00 | |
| OE5MMP-10 | 2026-09-02 05:55:10 | 48.71067 | 18.36461 | 185° | 11km/h | 22319m | 6.0m/s | 0°C | 0% | 0hPa | 0V | 00:00:00 | 00:00:00 | 00:00:00 | |
| OE5DRO-10 | 2026-09-02 05:55:05 | 48.71083 | 18.36460 | 176° | 13km/h | 22288m | 4.1m/s | 0°C | 0% | 0hPa | 0V | 00:00:00 | 00:00:00 | 00:00:00 | |
| PETON7-10 | 2026-09-02 05:55:04 | 48.71086 | 18.36460 | 176° | 13km/h | 22288m | 4.1m/s | 0°C | 0% | 0hPa | 0V | 00:00:00 | 00:00:00 | 00:00:00 | |
| DO3MHA-11 | 2026-09-02 05:55:03 | 48.71089 | 18.36458 | 192° | 13km/h | 22283m | 6.0m/s | 0°C | 0% | 0hPa | 0V | 00:00:00 | 00:00:00 | 00:00:00 | |
| POL1PZ | 2026-09-02 05:55:02 | 48.71091 | 18.36459 | 192° | 9km/h | 22283m | 6.1m/s | -52.2°C | 0% | 0hPa | 0V | 00:00:00 | 00:00:00 | 00:00:00 | |
| OE5MMP-10 | 2026-09-02 05:55:00 | 48.71096 | 18.36461 | 186° | 15km/h | 22268m | 4.5m/s | 0°C | 0% | 0hPa | 0V | 00:00:00 | 00:00:00 | 00:00:00 | |
| PG1ADW-2 | 2026-09-02 05:54:59 | 48.71099 | 18.36461 | 182° | 15km/h | 22264m | 4.3m/s | 0°C | 0% | 0hPa | 0V | 00:00:00 | 00:00:00 | 00:00:00 | |
| OE5DXL-15 | 2026-09-02 05:54:57 | 48.71107 | 18.36462 | 183° | 16km/h | 22253m | 4.4m/s | 0°C | 0% | 0hPa | 0V | 00:00:00 | 00:00:00 | 00:00:00 | |
| SP9KGR-15 | 2026-09-02 05:54:56 | 48.71111 | 18.36462 | 183° | 15km/h | 22253m | 4.4m/s | -52.1°C | 0% | 0hPa | 0V | 00:00:00 | 00:00:00 | 00:00:00 | |
| DO3MHA-11 | 2026-09-02 05:54:53 | 48.71124 | 18.36460 | 164° | 15km/h | 22234m | 5.2m/s | 0°C | 0% | 0hPa | 0V | 00:00:00 | 00:00:00 | 00:00:00 | |
| OE5MMP-10 | 2026-09-02 05:54:50 | 48.71132 | 18.36456 | 142° | 15km/h | 22219m | 5.8m/s | 0°C | 0% | 0hPa | 0V | 00:00:00 | 00:00:00 | 00:00:00 | |
| PETON7-10 | 2026-09-02 05:54:49 | 48.71133 | 18.36454 | 142° | 16km/h | 22214m | 4.8m/s | 0°C | 0% | 0hPa | 0V | 00:00:00 | 00:00:00 | 00:00:00 | |
| OE5DRO-10 | 2026-09-02 05:54:46 | 48.71141 | 18.36447 | 167° | 18km/h | 22199m | 4.4m/s | 0°C | 0% | 0hPa | 0V | 00:00:00 | 00:00:00 | 00:00:00 | |
| ATIDSZ-14 | 2026-09-02 05:54:44 | 48.71151 | 18.36443 | 165° | 22km/h | 22193m | 5.8m/s | -51.7°C | 0% | 0hPa | 0V | 00:00:00 | 00:00:00 | 00:00:00 | |
| DO3MHA-11 | 2026-09-02 05:54:43 | 48.71156 | 18.36440 | 153° | 20km/h | 22184m | 4.8m/s | 0°C | 0% | 0hPa | 0V | 00:00:00 | 00:00:00 | 00:00:00 | |
| POL1PZ | 2026-09-02 05:54:42 | 48.71160 | 18.36436 | 147° | 20km/h | 22184m | 4.9m/s | -51.8°C | 0% | 0hPa | 0V | 00:00:00 | 00:00:00 | 00:00:00 | |
| SP9KGR-15 | 2026-09-02 05:54:41 | 48.71164 | 18.36432 | 138° | 15km/h | 22178m | 5.9m/s | -51.8°C | 0% | 0hPa | 0V | 00:00:00 | 00:00:00 | 00:00:00 | |
| OE5MMP-10 | 2026-09-02 05:54:40 | 48.71166 | 18.36428 | 125° | 18km/h | 22169m | 4.0m/s | 0°C | 0% | 0hPa | 0V | 00:00:00 | 00:00:00 | 00:00:00 | |
| PG1ADW-2 | 2026-09-02 05:54:39 | 48.71168 | 18.36425 | 125° | 20km/h | 22165m | 5.1m/s | 0°C | 0% | 0hPa | 0V | 00:00:00 | 00:00:00 | 00:00:00 | |
| PETON7-10 | 2026-09-02 05:54:34 | 48.71186 | 18.36403 | 158° | 20km/h | 22139m | 4.9m/s | 0°C | 0% | 0hPa | 0V | 00:00:00 | 00:00:00 | 00:00:00 | |
| DO3MHA-11 | 2026-09-02 05:54:33 | 48.71192 | 18.36399 | 152° | 20km/h | 22139m | 4.9m/s | 0°C | 0% | 0hPa | 0V | 00:00:00 | 00:00:00 | 00:00:00 | |
| OE5MMP-10 | 2026-09-02 05:54:30 | 48.71203 | 18.36385 | 113° | 20km/h | 22120m | 4.6m/s | 0°C | 0% | 0hPa | 0V | 00:00:00 | 00:00:00 | 00:00:00 | |
| OE5DXL-15 | 2026-09-02 05:54:27 | 48.71206 | 18.36368 | 106° | 18km/h | 22104m | 5.8m/s | 0°C | 0% | 0hPa | 0V | 00:00:00 | 00:00:00 | 00:00:00 | |
| DO3MHA-11 | 2026-09-02 05:54:23 | 48.71217 | 18.36341 | 132° | 18km/h | 22083m | 4.5m/s | 0°C | 0% | 0hPa | 0V | 00:00:00 | 00:00:00 | 00:00:00 | |
| OE5MMP-10 | 2026-09-02 05:54:20 | 48.71227 | 18.36324 | 94° | 18km/h | 22068m | 5.9m/s | 0°C | 0% | 0hPa | 0V | 00:00:00 | 00:00:00 | 00:00:00 | |
| PG1ADW-2 | 2026-09-02 05:54:19 | 48.71227 | 18.36318 | 94° | 18km/h | 22062m | 4.5m/s | 0°C | 0% | 0hPa | 0V | 00:00:00 | 00:00:00 | 00:00:00 | |
| POL1PZ | 2026-09-02 05:54:18 | 48.71228 | 18.36313 | 86° | 15km/h | 22062m | 4.5m/s | -51.7°C | 0% | 0hPa | 0V | 00:00:00 | 00:00:00 | 00:00:00 | |
| DO3MHA-11 | 2026-09-02 05:54:13 | 48.71228 | 18.36280 | 108° | 16km/h | 22032m | 4.9m/s | 0°C | 0% | 0hPa | 0V | 00:00:00 | 00:00:00 | 00:00:00 | |
| SP9KGR-15 | 2026-09-02 05:54:11 | 48.71232 | 18.36255 | 96° | 16km/h | 22021m | 5.0m/s | -51.7°C | 0% | 0hPa | 0V | 00:00:00 | 00:00:00 | 00:00:00 | |
| OE5MMP-10 | 2026-09-02 05:54:10 | 48.71232 | 18.36255 | 96° | 16km/h | 22016m | 5.1m/s | 0°C | 0% | 0hPa | 0V | 00:00:00 | 00:00:00 | 00:00:00 | |
| OE3JTB-15 | 2026-09-02 05:54:09 | 48.71233 | 18.36249 | 96° | 18km/h | 22011m | 5.1m/s | 0°C | 0% | 0hPa | 0V | 00:00:00 | 00:00:00 | 00:00:00 | |
| OE5DRO-10 | 2026-09-02 05:54:08 | 48.71233 | 18.36245 | 97° | 16km/h | 22006m | 4.2m/s | 0°C | 0% | 0hPa | 0V | 00:00:00 | 00:00:00 | 00:00:00 | |
| PETON7-10 | 2026-09-02 05:54:04 | 48.71234 | 18.36227 | 112° | 16km/h | 21985m | 5.6m/s | 0°C | 0% | 0hPa | 0V | 00:00:00 | 00:00:00 | 00:00:00 | |
| DO3MHA-11 | 2026-09-02 05:54:03 | 48.71236 | 18.36221 | 120° | 20km/h | 21974m | 5.6m/s | 0°C | 0% | 0hPa | 0V | 00:00:00 | 00:00:00 | 00:00:00 | |
| OE5MMP-10 | 2026-09-02 05:54:00 | 48.71245 | 18.36196 | 118° | 15km/h | 21964m | 5.2m/s | 0°C | 0% | 0hPa | 0V | 00:00:00 | 00:00:00 | 00:00:00 | |
| PG1ADW-2 | 2026-09-02 05:53:59 | 48.71247 | 18.36187 | 129° | 16km/h | 21959m | 4.5m/s | 0°C | 0% | 0hPa | 0V | 00:00:00 | 00:00:00 | 00:00:00 | |
| POL1PZ | 2026-09-02 05:53:56 | 48.71255 | 18.36172 | 122° | 11km/h | 21950m | 5.9m/s | -51.4°C | 0% | 0hPa | 0V | 00:00:00 | 00:00:00 | 00:00:00 | |
| SP9KGR-15 | 2026-09-02 05:53:55 | 48.71256 | 18.36168 | 117° | 7km/h | 21944m | 4.8m/s | -51.3°C | 0% | 0hPa | 0V | 00:00:00 | 00:00:00 | 00:00:00 | |
| DO3MHA-11 | 2026-09-02 05:53:53 | 48.71258 | 18.36162 | 134° | 13km/h | 21930m | 3.9m/s | 0°C | 0% | 0hPa | 0V | 00:00:00 | 00:00:00 | 00:00:00 | |
| OE5MMP-10 | 2026-09-02 05:53:50 | 48.71267 | 18.36149 | 133° | 16km/h | 21915m | 4.3m/s | 0°C | 0% | 0hPa | 0V | 00:00:00 | 00:00:00 | 00:00:00 | |
| PETON7-10 | 2026-09-02 05:53:49 | 48.71270 | 18.36144 | 133° | 18km/h | 21910m | 5.3m/s | 0°C | 0% | 0hPa | 0V | 00:00:00 | 00:00:00 | 00:00:00 | |
| ATIDSZ-14 | 2026-09-02 05:53:42 | 48.71295 | 18.36119 | 159° | 15km/h | 21878m | 5.2m/s | -51.2°C | 0% | 0hPa | 0V | 00:00:00 | 00:00:00 | 00:00:00 | |
| OE5MMP-10 | 2026-09-02 05:53:40 | 48.71302 | 18.36114 | 149° | 20km/h | 21864m | 3.3m/s | 0°C | 0% | 0hPa | 0V | 00:00:00 | 00:00:00 | 00:00:00 | |
| PG1ADW-2 | 2026-09-02 05:53:39 | 48.71305 | 18.36112 | 155° | 16km/h | 21859m | 6.0m/s | 0°C | 0% | 0hPa | 0V | 00:00:00 | 00:00:00 | 00:00:00 | |
| PETON7-10 | 2026-09-02 05:53:34 | 48.71331 | 18.36094 | 159° | 16km/h | 21832m | 6.0m/s | 0°C | 0% | 0hPa | 0V | 00:00:00 | 00:00:00 | 00:00:00 | |
| OE5MMP-10 | 2026-09-02 05:53:30 | 48.71349 | 18.36087 | 164° | 15km/h | 21810m | 4.8m/s | 0°C | 0% | 0hPa | 0V | 00:00:00 | 00:00:00 | 00:00:00 | |
| OE5DXL-15 | 2026-09-02 05:53:27 | 48.71358 | 18.36084 | 166° | 11km/h | 21795m | 5.9m/s | 0°C | 0% | 0hPa | 0V | 00:00:00 | 00:00:00 | 00:00:00 | |
| SP9KGR-15 | 2026-09-02 05:53:24 | 48.71369 | 18.36077 | 156° | 18km/h | 21784m | 6.1m/s | -51.0°C | 0% | 0hPa | 0V | 00:00:00 | 00:00:00 | 00:00:00 | |
| ATIDSZ-14 | 2026-09-02 05:53:22 | 48.71379 | 18.36072 | 159° | 16km/h | 21774m | 4.7m/s | -51.0°C | 0% | 0hPa | 0V | 00:00:00 | 00:00:00 | 00:00:00 | |
| OE5MMP-10 | 2026-09-02 05:53:20 | 48.71384 | 18.36067 | 159° | 11km/h | 21759m | 5.0m/s | 0°C | 0% | 0hPa | 0V | 00:00:00 | 00:00:00 | 00:00:00 | |
| PETON7-10 | 2026-09-02 05:53:19 | 48.71384 | 18.36067 | 159° | 11km/h | 21754m | 5.0m/s | 0°C | 0% | 0hPa | 0V | 00:00:00 | 00:00:00 | 00:00:00 | |
| DO3MHA-11 | 2026-09-02 05:53:12 | 48.71398 | 18.36048 | 138° | 11km/h | 21708m | 5.6m/s | 0°C | 0% | 0hPa | 0V | 00:00:00 | 00:00:00 | 00:00:00 | |
| OE5DRO-10 | 2026-09-02 05:53:11 | 48.71400 | 18.36043 | 136° | 7km/h | 21713m | 4.8m/s | 0°C | 0% | 0hPa | 0V | 00:00:00 | 00:00:00 | 00:00:00 | |
| OE5MMP-10 | 2026-09-02 05:53:10 | 48.71402 | 18.36041 | 136° | 9km/h | 21708m | 5.6m/s | 0°C | 0% | 0hPa | 0V | 00:00:00 | 00:00:00 | 00:00:00 | |
| SP9KGR-15 | 2026-09-02 05:53:08 | 48.71406 | 18.36036 | 150° | 9km/h | 21702m | 4.6m/s | -51.1°C | 0% | 0hPa | 0V | 00:00:00 | 00:00:00 | 00:00:00 | |
| PETON7-10 | 2026-09-02 05:53:04 | 48.71414 | 18.36026 | 139° | 5km/h | 21676m | 4.6m/s | 0°C | 0% | 0hPa | 0V | 00:00:00 | 00:00:00 | 00:00:00 | |
| GYPAP8-17 | 2026-09-02 05:53:02 | 48.71417 | 18.36022 | 134° | 7km/h | 21671m | 5.6m/s | -50.9°C | 0% | 0hPa | 0V | 00:00:00 | 00:00:00 | 00:00:00 | |
| DO3MHA-11 | 2026-09-02 05:53:01 | 48.71418 | 18.36020 | 123° | 5km/h | 21651m | 3.9m/s | 0°C | 0% | 0hPa | 0V | 00:00:00 | 00:00:00 | 00:00:00 | |
| OE5MMP-10 | 2026-09-02 05:53:00 | 48.71418 | 18.36018 | 132° | 5km/h | 21655m | 5.4m/s | 0°C | 0% | 0hPa | 0V | 00:00:00 | 00:00:00 | 00:00:00 | |
| PG1ADW-2 | 2026-09-02 05:52:59 | 48.71419 | 18.36017 | 159° | 7km/h | 21651m | 3.9m/s | 0°C | 0% | 0hPa | 0V | 00:00:00 | 00:00:00 | 00:00:00 | |
| OM5KV | 2026-09-02 05:52:58 | 48.71420 | 18.36017 | 161° | 4km/h | 21651m | 3.9m/s | -50.7°C | 0% | 0hPa | 0V | 00:00:00 | 00:00:00 | 00:00:00 | |
| OE5DXL-15 | 2026-09-02 05:52:57 | 48.71421 | 18.36016 | 145° | 9km/h | 21641m | 4.4m/s | 0°C | 0% | 0hPa | 0V | 00:00:00 | 00:00:00 | 00:00:00 | |
| OM5KV | 2026-09-02 05:52:55 | 48.71422 | 18.36014 | 204° | 4km/h | 21637m | 4.6m/s | -50.7°C | 0% | 0hPa | 0V | 00:00:00 | 00:00:00 | 00:00:00 | |
| SP9KGR-15 | 2026-09-02 05:52:53 | 48.71424 | 18.36016 | 222° | 9km/h | 21626m | 3.9m/s | -50.6°C | 0% | 0hPa | 0V | 00:00:00 | 00:00:00 | 00:00:00 | |
| OE5DRO-10 | 2026-09-02 05:52:52 | 48.71427 | 18.36020 | 212° | 7km/h | 21602m | 4.6m/s | 0°C | 0% | 0hPa | 0V | 00:00:00 | 00:00:00 | 00:00:00 | |
| DO3MHA-11 | 2026-09-02 05:52:50 | 48.71428 | 18.36021 | 173° | 4km/h | 21602m | 4.6m/s | 0°C | 0% | 0hPa | 0V | 00:00:00 | 00:00:00 | 00:00:00 | |
| PETON7-10 | 2026-09-02 05:52:48 | 48.71429 | 18.36021 | 174° | 9km/h | 21597m | 4.8m/s | 0°C | 0% | 0hPa | 0V | 00:00:00 | 00:00:00 | 00:00:00 | |
| OM5KV | 2026-09-02 05:52:45 | 48.71434 | 18.36019 | 171° | 7km/h | 21587m | 4.4m/s | -50.4°C | 0% | 0hPa | 0V | 00:00:00 | 00:00:00 | 00:00:00 | |
| OM5KV | 2026-09-02 05:52:44 | 48.71436 | 18.36017 | 185° | 9km/h | 21582m | 5.0m/s | -50.4°C | 0% | 0hPa | 0V | 00:00:00 | 00:00:00 | 00:00:00 | |
| OE3JTB-15 | 2026-09-02 05:52:41 | 48.71444 | 18.36022 | 221° | 11km/h | 21556m | 5.7m/s | 0°C | 0% | 0hPa | 0V | 00:00:00 | 00:00:00 | 00:00:00 | |
| DO3MHA-11 | 2026-09-02 05:52:40 | 48.71447 | 18.36025 | 221° | 11km/h | 21546m | 4.5m/s | 0°C | 0% | 0hPa | 0V | 00:00:00 | 00:00:00 | 00:00:00 | |
| PG1ADW-2 | 2026-09-02 05:52:39 | 48.71448 | 18.36028 | 211° | 11km/h | 21551m | 4.8m/s | 0°C | 0% | 0hPa | 0V | 00:00:00 | 00:00:00 | 00:00:00 | |
| OM5KV | 2026-09-02 05:52:38 | 48.71450 | 18.36030 | 211° | 11km/h | 21551m | 4.8m/s | -50.3°C | 0% | 0hPa | 0V | 00:00:00 | 00:00:00 | 00:00:00 | |
| PETON7-10 | 2026-09-02 05:52:33 | 48.71458 | 18.36032 | 206° | 13km/h | 21520m | 4.4m/s | 0°C | 0% | 0hPa | 0V | 00:00:00 | 00:00:00 | 00:00:00 | |
| OM5KV | 2026-09-02 05:52:32 | 48.71464 | 18.36037 | 217° | 15km/h | 21515m | 5.7m/s | -50.7°C | 0% | 0hPa | 0V | 00:00:00 | 00:00:00 | 00:00:00 | |
| POL1PZ | 2026-09-02 05:52:31 | 48.71464 | 18.36037 | 217° | 15km/h | 21515m | 5.7m/s | -50.7°C | 0% | 0hPa | 0V | 00:00:00 | 00:00:00 | 00:00:00 | |
| OE5MMP-10 | 2026-09-02 05:52:30 | 48.71467 | 18.36040 | 215° | 13km/h | 21505m | 5.6m/s | 0°C | 0% | 0hPa | 0V | 00:00:00 | 00:00:00 | 00:00:00 | |
| OE5DXL-15 | 2026-09-02 05:52:27 | 48.71478 | 18.36051 | 205° | 9km/h | 21490m | 5.4m/s | 0°C | 0% | 0hPa | 0V | 00:00:00 | 00:00:00 | 00:00:00 | |
| SP9KGR-15 | 2026-09-02 05:52:23 | 48.71486 | 18.36056 | 208° | 9km/h | 21475m | 4.4m/s | -51.0°C | 0% | 0hPa | 0V | 00:00:00 | 00:00:00 | 00:00:00 | |
| OE5MMP-10 | 2026-09-02 05:52:20 | 48.71492 | 18.36064 | 229° | 9km/h | 21455m | 5.8m/s | 0°C | 0% | 0hPa | 0V | 00:00:00 | 00:00:00 | 00:00:00 | |
| PG1ADW-2 | 2026-09-02 05:52:19 | 48.71494 | 18.36067 | 224° | 9km/h | 21449m | 4.5m/s | 0°C | 0% | 0hPa | 0V | 00:00:00 | 00:00:00 | 00:00:00 | |
| PETON7-10 | 2026-09-02 05:52:18 | 48.71497 | 18.36071 | 216° | 9km/h | 21445m | 4.9m/s | 0°C | 0% | 0hPa | 0V | 00:00:00 | 00:00:00 | 00:00:00 | |
| DO3MHA-11 | 2026-09-02 05:52:17 | 48.71499 | 18.36075 | 199° | 18km/h | 21434m | 4.1m/s | 0°C | 0% | 0hPa | 0V | 00:00:00 | 00:00:00 | 00:00:00 | |
| OE5DRO-10 | 2026-09-02 05:52:14 | 48.71505 | 18.36077 | 175° | 9km/h | 21424m | 4.7m/s | 0°C | 0% | 0hPa | 0V | 00:00:00 | 00:00:00 | 00:00:00 | |
| OM5KV | 2026-09-02 05:52:13 | 48.71509 | 18.36077 | 168° | 5km/h | 21424m | 4.7m/s | -51.3°C | 0% | 0hPa | 0V | 00:00:00 | 00:00:00 | 00:00:00 | |
| POL1PZ | 2026-09-02 05:52:11 | 48.71510 | 18.36075 | 177° | 4km/h | 21413m | 4.8m/s | -51.3°C | 0% | 0hPa | 0V | 00:00:00 | 00:00:00 | 00:00:00 | |
| OE5MMP-10 | 2026-09-02 05:52:10 | 48.71511 | 18.36075 | 193° | 9km/h | 21402m | 4.3m/s | 0°C | 0% | 0hPa | 0V | 00:00:00 | 00:00:00 | 00:00:00 | |
| SP9KGR-15 | 2026-09-02 05:52:08 | 48.71514 | 18.36077 | 202° | 7km/h | 21398m | 5.7m/s | -51.5°C | 0% | 0hPa | 0V | 00:00:00 | 00:00:00 | 00:00:00 | |
| PETON7-10 | 2026-09-02 05:52:03 | 48.71526 | 18.36081 | 166° | 13km/h | 21367m | 4.9m/s | 0°C | 0% | 0hPa | 0V | 00:00:00 | 00:00:00 | 00:00:00 | |
| OE5MMP-10 | 2026-09-02 05:52:00 | 48.71533 | 18.36074 | 148° | 13km/h | 21352m | 4.7m/s | 0°C | 0% | 0hPa | 0V | 00:00:00 | 00:00:00 | 00:00:00 | |
| PG1ADW-2 | 2026-09-02 05:51:59 | 48.71535 | 18.36072 | 148° | 16km/h | 21346m | 5.8m/s | 0°C | 0% | 0hPa | 0V | 00:00:00 | 00:00:00 | 00:00:00 | |
| OE5DXL-15 | 2026-09-02 05:51:57 | 48.71539 | 18.36069 | 170° | 20km/h | 21337m | 3.9m/s | 0°C | 0% | 0hPa | 0V | 00:00:00 | 00:00:00 | 00:00:00 | |
| OE5DRO-10 | 2026-09-02 05:51:55 | 48.71543 | 18.36068 | 172° | 18km/h | 21326m | 4.6m/s | 0°C | 0% | 0hPa | 0V | 00:00:00 | 00:00:00 | 00:00:00 | |
| SP9KGR-15 | 2026-09-02 05:51:53 | 48.71551 | 18.36066 | 164° | 20km/h | 21321m | 4.7m/s | -51.6°C | 0% | 0hPa | 0V | 00:00:00 | 00:00:00 | 00:00:00 | |
| OE5MMP-10 | 2026-09-02 05:51:50 | 48.71564 | 18.36057 | 149° | 18km/h | 21302m | 4.6m/s | 0°C | 0% | 0hPa | 0V | 00:00:00 | 00:00:00 | 00:00:00 | |
| OE3JTB-15 | 2026-09-02 05:51:49 | 48.71568 | 18.36053 | 135° | 24km/h | 21287m | 3.8m/s | 0°C | 0% | 0hPa | 0V | 00:00:00 | 00:00:00 | 00:00:00 | |
| PETON7-10 | 2026-09-02 05:51:48 | 48.71572 | 18.36049 | 141° | 20km/h | 21292m | 5.4m/s | 0°C | 0% | 0hPa | 0V | 00:00:00 | 00:00:00 | 00:00:00 | |
| OM5KV | 2026-09-02 05:51:44 | 48.71586 | 18.36029 | 142° | 22km/h | 21272m | 5.1m/s | -51.3°C | 0% | 0hPa | 0V | 00:00:00 | 00:00:00 | 00:00:00 | |
| OM5KV | 2026-09-02 05:51:41 | 48.71595 | 18.36019 | 136° | 20km/h | 21261m | 5.1m/s | -51.2°C | 0% | 0hPa | 0V | 00:00:00 | 00:00:00 | 00:00:00 | |
| OE5MMP-10 | 2026-09-02 05:51:40 | 48.71598 | 18.36013 | 136° | 24km/h | 21251m | 6.0m/s | 0°C | 0% | 0hPa | 0V | 00:00:00 | 00:00:00 | 00:00:00 | |
| ATIDSZ-14 | 2026-09-02 05:51:39 | 48.71606 | 18.36002 | 136° | 24km/h | 21246m | 4.4m/s | -51.2°C | 0% | 0hPa | 0V | 00:00:00 | 00:00:00 | 00:00:00 | |
| SP9KGR-15 | 2026-09-02 05:51:38 | 48.71606 | 18.36002 | 136° | 24km/h | 21246m | 4.4m/s | -51.2°C | 0% | 0hPa | 0V | 00:00:00 | 00:00:00 | 00:00:00 | |
| OE5DRO-10 | 2026-09-02 05:51:36 | 48.71614 | 18.35989 | 128° | 29km/h | 21231m | 5.0m/s | 0°C | 0% | 0hPa | 0V | 00:00:00 | 00:00:00 | 00:00:00 | |
| PETON7-10 | 2026-09-02 05:51:33 | 48.71625 | 18.35968 | 132° | 31km/h | 21215m | 5.5m/s | 0°C | 0% | 0hPa | 0V | 00:00:00 | 00:00:00 | 00:00:00 | |
| OM5KV | 2026-09-02 05:51:32 | 48.71633 | 18.35953 | 129° | 27km/h | 21210m | 4.1m/s | -51.4°C | 0% | 0hPa | 0V | 00:00:00 | 00:00:00 | 00:00:00 | |
| OE5MMP-10 | 2026-09-02 05:51:30 | 48.71638 | 18.35944 | 132° | 31km/h | 21200m | 4.5m/s | 0°C | 0% | 0hPa | 0V | 00:00:00 | 00:00:00 | 00:00:00 | |
| OM5KV | 2026-09-02 05:51:29 | 48.71649 | 18.35926 | 132° | 31km/h | 21195m | 4.6m/s | -51.5°C | 0% | 0hPa | 0V | 00:00:00 | 00:00:00 | 00:00:00 | |
| DO3MHA-11 | 2026-09-02 05:51:28 | 48.71649 | 18.35926 | 128° | 33km/h | 21186m | 4.8m/s | 0°C | 0% | 0hPa | 0V | 00:00:00 | 00:00:00 | 00:00:00 | |
| OE5DXL-15 | 2026-09-02 05:51:27 | 48.71654 | 18.35917 | 128° | 29km/h | 21186m | 4.8m/s | 0°C | 0% | 0hPa | 0V | 00:00:00 | 00:00:00 | 00:00:00 | |
| SP9KGR-15 | 2026-09-02 05:51:22 | 48.71673 | 18.35868 | 112° | 33km/h | 21165m | 4.9m/s | -51.4°C | 0% | 0hPa | 0V | 00:00:00 | 00:00:00 | 00:00:00 | |
| OE5MMP-10 | 2026-09-02 05:51:20 | 48.71679 | 18.35844 | 111° | 31km/h | 21150m | 4.7m/s | 0°C | 0% | 0hPa | 0V | 00:00:00 | 00:00:00 | 00:00:00 | |
| PG1ADW-2 | 2026-09-02 05:51:19 | 48.71683 | 18.35830 | 113° | 29km/h | 21146m | 4.3m/s | 0°C | 0% | 0hPa | 0V | 00:00:00 | 00:00:00 | 00:00:00 | |
| DO3MHA-11 | 2026-09-02 05:51:18 | 48.71686 | 18.35817 | 113° | 29km/h | 21136m | 4.0m/s | 0°C | 0% | 0hPa | 0V | 00:00:00 | 00:00:00 | 00:00:00 | |
| OE5DRO-10 | 2026-09-02 05:51:17 | 48.71690 | 18.35803 | 106° | 27km/h | 21136m | 4.0m/s | 0°C | 0% | 0hPa | 0V | 00:00:00 | 00:00:00 | 00:00:00 | |
| OM5KV | 2026-09-02 05:51:13 | 48.71700 | 18.35761 | 115° | 27km/h | 21122m | 4.5m/s | -51.3°C | 0% | 0hPa | 0V | 00:00:00 | 00:00:00 | 00:00:00 | |
| OE5MMP-10 | 2026-09-02 05:51:10 | 48.71706 | 18.35732 | 107° | 29km/h | 21101m | 4.0m/s | 0°C | 0% | 0hPa | 0V | 00:00:00 | 00:00:00 | 00:00:00 | |
| SP9KGR-15 | 2026-09-02 05:51:08 | 48.71712 | 18.35699 | 102° | 31km/h | 21092m | 4.8m/s | -51.2°C | 0% | 0hPa | 0V | 00:00:00 | 00:00:00 | 00:00:00 | |
| POL1PZ | 2026-09-02 05:51:07 | 48.71712 | 18.35699 | 102° | 31km/h | 21092m | 4.8m/s | -51.2°C | 0% | 0hPa | 0V | 00:00:00 | 00:00:00 | 00:00:00 | |
| DO3MHA-11 | 2026-09-02 05:51:06 | 48.71714 | 18.35678 | 109° | 29km/h | 21081m | 5.7m/s | 0°C | 0% | 0hPa | 0V | 00:00:00 | 00:00:00 | 00:00:00 | |
| PETON7-10 | 2026-09-02 05:51:03 | 48.71720 | 18.35651 | 109° | 26km/h | 21068m | 5.4m/s | 0°C | 0% | 0hPa | 0V | 00:00:00 | 00:00:00 | 00:00:00 | |
| OE5MMP-10 | 2026-09-02 05:51:00 | 48.71724 | 18.35628 | 108° | 26km/h | 21053m | 4.4m/s | 0°C | 0% | 0hPa | 0V | 00:00:00 | 00:00:00 | 00:00:00 | |
| PG1ADW-2 | 2026-09-02 05:50:59 | 48.71726 | 18.35621 | 108° | 26km/h | 21049m | 4.0m/s | 0°C | 0% | 0hPa | 0V | 00:00:00 | 00:00:00 | 00:00:00 | |
| OE5DRO-10 | 2026-09-02 05:50:58 | 48.71727 | 18.35614 | 97° | 27km/h | 21044m | 5.3m/s | 0°C | 0% | 0hPa | 0V | 00:00:00 | 00:00:00 | 00:00:00 | |
| DO3MHA-11 | 2026-09-02 05:50:56 | 48.71729 | 18.35595 | 92° | 29km/h | 21028m | 4.7m/s | 0°C | 0% | 0hPa | 0V | 00:00:00 | 00:00:00 | 00:00:00 | |
| GYPAP8-17 | 2026-09-02 05:50:53 | 48.71732 | 18.35557 | 100° | 35km/h | 21024m | 4.3m/s | -51.4°C | 0% | 0hPa | 0V | 00:00:00 | 00:00:00 | 00:00:00 | |
| ATIDSZ-14 | 2026-09-02 05:50:52 | 48.71733 | 18.35545 | 98° | 31km/h | 21019m | 5.2m/s | -51.4°C | 0% | 0hPa | 0V | 00:00:00 | 00:00:00 | 00:00:00 | |
| SP9KGR-15 | 2026-09-02 05:50:51 | 48.71734 | 18.35534 | 101° | 26km/h | 21015m | 4.3m/s | -51.4°C | 0% | 0hPa | 0V | 00:00:00 | 00:00:00 | 00:00:00 | |
| OE5MMP-10 | 2026-09-02 05:50:50 | 48.71735 | 18.35525 | 106° | 24km/h | 21000m | 5.6m/s | 0°C | 0% | 0hPa | 0V | 00:00:00 | 00:00:00 | 00:00:00 | |
| POL1PZ | 2026-09-02 05:50:48 | 48.71737 | 18.35506 | 84° | 16km/h | 20996m | 3.7m/s | -51.4°C | 0% | 0hPa | 0V | 00:00:00 | 00:00:00 | 00:00:00 | |
| DO3MHA-11 | 2026-09-02 05:50:46 | 48.71736 | 18.35498 | 86° | 22km/h | 20982m | 3.9m/s | 0°C | 0% | 0hPa | 0V | 00:00:00 | 00:00:00 | 00:00:00 | |
| OE5MMP-10 | 2026-09-02 05:50:40 | 48.71734 | 18.35430 | 90° | 22km/h | 20958m | 3.9m/s | 0°C | 0% | 0hPa | 0V | 00:00:00 | 00:00:00 | 00:00:00 | |
| PG1ADW-2 | 2026-09-02 05:50:39 | 48.71734 | 18.35421 | 92° | 24km/h | 20954m | 3.9m/s | 0°C | 0% | 0hPa | 0V | 00:00:00 | 00:00:00 | 00:00:00 | |
| SQ9EZE-14 | 2026-09-02 05:50:37 | 48.71734 | 18.35406 | 72° | 16km/h | 20950m | 5.5m/s | -51.6°C | 0% | 0hPa | 0V | 00:00:00 | 00:00:00 | 00:00:00 | |
| SP9KGR-15 | 2026-09-02 05:50:36 | 48.71732 | 18.35400 | 63° | 16km/h | 20945m | 4.6m/s | -51.8°C | 0% | 0hPa | 0V | 00:00:00 | 00:00:00 | 00:00:00 | |
| PETON7-10 | 2026-09-02 05:50:33 | 48.71726 | 18.35379 | 71° | 27km/h | 20926m | 5.5m/s | 0°C | 0% | 0hPa | 0V | 00:00:00 | 00:00:00 | 00:00:00 | |
| DO3MHA-11 | 2026-09-02 05:50:32 | 48.71724 | 18.35372 | 75° | 26km/h | 20921m | 4.5m/s | 0°C | 0% | 0hPa | 0V | 00:00:00 | 00:00:00 | 00:00:00 | |
| OE5MMP-10 | 2026-09-02 05:50:30 | 48.71719 | 18.35349 | 80° | 26km/h | 20911m | 4.1m/s | 0°C | 0% | 0hPa | 0V | 00:00:00 | 00:00:00 | 00:00:00 | |
| OE5DXL-15 | 2026-09-02 05:50:27 | 48.71714 | 18.35317 | 74° | 20km/h | 20897m | 4.5m/s | 0°C | 0% | 0hPa | 0V | 00:00:00 | 00:00:00 | 00:00:00 | |
| POL1PZ | 2026-09-02 05:50:26 | 48.71712 | 18.35308 | 69° | 26km/h | 20897m | 4.5m/s | -52.0°C | 0% | 0hPa | 0V | 00:00:00 | 00:00:00 | 00:00:00 | |
| DO3MHA-11 | 2026-09-02 05:50:21 | 48.71706 | 18.35262 | 78° | 26km/h | 20874m | 4.4m/s | 0°C | 0% | 0hPa | 0V | 00:00:00 | 00:00:00 | 00:00:00 | |
| OE5DRO-10 | 2026-09-02 05:50:20 | 48.71705 | 18.35251 | 81° | 20km/h | 20864m | 4.1m/s | 0°C | 0% | 0hPa | 0V | 00:00:00 | 00:00:00 | 00:00:00 | |
| PG1ADW-2 | 2026-09-02 05:50:19 | 48.71703 | 18.35239 | 77° | 20km/h | 20860m | 4.2m/s | 0°C | 0% | 0hPa | 0V | 00:00:00 | 00:00:00 | 00:00:00 | |
| PETON7-10 | 2026-09-02 05:50:18 | 48.71702 | 18.35229 | 77° | 20km/h | 20855m | 5.3m/s | 0°C | 0% | 0hPa | 0V | 00:00:00 | 00:00:00 | 00:00:00 | |
| OM5KV | 2026-09-02 05:50:13 | 48.71689 | 18.35186 | 73° | 20km/h | 20837m | 4.2m/s | -52.6°C | 0% | 0hPa | 0V | 00:00:00 | 00:00:00 | 00:00:00 | |
| DO3MHA-11 | 2026-09-02 05:50:11 | 48.71686 | 18.35172 | 76° | 16km/h | 20822m | 5.5m/s | 0°C | 0% | 0hPa | 0V | 00:00:00 | 00:00:00 | 00:00:00 | |
| OE5MMP-10 | 2026-09-02 05:50:09 | 48.71684 | 18.35159 | 87° | 16km/h | 20812m | 4.3m/s | 0°C | 0% | 0hPa | 0V | 00:00:00 | 00:00:00 | 00:00:00 | |
| PETON7-10 | 2026-09-02 05:50:03 | 48.71676 | 18.35127 | 61° | 13km/h | 20784m | 4.0m/s | 0°C | 0% | 0hPa | 0V | 00:00:00 | 00:00:00 | 00:00:00 | |
| DO3MHA-11 | 2026-09-02 05:50:01 | 48.71671 | 18.35116 | 81° | 13km/h | 20765m | 5.4m/s | 0°C | 0% | 0hPa | 0V | 00:00:00 | 00:00:00 | 00:00:00 | |
| OE5MMP-10 | 2026-09-02 05:49:59 | 48.71672 | 18.35105 | 116° | 11km/h | 20765m | 5.4m/s | 0°C | 0% | 0hPa | 0V | 00:00:00 | 00:00:00 | 00:00:00 | |
| OE5DXL-15 | 2026-09-02 05:49:56 | 48.71675 | 18.35093 | 104° | 15km/h | 20751m | 5.7m/s | 0°C | 0% | 0hPa | 0V | 00:00:00 | 00:00:00 | 00:00:00 | |
| DO3MHA-11 | 2026-09-02 05:49:51 | 48.71677 | 18.35063 | 146° | 15km/h | 20728m | 5.4m/s | 0°C | 0% | 0hPa | 0V | 00:00:00 | 00:00:00 | 00:00:00 | |
| SP9KGR-15 | 2026-09-02 05:49:50 | 48.71678 | 18.35067 | 122° | 15km/h | 20728m | 5.4m/s | -53.1°C | 0% | 0hPa | 0V | 00:00:00 | 00:00:00 | 00:00:00 | |
| OE5MMP-10 | 2026-09-02 05:49:49 | 48.71680 | 18.35061 | 144° | 15km/h | 20714m | 5.4m/s | 0°C | 0% | 0hPa | 0V | 00:00:00 | 00:00:00 | 00:00:00 | |
| PETON7-10 | 2026-09-02 05:49:48 | 48.71683 | 18.35058 | 144° | 15km/h | 20714m | 5.4m/s | 0°C | 0% | 0hPa | 0V | 00:00:00 | 00:00:00 | 00:00:00 | |
| OE5DRO-10 | 2026-09-02 05:49:42 | 48.71693 | 18.35040 | 82° | 16km/h | 20685m | 4.5m/s | 0°C | 0% | 0hPa | 0V | 00:00:00 | 00:00:00 | 00:00:00 | |
| OE5MMP-10 | 2026-09-02 05:49:39 | 48.71692 | 18.35016 | 88° | 15km/h | 20670m | 5.3m/s | 0°C | 0% | 0hPa | 0V | 00:00:00 | 00:00:00 | 00:00:00 | |
| DO3MHA-11 | 2026-09-02 05:49:38 | 48.71691 | 18.35009 | 87° | 15km/h | 20670m | 5.3m/s | 0°C | 0% | 0hPa | 0V | 00:00:00 | 00:00:00 | 00:00:00 | |
| SP9KGR-15 | 2026-09-02 05:49:35 | 48.71692 | 18.34992 | 97° | 11km/h | 20655m | 5.1m/s | -53.3°C | 0% | 0hPa | 0V | 00:00:00 | 00:00:00 | 00:00:00 | |
| PETON7-10 | 2026-09-02 05:49:33 | 48.71692 | 18.34984 | 65° | 18km/h | 20641m | 4.3m/s | 0°C | 0% | 0hPa | 0V | 00:00:00 | 00:00:00 | 00:00:00 | |
| OM5KV | 2026-09-02 05:49:31 | 48.71689 | 18.34976 | 58° | 16km/h | 20636m | 5.4m/s | -53.2°C | 0% | 0hPa | 0V | 00:00:00 | 00:00:00 | 00:00:00 | |
| ATIDSZ-14 | 2026-09-02 05:49:30 | 48.71686 | 18.34971 | 56° | 18km/h | 20631m | 4.3m/s | -53.2°C | 0% | 0hPa | 0V | 00:00:00 | 00:00:00 | 00:00:00 | |
| OE5MMP-10 | 2026-09-02 05:49:29 | 48.71684 | 18.34966 | 70° | 18km/h | 20622m | 4.0m/s | 0°C | 0% | 0hPa | 0V | 00:00:00 | 00:00:00 | 00:00:00 | |
| DO3MHA-11 | 2026-09-02 05:49:28 | 48.71681 | 18.34959 | 59° | 18km/h | 20617m | 5.1m/s | 0°C | 0% | 0hPa | 0V | 00:00:00 | 00:00:00 | 00:00:00 | |
| OE5DXL-15 | 2026-09-02 05:49:26 | 48.71677 | 18.34947 | 81° | 20km/h | 20608m | 3.1m/s | 0°C | 0% | 0hPa | 0V | 00:00:00 | 00:00:00 | 00:00:00 | |
| OE5DRO-10 | 2026-09-02 05:49:23 | 48.71674 | 18.34928 | 50° | 22km/h | 20594m | 4.7m/s | 0°C | 0% | 0hPa | 0V | 00:00:00 | 00:00:00 | 00:00:00 | |
| SP9KGR-15 | 2026-09-02 05:49:20 | 48.71661 | 18.34905 | 41° | 22km/h | 20580m | 5.5m/s | -53.3°C | 0% | 0hPa | 0V | 00:00:00 | 00:00:00 | 00:00:00 | |
| DO3MHA-11 | 2026-09-02 05:49:18 | 48.71657 | 18.34900 | 40° | 20km/h | 20571m | 4.2m/s | 0°C | 0% | 0hPa | 0V | 00:00:00 | 00:00:00 | 00:00:00 | |
| OM5KV | 2026-09-02 05:49:17 | 48.71653 | 18.34895 | 46° | 18km/h | 20571m | 4.3m/s | -53.4°C | 0% | 0hPa | 0V | 00:00:00 | 00:00:00 | 00:00:00 | |
| OM5KV | 2026-09-02 05:49:12 | 48.71643 | 18.34864 | 64° | 24km/h | 20547m | 4.7m/s | -53.2°C | 0% | 0hPa | 0V | 00:00:00 | 00:00:00 | 00:00:00 | |
| OM5KV | 2026-09-02 05:49:11 | 48.71640 | 18.34855 | 65° | 26km/h | 20543m | 4.6m/s | -53.3°C | 0% | 0hPa | 0V | 00:00:00 | 00:00:00 | 00:00:00 | |
| ATIDSZ-14 | 2026-09-02 05:49:10 | 48.71637 | 18.34847 | 59° | 26km/h | 20538m | 3.8m/s | -53.1°C | 0% | 0hPa | 0V | 00:00:00 | 00:00:00 | 00:00:00 | |
| OE5MMP-10 | 2026-09-02 05:49:08 | 48.71628 | 18.34830 | 52° | 18km/h | 20525m | 5.1m/s | 0°C | 0% | 0hPa | 0V | 00:00:00 | 00:00:00 | 00:00:00 | |
| SP9KGR-15 | 2026-09-02 05:49:04 | 48.71611 | 18.34802 | 50° | 16km/h | 20506m | 3.4m/s | -53.0°C | 0% | 0hPa | 0V | 00:00:00 | 00:00:00 | 00:00:00 | |
| PETON7-10 | 2026-09-02 05:49:03 | 48.71611 | 18.34802 | 50° | 16km/h | 20502m | 5.3m/s | 0°C | 0% | 0hPa | 0V | 00:00:00 | 00:00:00 | 00:00:00 | |
| POL1PZ | 2026-09-02 05:48:59 | 48.71598 | 18.34777 | 45° | 22km/h | 20483m | 4.3m/s | -52.8°C | 0% | 0hPa | 0V | 00:00:00 | 00:00:00 | 00:00:00 | |
| DO3MHA-11 | 2026-09-02 05:48:58 | 48.71598 | 18.34777 | 45° | 18km/h | 20474m | 5.0m/s | 0°C | 0% | 0hPa | 0V | 00:00:00 | 00:00:00 | 00:00:00 | |
| OE5DXL-15 | 2026-09-02 05:48:56 | 48.71590 | 18.34763 | 55° | 16km/h | 20469m | 4.1m/s | 0°C | 0% | 0hPa | 0V | 00:00:00 | 00:00:00 | 00:00:00 | |
| OM5KV | 2026-09-02 05:48:52 | 48.71580 | 18.34740 | 60° | 11km/h | 20455m | 4.2m/s | -52.6°C | 0% | 0hPa | 0V | 00:00:00 | 00:00:00 | 00:00:00 | |
| ATIDSZ-14 | 2026-09-02 05:48:49 | 48.71578 | 18.34729 | 69° | 11km/h | 20441m | 3.9m/s | -52.7°C | 0% | 0hPa | 0V | 00:00:00 | 00:00:00 | 00:00:00 | |
| PETON7-10 | 2026-09-02 05:48:48 | 48.71577 | 18.34725 | 59° | 18km/h | 20431m | 4.3m/s | 0°C | 0% | 0hPa | 0V | 00:00:00 | 00:00:00 | 00:00:00 | |
| OM5KV | 2026-09-02 05:48:46 | 48.71568 | 18.34706 | 60° | 22km/h | 20422m | 5.0m/s | -52.7°C | 0% | 0hPa | 0V | 00:00:00 | 00:00:00 | 00:00:00 | |
| OE5DRO-10 | 2026-09-02 05:48:45 | 48.71568 | 18.34706 | 60° | 18km/h | 20417m | 4.0m/s | 0°C | 0% | 0hPa | 0V | 00:00:00 | 00:00:00 | 00:00:00 | |
| GYPAP8-17 | 2026-09-02 05:48:44 | 48.71566 | 18.34699 | 71° | 20km/h | 20417m | 4.1m/s | -52.7°C | 0% | 0hPa | 0V | 00:00:00 | 00:00:00 | 00:00:00 | |
| DO3MHA-11 | 2026-09-02 05:48:42 | 48.71563 | 18.34688 | 90° | 18km/h | 20404m | 5.2m/s | 0°C | 0% | 0hPa | 0V | 00:00:00 | 00:00:00 | 00:00:00 | |
| OM5KV | 2026-09-02 05:48:40 | 48.71562 | 18.34677 | 94° | 16km/h | 20399m | 4.6m/s | -52.7°C | 0% | 0hPa | 0V | 00:00:00 | 00:00:00 | 00:00:00 | |
| PG1ADW-2 | 2026-09-02 05:48:39 | 48.71563 | 18.34670 | 87° | 20km/h | 20389m | 4.9m/s | 0°C | 0% | 0hPa | 0V | 00:00:00 | 00:00:00 | 00:00:00 | |
| POL1PZ | 2026-09-02 05:48:38 | 48.71561 | 18.34654 | 75° | 16km/h | 20380m | 5.8m/s | -52.6°C | 0% | 0hPa | 0V | 00:00:00 | 00:00:00 | 00:00:00 | |
| PETON7-10 | 2026-09-02 05:48:33 | 48.71556 | 18.34631 | 67° | 22km/h | 20361m | 4.2m/s | 0°C | 0% | 0hPa | 0V | 00:00:00 | 00:00:00 | 00:00:00 | |
| DO3MHA-11 | 2026-09-02 05:48:32 | 48.71554 | 18.34623 | 67° | 22km/h | 20327m | 4.5m/s | 0°C | 0% | 0hPa | 0V | 00:00:00 | 00:00:00 | 00:00:00 | |
| ATIDSZ-14 | 2026-09-02 05:48:29 | 48.71549 | 18.34599 | 79° | 20km/h | 20346m | 5.4m/s | -52.7°C | 0% | 0hPa | 0V | 00:00:00 | 00:00:00 | 00:00:00 | |
| OM5KV | 2026-09-02 05:48:28 | 48.71545 | 18.34578 | 78° | 20km/h | 20332m | 5.3m/s | -52.5°C | 0% | 0hPa | 0V | 00:00:00 | 00:00:00 | 00:00:00 | |
| OE5DXL-15 | 2026-09-02 05:48:26 | 48.71545 | 18.34578 | 78° | 26km/h | 20327m | 4.5m/s | 0°C | 0% | 0hPa | 0V | 00:00:00 | 00:00:00 | 00:00:00 | |
| DO3MHA-11 | 2026-09-02 05:48:22 | 48.71540 | 18.34544 | 69° | 26km/h | 20309m | 5.4m/s | 0°C | 0% | 0hPa | 0V | 00:00:00 | 00:00:00 | 00:00:00 | |
| PG1ADW-2 | 2026-09-02 05:48:19 | 48.71534 | 18.34515 | 72° | 27km/h | 20296m | 5.2m/s | 0°C | 0% | 0hPa | 0V | 00:00:00 | 00:00:00 | 00:00:00 | |
| PETON7-10 | 2026-09-02 05:48:18 | 48.71532 | 18.34506 | 64° | 27km/h | 20291m | 4.0m/s | 0°C | 0% | 0hPa | 0V | 00:00:00 | 00:00:00 | 00:00:00 | |
| SP9KGR-15 | 2026-09-02 05:48:17 | 48.71529 | 18.34497 | 65° | 26km/h | 20291m | 4.1m/s | -52.6°C | 0% | 0hPa | 0V | 00:00:00 | 00:00:00 | 00:00:00 | |
| POL1PZ | 2026-09-02 05:48:15 | 48.71523 | 18.34479 | 73° | 27km/h | 20281m | 4.3m/s | -52.8°C | 0% | 0hPa | 0V | 00:00:00 | 00:00:00 | 00:00:00 | |
| OM5KV | 2026-09-02 05:48:14 | 48.71522 | 18.34469 | 71° | 29km/h | 20277m | 5.2m/s | -52.8°C | 0% | 0hPa | 0V | 00:00:00 | 00:00:00 | 00:00:00 | |
| SQ9EZE-14 | 2026-09-02 05:48:12 | 48.71516 | 18.34448 | 70° | 29km/h | 20267m | 4.6m/s | -52.8°C | 0% | 0hPa | 0V | 00:00:00 | 00:00:00 | 00:00:00 | |
| ATIDSZ-14 | 2026-09-02 05:48:09 | 48.71506 | 18.34405 | 64° | 27km/h | 20248m | 4.5m/s | -52.5°C | 0% | 0hPa | 0V | 00:00:00 | 00:00:00 | 00:00:00 | |
| OM5KV | 2026-09-02 05:48:08 | 48.71506 | 18.34405 | 64° | 27km/h | 20248m | 4.5m/s | -52.5°C | 0% | 0hPa | 0V | 00:00:00 | 00:00:00 | 00:00:00 | |
| OE5MMP-10 | 2026-09-02 05:48:07 | 48.71503 | 18.34396 | 65° | 26km/h | 20239m | 5.0m/s | 0°C | 0% | 0hPa | 0V | 00:00:00 | 00:00:00 | 00:00:00 | |
| PETON7-10 | 2026-09-02 05:48:03 | 48.71494 | 18.34359 | 72° | 26km/h | 20220m | 5.4m/s | 0°C | 0% | 0hPa | 0V | 00:00:00 | 00:00:00 | 00:00:00 | |
| DO3MHA-11 | 2026-09-02 05:48:02 | 48.71492 | 18.34350 | 72° | 16km/h | 20201m | 3.5m/s | 0°C | 0% | 0hPa | 0V | 00:00:00 | 00:00:00 | 00:00:00 | |
| PG1ADW-2 | 2026-09-02 05:47:59 | 48.71486 | 18.34322 | 67° | 24km/h | 20201m | 3.5m/s | 0°C | 0% | 0hPa | 0V | 00:00:00 | 00:00:00 | 00:00:00 | |
| OM5KV | 2026-09-02 05:47:56 | 48.71478 | 18.34286 | 79° | 26km/h | 20187m | 4.3m/s | -52.5°C | 0% | 0hPa | 0V | 00:00:00 | 00:00:00 | 00:00:00 | |
| POL1PZ | 2026-09-02 05:47:54 | 48.71476 | 18.34277 | 72° | 24km/h | 20181m | 6.0m/s | -52.5°C | 0% | 0hPa | 0V | 00:00:00 | 00:00:00 | 00:00:00 | |
| OM5KV | 2026-09-02 05:47:50 | 48.71464 | 18.34242 | 65° | 29km/h | 20163m | 4.2m/s | -52.5°C | 0% | 0hPa | 0V | 00:00:00 | 00:00:00 | 00:00:00 | |
| PETON7-10 | 2026-09-02 05:47:48 | 48.71457 | 18.34224 | 67° | 20km/h | 20148m | 5.0m/s | 0°C | 0% | 0hPa | 0V | 00:00:00 | 00:00:00 | 00:00:00 | |
| OM5KV | 2026-09-02 05:47:47 | 48.71455 | 18.34215 | 68° | 24km/h | 20148m | 5.1m/s | -52.6°C | 0% | 0hPa | 0V | 00:00:00 | 00:00:00 | 00:00:00 | |
| OE5MMP-10 | 2026-09-02 05:47:46 | 48.71453 | 18.34207 | 77° | 20km/h | 20143m | 4.8m/s | 0°C | 0% | 0hPa | 0V | 00:00:00 | 00:00:00 | 00:00:00 | |
| PG1ADW-2 | 2026-09-02 05:47:39 | 48.71443 | 18.34154 | 62° | 15km/h | 20098m | 5.8m/s | 0°C | 0% | 0hPa | 0V | 00:00:00 | 00:00:00 | 00:00:00 | |
| OM5KV | 2026-09-02 05:47:37 | 48.71438 | 18.34141 | 68° | 20km/h | 20098m | 5.8m/s | -52.2°C | 0% | 0hPa | 0V | 00:00:00 | 00:00:00 | 00:00:00 | |
| OM5KV | 2026-09-02 05:47:34 | 48.71436 | 18.34121 | 90° | 15km/h | 20083m | 5.2m/s | -52.2°C | 0% | 0hPa | 0V | 00:00:00 | 00:00:00 | 00:00:00 | |
| PETON7-10 | 2026-09-02 05:47:33 | 48.71435 | 18.34115 | 95° | 13km/h | 20073m | 5.3m/s | 0°C | 0% | 0hPa | 0V | 00:00:00 | 00:00:00 | 00:00:00 | |
| SP9KGR-15 | 2026-09-02 05:47:30 | 48.71436 | 18.34099 | 85° | 13km/h | 20063m | 4.7m/s | -52.3°C | 0% | 0hPa | 0V | 00:00:00 | 00:00:00 | 00:00:00 | |
| OE5DRO-10 | 2026-09-02 05:47:29 | 48.71436 | 18.34094 | 71° | 11km/h | 20054m | 5.0m/s | 0°C | 0% | 0hPa | 0V | 00:00:00 | 00:00:00 | 00:00:00 | |
| ATIDSZ-14 | 2026-09-02 05:47:27 | 48.71433 | 18.34081 | 66° | 20km/h | 20050m | 3.5m/s | -52.2°C | 0% | 0hPa | 0V | 00:00:00 | 00:00:00 | 00:00:00 | |
| OE5DXL-15 | 2026-09-02 05:47:26 | 48.71431 | 18.34074 | 61° | 9km/h | 20041m | 4.6m/s | 0°C | 0% | 0hPa | 0V | 00:00:00 | 00:00:00 | 00:00:00 | |
| OM5KV | 2026-09-02 05:47:25 | 48.71429 | 18.34068 | 64° | 15km/h | 20041m | 4.7m/s | -52.1°C | 0% | 0hPa | 0V | 00:00:00 | 00:00:00 | 00:00:00 | |
| OM5KV | 2026-09-02 05:47:23 | 48.71426 | 18.34060 | 95° | 11km/h | 20031m | 5.6m/s | -51.9°C | 0% | 0hPa | 0V | 00:00:00 | 00:00:00 | 00:00:00 | |
| OE5MMP-10 | 2026-09-02 05:47:21 | 48.71428 | 18.34051 | 105° | 9km/h | 20017m | 5.2m/s | 0°C | 0% | 0hPa | 0V | 00:00:00 | 00:00:00 | 00:00:00 | |
| OM5KV | 2026-09-02 05:47:19 | 48.71428 | 18.34044 | 78° | 7km/h | 20012m | 4.1m/s | -51.9°C | 0% | 0hPa | 0V | 00:00:00 | 00:00:00 | 00:00:00 | |
| PG1ADW-2 | 2026-09-02 05:47:18 | 48.71428 | 18.34042 | 81° | 7km/h | 20003m | 5.0m/s | 0°C | 0% | 0hPa | 0V | 00:00:00 | 00:00:00 | 00:00:00 | |
| GYPAP8-17 | 2026-09-02 05:47:16 | 48.71427 | 18.34034 | 79° | 11km/h | 19999m | 3.9m/s | -51.8°C | 0% | 0hPa | 0V | 00:00:00 | 00:00:00 | 00:00:00 | |
| SP9KGR-15 | 2026-09-02 05:47:15 | 48.71427 | 18.34030 | 71° | 9km/h | 19994m | 5.6m/s | -51.8°C | 0% | 0hPa | 0V | 00:00:00 | 00:00:00 | 00:00:00 | |
| OM5KV | 2026-09-02 05:47:13 | 48.71424 | 18.34023 | 86° | 7km/h | 19979m | 5.7m/s | -51.7°C | 0% | 0hPa | 0V | 00:00:00 | 00:00:00 | 00:00:00 | |
| POL1PZ | 2026-09-02 05:47:12 | 48.71424 | 18.34023 | 86° | 7km/h | 19979m | 5.7m/s | -51.7°C | 0% | 0hPa | 0V | 00:00:00 | 00:00:00 | 00:00:00 | |
| OE5MMP-10 | 2026-09-02 05:47:11 | 48.71424 | 18.34020 | 98° | 7km/h | 19970m | 4.8m/s | 0°C | 0% | 0hPa | 0V | 00:00:00 | 00:00:00 | 00:00:00 | |
| OE5DRO-10 | 2026-09-02 05:47:10 | 48.71424 | 18.34017 | 93° | 5km/h | 19966m | 4.8m/s | 0°C | 0% | 0hPa | 0V | 00:00:00 | 00:00:00 | 00:00:00 | |
| OM5KV | 2026-09-02 05:47:07 | 48.71423 | 18.34008 | 68° | 11km/h | 19956m | 5.7m/s | -51.5°C | 0% | 0hPa | 0V | 00:00:00 | 00:00:00 | 00:00:00 | |
| ATIDSZ-14 | 2026-09-02 05:47:06 | 48.71422 | 18.34004 | 67° | 11km/h | 19951m | 4.2m/s | -51.5°C | 0% | 0hPa | 0V | 00:00:00 | 00:00:00 | 00:00:00 | |
| PETON7-10 | 2026-09-02 05:47:03 | 48.71418 | 18.33997 | 136° | 5km/h | 19933m | 5.5m/s | 0°C | 0% | 0hPa | 0V | 00:00:00 | 00:00:00 | 00:00:00 | |
| SP9KGR-15 | 2026-09-02 05:47:00 | 48.71419 | 18.33994 | 146° | 5km/h | 19923m | 4.0m/s | -51.4°C | 0% | 0hPa | 0V | 00:00:00 | 00:00:00 | 00:00:00 | |
| OM5KV | 2026-09-02 05:46:59 | 48.71421 | 18.33993 | 150° | 4km/h | 19919m | 5.5m/s | -51.4°C | 0% | 0hPa | 0V | 00:00:00 | 00:00:00 | 00:00:00 | |
| PG1ADW-2 | 2026-09-02 05:46:58 | 48.71421 | 18.33993 | 73° | 5km/h | 19909m | 6.1m/s | 0°C | 0% | 0hPa | 0V | 00:00:00 | 00:00:00 | 00:00:00 | |
| DO3MHA-11 | 2026-09-02 05:46:57 | 48.71421 | 18.33992 | 70° | 4km/h | 19866m | 4.5m/s | 0°C | 0% | 0hPa | 0V | 00:00:00 | 00:00:00 | 00:00:00 | |
| OE5DXL-15 | 2026-09-02 05:46:56 | 48.71420 | 18.33989 | 66° | 9km/h | 19898m | 5.4m/s | 0°C | 0% | 0hPa | 0V | 00:00:00 | 00:00:00 | 00:00:00 | |
| OM5KV | 2026-09-02 05:46:54 | 48.71418 | 18.33984 | 72° | 5km/h | 19894m | 4.4m/s | -51.3°C | 0% | 0hPa | 0V | 00:00:00 | 00:00:00 | 00:00:00 | |
| OM5KV | 2026-09-02 05:46:53 | 48.71418 | 18.33982 | 92° | 5km/h | 19890m | 4.3m/s | -51.3°C | 0% | 0hPa | 0V | 00:00:00 | 00:00:00 | 00:00:00 | |
| POL1PZ | 2026-09-02 05:46:52 | 48.71418 | 18.33980 | 105° | 5km/h | 19885m | 5.3m/s | -51.4°C | 0% | 0hPa | 0V | 00:00:00 | 00:00:00 | 00:00:00 | |
| OE5MMP-10 | 2026-09-02 05:46:51 | 48.71418 | 18.33978 | 120° | 7km/h | 19856m | 4.7m/s | 0°C | 0% | 0hPa | 0V | 00:00:00 | 00:00:00 | 00:00:00 | |
| PETON7-10 | 2026-09-02 05:46:48 | 48.71420 | 18.33977 | 109° | 9km/h | 19860m | 5.0m/s | 0°C | 0% | 0hPa | 0V | 00:00:00 | 00:00:00 | 00:00:00 | |
| DO3MHA-11 | 2026-09-02 05:46:45 | 48.71421 | 18.33971 | 101° | 11km/h | 19842m | 4.4m/s | 0°C | 0% | 0hPa | 0V | 00:00:00 | 00:00:00 | 00:00:00 | |
| OM5KV | 2026-09-02 05:46:42 | 48.71423 | 18.33961 | 100° | 15km/h | 19837m | 5.5m/s | -51.5°C | 0% | 0hPa | 0V | 00:00:00 | 00:00:00 | 00:00:00 | |
| OE5MMP-10 | 2026-09-02 05:46:41 | 48.71425 | 18.33955 | 102° | 13km/h | 19832m | 4.5m/s | 0°C | 0% | 0hPa | 0V | 00:00:00 | 00:00:00 | 00:00:00 | |
| PG1ADW-2 | 2026-09-02 05:46:38 | 48.71426 | 18.33942 | 115° | 13km/h | 19813m | 5.0m/s | 0°C | 0% | 0hPa | 0V | 00:00:00 | 00:00:00 | 00:00:00 | |
| OM5KV | 2026-09-02 05:46:37 | 48.71427 | 18.33938 | 106° | 11km/h | 19813m | 5.1m/s | -51.4°C | 0% | 0hPa | 0V | 00:00:00 | 00:00:00 | 00:00:00 | |
| DO3MHA-11 | 2026-09-02 05:46:34 | 48.71429 | 18.33925 | 98° | 13km/h | 19793m | 5.6m/s | 0°C | 0% | 0hPa | 0V | 00:00:00 | 00:00:00 | 00:00:00 | |
| PETON7-10 | 2026-09-02 05:46:33 | 48.71430 | 18.33921 | 100° | 13km/h | 19788m | 4.1m/s | 0°C | 0% | 0hPa | 0V | 00:00:00 | 00:00:00 | 00:00:00 | |
| OE5DRO-10 | 2026-09-02 05:46:32 | 48.71430 | 18.33915 | 100° | 15km/h | 19783m | 4.8m/s | 0°C | 0% | 0hPa | 0V | 00:00:00 | 00:00:00 | 00:00:00 | |
| SP9KGR-15 | 2026-09-02 05:46:29 | 48.71433 | 18.33900 | 129° | 11km/h | 19774m | 4.5m/s | -51.4°C | 0% | 0hPa | 0V | 00:00:00 | 00:00:00 | 00:00:00 | |
| POL1PZ | 2026-09-02 05:46:28 | 48.71435 | 18.33896 | 132° | 13km/h | 19769m | 5.6m/s | -51.4°C | 0% | 0hPa | 0V | 00:00:00 | 00:00:00 | 00:00:00 | |
| ATIDSZ-14 | 2026-09-02 05:46:25 | 48.71444 | 18.33883 | 132° | 11km/h | 19750m | 4.7m/s | -51.4°C | 0% | 0hPa | 0V | 00:00:00 | 00:00:00 | 00:00:00 | |
| DO3MHA-11 | 2026-09-02 05:46:24 | 48.71444 | 18.33883 | 131° | 16km/h | 19750m | 4.6m/s | 0°C | 0% | 0hPa | 0V | 00:00:00 | 00:00:00 | 00:00:00 | |
| OM5KV | 2026-09-02 05:46:20 | 48.71450 | 18.33869 | 122° | 9km/h | 19730m | 4.0m/s | -51.4°C | 0% | 0hPa | 0V | 00:00:00 | 00:00:00 | 00:00:00 | |
| PETON7-10 | 2026-09-02 05:46:18 | 48.71454 | 18.33861 | 116° | 16km/h | 19717m | 4.2m/s | 0°C | 0% | 0hPa | 0V | 00:00:00 | 00:00:00 | 00:00:00 | |
| OM5KV | 2026-09-02 05:46:17 | 48.71458 | 18.33849 | 113° | 16km/h | 19712m | 5.4m/s | -51.3°C | 0% | 0hPa | 0V | 00:00:00 | 00:00:00 | 00:00:00 | |
| OE5MMP-10 | 2026-09-02 05:46:15 | 48.71459 | 18.33844 | 109° | 18km/h | 19703m | 4.9m/s | 0°C | 0% | 0hPa | 0V | 00:00:00 | 00:00:00 | 00:00:00 | |
| OE5DRO-10 | 2026-09-02 05:46:13 | 48.71462 | 18.33831 | 103° | 20km/h | 19693m | 4.7m/s | 0°C | 0% | 0hPa | 0V | 00:00:00 | 00:00:00 | 00:00:00 | |
| DO3MHA-11 | 2026-09-02 05:46:09 | 48.71466 | 18.33810 | 108° | 20km/h | 19674m | 4.5m/s | 0°C | 0% | 0hPa | 0V | 00:00:00 | 00:00:00 | 00:00:00 | |
| POL1PZ | 2026-09-02 05:46:06 | 48.71472 | 18.33789 | 109° | 16km/h | 19664m | 5.3m/s | -51.5°C | 0% | 0hPa | 0V | 00:00:00 | 00:00:00 | 00:00:00 | |
| PETON7-10 | 2026-09-02 05:46:03 | 48.71474 | 18.33768 | 96° | 22km/h | 19646m | 3.7m/s | 0°C | 0% | 0hPa | 0V | 00:00:00 | 00:00:00 | 00:00:00 | |
| OE5MMP-10 | 2026-09-02 05:46:00 | 48.71475 | 18.33740 | 110° | 24km/h | 19634m | 4.3m/s | 0°C | 0% | 0hPa | 0V | 00:00:00 | 00:00:00 | 00:00:00 | |
| DO3MHA-11 | 2026-09-02 05:45:58 | 48.71480 | 18.33729 | 141° | 22km/h | 19625m | 4.7m/s | 0°C | 0% | 0hPa | 0V | 00:00:00 | 00:00:00 | 00:00:00 | |
| OM5KV | 2026-09-02 05:45:57 | 48.71484 | 18.33723 | 142° | 24km/h | 19625m | 4.7m/s | -52.3°C | 0% | 0hPa | 0V | 00:00:00 | 00:00:00 | 00:00:00 | |
| OE5DXL-15 | 2026-09-02 05:45:56 | 48.71488 | 18.33717 | 133° | 26km/h | 19616m | 4.6m/s | 0°C | 0% | 0hPa | 0V | 00:00:00 | 00:00:00 | 00:00:00 | |
| OE5DRO-10 | 2026-09-02 05:45:54 | 48.71496 | 18.33706 | 112° | 24km/h | 19607m | 4.2m/s | 0°C | 0% | 0hPa | 0V | 00:00:00 | 00:00:00 | 00:00:00 | |
| OM5KV | 2026-09-02 05:45:52 | 48.71501 | 18.33691 | 108° | 22km/h | 19602m | 5.3m/s | -52.7°C | 0% | 0hPa | 0V | 00:00:00 | 00:00:00 | 00:00:00 | |
| DO3MHA-11 | 2026-09-02 05:45:48 | 48.71505 | 18.33655 | 104° | 26km/h | 19578m | 3.9m/s | 0°C | 0% | 0hPa | 0V | 00:00:00 | 00:00:00 | 00:00:00 | |
| SQ9EZE-14 | 2026-09-02 05:45:47 | 48.71506 | 18.33645 | 110° | 27km/h | 19578m | 3.9m/s | -53.0°C | 0% | 0hPa | 0V | 00:00:00 | 00:00:00 | 00:00:00 | |
| OM5KV | 2026-09-02 05:45:45 | 48.71511 | 18.33627 | 106° | 22km/h | 19568m | 5.1m/s | -53.1°C | 0% | 0hPa | 0V | 00:00:00 | 00:00:00 | 00:00:00 | |
| POL1PZ | 2026-09-02 05:45:44 | 48.71512 | 18.33618 | 98° | 22km/h | 19564m | 4.0m/s | -53.0°C | 0% | 0hPa | 0V | 00:00:00 | 00:00:00 | 00:00:00 | |
| OM5KV | 2026-09-02 05:45:43 | 48.71512 | 18.33609 | 96° | 24km/h | 19559m | 5.8m/s | -53.1°C | 0% | 0hPa | 0V | 00:00:00 | 00:00:00 | 00:00:00 | |
| ATIDSZ-14 | 2026-09-02 05:45:42 | 48.71513 | 18.33600 | 94° | 26km/h | 19554m | 4.3m/s | -53.0°C | 0% | 0hPa | 0V | 00:00:00 | 00:00:00 | 00:00:00 | |
| DO3MHA-11 | 2026-09-02 05:45:38 | 48.71516 | 18.33560 | 102° | 29km/h | 19524m | 5.0m/s | 0°C | 0% | 0hPa | 0V | 00:00:00 | 00:00:00 | 00:00:00 | |
| OM5KV | 2026-09-02 05:45:37 | 48.71518 | 18.33550 | 100° | 29km/h | 19529m | 4.8m/s | -53.0°C | 0% | 0hPa | 0V | 00:00:00 | 00:00:00 | 00:00:00 | |
| OE5DRO-10 | 2026-09-02 05:45:35 | 48.71518 | 18.33529 | 82° | 33km/h | 19520m | 4.0m/s | 0°C | 0% | 0hPa | 0V | 00:00:00 | 00:00:00 | 00:00:00 | |
| PETON7-10 | 2026-09-02 05:45:33 | 48.71514 | 18.33507 | 76° | 33km/h | 19505m | 5.2m/s | 0°C | 0% | 0hPa | 0V | 00:00:00 | 00:00:00 | 00:00:00 | |
| OM5KV | 2026-09-02 05:45:32 | 48.71512 | 18.33495 | 73° | 33km/h | 19505m | 5.2m/s | -53.2°C | 0% | 0hPa | 0V | 00:00:00 | 00:00:00 | 00:00:00 | |
| OM5KV | 2026-09-02 05:45:31 | 48.71510 | 18.33484 | 71° | 31km/h | 19500m | 4.5m/s | -53.2°C | 0% | 0hPa | 0V | 00:00:00 | 00:00:00 | 00:00:00 | |
| SP9KGR-15 | 2026-09-02 05:45:28 | 48.71508 | 18.33439 | 100° | 29km/h | 19482m | 4.6m/s | -53.3°C | 0% | 0hPa | 0V | 00:00:00 | 00:00:00 | 00:00:00 | |
| OM5KV | 2026-09-02 05:45:26 | 48.71508 | 18.33419 | 78° | 27km/h | 19472m | 4.2m/s | -53.5°C | 0% | 0hPa | 0V | 00:00:00 | 00:00:00 | 00:00:00 | |
| POL1PZ | 2026-09-02 05:45:25 | 48.71505 | 18.33409 | 71° | 31km/h | 19467m | 5.4m/s | -53.7°C | 0% | 0hPa | 0V | 00:00:00 | 00:00:00 | 00:00:00 | |
| ATIDSZ-14 | 2026-09-02 05:45:22 | 48.71498 | 18.33384 | 63° | 40km/h | 19457m | 4.4m/s | -53.7°C | 0% | 0hPa | 0V | 00:00:00 | 00:00:00 | 00:00:00 | |
| OM5KV | 2026-09-02 05:45:19 | 48.71478 | 18.33331 | 66° | 38km/h | 19437m | 4.2m/s | -53.7°C | 0% | 0hPa | 0V | 00:00:00 | 00:00:00 | 00:00:00 | |
| PG1ADW-2 | 2026-09-02 05:45:18 | 48.71477 | 18.33331 | 66° | 31km/h | 19433m | 5.5m/s | 0°C | 0% | 0hPa | 0V | 00:00:00 | 00:00:00 | 00:00:00 | |
| DO3MHA-11 | 2026-09-02 05:45:17 | 48.71474 | 18.33318 | 69° | 31km/h | 19427m | 4.8m/s | 0°C | 0% | 0hPa | 0V | 00:00:00 | 00:00:00 | 00:00:00 | |
| OE5DRO-10 | 2026-09-02 05:45:16 | 48.71471 | 18.33308 | 69° | 29km/h | 19422m | 4.2m/s | 0°C | 0% | 0hPa | 0V | 00:00:00 | 00:00:00 | 00:00:00 | |
| OM5KV | 2026-09-02 05:45:13 | 48.71463 | 18.33277 | 66° | 31km/h | 19414m | 3.6m/s | -53.6°C | 0% | 0hPa | 0V | 00:00:00 | 00:00:00 | 00:00:00 | |
| OM5KV | 2026-09-02 05:45:12 | 48.71460 | 18.33267 | 61° | 29km/h | 19409m | 5.2m/s | -53.6°C | 0% | 0hPa | 0V | 00:00:00 | 00:00:00 | 00:00:00 | |
| OE5MMP-10 | 2026-09-02 05:45:11 | 48.71456 | 18.33258 | 53° | 33km/h | 19404m | 5.2m/s | 0°C | 0% | 0hPa | 0V | 00:00:00 | 00:00:00 | 00:00:00 | |
| GYPAP8-17 | 2026-09-02 05:45:08 | 48.71436 | 18.33218 | 61° | 31km/h | 19385m | 5.6m/s | -53.6°C | 0% | 0hPa | 0V | 00:00:00 | 00:00:00 | 00:00:00 | |
| OM5KV | 2026-09-02 05:45:06 | 48.71432 | 18.33208 | 67° | 29km/h | 19380m | 4.3m/s | -53.5°C | 0% | 0hPa | 0V | 00:00:00 | 00:00:00 | 00:00:00 | |
| OM5KV | 2026-09-02 05:45:05 | 48.71430 | 18.33197 | 74° | 29km/h | 19376m | 5.1m/s | -53.5°C | 0% | 0hPa | 0V | 00:00:00 | 00:00:00 | 00:00:00 | |
| ATIDSZ-14 | 2026-09-02 05:45:02 | 48.71421 | 18.33155 | 60° | 26km/h | 19356m | 4.0m/s | -53.5°C | 0% | 0hPa | 0V | 00:00:00 | 00:00:00 | 00:00:00 | |
| OM5KV | 2026-09-02 05:44:59 | 48.71412 | 18.33138 | 56° | 31km/h | 19347m | 5.4m/s | -53.6°C | 0% | 0hPa | 0V | 00:00:00 | 00:00:00 | 00:00:00 | |
| PG1ADW-2 | 2026-09-02 05:44:58 | 48.71408 | 18.33127 | 62° | 24km/h | 19338m | 4.3m/s | 0°C | 0% | 0hPa | 0V | 00:00:00 | 00:00:00 | 00:00:00 | |
| OE5DRO-10 | 2026-09-02 05:44:57 | 48.71404 | 18.33116 | 62° | 24km/h | 19333m | 4.8m/s | 0°C | 0% | 0hPa | 0V | 00:00:00 | 00:00:00 | 00:00:00 | |
| OE5DXL-15 | 2026-09-02 05:44:56 | 48.71401 | 18.33106 | 67° | 26km/h | 19329m | 4.3m/s | 0°C | 0% | 0hPa | 0V | 00:00:00 | 00:00:00 | 00:00:00 | |
| SP9KGR-15 | 2026-09-02 05:44:55 | 48.71398 | 18.33097 | 67° | 26km/h | 19329m | 4.4m/s | -53.6°C | 0% | 0hPa | 0V | 00:00:00 | 00:00:00 | 00:00:00 | |
| OM5KV | 2026-09-02 05:44:52 | 48.71392 | 18.33070 | 80° | 24km/h | 19315m | 4.6m/s | -53.7°C | 0% | 0hPa | 0V | 00:00:00 | 00:00:00 | 00:00:00 | |
| PETON7-10 | 2026-09-02 05:44:48 | 48.71388 | 18.33039 | 79° | 24km/h | 19290m | 5.3m/s | 0°C | 0% | 0hPa | 0V | 00:00:00 | 00:00:00 | 00:00:00 | |
| DO3MHA-11 | 2026-09-02 05:44:45 | 48.71384 | 18.33013 | 73° | 26km/h | 19281m | 4.3m/s | 0°C | 0% | 0hPa | 0V | 00:00:00 | 00:00:00 | 00:00:00 | |
| ATIDSZ-14 | 2026-09-02 05:44:41 | 48.71377 | 18.32974 | 91° | 22km/h | 19263m | 4.9m/s | -53.5°C | 0% | 0hPa | 0V | 00:00:00 | 00:00:00 | 00:00:00 | |
| OM5KV | 2026-09-02 05:44:40 | 48.71378 | 18.32966 | 100° | 20km/h | 19258m | 3.8m/s | -53.5°C | 0% | 0hPa | 0V | 00:00:00 | 00:00:00 | 00:00:00 | |
| SP9KGR-15 | 2026-09-02 05:44:39 | 48.71379 | 18.32958 | 103° | 22km/h | 19254m | 5.3m/s | -53.6°C | 0% | 0hPa | 0V | 00:00:00 | 00:00:00 | 00:00:00 | |
| PG1ADW-2 | 2026-09-02 05:44:38 | 48.71380 | 18.32949 | 100° | 29km/h | 19244m | 4.2m/s | 0°C | 0% | 0hPa | 0V | 00:00:00 | 00:00:00 | 00:00:00 | |
| DO3MHA-11 | 2026-09-02 05:44:35 | 48.71381 | 18.32920 | 87° | 27km/h | 19226m | 5.5m/s | 0°C | 0% | 0hPa | 0V | 00:00:00 | 00:00:00 | 00:00:00 | |
| OM5KV | 2026-09-02 05:44:34 | 48.71380 | 18.32901 | 94° | 26km/h | 19226m | 5.6m/s | -53.7°C | 0% | 0hPa | 0V | 00:00:00 | 00:00:00 | 00:00:00 | |
| PETON7-10 | 2026-09-02 05:44:33 | 48.71380 | 18.32901 | 93° | 31km/h | 19221m | 4.6m/s | 0°C | 0% | 0hPa | 0V | 00:00:00 | 00:00:00 | 00:00:00 | |
| OM5KV | 2026-09-02 05:44:30 | 48.71383 | 18.32870 | 99° | 29km/h | 19211m | 4.4m/s | -53.6°C | 0% | 0hPa | 0V | 00:00:00 | 00:00:00 | 00:00:00 | |
| POL1PZ | 2026-09-02 05:44:27 | 48.71387 | 18.32833 | 101° | 33km/h | 19196m | 5.2m/s | -53.5°C | 0% | 0hPa | 0V | 00:00:00 | 00:00:00 | 00:00:00 | |
| OE5DXL-15 | 2026-09-02 05:44:26 | 48.71388 | 18.32821 | 97° | 33km/h | 19186m | 3.6m/s | 0°C | 0% | 0hPa | 0V | 00:00:00 | 00:00:00 | 00:00:00 | |
| DO3MHA-11 | 2026-09-02 05:44:25 | 48.71389 | 18.32810 | 97° | 29km/h | 19167m | 5.7m/s | 0°C | 0% | 0hPa | 0V | 00:00:00 | 00:00:00 | 00:00:00 | |
| OM5KV | 2026-09-02 05:44:24 | 48.71390 | 18.32799 | 99° | 29km/h | 19182m | 5.7m/s | -53.5°C | 0% | 0hPa | 0V | 00:00:00 | 00:00:00 | 00:00:00 | |
| SP9KGR-15 | 2026-09-02 05:44:23 | 48.71392 | 18.32788 | 100° | 33km/h | 19176m | 4.8m/s | -53.4°C | 0% | 0hPa | 0V | 00:00:00 | 00:00:00 | 00:00:00 | |
| OE5MMP-10 | 2026-09-02 05:44:22 | 48.71393 | 18.32775 | 99° | 33km/h | 19167m | 5.7m/s | 0°C | 0% | 0hPa | 0V | 00:00:00 | 00:00:00 | 00:00:00 | |
| ATIDSZ-14 | 2026-09-02 05:44:21 | 48.71394 | 18.32752 | 94° | 29km/h | 19162m | 4.2m/s | -53.4°C | 0% | 0hPa | 0V | 00:00:00 | 00:00:00 | 00:00:00 | |
| OE5DRO-10 | 2026-09-02 05:44:19 | 48.71395 | 18.32740 | 99° | 33km/h | 19152m | 4.4m/s | 0°C | 0% | 0hPa | 0V | 00:00:00 | 00:00:00 | 00:00:00 | |
| PG1ADW-2 | 2026-09-02 05:44:18 | 48.71396 | 18.32729 | 99° | 35km/h | 19147m | 5.5m/s | 0°C | 0% | 0hPa | 0V | 00:00:00 | 00:00:00 | 00:00:00 | |
| OM5KV | 2026-09-02 05:44:17 | 48.71399 | 18.32707 | 104° | 29km/h | 19143m | 3.8m/s | -53.4°C | 0% | 0hPa | 0V | 00:00:00 | 00:00:00 | 00:00:00 | |
| DO3MHA-11 | 2026-09-02 05:44:15 | 48.71401 | 18.32696 | 103° | 33km/h | 19138m | 5.6m/s | 0°C | 0% | 0hPa | 0V | 00:00:00 | 00:00:00 | 00:00:00 | |
| OM5KV | 2026-09-02 05:44:13 | 48.71403 | 18.32658 | 89° | 33km/h | 19123m | 4.6m/s | -53.4°C | 0% | 0hPa | 0V | 00:00:00 | 00:00:00 | 00:00:00 | |
| OM5KV | 2026-09-02 05:44:10 | 48.71401 | 18.32633 | 85° | 37km/h | 19112m | 4.4m/s | -53.3°C | 0% | 0hPa | 0V | 00:00:00 | 00:00:00 | 00:00:00 | |
| OE5MMP-10 | 2026-09-02 05:44:08 | 48.71400 | 18.32607 | 86° | 37km/h | 19098m | 3.9m/s | 0°C | 0% | 0hPa | 0V | 00:00:00 | 00:00:00 | 00:00:00 | |
| POL1PZ | 2026-09-02 05:44:06 | 48.71400 | 18.32584 | 96° | 31km/h | 19093m | 5.7m/s | -53.6°C | 0% | 0hPa | 0V | 00:00:00 | 00:00:00 | 00:00:00 | |
| PETON7-10 | 2026-09-02 05:44:03 | 48.71402 | 18.32545 | 88° | 38km/h | 19073m | 4.9m/s | 0°C | 0% | 0hPa | 0V | 00:00:00 | 00:00:00 | 00:00:00 | |
| OE5DRO-10 | 2026-09-02 05:44:00 | 48.71399 | 18.32500 | 78° | 37km/h | 19059m | 5.4m/s | 0°C | 0% | 0hPa | 0V | 00:00:00 | 00:00:00 | 00:00:00 | |
| OE5DXL-15 | 2026-09-02 05:43:56 | 48.71393 | 18.32444 | 91° | 37km/h | 19039m | 5.6m/s | 0°C | 0% | 0hPa | 0V | 00:00:00 | 00:00:00 | 00:00:00 | |
| DO3MHA-11 | 2026-09-02 05:43:55 | 48.71393 | 18.32431 | 93° | 38km/h | 19024m | 4.3m/s | 0°C | 0% | 0hPa | 0V | 00:00:00 | 00:00:00 | 00:00:00 | |
| OM5KV | 2026-09-02 05:43:53 | 48.71393 | 18.32392 | 85° | 40km/h | 19024m | 4.4m/s | -54.1°C | 0% | 0hPa | 0V | 00:00:00 | 00:00:00 | 00:00:00 | |
| PETON7-10 | 2026-09-02 05:43:48 | 48.71381 | 18.32327 | 72° | 37km/h | 19001m | 3.7m/s | 0°C | 0% | 0hPa | 0V | 00:00:00 | 00:00:00 | 00:00:00 | |
| OM5KV | 2026-09-02 05:43:47 | 48.71377 | 18.32312 | 74° | 40km/h | 19001m | 3.7m/s | -54.1°C | 0% | 0hPa | 0V | 00:00:00 | 00:00:00 | 00:00:00 | |
| OM5KV | 2026-09-02 05:43:44 | 48.71367 | 18.32268 | 77° | 27km/h | 18982m | 5.1m/s | -54.0°C | 0% | 0hPa | 0V | 00:00:00 | 00:00:00 | 00:00:00 | |
| POL1PZ | 2026-09-02 05:43:43 | 48.71367 | 18.32268 | 77° | 27km/h | 18982m | 5.1m/s | -54.0°C | 0% | 0hPa | 0V | 00:00:00 | 00:00:00 | 00:00:00 | |
| OE5DRO-10 | 2026-09-02 05:43:41 | 48.71363 | 18.32245 | 73° | 35km/h | 18967m | 4.9m/s | 0°C | 0% | 0hPa | 0V | 00:00:00 | 00:00:00 | 00:00:00 | |
| PG1ADW-2 | 2026-09-02 05:43:38 | 48.71351 | 18.32202 | 67° | 33km/h | 18952m | 3.6m/s | 0°C | 0% | 0hPa | 0V | 00:00:00 | 00:00:00 | 00:00:00 | |
| OE3JTB-15 | 2026-09-02 05:43:37 | 48.71346 | 18.32187 | 67° | 29km/h | 18913m | 5.0m/s | 0°C | 0% | 0hPa | 0V | 00:00:00 | 00:00:00 | 00:00:00 | |
| DO3MHA-11 | 2026-09-02 05:43:33 | 48.71330 | 18.32137 | 74° | 31km/h | 18928m | 4.9m/s | 0°C | 0% | 0hPa | 0V | 00:00:00 | 00:00:00 | 00:00:00 | |
| OM5KV | 2026-09-02 05:43:32 | 48.71329 | 18.32127 | 75° | 27km/h | 18928m | 4.9m/s | -53.6°C | 0% | 0hPa | 0V | 00:00:00 | 00:00:00 | 00:00:00 | |
| OM5KV | 2026-09-02 05:43:28 | 48.71319 | 18.32082 | 72° | 37km/h | 18909m | 4.2m/s | -53.4°C | 0% | 0hPa | 0V | 00:00:00 | 00:00:00 | 00:00:00 | |
| OE5DXL-15 | 2026-09-02 05:43:26 | 48.71312 | 18.32057 | 64° | 26km/h | 18895m | 5.5m/s | 0°C | 0% | 0hPa | 0V | 00:00:00 | 00:00:00 | 00:00:00 | |
| DO3MHA-11 | 2026-09-02 05:43:23 | 48.71303 | 18.32025 | 66° | 29km/h | 18879m | 4.3m/s | 0°C | 0% | 0hPa | 0V | 00:00:00 | 00:00:00 | 00:00:00 | |
| OE5DRO-10 | 2026-09-02 05:43:22 | 48.71300 | 18.32016 | 66° | 27km/h | 18874m | 5.6m/s | 0°C | 0% | 0hPa | 0V | 00:00:00 | 00:00:00 | 00:00:00 | |
| PG1ADW-2 | 2026-09-02 05:43:18 | 48.71292 | 18.31976 | 71° | 26km/h | 18855m | 5.0m/s | 0°C | 0% | 0hPa | 0V | 00:00:00 | 00:00:00 | 00:00:00 | |
| ATIDSZ-14 | 2026-09-02 05:43:17 | 48.71289 | 18.31964 | 70° | 35km/h | 18855m | 5.1m/s | -53.0°C | 0% | 0hPa | 0V | 00:00:00 | 00:00:00 | 00:00:00 | |
| OM5KV | 2026-09-02 05:43:16 | 48.71283 | 18.31940 | 74° | 33km/h | 18844m | 4.1m/s | -52.9°C | 0% | 0hPa | 0V | 00:00:00 | 00:00:00 | 00:00:00 | |
| DO3MHA-11 | 2026-09-02 05:43:13 | 48.71279 | 18.31919 | 73° | 24km/h | 18828m | 6.0m/s | 0°C | 0% | 0hPa | 0V | 00:00:00 | 00:00:00 | 00:00:00 | |
| OM5KV | 2026-09-02 05:43:11 | 48.71276 | 18.31904 | 81° | 18km/h | 18823m | 4.8m/s | -52.8°C | 0% | 0hPa | 0V | 00:00:00 | 00:00:00 | 00:00:00 | |
| OE3JTB-15 | 2026-09-02 05:43:06 | 48.71269 | 18.31864 | 81° | 26km/h | 18793m | 5.6m/s | 0°C | 0% | 0hPa | 0V | 00:00:00 | 00:00:00 | 00:00:00 | |
| DO3MHA-11 | 2026-09-02 05:43:03 | 48.71265 | 18.31830 | 77° | 18km/h | 18778m | 5.4m/s | 0°C | 0% | 0hPa | 0V | 00:00:00 | 00:00:00 | 00:00:00 | |
| OM5KV | 2026-09-02 05:43:01 | 48.71263 | 18.31800 | 87° | 20km/h | 18768m | 5.8m/s | -53.0°C | 0% | 0hPa | 0V | 00:00:00 | 00:00:00 | 00:00:00 | |
| GYPAP8-17 | 2026-09-02 05:42:59 | 48.71262 | 18.31789 | 97° | 11km/h | 18758m | 4.3m/s | -52.9°C | 0% | 0hPa | 0V | 00:00:00 | 00:00:00 | 00:00:00 | |
| PG1ADW-2 | 2026-09-02 05:42:58 | 48.71262 | 18.31789 | 96° | 18km/h | 18753m | 5.4m/s | 0°C | 0% | 0hPa | 0V | 00:00:00 | 00:00:00 | 00:00:00 | |
| OM5KV | 2026-09-02 05:42:57 | 48.71263 | 18.31784 | 104° | 13km/h | 18753m | 5.5m/s | -52.9°C | 0% | 0hPa | 0V | 00:00:00 | 00:00:00 | 00:00:00 | |
| OE5DXL-15 | 2026-09-02 05:42:56 | 48.71264 | 18.31779 | 102° | 22km/h | 18744m | 5.4m/s | 0°C | 0% | 0hPa | 0V | 00:00:00 | 00:00:00 | 00:00:00 | |
| POL1PZ | 2026-09-02 05:42:54 | 48.71264 | 18.31767 | 90° | 18km/h | 18739m | 4.6m/s | -52.9°C | 0% | 0hPa | 0V | 00:00:00 | 00:00:00 | 00:00:00 | |
| DO3MHA-11 | 2026-09-02 05:42:53 | 48.71264 | 18.31760 | 92° | 20km/h | 18730m | 4.9m/s | 0°C | 0% | 0hPa | 0V | 00:00:00 | 00:00:00 | 00:00:00 | |
| OM5KV | 2026-09-02 05:42:51 | 48.71265 | 18.31744 | 92° | 18km/h | 18725m | 4.0m/s | -52.8°C | 0% | 0hPa | 0V | 00:00:00 | 00:00:00 | 00:00:00 | |
| PETON7-10 | 2026-09-02 05:42:48 | 48.71263 | 18.31725 | 76° | 22km/h | 18706m | 4.8m/s | 0°C | 0% | 0hPa | 0V | 00:00:00 | 00:00:00 | 00:00:00 | |
| OE5DRO-10 | 2026-09-02 05:42:44 | 48.71258 | 18.31694 | 70° | 24km/h | 18687m | 5.7m/s | 0°C | 0% | 0hPa | 0V | 00:00:00 | 00:00:00 | 00:00:00 | |
| DO3MHA-11 | 2026-09-02 05:42:43 | 48.71256 | 18.31685 | 73° | 22km/h | 18682m | 4.4m/s | 0°C | 0% | 0hPa | 0V | 00:00:00 | 00:00:00 | 00:00:00 | |
| OM5KV | 2026-09-02 05:42:40 | 48.71248 | 18.31655 | 67° | 20km/h | 18668m | 4.0m/s | -52.6°C | 0% | 0hPa | 0V | 00:00:00 | 00:00:00 | 00:00:00 | |
| PG1ADW-2 | 2026-09-02 05:42:38 | 48.71246 | 18.31649 | 71° | 26km/h | 18658m | 4.5m/s | 0°C | 0% | 0hPa | 0V | 00:00:00 | 00:00:00 | 00:00:00 | |
| ATIDSZ-14 | 2026-09-02 05:42:36 | 48.71242 | 18.31632 | 69° | 24km/h | 18653m | 5.9m/s | -52.6°C | 0% | 0hPa | 0V | 00:00:00 | 00:00:00 | 00:00:00 | |
| POL1PZ | 2026-09-02 05:42:34 | 48.71237 | 18.31615 | 66° | 26km/h | 18644m | 4.4m/s | -52.7°C | 0% | 0hPa | 0V | 00:00:00 | 00:00:00 | 00:00:00 | |
| DO3MHA-11 | 2026-09-02 05:42:33 | 48.71235 | 18.31606 | 72° | 26km/h | 18634m | 4.5m/s | 0°C | 0% | 0hPa | 0V | 00:00:00 | 00:00:00 | 00:00:00 | |
| OE5DXL-15 | 2026-09-02 05:42:26 | 48.71219 | 18.31543 | 59° | 27km/h | 18600m | 4.0m/s | 0°C | 0% | 0hPa | 0V | 00:00:00 | 00:00:00 | 00:00:00 | |
| OE5DRO-10 | 2026-09-02 05:42:25 | 48.71216 | 18.31537 | 64° | 29km/h | 18595m | 5.4m/s | 0°C | 0% | 0hPa | 0V | 00:00:00 | 00:00:00 | 00:00:00 | |
| DO3MHA-11 | 2026-09-02 05:42:23 | 48.71210 | 18.31514 | 56° | 31km/h | 18585m | 5.3m/s | 0°C | 0% | 0hPa | 0V | 00:00:00 | 00:00:00 | 00:00:00 | |
| PG1ADW-2 | 2026-09-02 05:42:19 | 48.71193 | 18.31467 | 49° | 26km/h | 18567m | 3.9m/s | 0°C | 0% | 0hPa | 0V | 00:00:00 | 00:00:00 | 00:00:00 | |
| PETON7-10 | 2026-09-02 05:42:18 | 48.71188 | 18.31467 | 53° | 27km/h | 18563m | 5.3m/s | 0°C | 0% | 0hPa | 0V | 00:00:00 | 00:00:00 | 00:00:00 | |
| ATIDSZ-14 | 2026-09-02 05:42:16 | 48.71174 | 18.31440 | 56° | 29km/h | 18553m | 6.1m/s | -52.9°C | 0% | 0hPa | 0V | 00:00:00 | 00:00:00 | 00:00:00 | |
| OM5KV | 2026-09-02 05:42:15 | 48.71174 | 18.31440 | 56° | 29km/h | 18553m | 6.1m/s | -52.9°C | 0% | 0hPa | 0V | 00:00:00 | 00:00:00 | 00:00:00 | |
| DO3MHA-11 | 2026-09-02 05:42:13 | 48.71166 | 18.31421 | 59° | 27km/h | 18538m | 4.4m/s | 0°C | 0% | 0hPa | 0V | 00:00:00 | 00:00:00 | 00:00:00 | |
| OM5KV | 2026-09-02 05:42:12 | 48.71158 | 18.31404 | 52° | 27km/h | 18534m | 4.4m/s | -52.9°C | 0% | 0hPa | 0V | 00:00:00 | 00:00:00 | 00:00:00 | |
| OM5KV | 2026-09-02 05:42:10 | 48.71154 | 18.31396 | 53° | 26km/h | 18529m | 4.6m/s | -52.9°C | 0% | 0hPa | 0V | 00:00:00 | 00:00:00 | 00:00:00 | |
| OE5DRO-10 | 2026-09-02 05:42:06 | 48.71132 | 18.31365 | 41° | 22km/h | 18507m | 4.8m/s | 0°C | 0% | 0hPa | 0V | 00:00:00 | 00:00:00 | 00:00:00 | |
| OM5KV | 2026-09-02 05:42:05 | 48.71122 | 18.31354 | 41° | 20km/h | 18503m | 4.3m/s | -52.9°C | 0% | 0hPa | 0V | 00:00:00 | 00:00:00 | 00:00:00 | |
| DO3MHA-11 | 2026-09-02 05:42:03 | 48.71119 | 18.31349 | 36° | 24km/h | 18493m | 4.6m/s | 0°C | 0% | 0hPa | 0V | 00:00:00 | 00:00:00 | 00:00:00 | |
| OM5KV | 2026-09-02 05:41:59 | 48.71104 | 18.31330 | 58° | 24km/h | 18479m | 4.0m/s | -52.6°C | 0% | 0hPa | 0V | 00:00:00 | 00:00:00 | 00:00:00 | |
| PG1ADW-2 | 2026-09-02 05:41:58 | 48.71100 | 18.31322 | 57° | 20km/h | 18469m | 4.5m/s | 0°C | 0% | 0hPa | 0V | 00:00:00 | 00:00:00 | 00:00:00 | |
| ATIDSZ-14 | 2026-09-02 05:41:55 | 48.71087 | 18.31295 | 58° | 26km/h | 18460m | 4.7m/s | -52.6°C | 0% | 0hPa | 0V | 00:00:00 | 00:00:00 | 00:00:00 | |
| DO3MHA-11 | 2026-09-02 05:41:53 | 48.71080 | 18.31280 | 34° | 18km/h | 18446m | 4.1m/s | 0°C | 0% | 0hPa | 0V | 00:00:00 | 00:00:00 | 00:00:00 | |
| OM5KV | 2026-09-02 05:41:52 | 48.71077 | 18.31277 | 35° | 15km/h | 18446m | 4.2m/s | -52.4°C | 0% | 0hPa | 0V | 00:00:00 | 00:00:00 | 00:00:00 | |
| OM5KV | 2026-09-02 05:41:49 | 48.71070 | 18.31269 | 48° | 13km/h | 18433m | 4.4m/s | -52.2°C | 0% | 0hPa | 0V | 00:00:00 | 00:00:00 | 00:00:00 | |
| PETON7-10 | 2026-09-02 05:41:48 | 48.71067 | 18.31265 | 47° | 18km/h | 18424m | 3.9m/s | 0°C | 0% | 0hPa | 0V | 00:00:00 | 00:00:00 | 00:00:00 | |
| OE5DRO-10 | 2026-09-02 05:41:47 | 48.71064 | 18.31260 | 48° | 16km/h | 18419m | 5.0m/s | 0°C | 0% | 0hPa | 0V | 00:00:00 | 00:00:00 | 00:00:00 | |
| POL1PZ | 2026-09-02 05:41:46 | 48.71060 | 18.31253 | 51° | 24km/h | 18419m | 5.1m/s | -52.3°C | 0% | 0hPa | 0V | 00:00:00 | 00:00:00 | 00:00:00 | |
| OM5KV | 2026-09-02 05:41:45 | 48.71056 | 18.31246 | 56° | 24km/h | 18414m | 4.6m/s | -52.3°C | 0% | 0hPa | 0V | 00:00:00 | 00:00:00 | 00:00:00 | |
| DO3MHA-11 | 2026-09-02 05:41:43 | 48.71048 | 18.31231 | 48° | 15km/h | 18401m | 4.1m/s | 0°C | 0% | 0hPa | 0V | 00:00:00 | 00:00:00 | 00:00:00 | |
| OM5KV | 2026-09-02 05:41:40 | 48.71040 | 18.31218 | 17° | 7km/h | 18392m | 4.0m/s | -52.4°C | 0% | 0hPa | 0V | 00:00:00 | 00:00:00 | 00:00:00 | |
| PG1ADW-2 | 2026-09-02 05:41:38 | 48.71035 | 18.31219 | 22° | 15km/h | 18378m | 4.3m/s | 0°C | 0% | 0hPa | 0V | 00:00:00 | 00:00:00 | 00:00:00 | |
| ATIDSZ-14 | 2026-09-02 05:41:34 | 48.71023 | 18.31206 | 50° | 20km/h | 18364m | 5.2m/s | -52.1°C | 0% | 0hPa | 0V | 00:00:00 | 00:00:00 | 00:00:00 | |
| DO3MHA-11 | 2026-09-02 05:41:33 | 48.71019 | 18.31199 | 64° | 13km/h | 18355m | 5.1m/s | 0°C | 0% | 0hPa | 0V | 00:00:00 | 00:00:00 | 00:00:00 | |
| OM5KV | 2026-09-02 05:41:32 | 48.71016 | 18.31193 | 64° | 20km/h | 18355m | 5.2m/s | -52.0°C | 0% | 0hPa | 0V | 00:00:00 | 00:00:00 | 00:00:00 | |
| OE5DRO-10 | 2026-09-02 05:41:28 | 48.71010 | 18.31173 | 71° | 13km/h | 18329m | 4.3m/s | 0°C | 0% | 0hPa | 0V | 00:00:00 | 00:00:00 | 00:00:00 | |
| POL1PZ | 2026-09-02 05:41:24 | 48.71006 | 18.31162 | 59° | 13km/h | 18315m | 4.5m/s | -51.7°C | 0% | 0hPa | 0V | 00:00:00 | 00:00:00 | 00:00:00 | |
| DO3MHA-11 | 2026-09-02 05:41:23 | 48.71005 | 18.31157 | 68° | 15km/h | 18305m | 4.0m/s | 0°C | 0% | 0hPa | 0V | 00:00:00 | 00:00:00 | 00:00:00 | |
| OM5KV | 2026-09-02 05:41:22 | 48.71003 | 18.31152 | 77° | 16km/h | 18305m | 4.1m/s | -51.7°C | 0% | 0hPa | 0V | 00:00:00 | 00:00:00 | 00:00:00 | |
| OM5KV | 2026-09-02 05:41:21 | 48.71002 | 18.31146 | 75° | 16km/h | 18300m | 5.5m/s | -51.6°C | 0% | 0hPa | 0V | 00:00:00 | 00:00:00 | 00:00:00 | |
| PETON7-10 | 2026-09-02 05:41:18 | 48.70999 | 18.31128 | 97° | 13km/h | 18280m | 3.9m/s | 0°C | 0% | 0hPa | 0V | 00:00:00 | 00:00:00 | 00:00:00 | |
| OM5KV | 2026-09-02 05:41:15 | 48.70999 | 18.31116 | 83° | 9km/h | 18271m | 4.5m/s | -51.4°C | 0% | 0hPa | 0V | 00:00:00 | 00:00:00 | 00:00:00 | |
| DO3MHA-11 | 2026-09-02 05:41:13 | 48.70999 | 18.31107 | 86° | 15km/h | 18257m | 4.0m/s | 0°C | 0% | 0hPa | 0V | 00:00:00 | 00:00:00 | 00:00:00 | |
| OM5KV | 2026-09-02 05:41:10 | 48.70997 | 18.31089 | 87° | 15km/h | 18247m | 4.3m/s | -51.2°C | 0% | 0hPa | 0V | 00:00:00 | 00:00:00 | 00:00:00 | |
| OE5DRO-10 | 2026-09-02 05:41:09 | 48.70997 | 18.31084 | 98° | 13km/h | 18237m | 4.1m/s | 0°C | 0% | 0hPa | 0V | 00:00:00 | 00:00:00 | 00:00:00 | |
| PETON7-10 | 2026-09-02 05:41:03 | 48.71003 | 18.31059 | 90° | 15km/h | 18208m | 3.9m/s | 0°C | 0% | 0hPa | 0V | 00:00:00 | 00:00:00 | 00:00:00 | |
| DO3MHA-11 | 2026-09-02 05:41:02 | 48.71004 | 18.31053 | 90° | 11km/h | 18186m | 4.4m/s | 0°C | 0% | 0hPa | 0V | 00:00:00 | 00:00:00 | 00:00:00 | |
| PG1ADW-2 | 2026-09-02 05:40:58 | 48.71005 | 18.31026 | 96° | 18km/h | 18186m | 4.4m/s | 0°C | 0% | 0hPa | 0V | 00:00:00 | 00:00:00 | 00:00:00 | |
| SQ9EZE-14 | 2026-09-02 05:40:57 | 48.71005 | 18.31020 | 99° | 15km/h | 18186m | 4.4m/s | -50.8°C | 0% | 0hPa | 0V | 00:00:00 | 00:00:00 | 00:00:00 | |
| OE3JTB-15 | 2026-09-02 05:40:56 | 48.71005 | 18.31015 | 115° | 22km/h | 18176m | 4.5m/s | 0°C | 0% | 0hPa | 0V | 00:00:00 | 00:00:00 | 00:00:00 | |
| OM5KV | 2026-09-02 05:40:54 | 48.71009 | 18.31006 | 125° | 9km/h | 18167m | 5.4m/s | -50.8°C | 0% | 0hPa | 0V | 00:00:00 | 00:00:00 | 00:00:00 | |
| DO3MHA-11 | 2026-09-02 05:40:52 | 48.71011 | 18.31003 | 118° | 18km/h | 18158m | 5.1m/s | 0°C | 0% | 0hPa | 0V | 00:00:00 | 00:00:00 | 00:00:00 | |
| OE5DRO-10 | 2026-09-02 05:40:50 | 48.71014 | 18.30995 | 111° | 24km/h | 18149m | 4.3m/s | 0°C | 0% | 0hPa | 0V | 00:00:00 | 00:00:00 | 00:00:00 | |
| PETON7-10 | 2026-09-02 05:40:48 | 48.71018 | 18.30980 | 107° | 24km/h | 18140m | 3.8m/s | 0°C | 0% | 0hPa | 0V | 00:00:00 | 00:00:00 | 00:00:00 | |
| OM5KV | 2026-09-02 05:40:47 | 48.71019 | 18.30973 | 108° | 22km/h | 18140m | 3.9m/s | -50.7°C | 0% | 0hPa | 0V | 00:00:00 | 00:00:00 | 00:00:00 | |
| DO3MHA-11 | 2026-09-02 05:40:42 | 48.71031 | 18.30940 | 128° | 26km/h | 18112m | 4.9m/s | 0°C | 0% | 0hPa | 0V | 00:00:00 | 00:00:00 | 00:00:00 | |
| POL1PZ | 2026-09-02 05:40:39 | 48.71042 | 18.30918 | 128° | 27km/h | 18104m | 4.0m/s | -50.4°C | 0% | 0hPa | 0V | 00:00:00 | 00:00:00 | 00:00:00 | |
| PG1ADW-2 | 2026-09-02 05:40:38 | 48.71046 | 18.30910 | 122° | 31km/h | 18094m | 3.8m/s | 0°C | 0% | 0hPa | 0V | 00:00:00 | 00:00:00 | 00:00:00 | |
| OM5KV | 2026-09-02 05:40:36 | 48.71051 | 18.30892 | 108° | 26km/h | 18090m | 5.2m/s | -50.4°C | 0% | 0hPa | 0V | 00:00:00 | 00:00:00 | 00:00:00 | |
| PETON7-10 | 2026-09-02 05:40:33 | 48.71056 | 18.30862 | 111° | 33km/h | 18072m | 3.9m/s | 0°C | 0% | 0hPa | 0V | 00:00:00 | 00:00:00 | 00:00:00 | |
| DO3MHA-11 | 2026-09-02 05:40:32 | 48.71058 | 18.30853 | 111° | 33km/h | 18041m | 4.8m/s | 0°C | 0% | 0hPa | 0V | 00:00:00 | 00:00:00 | 00:00:00 | |
| OE5DRO-10 | 2026-09-02 05:40:31 | 48.71061 | 18.30844 | 124° | 35km/h | 18062m | 4.4m/s | 0°C | 0% | 0hPa | 0V | 00:00:00 | 00:00:00 | 00:00:00 | |
| OE5DXL-15 | 2026-09-02 05:40:24 | 48.71086 | 18.30770 | 111° | 37km/h | 18031m | 4.7m/s | 0°C | 0% | 0hPa | 0V | 00:00:00 | 00:00:00 | 00:00:00 | |
| DO3MHA-11 | 2026-09-02 05:40:20 | 48.71098 | 18.30715 | 107° | 33km/h | 18012m | 5.5m/s | 0°C | 0% | 0hPa | 0V | 00:00:00 | 00:00:00 | 00:00:00 | |
| OM5KV | 2026-09-02 05:40:19 | 48.71101 | 18.30703 | 107° | 33km/h | 18012m | 5.5m/s | -51.2°C | 0% | 0hPa | 0V | 00:00:00 | 00:00:00 | 00:00:00 | |
| PG1ADW-2 | 2026-09-02 05:40:18 | 48.71103 | 18.30692 | 106° | 37km/h | 18002m | 5.2m/s | 0°C | 0% | 0hPa | 0V | 00:00:00 | 00:00:00 | 00:00:00 | |
| POL1PZ | 2026-09-02 05:40:17 | 48.71105 | 18.30680 | 107° | 33km/h | 18002m | 5.3m/s | -51.2°C | 0% | 0hPa | 0V | 00:00:00 | 00:00:00 | 00:00:00 | |
| OM5KV | 2026-09-02 05:40:14 | 48.71112 | 18.30641 | 106° | 35km/h | 17987m | 4.3m/s | -51.1°C | 0% | 0hPa | 0V | 00:00:00 | 00:00:00 | 00:00:00 | |
| OM5KV | 2026-09-02 05:40:13 | 48.71115 | 18.30628 | 105° | 38km/h | 17983m | 4.8m/s | -51.2°C | 0% | 0hPa | 0V | 00:00:00 | 00:00:00 | 00:00:00 | |
| OE5DRO-10 | 2026-09-02 05:40:12 | 48.71117 | 18.30613 | 105° | 35km/h | 17974m | 4.0m/s | 0°C | 0% | 0hPa | 0V | 00:00:00 | 00:00:00 | 00:00:00 | |
| DO3MHA-11 | 2026-09-02 05:40:10 | 48.71122 | 18.30584 | 103° | 37km/h | 17960m | 5.7m/s | 0°C | 0% | 0hPa | 0V | 00:00:00 | 00:00:00 | 00:00:00 | |
| OM5KV | 2026-09-02 05:40:06 | 48.71125 | 18.30532 | 88° | 31km/h | 17950m | 5.8m/s | -50.9°C | 0% | 0hPa | 0V | 00:00:00 | 00:00:00 | 00:00:00 | |
| PETON7-10 | 2026-09-02 05:40:03 | 48.71126 | 18.30497 | 105° | 35km/h | 17931m | 4.7m/s | 0°C | 0% | 0hPa | 0V | 00:00:00 | 00:00:00 | 00:00:00 | |
| OM5KV | 2026-09-02 05:40:02 | 48.71128 | 18.30483 | 105° | 37km/h | 17931m | 4.8m/s | -50.9°C | 0% | 0hPa | 0V | 00:00:00 | 00:00:00 | 00:00:00 | |
| OM5KV | 2026-09-02 05:40:00 | 48.71134 | 18.30441 | 100° | 40km/h | 17917m | 4.1m/s | -50.8°C | 0% | 0hPa | 0V | 00:00:00 | 00:00:00 | 00:00:00 | |
| DO3MHA-11 | 2026-09-02 05:39:59 | 48.71134 | 18.30441 | 100° | 35km/h | 17912m | 5.4m/s | 0°C | 0% | 0hPa | 0V | 00:00:00 | 00:00:00 | 00:00:00 | |
| PG1ADW-2 | 2026-09-02 05:39:58 | 48.71136 | 18.30426 | 96° | 35km/h | 17908m | 4.1m/s | 0°C | 0% | 0hPa | 0V | 00:00:00 | 00:00:00 | 00:00:00 | |
| POL1PZ | 2026-09-02 05:39:55 | 48.71134 | 18.30388 | 85° | 33km/h | 17898m | 5.0m/s | -50.8°C | 0% | 0hPa | 0V | 00:00:00 | 00:00:00 | 00:00:00 | |
| OE5DXL-15 | 2026-09-02 05:39:54 | 48.71134 | 18.30375 | 92° | 37km/h | 17889m | 5.4m/s | 0°C | 0% | 0hPa | 0V | 00:00:00 | 00:00:00 | 00:00:00 | |
| OE5DRO-10 | 2026-09-02 05:39:53 | 48.71134 | 18.30363 | 92° | 37km/h | 17884m | 4.0m/s | 0°C | 0% | 0hPa | 0V | 00:00:00 | 00:00:00 | 00:00:00 | |
| OE3JTB-15 | 2026-09-02 05:39:51 | 48.71135 | 18.30338 | 99° | 38km/h | 17852m | 4.1m/s | 0°C | 0% | 0hPa | 0V | 00:00:00 | 00:00:00 | 00:00:00 | |
| ATIDSZ-14 | 2026-09-02 05:39:50 | 48.71136 | 18.30325 | 98° | 38km/h | 17874m | 4.2m/s | -50.7°C | 0% | 0hPa | 0V | 00:00:00 | 00:00:00 | 00:00:00 | |
| DO3MHA-11 | 2026-09-02 05:39:49 | 48.71138 | 18.30311 | 95° | 37km/h | 17861m | 3.9m/s | 0°C | 0% | 0hPa | 0V | 00:00:00 | 00:00:00 | 00:00:00 | |
| PETON7-10 | 2026-09-02 05:39:48 | 48.71138 | 18.30297 | 84° | 37km/h | 17861m | 3.9m/s | 0°C | 0% | 0hPa | 0V | 00:00:00 | 00:00:00 | 00:00:00 | |
| OM5KV | 2026-09-02 05:39:42 | 48.71131 | 18.30214 | 85° | 33km/h | 17838m | 5.1m/s | -50.6°C | 0% | 0hPa | 0V | 00:00:00 | 00:00:00 | 00:00:00 | |
| DO3MHA-11 | 2026-09-02 05:39:39 | 48.71130 | 18.30177 | 87° | 38km/h | 17819m | 5.1m/s | 0°C | 0% | 0hPa | 0V | 00:00:00 | 00:00:00 | 00:00:00 | |
| PG1ADW-2 | 2026-09-02 05:39:38 | 48.71130 | 18.30162 | 87° | 38km/h | 17815m | 4.0m/s | 0°C | 0% | 0hPa | 0V | 00:00:00 | 00:00:00 | 00:00:00 | |
| OM5KV | 2026-09-02 05:39:37 | 48.71128 | 18.30148 | 82° | 40km/h | 17815m | 4.1m/s | -50.7°C | 0% | 0hPa | 0V | 00:00:00 | 00:00:00 | 00:00:00 | |
| OE5DRO-10 | 2026-09-02 05:39:34 | 48.71123 | 18.30101 | 80° | 37km/h | 17797m | 4.5m/s | 0°C | 0% | 0hPa | 0V | 00:00:00 | 00:00:00 | 00:00:00 | |
| PETON7-10 | 2026-09-02 05:39:33 | 48.71121 | 18.30084 | 83° | 38km/h | 17793m | 4.0m/s | 0°C | 0% | 0hPa | 0V | 00:00:00 | 00:00:00 | 00:00:00 | |
| OM5KV | 2026-09-02 05:39:32 | 48.71119 | 18.30055 | 81° | 37km/h | 17788m | 5.0m/s | -51.0°C | 0% | 0hPa | 0V | 00:00:00 | 00:00:00 | 00:00:00 | |
| DO3MHA-11 | 2026-09-02 05:39:29 | 48.71114 | 18.30029 | 78° | 38km/h | 17766m | 3.6m/s | 0°C | 0% | 0hPa | 0V | 00:00:00 | 00:00:00 | 00:00:00 | |
| OM5KV | 2026-09-02 05:39:26 | 48.71107 | 18.29990 | 74° | 37km/h | 17766m | 3.7m/s | -50.8°C | 0% | 0hPa | 0V | 00:00:00 | 00:00:00 | 00:00:00 | |
| OE5DXL-15 | 2026-09-02 05:39:24 | 48.71103 | 18.29960 | 74° | 35km/h | 17752m | 5.1m/s | 0°C | 0% | 0hPa | 0V | 00:00:00 | 00:00:00 | 00:00:00 | |
| GYPAP8-17 | 2026-09-02 05:39:20 | 48.71091 | 18.29902 | 77° | 38km/h | 17738m | 3.9m/s | -50.7°C | 0% | 0hPa | 0V | 00:00:00 | 00:00:00 | 00:00:00 | |
| OM5KV | 2026-09-02 05:39:19 | 48.71089 | 18.29888 | 75° | 35km/h | 17733m | 5.6m/s | -50.7°C | 0% | 0hPa | 0V | 00:00:00 | 00:00:00 | 00:00:00 | |
| PETON7-10 | 2026-09-02 05:39:18 | 48.71087 | 18.29876 | 78° | 31km/h | 17724m | 5.3m/s | 0°C | 0% | 0hPa | 0V | 00:00:00 | 00:00:00 | 00:00:00 | |
| DO3MHA-11 | 2026-09-02 05:39:17 | 48.71085 | 18.29865 | 78° | 31km/h | 17719m | 3.9m/s | 0°C | 0% | 0hPa | 0V | 00:00:00 | 00:00:00 | 00:00:00 | |
| OE5DRO-10 | 2026-09-02 05:39:15 | 48.71082 | 18.29844 | 80° | 33km/h | 17709m | 4.6m/s | 0°C | 0% | 0hPa | 0V | 00:00:00 | 00:00:00 | 00:00:00 | |
| OM5KV | 2026-09-02 05:39:12 | 48.71078 | 18.29809 | 80° | 35km/h | 17700m | 4.9m/s | -50.7°C | 0% | 0hPa | 0V | 00:00:00 | 00:00:00 | 00:00:00 | |
| POL1PZ | 2026-09-02 05:39:09 | 48.71071 | 18.29769 | 75° | 38km/h | 17686m | 4.1m/s | -50.8°C | 0% | 0hPa | 0V | 00:00:00 | 00:00:00 | 00:00:00 | |
| OM5KV | 2026-09-02 05:39:07 | 48.71066 | 18.29744 | 73° | 31km/h | 17677m | 5.1m/s | -50.8°C | 0% | 0hPa | 0V | 00:00:00 | 00:00:00 | 00:00:00 | |
| PETON7-10 | 2026-09-02 05:39:03 | 48.71064 | 18.29704 | 94° | 35km/h | 17655m | 4.7m/s | 0°C | 0% | 0hPa | 0V | 00:00:00 | 00:00:00 | 00:00:00 | |
| PG1ADW-2 | 2026-09-02 05:38:58 | 48.71061 | 18.29634 | 77° | 35km/h | 17632m | 4.2m/s | 0°C | 0% | 0hPa | 0V | 00:00:00 | 00:00:00 | 00:00:00 | |
| OE5DRO-10 | 2026-09-02 05:38:56 | 48.71058 | 18.29610 | 84° | 35km/h | 17623m | 4.0m/s | 0°C | 0% | 0hPa | 0V | 00:00:00 | 00:00:00 | 00:00:00 | |
| OM5KV | 2026-09-02 05:38:54 | 48.71054 | 18.29577 | 75° | 29km/h | 17614m | 4.6m/s | -51.0°C | 0% | 0hPa | 0V | 00:00:00 | 00:00:00 | 00:00:00 | |
| OE3JTB-15 | 2026-09-02 05:38:50 | 48.71047 | 18.29523 | 74° | 35km/h | 17596m | 5.1m/s | 0°C | 0% | 0hPa | 0V | 00:00:00 | 00:00:00 | 00:00:00 | |
| PETON7-10 | 2026-09-02 05:38:48 | 48.71043 | 18.29511 | 73° | 35km/h | 17588m | 4.5m/s | 0°C | 0% | 0hPa | 0V | 00:00:00 | 00:00:00 | 00:00:00 | |
| OM5KV | 2026-09-02 05:38:47 | 48.71038 | 18.29486 | 78° | 33km/h | 17584m | 4.4m/s | -51.1°C | 0% | 0hPa | 0V | 00:00:00 | 00:00:00 | 00:00:00 | |
| OM5KV | 2026-09-02 05:38:41 | 48.71023 | 18.29425 | 68° | 37km/h | 17561m | 4.1m/s | -51.2°C | 0% | 0hPa | 0V | 00:00:00 | 00:00:00 | 00:00:00 | |
| DO3MHA-11 | 2026-09-02 05:38:40 | 48.71019 | 18.29412 | 64° | 35km/h | 17552m | 3.7m/s | 0°C | 0% | 0hPa | 0V | 00:00:00 | 00:00:00 | 00:00:00 | |
| PG1ADW-2 | 2026-09-02 05:38:38 | 48.71011 | 18.29387 | 70° | 35km/h | 17543m | 3.9m/s | 0°C | 0% | 0hPa | 0V | 00:00:00 | 00:00:00 | 00:00:00 | |
| OE5DRO-10 | 2026-09-02 05:38:37 | 48.71008 | 18.29374 | 68° | 35km/h | 17539m | 4.8m/s | 0°C | 0% | 0hPa | 0V | 00:00:00 | 00:00:00 | 00:00:00 | |
| PETON7-10 | 2026-09-02 05:38:33 | 48.70997 | 18.29327 | 76° | 35km/h | 17521m | 5.3m/s | 0°C | 0% | 0hPa | 0V | 00:00:00 | 00:00:00 | 00:00:00 | |
| OM5KV | 2026-09-02 05:38:32 | 48.70995 | 18.29316 | 74° | 33km/h | 17521m | 5.3m/s | -51.2°C | 0% | 0hPa | 0V | 00:00:00 | 00:00:00 | 00:00:00 | |
| DO3MHA-11 | 2026-09-02 05:38:30 | 48.70989 | 18.29292 | 77° | 35km/h | 17497m | 5.7m/s | 0°C | 0% | 0hPa | 0V | 00:00:00 | 00:00:00 | 00:00:00 | |
| ATIDSZ-14 | 2026-09-02 05:38:28 | 48.70985 | 18.29268 | 79° | 33km/h | 17503m | 4.5m/s | -51.3°C | 0% | 0hPa | 0V | 00:00:00 | 00:00:00 | 00:00:00 | |
| OM5KV | 2026-09-02 05:38:25 | 48.70979 | 18.29227 | 83° | 38km/h | 17487m | 5.5m/s | -51.3°C | 0% | 0hPa | 0V | 00:00:00 | 00:00:00 | 00:00:00 | |
| SQ9EZE-14 | 2026-09-02 05:38:24 | 48.70978 | 18.29199 | 86° | 37km/h | 17478m | 5.6m/s | -51.4°C | 0% | 0hPa | 0V | 00:00:00 | 00:00:00 | 00:00:00 | |
| DO3MHA-11 | 2026-09-02 05:38:20 | 48.70976 | 18.29159 | 92° | 37km/h | 17460m | 4.0m/s | 0°C | 0% | 0hPa | 0V | 00:00:00 | 00:00:00 | 00:00:00 | |
| OE3JTB-15 | 2026-09-02 05:38:19 | 48.70976 | 18.29147 | 96° | 47km/h | 17442m | 4.4m/s | 0°C | 0% | 0hPa | 0V | 00:00:00 | 00:00:00 | 00:00:00 | |
| PETON7-10 | 2026-09-02 05:38:18 | 48.70977 | 18.29135 | 91° | 42km/h | 17451m | 4.2m/s | 0°C | 0% | 0hPa | 0V | 00:00:00 | 00:00:00 | 00:00:00 | |
| OE5DXL-15 | 2026-09-02 05:38:17 | 48.70976 | 18.29122 | 84° | 47km/h | 17446m | 4.8m/s | 0°C | 0% | 0hPa | 0V | 00:00:00 | 00:00:00 | 00:00:00 | |
| OM5KV | 2026-09-02 05:38:13 | 48.70975 | 18.29069 | 91° | 40km/h | 17433m | 5.7m/s | -52.2°C | 0% | 0hPa | 0V | 00:00:00 | 00:00:00 | 00:00:00 | |
| DO3MHA-11 | 2026-09-02 05:38:10 | 48.70978 | 18.29019 | 103° | 46km/h | 17404m | 4.4m/s | 0°C | 0% | 0hPa | 0V | 00:00:00 | 00:00:00 | 00:00:00 | |
| ATIDSZ-14 | 2026-09-02 05:38:08 | 48.70985 | 18.28964 | 101° | 47km/h | 17404m | 4.4m/s | -52.1°C | 0% | 0hPa | 0V | 00:00:00 | 00:00:00 | 00:00:00 | |
| OM5KV | 2026-09-02 05:38:07 | 48.70985 | 18.28964 | 101° | 47km/h | 17404m | 4.4m/s | -52.1°C | 0% | 0hPa | 0V | 00:00:00 | 00:00:00 | 00:00:00 | |
| PETON7-10 | 2026-09-02 05:38:03 | 48.70991 | 18.28896 | 91° | 49km/h | 17382m | 5.1m/s | 0°C | 0% | 0hPa | 0V | 00:00:00 | 00:00:00 | 00:00:00 | |
| OM5KV | 2026-09-02 05:38:02 | 48.70992 | 18.28879 | 91° | 46km/h | 17382m | 5.1m/s | -52.6°C | 0% | 0hPa | 0V | 00:00:00 | 00:00:00 | 00:00:00 | |
| DO3MHA-11 | 2026-09-02 05:38:00 | 48.70992 | 18.28843 | 94° | 49km/h | 17372m | 5.3m/s | 0°C | 0% | 0hPa | 0V | 00:00:00 | 00:00:00 | 00:00:00 | |
| PG1ADW-2 | 2026-09-02 05:37:58 | 48.70995 | 18.28804 | 100° | 53km/h | 17359m | 5.1m/s | 0°C | 0% | 0hPa | 0V | 00:00:00 | 00:00:00 | 00:00:00 | |
| OE5DRO-10 | 2026-09-02 05:37:57 | 48.70997 | 18.28786 | 100° | 53km/h | 17354m | 3.9m/s | 0°C | 0% | 0hPa | 0V | 00:00:00 | 00:00:00 | 00:00:00 | |
| OM5KV | 2026-09-02 05:37:55 | 48.71000 | 18.28750 | 99° | 47km/h | 17350m | 4.5m/s | -52.9°C | 0% | 0hPa | 0V | 00:00:00 | 00:00:00 | 00:00:00 | |
| DO3MHA-11 | 2026-09-02 05:37:50 | 48.71006 | 18.28652 | 97° | 57km/h | 17322m | 4.3m/s | 0°C | 0% | 0hPa | 0V | 00:00:00 | 00:00:00 | 00:00:00 | |
| PETON7-10 | 2026-09-02 05:37:48 | 48.71010 | 18.28608 | 97° | 51km/h | 17313m | 4.4m/s | 0°C | 0% | 0hPa | 0V | 00:00:00 | 00:00:00 | 00:00:00 | |
| OE5DXL-15 | 2026-09-02 05:37:47 | 48.71011 | 18.28587 | 95° | 46km/h | 17309m | 4.2m/s | 0°C | 0% | 0hPa | 0V | 00:00:00 | 00:00:00 | 00:00:00 | |
| ATIDSZ-14 | 2026-09-02 05:37:46 | 48.71013 | 18.28565 | 95° | 55km/h | 17309m | 4.2m/s | -53.3°C | 0% | 0hPa | 0V | 00:00:00 | 00:00:00 | 00:00:00 | |
| OM5KV | 2026-09-02 05:37:39 | 48.71009 | 18.28416 | 89° | 49km/h | 17276m | 3.8m/s | -53.2°C | 0% | 0hPa | 0V | 00:00:00 | 00:00:00 | 00:00:00 | |
| PG1ADW-2 | 2026-09-02 05:37:38 | 48.71009 | 18.28398 | 91° | 42km/h | 17266m | 4.6m/s | 0°C | 0% | 0hPa | 0V | 00:00:00 | 00:00:00 | 00:00:00 | |
| PETON7-10 | 2026-09-02 05:37:33 | 48.71014 | 18.28315 | 94° | 42km/h | 17242m | 4.5m/s | 0°C | 0% | 0hPa | 0V | 00:00:00 | 00:00:00 | 00:00:00 | |
| OM5KV | 2026-09-02 05:37:31 | 48.71014 | 18.28279 | 90° | 49km/h | 17237m | 4.7m/s | -53.5°C | 0% | 0hPa | 0V | 00:00:00 | 00:00:00 | 00:00:00 | |
| POL1PZ | 2026-09-02 05:37:29 | 48.71013 | 18.28243 | 84° | 46km/h | 17228m | 5.1m/s | -53.5°C | 0% | 0hPa | 0V | 00:00:00 | 00:00:00 | 00:00:00 | |
| ATIDSZ-14 | 2026-09-02 05:37:26 | 48.71009 | 18.28194 | 87° | 42km/h | 17214m | 4.4m/s | -53.5°C | 0% | 0hPa | 0V | 00:00:00 | 00:00:00 | 00:00:00 | |
| OM5KV | 2026-09-02 05:37:22 | 48.71012 | 18.28137 | 106° | 37km/h | 17197m | 5.2m/s | -53.5°C | 0% | 0hPa | 0V | 00:00:00 | 00:00:00 | 00:00:00 | |
| OE3JTB-15 | 2026-09-02 05:37:21 | 48.71014 | 18.28117 | 91° | 37km/h | 17173m | 4.4m/s | 0°C | 0% | 0hPa | 0V | 00:00:00 | 00:00:00 | 00:00:00 | |
| OM5KV | 2026-09-02 05:37:20 | 48.71016 | 18.28109 | 102° | 38km/h | 17187m | 5.3m/s | -53.5°C | 0% | 0hPa | 0V | 00:00:00 | 00:00:00 | 00:00:00 | |
| OE5DRO-10 | 2026-09-02 05:37:19 | 48.71018 | 18.28095 | 91° | 37km/h | 17178m | 5.1m/s | 0°C | 0% | 0hPa | 0V | 00:00:00 | 00:00:00 | 00:00:00 | |
| PETON7-10 | 2026-09-02 05:37:18 | 48.71018 | 18.28080 | 91° | 37km/h | 17173m | 4.4m/s | 0°C | 0% | 0hPa | 0V | 00:00:00 | 00:00:00 | 00:00:00 | |
| OE5DXL-15 | 2026-09-02 05:37:17 | 48.71018 | 18.28064 | 91° | 37km/h | 17168m | 5.3m/s | 0°C | 0% | 0hPa | 0V | 00:00:00 | 00:00:00 | 00:00:00 | |
| OM5KV | 2026-09-02 05:37:15 | 48.71019 | 18.28037 | 96° | 33km/h | 17164m | 3.8m/s | -53.6°C | 0% | 0hPa | 0V | 00:00:00 | 00:00:00 | 00:00:00 | |
| DO3MHA-11 | 2026-09-02 05:37:09 | 48.71034 | 18.27961 | 104° | 37km/h | 17133m | 5.0m/s | 0°C | 0% | 0hPa | 0V | 00:00:00 | 00:00:00 | 00:00:00 | |
| POL1PZ | 2026-09-02 05:37:07 | 48.71038 | 18.27934 | 104° | 38km/h | 17128m | 4.7m/s | -53.4°C | 0% | 0hPa | 0V | 00:00:00 | 00:00:00 | 00:00:00 | |
| ATIDSZ-14 | 2026-09-02 05:37:05 | 48.71042 | 18.27907 | 103° | 35km/h | 17119m | 3.7m/s | -53.3°C | 0% | 0hPa | 0V | 00:00:00 | 00:00:00 | 00:00:00 | |
| PETON7-10 | 2026-09-02 05:37:03 | 48.71046 | 18.27880 | 105° | 37km/h | 17105m | 4.7m/s | 0°C | 0% | 0hPa | 0V | 00:00:00 | 00:00:00 | 00:00:00 | |
| OE5DRO-10 | 2026-09-02 05:37:00 | 48.71052 | 18.27840 | 104° | 38km/h | 17092m | 3.6m/s | 0°C | 0% | 0hPa | 0V | 00:00:00 | 00:00:00 | 00:00:00 | |
| DO3MHA-11 | 2026-09-02 05:36:58 | 48.71056 | 18.27815 | 100° | 37km/h | 17083m | 3.9m/s | 0°C | 0% | 0hPa | 0V | 00:00:00 | 00:00:00 | 00:00:00 | |
| OM5KV | 2026-09-02 05:36:54 | 48.71062 | 18.27758 | 97° | 38km/h | 17069m | 3.5m/s | -53.4°C | 0% | 0hPa | 0V | 00:00:00 | 00:00:00 | 00:00:00 | |
| OM5KV | 2026-09-02 05:36:52 | 48.71062 | 18.27730 | 88° | 35km/h | 17060m | 4.1m/s | -53.4°C | 0% | 0hPa | 0V | 00:00:00 | 00:00:00 | 00:00:00 | |
| OE3JTB-15 | 2026-09-02 05:36:51 | 48.71062 | 18.27717 | 93° | 44km/h | 17051m | 4.6m/s | 0°C | 0% | 0hPa | 0V | 00:00:00 | 00:00:00 | 00:00:00 | |
| OM5KV | 2026-09-02 05:36:50 | 48.71063 | 18.27686 | 96° | 40km/h | 17046m | 3.4m/s | -53.6°C | 0% | 0hPa | 0V | 00:00:00 | 00:00:00 | 00:00:00 | |
| OE5DXL-15 | 2026-09-02 05:36:47 | 48.71065 | 18.27657 | 102° | 44km/h | 17033m | 4.7m/s | 0°C | 0% | 0hPa | 0V | 00:00:00 | 00:00:00 | 00:00:00 | |
| ATIDSZ-14 | 2026-09-02 05:36:45 | 48.71069 | 18.27627 | 105° | 42km/h | 17028m | 4.8m/s | -53.6°C | 0% | 0hPa | 0V | 00:00:00 | 00:00:00 | 00:00:00 | |
| OE5DRO-10 | 2026-09-02 05:36:41 | 48.71079 | 18.27567 | 96° | 46km/h | 17001m | 4.8m/s | 0°C | 0% | 0hPa | 0V | 00:00:00 | 00:00:00 | 00:00:00 | |
| PG1ADW-2 | 2026-09-02 05:36:38 | 48.71078 | 18.27518 | 86° | 46km/h | 16991m | 5.0m/s | 0°C | 0% | 0hPa | 0V | 00:00:00 | 00:00:00 | 00:00:00 | |
| DO3MHA-11 | 2026-09-02 05:36:37 | 48.71077 | 18.27500 | 86° | 46km/h | 16987m | 3.4m/s | 0°C | 0% | 0hPa | 0V | 00:00:00 | 00:00:00 | 00:00:00 | |
| OM5KV | 2026-09-02 05:36:35 | 48.71076 | 18.27463 | 91° | 46km/h | 16983m | 5.1m/s | -53.3°C | 0% | 0hPa | 0V | 00:00:00 | 00:00:00 | 00:00:00 | |
| PETON7-10 | 2026-09-02 05:36:33 | 48.71077 | 18.27430 | 97° | 46km/h | 16969m | 3.8m/s | 0°C | 0% | 0hPa | 0V | 00:00:00 | 00:00:00 | 00:00:00 | |
| OM5KV | 2026-09-02 05:36:30 | 48.71081 | 18.27382 | 96° | 40km/h | 16960m | 4.0m/s | -53.3°C | 0% | 0hPa | 0V | 00:00:00 | 00:00:00 | 00:00:00 | |
| DO3MHA-11 | 2026-09-02 05:36:27 | 48.71082 | 18.27330 | 91° | 51km/h | 16934m | 4.6m/s | 0°C | 0% | 0hPa | 0V | 00:00:00 | 00:00:00 | 00:00:00 | |
| OM5KV | 2026-09-02 05:36:26 | 48.71082 | 18.27310 | 89° | 51km/h | 16942m | 4.3m/s | -53.6°C | 0% | 0hPa | 0V | 00:00:00 | 00:00:00 | 00:00:00 | |
| ATIDSZ-14 | 2026-09-02 05:36:24 | 48.71082 | 18.27272 | 94° | 49km/h | 16934m | 4.7m/s | -53.6°C | 0% | 0hPa | 0V | 00:00:00 | 00:00:00 | 00:00:00 | |
| OE3JTB-15 | 2026-09-02 05:36:22 | 48.71085 | 18.27234 | 102° | 47km/h | 16920m | 4.6m/s | 0°C | 0% | 0hPa | 0V | 00:00:00 | 00:00:00 | 00:00:00 | |
| OE5DRO-10 | 2026-09-02 05:36:21 | 48.71087 | 18.27218 | 101° | 46km/h | 16916m | 4.2m/s | 0°C | 0% | 0hPa | 0V | 00:00:00 | 00:00:00 | 00:00:00 | |
| PG1ADW-2 | 2026-09-02 05:36:18 | 48.71093 | 18.27168 | 95° | 46km/h | 16903m | 5.4m/s | 0°C | 0% | 0hPa | 0V | 00:00:00 | 00:00:00 | 00:00:00 | |
| OE5DXL-15 | 2026-09-02 05:36:17 | 48.71093 | 18.27151 | 85° | 47km/h | 16898m | 4.4m/s | 0°C | 0% | 0hPa | 0V | 00:00:00 | 00:00:00 | 00:00:00 | |
| DO3MHA-11 | 2026-09-02 05:36:15 | 48.71092 | 18.27116 | 85° | 46km/h | 16884m | 4.9m/s | 0°C | 0% | 0hPa | 0V | 00:00:00 | 00:00:00 | 00:00:00 | |
| OM5KV | 2026-09-02 05:36:09 | 48.71093 | 18.27016 | 103° | 42km/h | 16868m | 4.9m/s | -54.0°C | 0% | 0hPa | 0V | 00:00:00 | 00:00:00 | 00:00:00 | |
| OM5KV | 2026-09-02 05:36:07 | 48.71097 | 18.26983 | 99° | 46km/h | 16859m | 3.9m/s | -54.1°C | 0% | 0hPa | 0V | 00:00:00 | 00:00:00 | 00:00:00 | |
| DO3MHA-11 | 2026-09-02 05:36:05 | 48.71100 | 18.26946 | 99° | 53km/h | 16825m | 5.0m/s | 0°C | 0% | 0hPa | 0V | 00:00:00 | 00:00:00 | 00:00:00 | |
| ATIDSZ-14 | 2026-09-02 05:36:04 | 48.71102 | 18.26927 | 99° | 49km/h | 16846m | 4.6m/s | -54.2°C | 0% | 0hPa | 0V | 00:00:00 | 00:00:00 | 00:00:00 | |
| PETON7-10 | 2026-09-02 05:36:03 | 48.71103 | 18.26910 | 97° | 49km/h | 16837m | 3.7m/s | 0°C | 0% | 0hPa | 0V | 00:00:00 | 00:00:00 | 00:00:00 | |
| OE5DRO-10 | 2026-09-02 05:36:02 | 48.71105 | 18.26893 | 100° | 53km/h | 16837m | 3.7m/s | 0°C | 0% | 0hPa | 0V | 00:00:00 | 00:00:00 | 00:00:00 | |
| PG1ADW-2 | 2026-09-02 05:35:58 | 48.71114 | 18.26827 | 97° | 53km/h | 16817m | 4.5m/s | 0°C | 0% | 0hPa | 0V | 00:00:00 | 00:00:00 | 00:00:00 | |
| OM5KV | 2026-09-02 05:35:56 | 48.71117 | 18.26786 | 98° | 57km/h | 16812m | 4.7m/s | -54.0°C | 0% | 0hPa | 0V | 00:00:00 | 00:00:00 | 00:00:00 | |
| DO3MHA-11 | 2026-09-02 05:35:53 | 48.71123 | 18.26725 | 100° | 53km/h | 16789m | 5.1m/s | 0°C | 0% | 0hPa | 0V | 00:00:00 | 00:00:00 | 00:00:00 | |
| OM5KV | 2026-09-02 05:35:51 | 48.71127 | 18.26687 | 101° | 47km/h | 16789m | 5.2m/s | -54.1°C | 0% | 0hPa | 0V | 00:00:00 | 00:00:00 | 00:00:00 | |
| OM5KV | 2026-09-02 05:35:50 | 48.71128 | 18.26670 | 97° | 46km/h | 16784m | 4.1m/s | -54.1°C | 0% | 0hPa | 0V | 00:00:00 | 00:00:00 | 00:00:00 | |
| PETON7-10 | 2026-09-02 05:35:48 | 48.71131 | 18.26634 | 98° | 55km/h | 16771m | 4.1m/s | 0°C | 0% | 0hPa | 0V | 00:00:00 | 00:00:00 | 00:00:00 | |
| OE5DXL-15 | 2026-09-02 05:35:47 | 48.71133 | 18.26614 | 98° | 58km/h | 16767m | 5.2m/s | 0°C | 0% | 0hPa | 0V | 00:00:00 | 00:00:00 | 00:00:00 | |
| DO3MHA-11 | 2026-09-02 05:35:43 | 48.71140 | 18.26527 | 100° | 57km/h | 16749m | 4.7m/s | 0°C | 0% | 0hPa | 0V | 00:00:00 | 00:00:00 | 00:00:00 | |
| GYPAP8-17 | 2026-09-02 05:35:42 | 48.71142 | 18.26506 | 100° | 57km/h | 16749m | 4.8m/s | -53.9°C | 0% | 0hPa | 0V | 00:00:00 | 00:00:00 | 00:00:00 | |
| OE5DRO-10 | 2026-09-02 05:35:41 | 48.71145 | 18.26485 | 99° | 58km/h | 16741m | 3.8m/s | 0°C | 0% | 0hPa | 0V | 00:00:00 | 00:00:00 | 00:00:00 | |
| PG1ADW-2 | 2026-09-02 05:35:38 | 48.71150 | 18.26425 | 97° | 60km/h | 16728m | 4.1m/s | 0°C | 0% | 0hPa | 0V | 00:00:00 | 00:00:00 | 00:00:00 | |
| OM5KV | 2026-09-02 05:35:33 | 48.71160 | 18.26292 | 99° | 62km/h | 16707m | 4.4m/s | -53.9°C | 0% | 0hPa | 0V | 00:00:00 | 00:00:00 | 00:00:00 | |
| OM5KV | 2026-09-02 05:35:31 | 48.71162 | 18.26269 | 97° | 60km/h | 16702m | 4.7m/s | -53.8°C | 0% | 0hPa | 0V | 00:00:00 | 00:00:00 | 00:00:00 | |
| OM5KV | 2026-09-02 05:35:27 | 48.71166 | 18.26179 | 94° | 58km/h | 16684m | 5.3m/s | -53.7°C | 0% | 0hPa | 0V | 00:00:00 | 00:00:00 | 00:00:00 | |
| DO3MHA-11 | 2026-09-02 05:35:23 | 48.71169 | 18.26090 | 91° | 62km/h | 16662m | 4.8m/s | 0°C | 0% | 0hPa | 0V | 00:00:00 | 00:00:00 | 00:00:00 | |
| OE5DRO-10 | 2026-09-02 05:35:22 | 48.71170 | 18.26066 | 92° | 62km/h | 16657m | 4.2m/s | 0°C | 0% | 0hPa | 0V | 00:00:00 | 00:00:00 | 00:00:00 | |
| PETON7-10 | 2026-09-02 05:35:18 | 48.71171 | 18.25969 | 90° | 62km/h | 16638m | 4.1m/s | 0°C | 0% | 0hPa | 0V | 00:00:00 | 00:00:00 | 00:00:00 | |
| OE5DXL-15 | 2026-09-02 05:35:17 | 48.71171 | 18.25945 | 88° | 57km/h | 16634m | 4.1m/s | 0°C | 0% | 0hPa | 0V | 00:00:00 | 00:00:00 | 00:00:00 | |
| OM5KV | 2026-09-02 05:35:15 | 48.71169 | 18.25898 | 89° | 60km/h | 16630m | 4.7m/s | -53.8°C | 0% | 0hPa | 0V | 00:00:00 | 00:00:00 | 00:00:00 | |
| DO3MHA-11 | 2026-09-02 05:35:12 | 48.71168 | 18.25830 | 89° | 57km/h | 16616m | 4.1m/s | 0°C | 0% | 0hPa | 0V | 00:00:00 | 00:00:00 | 00:00:00 | |
| OM5KV | 2026-09-02 05:35:04 | 48.71164 | 18.25641 | 88° | 57km/h | 16580m | 4.4m/s | -53.7°C | 0% | 0hPa | 0V | 00:00:00 | 00:00:00 | 00:00:00 | |
| OE5DRO-10 | 2026-09-02 05:35:03 | 48.71164 | 18.25620 | 90° | 53km/h | 16571m | 4.7m/s | 0°C | 0% | 0hPa | 0V | 00:00:00 | 00:00:00 | 00:00:00 | |
| ATIDSZ-14 | 2026-09-02 05:35:02 | 48.71164 | 18.25600 | 95° | 53km/h | 16571m | 4.8m/s | -53.7°C | 0% | 0hPa | 0V | 00:00:00 | 00:00:00 | 00:00:00 | |
| DO3MHA-11 | 2026-09-02 05:34:59 | 48.71167 | 18.25539 | 93° | 55km/h | 16553m | 5.0m/s | 0°C | 0% | 0hPa | 0V | 00:00:00 | 00:00:00 | 00:00:00 | |
| OM5KV | 2026-09-02 05:34:58 | 48.71168 | 18.25516 | 94° | 58km/h | 16553m | 5.1m/s | -53.6°C | 0% | 0hPa | 0V | 00:00:00 | 00:00:00 | 00:00:00 | |
| PG1ADW-2 | 2026-09-02 05:34:53 | 48.71167 | 18.25408 | 86° | 49km/h | 16525m | 5.5m/s | 0°C | 0% | 0hPa | 0V | 00:00:00 | 00:00:00 | 00:00:00 | |
| DO3MHA-11 | 2026-09-02 05:34:49 | 48.71164 | 18.25333 | 90° | 49km/h | 16502m | 5.0m/s | 0°C | 0% | 0hPa | 0V | 00:00:00 | 00:00:00 | 00:00:00 | |
| PETON7-10 | 2026-09-02 05:34:48 | 48.71164 | 18.25313 | 90° | 49km/h | 16502m | 5.0m/s | 0°C | 0% | 0hPa | 0V | 00:00:00 | 00:00:00 | 00:00:00 | |
| OE5DXL-15 | 2026-09-02 05:34:47 | 48.71163 | 18.25293 | 88° | 49km/h | 16497m | 4.7m/s | 0°C | 0% | 0hPa | 0V | 00:00:00 | 00:00:00 | 00:00:00 | |
| OE5DRO-10 | 2026-09-02 05:34:44 | 48.71163 | 18.25233 | 87° | 47km/h | 16483m | 4.6m/s | 0°C | 0% | 0hPa | 0V | 00:00:00 | 00:00:00 | 00:00:00 | |
| ATIDSZ-14 | 2026-09-02 05:34:42 | 48.71162 | 18.25197 | 87° | 46km/h | 16479m | 4.4m/s | -53.6°C | 0% | 0hPa | 0V | 00:00:00 | 00:00:00 | 00:00:00 | |
| DO3MHA-11 | 2026-09-02 05:34:39 | 48.71161 | 18.25144 | 89° | 46km/h | 16461m | 4.1m/s | 0°C | 0% | 0hPa | 0V | 00:00:00 | 00:00:00 | 00:00:00 | |
| OM5KV | 2026-09-02 05:34:37 | 48.71160 | 18.25089 | 92° | 49km/h | 16453m | 5.3m/s | -53.6°C | 0% | 0hPa | 0V | 00:00:00 | 00:00:00 | 00:00:00 | |
| PETON7-10 | 2026-09-02 05:34:33 | 48.71161 | 18.25035 | 99° | 49km/h | 16434m | 4.6m/s | 0°C | 0% | 0hPa | 0V | 00:00:00 | 00:00:00 | 00:00:00 | |
| OM5KV | 2026-09-02 05:34:30 | 48.71165 | 18.24985 | 97° | 42km/h | 16424m | 4.3m/s | -53.7°C | 0% | 0hPa | 0V | 00:00:00 | 00:00:00 | 00:00:00 | |
| DO3MHA-11 | 2026-09-02 05:34:29 | 48.71167 | 18.24969 | 97° | 49km/h | 16415m | 4.2m/s | 0°C | 0% | 0hPa | 0V | 00:00:00 | 00:00:00 | 00:00:00 | |
| OE5DRO-10 | 2026-09-02 05:34:25 | 48.71169 | 18.24896 | 95° | 51km/h | 16396m | 5.0m/s | 0°C | 0% | 0hPa | 0V | 00:00:00 | 00:00:00 | 00:00:00 | |
| OM5KV | 2026-09-02 05:34:24 | 48.71170 | 18.24876 | 94° | 55km/h | 16396m | 5.0m/s | -53.9°C | 0% | 0hPa | 0V | 00:00:00 | 00:00:00 | 00:00:00 | |
| OM5KV | 2026-09-02 05:34:23 | 48.71171 | 18.24855 | 95° | 55km/h | 16392m | 4.7m/s | -53.9°C | 0% | 0hPa | 0V | 00:00:00 | 00:00:00 | 00:00:00 | |
| ATIDSZ-14 | 2026-09-02 05:34:21 | 48.71173 | 18.24815 | 97° | 51km/h | 16382m | 4.6m/s | -54.1°C | 0% | 0hPa | 0V | 00:00:00 | 00:00:00 | 00:00:00 | |
| DO3MHA-11 | 2026-09-02 05:34:19 | 48.71176 | 18.24776 | 100° | 49km/h | 16349m | 5.6m/s | 0°C | 0% | 0hPa | 0V | 00:00:00 | 00:00:00 | 00:00:00 | |
| PETON7-10 | 2026-09-02 05:34:18 | 48.71178 | 18.24758 | 92° | 49km/h | 16364m | 3.7m/s | 0°C | 0% | 0hPa | 0V | 00:00:00 | 00:00:00 | 00:00:00 | |
| OE5DXL-15 | 2026-09-02 05:34:17 | 48.71179 | 18.24741 | 92° | 53km/h | 16359m | 5.3m/s | 0°C | 0% | 0hPa | 0V | 00:00:00 | 00:00:00 | 00:00:00 | |
| PG1ADW-2 | 2026-09-02 05:34:13 | 48.71177 | 18.24669 | 83° | 53km/h | 16341m | 3.9m/s | 0°C | 0% | 0hPa | 0V | 00:00:00 | 00:00:00 | 00:00:00 | |
| OM5KV | 2026-09-02 05:34:12 | 48.71175 | 18.24650 | 85° | 51km/h | 16341m | 4.0m/s | -54.0°C | 0% | 0hPa | 0V | 00:00:00 | 00:00:00 | 00:00:00 | |
| DO3MHA-11 | 2026-09-02 05:34:08 | 48.71172 | 18.24570 | 88° | 51km/h | 16318m | 5.3m/s | 0°C | 0% | 0hPa | 0V | 00:00:00 | 00:00:00 | 00:00:00 | |
| OE5DRO-10 | 2026-09-02 05:34:06 | 48.71171 | 18.24530 | 88° | 53km/h | 16308m | 5.3m/s | 0°C | 0% | 0hPa | 0V | 00:00:00 | 00:00:00 | 00:00:00 | |
| OM5KV | 2026-09-02 05:34:05 | 48.71170 | 18.24511 | 85° | 49km/h | 16308m | 5.3m/s | -54.2°C | 0% | 0hPa | 0V | 00:00:00 | 00:00:00 | 00:00:00 | |
| PETON7-10 | 2026-09-02 05:34:03 | 48.71166 | 18.24475 | 81° | 55km/h | 16294m | 4.2m/s | 0°C | 0% | 0hPa | 0V | 00:00:00 | 00:00:00 | 00:00:00 | |
| ATIDSZ-14 | 2026-09-02 05:34:01 | 48.71162 | 18.24435 | 82° | 53km/h | 16289m | 4.9m/s | -54.2°C | 0% | 0hPa | 0V | 00:00:00 | 00:00:00 | 00:00:00 | |
| OM5KV | 2026-09-02 05:33:59 | 48.71157 | 18.24396 | 82° | 53km/h | 16279m | 4.1m/s | -54.3°C | 0% | 0hPa | 0V | 00:00:00 | 00:00:00 | 00:00:00 | |
| DO3MHA-11 | 2026-09-02 05:33:58 | 48.71155 | 18.24376 | 81° | 55km/h | 16270m | 4.7m/s | 0°C | 0% | 0hPa | 0V | 00:00:00 | 00:00:00 | 00:00:00 | |
| PG1ADW-2 | 2026-09-02 05:33:53 | 48.71140 | 18.24273 | 75° | 57km/h | 16246m | 5.6m/s | 0°C | 0% | 0hPa | 0V | 00:00:00 | 00:00:00 | 00:00:00 | |
| OM5KV | 2026-09-02 05:33:49 | 48.71124 | 18.24192 | 75° | 58km/h | 16232m | 4.5m/s | -54.2°C | 0% | 0hPa | 0V | 00:00:00 | 00:00:00 | 00:00:00 | |
| DO3MHA-11 | 2026-09-02 05:33:48 | 48.71120 | 18.24172 | 76° | 57km/h | 16224m | 4.9m/s | 0°C | 0% | 0hPa | 0V | 00:00:00 | 00:00:00 | 00:00:00 | |
| OE5DXL-15 | 2026-09-02 05:33:47 | 48.71116 | 18.24150 | 75° | 57km/h | 16219m | 4.0m/s | 0°C | 0% | 0hPa | 0V | 00:00:00 | 00:00:00 | 00:00:00 | |
| OM5KV | 2026-09-02 05:33:44 | 48.71106 | 18.24085 | 79° | 58km/h | 16210m | 4.8m/s | -54.2°C | 0% | 0hPa | 0V | 00:00:00 | 00:00:00 | 00:00:00 | |
| ATIDSZ-14 | 2026-09-02 05:33:40 | 48.71096 | 18.24003 | 81° | 53km/h | 16191m | 5.1m/s | -54.2°C | 0% | 0hPa | 0V | 00:00:00 | 00:00:00 | 00:00:00 | |
| OM5KV | 2026-09-02 05:33:39 | 48.71094 | 18.23983 | 82° | 53km/h | 16186m | 4.2m/s | -54.1°C | 0% | 0hPa | 0V | 00:00:00 | 00:00:00 | 00:00:00 | |
| OM5KV | 2026-09-02 05:33:38 | 48.71092 | 18.23963 | 83° | 55km/h | 16182m | 5.4m/s | -54.1°C | 0% | 0hPa | 0V | 00:00:00 | 00:00:00 | 00:00:00 | |
| DO3MHA-11 | 2026-09-02 05:33:37 | 48.71090 | 18.23941 | 83° | 57km/h | 16172m | 5.4m/s | 0°C | 0% | 0hPa | 0V | 00:00:00 | 00:00:00 | 00:00:00 | |
| PG1ADW-2 | 2026-09-02 05:33:33 | 48.71080 | 18.23850 | 76° | 55km/h | 16153m | 5.4m/s | 0°C | 0% | 0hPa | 0V | 00:00:00 | 00:00:00 | 00:00:00 | |
| OE5DRO-10 | 2026-09-02 05:33:28 | 48.71062 | 18.23751 | 77° | 55km/h | 16131m | 4.9m/s | 0°C | 0% | 0hPa | 0V | 00:00:00 | 00:00:00 | 00:00:00 | |
| DO3MHA-11 | 2026-09-02 05:33:27 | 48.71060 | 18.23731 | 78° | 55km/h | 16121m | 4.3m/s | 0°C | 0% | 0hPa | 0V | 00:00:00 | 00:00:00 | 00:00:00 | |
| OM5KV | 2026-09-02 05:33:22 | 48.71040 | 18.23628 | 69° | 57km/h | 16108m | 4.1m/s | -53.8°C | 0% | 0hPa | 0V | 00:00:00 | 00:00:00 | 00:00:00 | |
| ATIDSZ-14 | 2026-09-02 05:33:20 | 48.71029 | 18.23588 | 70° | 58km/h | 16099m | 4.2m/s | -53.8°C | 0% | 0hPa | 0V | 00:00:00 | 00:00:00 | 00:00:00 | |
| OE3JTB-15 | 2026-09-02 05:33:19 | 48.71024 | 18.23567 | 70° | 51km/h | 16090m | 4.4m/s | 0°C | 0% | 0hPa | 0V | 00:00:00 | 00:00:00 | 00:00:00 | |
| PETON7-10 | 2026-09-02 05:33:18 | 48.71019 | 18.23548 | 75° | 53km/h | 16086m | 4.1m/s | 0°C | 0% | 0hPa | 0V | 00:00:00 | 00:00:00 | 00:00:00 | |
| DO3MHA-11 | 2026-09-02 05:33:17 | 48.71015 | 18.23529 | 75° | 53km/h | 16082m | 4.6m/s | 0°C | 0% | 0hPa | 0V | 00:00:00 | 00:00:00 | 00:00:00 | |
| PG1ADW-2 | 2026-09-02 05:33:13 | 48.71003 | 18.23451 | 73° | 51km/h | 16064m | 5.1m/s | 0°C | 0% | 0hPa | 0V | 00:00:00 | 00:00:00 | 00:00:00 | |
| OE5DRO-10 | 2026-09-02 05:33:09 | 48.70984 | 18.23373 | 73° | 51km/h | 16047m | 3.9m/s | 0°C | 0% | 0hPa | 0V | 00:00:00 | 00:00:00 | 00:00:00 | |
| OM5KV | 2026-09-02 05:33:08 | 48.70980 | 18.23354 | 74° | 49km/h | 16047m | 3.9m/s | -53.7°C | 0% | 0hPa | 0V | 00:00:00 | 00:00:00 | 00:00:00 | |
| DO3MHA-11 | 2026-09-02 05:33:07 | 48.70977 | 18.23336 | 77° | 51km/h | 16019m | 4.2m/s | 0°C | 0% | 0hPa | 0V | 00:00:00 | 00:00:00 | 00:00:00 | |
| PETON7-10 | 2026-09-02 05:33:03 | 48.70965 | 18.23261 | 73° | 51km/h | 16019m | 4.2m/s | 0°C | 0% | 0hPa | 0V | 00:00:00 | 00:00:00 | 00:00:00 | |
| OM5KV | 2026-09-02 05:33:02 | 48.70961 | 18.23242 | 73° | 53km/h | 16019m | 4.3m/s | -53.3°C | 0% | 0hPa | 0V | 00:00:00 | 00:00:00 | 00:00:00 | |
| ATIDSZ-14 | 2026-09-02 05:33:00 | 48.70949 | 18.23185 | 74° | 53km/h | 16004m | 5.7m/s | -53.3°C | 0% | 0hPa | 0V | 00:00:00 | 00:00:00 | 00:00:00 | |
| DO3MHA-11 | 2026-09-02 05:32:57 | 48.70942 | 18.23146 | 77° | 51km/h | 15982m | 4.6m/s | 0°C | 0% | 0hPa | 0V | 00:00:00 | 00:00:00 | 00:00:00 | |
| OE3JTB-15 | 2026-09-02 05:32:50 | 48.70925 | 18.23014 | 75° | 46km/h | 15958m | 3.9m/s | 0°C | 0% | 0hPa | 0V | 00:00:00 | 00:00:00 | 00:00:00 | |
| PETON7-10 | 2026-09-02 05:32:48 | 48.70918 | 18.22978 | 76° | 46km/h | 15949m | 3.8m/s | 0°C | 0% | 0hPa | 0V | 00:00:00 | 00:00:00 | 00:00:00 | |
| OE5DXL-15 | 2026-09-02 05:32:47 | 48.70915 | 18.22962 | 76° | 46km/h | 15945m | 5.6m/s | 0°C | 0% | 0hPa | 0V | 00:00:00 | 00:00:00 | 00:00:00 | |
| DO3MHA-11 | 2026-09-02 05:32:45 | 48.70910 | 18.22928 | 78° | 44km/h | 15925m | 5.1m/s | 0°C | 0% | 0hPa | 0V | 00:00:00 | 00:00:00 | 00:00:00 | |
| OM5KV | 2026-09-02 05:32:44 | 48.70907 | 18.22911 | 81° | 46km/h | 15935m | 5.3m/s | -52.8°C | 0% | 0hPa | 0V | 00:00:00 | 00:00:00 | 00:00:00 | |
| OM5KV | 2026-09-02 05:32:39 | 48.70894 | 18.22804 | 75° | 40km/h | 15908m | 3.8m/s | -52.8°C | 0% | 0hPa | 0V | 00:00:00 | 00:00:00 | 00:00:00 | |
| ATIDSZ-14 | 2026-09-02 05:32:38 | 48.70894 | 18.22804 | 75° | 40km/h | 15908m | 3.8m/s | -52.8°C | 0% | 0hPa | 0V | 00:00:00 | 00:00:00 | 00:00:00 | |
| OM5KV | 2026-09-02 05:32:37 | 48.70891 | 18.22789 | 70° | 40km/h | 15904m | 5.3m/s | -52.7°C | 0% | 0hPa | 0V | 00:00:00 | 00:00:00 | 00:00:00 | |
| DO3MHA-11 | 2026-09-02 05:32:33 | 48.70878 | 18.22711 | 86° | 47km/h | 15869m | 5.0m/s | 0°C | 0% | 0hPa | 0V | 00:00:00 | 00:00:00 | 00:00:00 | |
| OE5DRO-10 | 2026-09-02 05:32:31 | 48.70874 | 18.22692 | 85° | 47km/h | 15873m | 3.8m/s | 0°C | 0% | 0hPa | 0V | 00:00:00 | 00:00:00 | 00:00:00 | |
| OM5KV | 2026-09-02 05:32:25 | 48.70861 | 18.22587 | 70° | 42km/h | 15851m | 4.5m/s | -52.4°C | 0% | 0hPa | 0V | 00:00:00 | 00:00:00 | 00:00:00 | |
| OM5KV | 2026-09-02 05:32:24 | 48.70856 | 18.22572 | 68° | 42km/h | 15847m | 4.0m/s | -52.3°C | 0% | 0hPa | 0V | 00:00:00 | 00:00:00 | 00:00:00 | |
| DO3MHA-11 | 2026-09-02 05:32:21 | 48.70847 | 18.22526 | 82° | 47km/h | 15829m | 4.7m/s | 0°C | 0% | 0hPa | 0V | 00:00:00 | 00:00:00 | 00:00:00 | |
| PETON7-10 | 2026-09-02 05:32:18 | 48.70844 | 18.22472 | 87° | 47km/h | 15817m | 4.0m/s | 0°C | 0% | 0hPa | 0V | 00:00:00 | 00:00:00 | 00:00:00 | |
| OE5DXL-15 | 2026-09-02 05:32:17 | 48.70843 | 18.22452 | 87° | 46km/h | 15812m | 4.6m/s | 0°C | 0% | 0hPa | 0V | 00:00:00 | 00:00:00 | 00:00:00 | |
| PG1ADW-2 | 2026-09-02 05:32:13 | 48.70835 | 18.22375 | 78° | 44km/h | 15795m | 4.4m/s | 0°C | 0% | 0hPa | 0V | 00:00:00 | 00:00:00 | 00:00:00 | |
| OE5DRO-10 | 2026-09-02 05:32:12 | 48.70832 | 18.22358 | 78° | 44km/h | 15791m | 4.3m/s | 0°C | 0% | 0hPa | 0V | 00:00:00 | 00:00:00 | 00:00:00 | |
| DO3MHA-11 | 2026-09-02 05:32:10 | 48.70827 | 18.22325 | 77° | 44km/h | 15729m | 4.2m/s | 0°C | 0% | 0hPa | 0V | 00:00:00 | 00:00:00 | 00:00:00 | |
| OM5KV | 2026-09-02 05:32:06 | 48.70819 | 18.22260 | 83° | 47km/h | 15769m | 5.1m/s | -52.1°C | 0% | 0hPa | 0V | 00:00:00 | 00:00:00 | 00:00:00 | |
| OM5KV | 2026-09-02 05:32:05 | 48.70818 | 18.22242 | 86° | 47km/h | 15764m | 4.3m/s | -52.1°C | 0% | 0hPa | 0V | 00:00:00 | 00:00:00 | 00:00:00 | |
| PETON7-10 | 2026-09-02 05:32:03 | 48.70816 | 18.22206 | 83° | 44km/h | 15751m | 4.5m/s | 0°C | 0% | 0hPa | 0V | 00:00:00 | 00:00:00 | 00:00:00 | |
| ATIDSZ-14 | 2026-09-02 05:31:57 | 48.70806 | 18.22114 | 83° | 42km/h | 15729m | 4.2m/s | -52.0°C | 0% | 0hPa | 0V | 00:00:00 | 00:00:00 | 00:00:00 | |
| OM5KV | 2026-09-02 05:31:54 | 48.70804 | 18.22063 | 89° | 47km/h | 15715m | 4.6m/s | -51.9°C | 0% | 0hPa | 0V | 00:00:00 | 00:00:00 | 00:00:00 | |
| DO3MHA-11 | 2026-09-02 05:31:53 | 48.70803 | 18.22045 | 90° | 46km/h | 15706m | 3.9m/s | 0°C | 0% | 0hPa | 0V | 00:00:00 | 00:00:00 | 00:00:00 | |
| OE3JTB-15 | 2026-09-02 05:31:52 | 48.70803 | 18.22026 | 88° | 44km/h | 15702m | 5.0m/s | 0°C | 0% | 0hPa | 0V | 00:00:00 | 00:00:00 | 00:00:00 | |
| PETON7-10 | 2026-09-02 05:31:48 | 48.70799 | 18.21953 | 82° | 46km/h | 15683m | 5.2m/s | 0°C | 0% | 0hPa | 0V | 00:00:00 | 00:00:00 | 00:00:00 | |
| OE5DXL-15 | 2026-09-02 05:31:47 | 48.70797 | 18.21936 | 81° | 42km/h | 15674m | 4.9m/s | 0°C | 0% | 0hPa | 0V | 00:00:00 | 00:00:00 | 00:00:00 | |
| OM5KV | 2026-09-02 05:31:45 | 48.70794 | 18.21885 | 91° | 44km/h | 15669m | 4.5m/s | -51.6°C | 0% | 0hPa | 0V | 00:00:00 | 00:00:00 | 00:00:00 | |
| OM5KV | 2026-09-02 05:31:43 | 48.70795 | 18.21851 | 95° | 46km/h | 15660m | 5.0m/s | -51.6°C | 0% | 0hPa | 0V | 00:00:00 | 00:00:00 | 00:00:00 | |
| DO3MHA-11 | 2026-09-02 05:31:40 | 48.70796 | 18.21817 | 91° | 42km/h | 15646m | 3.9m/s | 0°C | 0% | 0hPa | 0V | 00:00:00 | 00:00:00 | 00:00:00 | |
| OM5KV | 2026-09-02 05:31:39 | 48.70795 | 18.21799 | 86° | 47km/h | 15646m | 3.9m/s | -51.5°C | 0% | 0hPa | 0V | 00:00:00 | 00:00:00 | 00:00:00 | |
| ATIDSZ-14 | 2026-09-02 05:31:37 | 48.70792 | 18.21764 | 84° | 46km/h | 15638m | 4.7m/s | -51.5°C | 0% | 0hPa | 0V | 00:00:00 | 00:00:00 | 00:00:00 | |
| OE5DRO-10 | 2026-09-02 05:31:34 | 48.70788 | 18.21712 | 84° | 40km/h | 15621m | 4.6m/s | 0°C | 0% | 0hPa | 0V | 00:00:00 | 00:00:00 | 00:00:00 | |
| PG1ADW-2 | 2026-09-02 05:31:33 | 48.70787 | 18.21696 | 86° | 40km/h | 15616m | 5.0m/s | 0°C | 0% | 0hPa | 0V | 00:00:00 | 00:00:00 | 00:00:00 | |
| DO3MHA-11 | 2026-09-02 05:31:27 | 48.70784 | 18.21608 | 85° | 38km/h | 15572m | 4.8m/s | 0°C | 0% | 0hPa | 0V | 00:00:00 | 00:00:00 | 00:00:00 | |
| OM5KV | 2026-09-02 05:31:26 | 48.70783 | 18.21591 | 85° | 44km/h | 15590m | 4.0m/s | -51.2°C | 0% | 0hPa | 0V | 00:00:00 | 00:00:00 | 00:00:00 | |
| GYPAP8-17 | 2026-09-02 05:31:24 | 48.70781 | 18.21557 | 88° | 46km/h | 15580m | 4.1m/s | -51.2°C | 0% | 0hPa | 0V | 00:00:00 | 00:00:00 | 00:00:00 | |
| OE3JTB-15 | 2026-09-02 05:31:23 | 48.70780 | 18.21540 | 86° | 44km/h | 15572m | 4.8m/s | 0°C | 0% | 0hPa | 0V | 00:00:00 | 00:00:00 | 00:00:00 | |
| PETON7-10 | 2026-09-02 05:31:18 | 48.70780 | 18.21464 | 89° | 44km/h | 15550m | 5.0m/s | 0°C | 0% | 0hPa | 0V | 00:00:00 | 00:00:00 | 00:00:00 | |
| OE5DXL-15 | 2026-09-02 05:31:17 | 48.70780 | 18.21451 | 92° | 46km/h | 15545m | 3.6m/s | 0°C | 0% | 0hPa | 0V | 00:00:00 | 00:00:00 | 00:00:00 | |
| DO3MHA-11 | 2026-09-02 05:31:16 | 48.70780 | 18.21436 | 92° | 44km/h | 15541m | 5.1m/s | 0°C | 0% | 0hPa | 0V | 00:00:00 | 00:00:00 | 00:00:00 | |
| OM5KV | 2026-09-02 05:31:15 | 48.70779 | 18.21403 | 85° | 47km/h | 15537m | 3.6m/s | -51.0°C | 0% | 0hPa | 0V | 00:00:00 | 00:00:00 | 00:00:00 | |
| OM5KV | 2026-09-02 05:31:14 | 48.70779 | 18.21403 | 85° | 47km/h | 15537m | 3.6m/s | -51.0°C | 0% | 0hPa | 0V | 00:00:00 | 00:00:00 | 00:00:00 | |
| PG1ADW-2 | 2026-09-02 05:31:13 | 48.70778 | 18.21385 | 89° | 46km/h | 15529m | 4.4m/s | 0°C | 0% | 0hPa | 0V | 00:00:00 | 00:00:00 | 00:00:00 | |
| OM5KV | 2026-09-02 05:31:08 | 48.70777 | 18.21277 | 93° | 40km/h | 15509m | 5.3m/s | -50.9°C | 0% | 0hPa | 0V | 00:00:00 | 00:00:00 | 00:00:00 | |
| DO3MHA-11 | 2026-09-02 05:31:03 | 48.70779 | 18.21217 | 90° | 46km/h | 15486m | 4.4m/s | 0°C | 0% | 0hPa | 0V | 00:00:00 | 00:00:00 | 00:00:00 | |
| OM5KV | 2026-09-02 05:31:00 | 48.70777 | 18.21166 | 85° | 47km/h | 15477m | 4.3m/s | -50.9°C | 0% | 0hPa | 0V | 00:00:00 | 00:00:00 | 00:00:00 | |
| OE5DRO-10 | 2026-09-02 05:30:56 | 48.70777 | 18.21094 | 96° | 49km/h | 15455m | 3.7m/s | 0°C | 0% | 0hPa | 0V | 00:00:00 | 00:00:00 | 00:00:00 | |
| OE3JTB-15 | 2026-09-02 05:30:54 | 48.70779 | 18.21061 | 99° | 53km/h | 15446m | 4.3m/s | 0°C | 0% | 0hPa | 0V | 00:00:00 | 00:00:00 | 00:00:00 | |
| DO3MHA-11 | 2026-09-02 05:30:53 | 48.70781 | 18.21044 | 99° | 47km/h | 15441m | 5.4m/s | 0°C | 0% | 0hPa | 0V | 00:00:00 | 00:00:00 | 00:00:00 | |
| PETON7-10 | 2026-09-02 05:30:48 | 48.70785 | 18.20951 | 94° | 53km/h | 15419m | 4.3m/s | 0°C | 0% | 0hPa | 0V | 00:00:00 | 00:00:00 | 00:00:00 | |
| OE5DXL-15 | 2026-09-02 05:30:47 | 48.70783 | 18.20932 | 95° | 57km/h | 15419m | 4.3m/s | 0°C | 0% | 0hPa | 0V | 00:00:00 | 00:00:00 | 00:00:00 | |
| DO3MHA-11 | 2026-09-02 05:30:42 | 48.70795 | 18.20841 | 98° | 55km/h | 15384m | 4.3m/s | 0°C | 0% | 0hPa | 0V | 00:00:00 | 00:00:00 | 00:00:00 | |
| OE5DRO-10 | 2026-09-02 05:30:37 | 48.70801 | 18.20736 | 97° | 58km/h | 15371m | 3.7m/s | 0°C | 0% | 0hPa | 0V | 00:00:00 | 00:00:00 | 00:00:00 | |
| ATIDSZ-14 | 2026-09-02 05:30:35 | 48.70805 | 18.20692 | 100° | 57km/h | 15367m | 4.6m/s | -51.0°C | 0% | 0hPa | 0V | 00:00:00 | 00:00:00 | 00:00:00 | |
| PETON7-10 | 2026-09-02 05:30:33 | 48.70810 | 18.20650 | 99° | 58km/h | 15355m | 4.2m/s | 0°C | 0% | 0hPa | 0V | 00:00:00 | 00:00:00 | 00:00:00 | |
| DO3MHA-11 | 2026-09-02 05:30:31 | 48.70813 | 18.20609 | 95° | 58km/h | 15346m | 3.5m/s | 0°C | 0% | 0hPa | 0V | 00:00:00 | 00:00:00 | 00:00:00 | |
| OM5KV | 2026-09-02 05:30:30 | 48.70814 | 18.20589 | 94° | 51km/h | 15346m | 3.5m/s | -51.1°C | 0% | 0hPa | 0V | 00:00:00 | 00:00:00 | 00:00:00 | |
| OE3JTB-15 | 2026-09-02 05:30:25 | 48.70821 | 18.20481 | 95° | 64km/h | 15319m | 5.0m/s | 0°C | 0% | 0hPa | 0V | 00:00:00 | 00:00:00 | 00:00:00 | |
| DO3MHA-11 | 2026-09-02 05:30:21 | 48.70826 | 18.20385 | 96° | 62km/h | 15302m | 4.5m/s | 0°C | 0% | 0hPa | 0V | 00:00:00 | 00:00:00 | 00:00:00 | |
| PETON7-10 | 2026-09-02 05:30:18 | 48.70830 | 18.20318 | 95° | 66km/h | 15289m | 3.6m/s | 0°C | 0% | 0hPa | 0V | 00:00:00 | 00:00:00 | 00:00:00 | |
| OM5KV | 2026-09-02 05:30:17 | 48.70832 | 18.20297 | 96° | 58km/h | 15289m | 3.7m/s | 0°C | 0% | 0hPa | 0V | 00:00:00 | 00:00:00 | 00:00:00 | |
| OE5DXL-15 | 2026-09-02 05:30:16 | 48.70833 | 18.20274 | 96° | 66km/h | 15280m | 3.7m/s | 0°C | 0% | 0hPa | 0V | 00:00:00 | 00:00:00 | 00:00:00 | |
| ATIDSZ-14 | 2026-09-02 05:30:15 | 48.70835 | 18.20250 | 97° | 66km/h | 15280m | 3.7m/s | -51.1°C | 0% | 0hPa | 0V | 00:00:00 | 00:00:00 | 00:00:00 | |
| PG1ADW-2 | 2026-09-02 05:30:13 | 48.70837 | 18.20199 | 92° | 66km/h | 15266m | 5.3m/s | 0°C | 0% | 0hPa | 0V | 00:00:00 | 00:00:00 | 00:00:00 | |
| DO3MHA-11 | 2026-09-02 05:30:11 | 48.70838 | 18.20145 | 92° | 66km/h | 15258m | 4.7m/s | 0°C | 0% | 0hPa | 0V | 00:00:00 | 00:00:00 | 00:00:00 | |
| OM5KV | 2026-09-02 05:30:09 | 48.70838 | 18.20092 | 90° | 66km/h | 15253m | 4.2m/s | -51.0°C | 0% | 0hPa | 0V | 00:00:00 | 00:00:00 | 00:00:00 | |
| DO3MHA-11 | 2026-09-02 05:30:01 | 48.70845 | 18.19892 | 98° | 62km/h | 15213m | 4.0m/s | 0°C | 0% | 0hPa | 0V | 00:00:00 | 00:00:00 | 00:00:00 | |
| OE5DRO-10 | 2026-09-02 05:29:59 | 48.70849 | 18.19842 | 97° | 62km/h | 15204m | 4.3m/s | 0°C | 0% | 0hPa | 0V | 00:00:00 | 00:00:00 | 00:00:00 | |
| OE3JTB-15 | 2026-09-02 05:29:56 | 48.70855 | 18.19772 | 98° | 62km/h | 15192m | 5.0m/s | 0°C | 0% | 0hPa | 0V | 00:00:00 | 00:00:00 | 00:00:00 | |
| ATIDSZ-14 | 2026-09-02 05:29:55 | 48.70859 | 18.19727 | 98° | 62km/h | 15188m | 4.1m/s | -50.5°C | 0% | 0hPa | 0V | 00:00:00 | 00:00:00 | 00:00:00 | |
| OM5KV | 2026-09-02 05:29:54 | 48.70859 | 18.19727 | 98° | 62km/h | 15188m | 4.1m/s | -50.5°C | 0% | 0hPa | 0V | 00:00:00 | 00:00:00 | 00:00:00 | |
| PG1ADW-2 | 2026-09-02 05:29:53 | 48.70861 | 18.19702 | 97° | 62km/h | 15179m | 4.9m/s | 0°C | 0% | 0hPa | 0V | 00:00:00 | 00:00:00 | 00:00:00 | |
| DO3MHA-11 | 2026-09-02 05:29:51 | 48.70864 | 18.19656 | 96° | 62km/h | 15170m | 5.0m/s | 0°C | 0% | 0hPa | 0V | 00:00:00 | 00:00:00 | 00:00:00 | |
| PETON7-10 | 2026-09-02 05:29:48 | 48.70869 | 18.19582 | 96° | 62km/h | 15157m | 4.0m/s | 0°C | 0% | 0hPa | 0V | 00:00:00 | 00:00:00 | 00:00:00 | |
| OE5DXL-15 | 2026-09-02 05:29:46 | 48.70873 | 18.19535 | 100° | 64km/h | 15143m | 4.1m/s | 0°C | 0% | 0hPa | 0V | 00:00:00 | 00:00:00 | 00:00:00 | |
| OM5KV | 2026-09-02 05:29:42 | 48.70888 | 18.19443 | 105° | 60km/h | 15135m | 3.6m/s | -50.3°C | 0% | 0hPa | 0V | 00:00:00 | 00:00:00 | 00:00:00 | |
| DO3MHA-11 | 2026-09-02 05:29:41 | 48.70892 | 18.19421 | 105° | 64km/h | 15126m | 3.6m/s | 0°C | 0% | 0hPa | 0V | 00:00:00 | 00:00:00 | 00:00:00 | |
| OE5DRO-10 | 2026-09-02 05:29:40 | 48.70896 | 18.19397 | 104° | 64km/h | 15122m | 4.4m/s | 0°C | 0% | 0hPa | 0V | 00:00:00 | 00:00:00 | 00:00:00 | |
| ATIDSZ-14 | 2026-09-02 05:29:34 | 48.70917 | 18.19255 | 106° | 60km/h | 15100m | 4.5m/s | -50.1°C | 0% | 0hPa | 0V | 00:00:00 | 00:00:00 | 00:00:00 | |
| PG1ADW-2 | 2026-09-02 05:29:33 | 48.70921 | 18.19233 | 108° | 66km/h | 15091m | 4.4m/s | 0°C | 0% | 0hPa | 0V | 00:00:00 | 00:00:00 | 00:00:00 | |
| DO3MHA-11 | 2026-09-02 05:29:31 | 48.70932 | 18.19187 | 110° | 64km/h | 15083m | 4.3m/s | 0°C | 0% | 0hPa | 0V | 00:00:00 | 00:00:00 | 00:00:00 | |
| OM5KV | 2026-09-02 05:29:30 | 48.70936 | 18.19164 | 109° | 62km/h | 15083m | 4.3m/s | -50.2°C | 0% | 0hPa | 0V | 00:00:00 | 00:00:00 | 00:00:00 | |
| OE3JTB-15 | 2026-09-02 05:29:27 | 48.70951 | 18.19095 | 108° | 71km/h | 15065m | 4.9m/s | 0°C | 0% | 0hPa | 0V | 00:00:00 | 00:00:00 | 00:00:00 | |
| OM5KV | 2026-09-02 05:29:24 | 48.70964 | 18.19026 | 105° | 62km/h | 15056m | 4.5m/s | -50.2°C | 0% | 0hPa | 0V | 00:00:00 | 00:00:00 | 00:00:00 | |
| DO3MHA-11 | 2026-09-02 05:29:21 | 48.70977 | 18.18954 | 107° | 69km/h | 15039m | 3.6m/s | 0°C | 0% | 0hPa | 0V | 00:00:00 | 00:00:00 | 00:00:00 | |
| PETON7-10 | 2026-09-02 05:29:18 | 48.70992 | 18.18882 | 109° | 71km/h | 15024m | 4.8m/s | 0°C | 0% | 0hPa | 0V | 00:00:00 | 00:00:00 | 00:00:00 | |
| OE5DXL-15 | 2026-09-02 05:29:16 | 48.71001 | 18.18833 | 106° | 77km/h | 15014m | 5.4m/s | 0°C | 0% | 0hPa | 0V | 00:00:00 | 00:00:00 | 00:00:00 | |
| PG1ADW-2 | 2026-09-02 05:29:13 | 48.71016 | 18.18752 | 105° | 75km/h | 15001m | 5.8m/s | 0°C | 0% | 0hPa | 0V | 00:00:00 | 00:00:00 | 00:00:00 | |
| DO3MHA-11 | 2026-09-02 05:29:11 | 48.71025 | 18.18699 | 105° | 73km/h | 14991m | 5.5m/s | 0°C | 0% | 0hPa | 0V | 00:00:00 | 00:00:00 | 00:00:00 | |
| OM5KV | 2026-09-02 05:29:09 | 48.71039 | 18.18623 | 105° | 71km/h | 14982m | 5.5m/s | -50.2°C | 0% | 0hPa | 0V | 00:00:00 | 00:00:00 | 00:00:00 | |
| PETON7-10 | 2026-09-02 05:29:03 | 48.71055 | 18.18482 | 100° | 80km/h | 14954m | 3.3m/s | 0°C | 0% | 0hPa | 0V | 00:00:00 | 00:00:00 | 00:00:00 | |
| OE5DRO-10 | 2026-09-02 05:29:02 | 48.71058 | 18.18452 | 102° | 80km/h | 14950m | 5.2m/s | 0°C | 0% | 0hPa | 0V | 00:00:00 | 00:00:00 | 00:00:00 | |
| DO3MHA-11 | 2026-09-02 05:29:01 | 48.71062 | 18.18423 | 102° | 78km/h | 14945m | 4.1m/s | 0°C | 0% | 0hPa | 0V | 00:00:00 | 00:00:00 | 00:00:00 | |
| OE3JTB-15 | 2026-09-02 05:28:58 | 48.71075 | 18.18336 | 101° | 82km/h | 14934m | 3.7m/s | 0°C | 0% | 0hPa | 0V | 00:00:00 | 00:00:00 | 00:00:00 | |
| DO3MHA-11 | 2026-09-02 05:28:51 | 48.71092 | 18.18126 | 99° | 80km/h | 14903m | 4.5m/s | 0°C | 0% | 0hPa | 0V | 00:00:00 | 00:00:00 | 00:00:00 | |
| OM5KV | 2026-09-02 05:28:50 | 48.71095 | 18.18094 | 100° | 86km/h | 14903m | 4.5m/s | -50.2°C | 0% | 0hPa | 0V | 00:00:00 | 00:00:00 | 00:00:00 | |
| PETON7-10 | 2026-09-02 05:28:48 | 48.71101 | 18.18029 | 98° | 84km/h | 14890m | 4.5m/s | 0°C | 0% | 0hPa | 0V | 00:00:00 | 00:00:00 | 00:00:00 | |
| OE5DXL-15 | 2026-09-02 05:28:46 | 48.71106 | 18.17967 | 95° | 86km/h | 14882m | 4.9m/s | 0°C | 0% | 0hPa | 0V | 00:00:00 | 00:00:00 | 00:00:00 | |
| OM5KV | 2026-09-02 05:28:44 | 48.71107 | 18.17907 | 91° | 78km/h | 14879m | 3.3m/s | -50.5°C | 0% | 0hPa | 0V | 00:00:00 | 00:00:00 | 00:00:00 | |
| OE5DRO-10 | 2026-09-02 05:28:43 | 48.71108 | 18.17877 | 91° | 86km/h | 14870m | 4.3m/s | 0°C | 0% | 0hPa | 0V | 00:00:00 | 00:00:00 | 00:00:00 | |
| DO3MHA-11 | 2026-09-02 05:28:41 | 48.71109 | 18.17817 | 94° | 88km/h | 14861m | 4.9m/s | 0°C | 0% | 0hPa | 0V | 00:00:00 | 00:00:00 | 00:00:00 | |
| OM5KV | 2026-09-02 05:28:33 | 48.71120 | 18.17515 | 89° | 86km/h | 14829m | 4.3m/s | -51.2°C | 0% | 0hPa | 0V | 00:00:00 | 00:00:00 | 00:00:00 | |
| ATIDSZ-14 | 2026-09-02 05:28:32 | 48.71120 | 18.17515 | 89° | 86km/h | 14829m | 4.3m/s | -51.2°C | 0% | 0hPa | 0V | 00:00:00 | 00:00:00 | 00:00:00 | |
| DO3MHA-11 | 2026-09-02 05:28:31 | 48.71119 | 18.17482 | 87° | 88km/h | 14820m | 3.5m/s | 0°C | 0% | 0hPa | 0V | 00:00:00 | 00:00:00 | 00:00:00 | |
| OE3JTB-15 | 2026-09-02 05:28:29 | 48.71116 | 18.17418 | 90° | 89km/h | 14811m | 3.9m/s | 0°C | 0% | 0hPa | 0V | 00:00:00 | 00:00:00 | 00:00:00 | |
| OM5KV | 2026-09-02 05:28:27 | 48.71116 | 18.17352 | 91° | 88km/h | 14806m | 5.0m/s | -51.5°C | 0% | 0hPa | 0V | 00:00:00 | 00:00:00 | 00:00:00 | |
| OE5DRO-10 | 2026-09-02 05:28:24 | 48.71116 | 18.17250 | 90° | 91km/h | 14789m | 4.3m/s | 0°C | 0% | 0hPa | 0V | 00:00:00 | 00:00:00 | 00:00:00 | |
| DO3MHA-11 | 2026-09-02 05:28:21 | 48.71112 | 18.17144 | 85° | 91km/h | 14777m | 4.1m/s | 0°C | 0% | 0hPa | 0V | 00:00:00 | 00:00:00 | 00:00:00 | |
| PETON7-10 | 2026-09-02 05:28:18 | 48.71106 | 18.17040 | 86° | 91km/h | 14764m | 4.1m/s | 0°C | 0% | 0hPa | 0V | 00:00:00 | 00:00:00 | 00:00:00 | |
| OM5KV | 2026-09-02 05:28:16 | 48.71097 | 18.16866 | 86° | 91km/h | 14747m | 4.7m/s | -51.7°C | 0% | 0hPa | 0V | 00:00:00 | 00:00:00 | 00:00:00 | |
| OM5KV | 2026-09-02 05:28:15 | 48.71097 | 18.16866 | 86° | 91km/h | 14747m | 4.7m/s | -51.7°C | 0% | 0hPa | 0V | 00:00:00 | 00:00:00 | 00:00:00 | |
| PG1ADW-2 | 2026-09-02 05:28:14 | 48.71097 | 18.16866 | 86° | 88km/h | 14743m | 3.9m/s | 0°C | 0% | 0hPa | 0V | 00:00:00 | 00:00:00 | 00:00:00 | |
| ATIDSZ-14 | 2026-09-02 05:28:12 | 48.71095 | 18.16832 | 86° | 91km/h | 14743m | 4.0m/s | -51.8°C | 0% | 0hPa | 0V | 00:00:00 | 00:00:00 | 00:00:00 | |
| DO3MHA-11 | 2026-09-02 05:28:11 | 48.71092 | 18.16797 | 85° | 89km/h | 14735m | 4.1m/s | 0°C | 0% | 0hPa | 0V | 00:00:00 | 00:00:00 | 00:00:00 | |
| OE5DRO-10 | 2026-09-02 05:28:05 | 48.71081 | 18.16589 | 87° | 86km/h | 14710m | 5.2m/s | 0°C | 0% | 0hPa | 0V | 00:00:00 | 00:00:00 | 00:00:00 | |
| OM5KV | 2026-09-02 05:28:04 | 48.71080 | 18.16555 | 88° | 88km/h | 14710m | 5.2m/s | -52.1°C | 0% | 0hPa | 0V | 00:00:00 | 00:00:00 | 00:00:00 | |
| PETON7-10 | 2026-09-02 05:28:03 | 48.71079 | 18.16522 | 88° | 86km/h | 14701m | 5.0m/s | 0°C | 0% | 0hPa | 0V | 00:00:00 | 00:00:00 | 00:00:00 | |
| DO3MHA-11 | 2026-09-02 05:28:01 | 48.71076 | 18.16456 | 86° | 86km/h | 14693m | 4.7m/s | 0°C | 0% | 0hPa | 0V | 00:00:00 | 00:00:00 | 00:00:00 | |
| OE3JTB-15 | 2026-09-02 05:28:00 | 48.71075 | 18.16423 | 86° | 82km/h | 14689m | 3.1m/s | 0°C | 0% | 0hPa | 0V | 00:00:00 | 00:00:00 | 00:00:00 | |
| OM5KV | 2026-09-02 05:27:56 | 48.71065 | 18.16292 | 83° | 86km/h | 14677m | 4.8m/s | -52.5°C | 0% | 0hPa | 0V | 00:00:00 | 00:00:00 | 00:00:00 | |
| PG1ADW-2 | 2026-09-02 05:27:53 | 48.71058 | 18.16196 | 87° | 80km/h | 14660m | 4.2m/s | 0°C | 0% | 0hPa | 0V | 00:00:00 | 00:00:00 | 00:00:00 | |
| DO3MHA-11 | 2026-09-02 05:27:51 | 48.71056 | 18.16132 | 88° | 82km/h | 14651m | 3.9m/s | 0°C | 0% | 0hPa | 0V | 00:00:00 | 00:00:00 | 00:00:00 | |
| OM5KV | 2026-09-02 05:27:49 | 48.71053 | 18.16069 | 85° | 82km/h | 14647m | 5.1m/s | -52.3°C | 0% | 0hPa | 0V | 00:00:00 | 00:00:00 | 00:00:00 | |
| PETON7-10 | 2026-09-02 05:27:48 | 48.71050 | 18.16037 | 83° | 78km/h | 14639m | 4.6m/s | 0°C | 0% | 0hPa | 0V | 00:00:00 | 00:00:00 | 00:00:00 | |
| OE5DXL-15 | 2026-09-02 05:27:46 | 48.71044 | 18.15974 | 80° | 77km/h | 14631m | 4.3m/s | 0°C | 0% | 0hPa | 0V | 00:00:00 | 00:00:00 | 00:00:00 | |
| OM5KV | 2026-09-02 05:27:44 | 48.71037 | 18.15912 | 81° | 80km/h | 14627m | 3.7m/s | -52.6°C | 0% | 0hPa | 0V | 00:00:00 | 00:00:00 | 00:00:00 | |
| DO3MHA-11 | 2026-09-02 05:27:41 | 48.71029 | 18.15823 | 84° | 77km/h | 14610m | 5.5m/s | 0°C | 0% | 0hPa | 0V | 00:00:00 | 00:00:00 | 00:00:00 | |
| OM5KV | 2026-09-02 05:27:39 | 48.71024 | 18.15767 | 85° | 73km/h | 14605m | 4.2m/s | -52.9°C | 0% | 0hPa | 0V | 00:00:00 | 00:00:00 | 00:00:00 | |
| OM5KV | 2026-09-02 05:27:35 | 48.71016 | 18.15652 | 83° | 78km/h | 14587m | 3.4m/s | -52.7°C | 0% | 0hPa | 0V | 00:00:00 | 00:00:00 | 00:00:00 | |
| OM5KV | 2026-09-02 05:27:34 | 48.71011 | 18.15592 | 86° | 80km/h | 14579m | 3.7m/s | -52.7°C | 0% | 0hPa | 0V | 00:00:00 | 00:00:00 | 00:00:00 | |
| PG1ADW-2 | 2026-09-02 05:27:33 | 48.71011 | 18.15591 | 86° | 77km/h | 14574m | 4.9m/s | 0°C | 0% | 0hPa | 0V | 00:00:00 | 00:00:00 | 00:00:00 | |
| DO3MHA-11 | 2026-09-02 05:27:31 | 48.71008 | 18.15532 | 90° | 73km/h | 14566m | 4.7m/s | 0°C | 0% | 0hPa | 0V | 00:00:00 | 00:00:00 | 00:00:00 | |
| ATIDSZ-14 | 2026-09-02 05:27:30 | 48.71008 | 18.15504 | 91° | 73km/h | 14566m | 4.8m/s | -52.8°C | 0% | 0hPa | 0V | 00:00:00 | 00:00:00 | 00:00:00 | |
| OE5DRO-10 | 2026-09-02 05:27:27 | 48.71010 | 18.15424 | 89° | 77km/h | 14550m | 4.1m/s | 0°C | 0% | 0hPa | 0V | 00:00:00 | 00:00:00 | 00:00:00 | |
| OM5KV | 2026-09-02 05:27:24 | 48.71009 | 18.15339 | 88° | 77km/h | 14541m | 4.4m/s | -52.9°C | 0% | 0hPa | 0V | 00:00:00 | 00:00:00 | 00:00:00 | |
| DO3MHA-11 | 2026-09-02 05:27:21 | 48.71006 | 18.15249 | 91° | 77km/h | 14523m | 3.8m/s | 0°C | 0% | 0hPa | 0V | 00:00:00 | 00:00:00 | 00:00:00 | |
| PETON7-10 | 2026-09-02 05:27:18 | 48.71008 | 18.15160 | 93° | 80km/h | 14511m | 5.1m/s | 0°C | 0% | 0hPa | 0V | 00:00:00 | 00:00:00 | 00:00:00 | |
| OM5KV | 2026-09-02 05:27:17 | 48.71009 | 18.15130 | 94° | 77km/h | 14511m | 5.1m/s | -53.4°C | 0% | 0hPa | 0V | 00:00:00 | 00:00:00 | 00:00:00 | |
| OE5DXL-15 | 2026-09-02 05:27:16 | 48.71010 | 18.15100 | 93° | 82km/h | 14503m | 4.6m/s | 0°C | 0% | 0hPa | 0V | 00:00:00 | 00:00:00 | 00:00:00 | |
| PG1ADW-2 | 2026-09-02 05:27:13 | 48.71012 | 18.15014 | 92° | 84km/h | 14490m | 4.0m/s | 0°C | 0% | 0hPa | 0V | 00:00:00 | 00:00:00 | 00:00:00 | |
| DO3MHA-11 | 2026-09-02 05:27:11 | 48.71014 | 18.14955 | 92° | 84km/h | 14478m | 4.7m/s | 0°C | 0% | 0hPa | 0V | 00:00:00 | 00:00:00 | 00:00:00 | |
| ATIDSZ-14 | 2026-09-02 05:27:10 | 48.71014 | 18.14925 | 92° | 80km/h | 14482m | 3.7m/s | -53.6°C | 0% | 0hPa | 0V | 00:00:00 | 00:00:00 | 00:00:00 | |
| OE5DRO-10 | 2026-09-02 05:27:08 | 48.71016 | 18.14861 | 93° | 86km/h | 14469m | 4.9m/s | 0°C | 0% | 0hPa | 0V | 00:00:00 | 00:00:00 | 00:00:00 | |
| OM5KV | 2026-09-02 05:27:06 | 48.71016 | 18.14794 | 89° | 88km/h | 14465m | 3.4m/s | -53.6°C | 0% | 0hPa | 0V | 00:00:00 | 00:00:00 | 00:00:00 | |
| OM5KV | 2026-09-02 05:27:05 | 48.71016 | 18.14760 | 89° | 88km/h | 14460m | 5.8m/s | -53.5°C | 0% | 0hPa | 0V | 00:00:00 | 00:00:00 | 00:00:00 | |
| PETON7-10 | 2026-09-02 05:27:03 | 48.71013 | 18.14696 | 82° | 84km/h | 14447m | 5.5m/s | 0°C | 0% | 0hPa | 0V | 00:00:00 | 00:00:00 | 00:00:00 | |
| OE3JTB-15 | 2026-09-02 05:27:02 | 48.71010 | 18.14664 | 82° | 88km/h | 14442m | 3.4m/s | 0°C | 0% | 0hPa | 0V | 00:00:00 | 00:00:00 | 00:00:00 | |
| OM5KV | 2026-09-02 05:26:59 | 48.71001 | 18.14570 | 85° | 84km/h | 14433m | 4.0m/s | -53.7°C | 0% | 0hPa | 0V | 00:00:00 | 00:00:00 | 00:00:00 | |
| OM5KV | 2026-09-02 05:26:56 | 48.70988 | 18.14441 | 81° | 84km/h | 14412m | 5.5m/s | -53.7°C | 0% | 0hPa | 0V | 00:00:00 | 00:00:00 | 00:00:00 | |
| PG1ADW-2 | 2026-09-02 05:26:53 | 48.70980 | 18.14377 | 80° | 88km/h | 14399m | 5.5m/s | 0°C | 0% | 0hPa | 0V | 00:00:00 | 00:00:00 | 00:00:00 | |
| OM5KV | 2026-09-02 05:26:51 | 48.70971 | 18.14312 | 77° | 84km/h | 14394m | 4.5m/s | -53.6°C | 0% | 0hPa | 0V | 00:00:00 | 00:00:00 | 00:00:00 | |
| OE5DRO-10 | 2026-09-02 05:26:49 | 48.70962 | 18.14251 | 79° | 88km/h | 14381m | 5.3m/s | 0°C | 0% | 0hPa | 0V | 00:00:00 | 00:00:00 | 00:00:00 | |
| PETON7-10 | 2026-09-02 05:26:48 | 48.70958 | 18.14221 | 77° | 89km/h | 14377m | 2.3m/s | 0°C | 0% | 0hPa | 0V | 00:00:00 | 00:00:00 | 00:00:00 | |
| OE5DXL-15 | 2026-09-02 05:26:46 | 48.70948 | 18.14157 | 80° | 86km/h | 14367m | 4.9m/s | 0°C | 0% | 0hPa | 0V | 00:00:00 | 00:00:00 | 00:00:00 | |
| PG1ADW-2 | 2026-09-02 05:26:33 | 48.70863 | 18.13728 | 73° | 82km/h | 14309m | 4.0m/s | 0°C | 0% | 0hPa | 0V | 00:00:00 | 00:00:00 | 00:00:00 | |
| OM5KV | 2026-09-02 05:26:32 | 48.70843 | 18.13667 | 72° | 82km/h | 14305m | 4.7m/s | -54.4°C | 0% | 0hPa | 0V | 00:00:00 | 00:00:00 | 00:00:00 | |
| OE5DRO-10 | 2026-09-02 05:26:30 | 48.70843 | 18.13637 | 70° | 80km/h | 14296m | 4.2m/s | 0°C | 0% | 0hPa | 0V | 00:00:00 | 00:00:00 | 00:00:00 | |
| ATIDSZ-14 | 2026-09-02 05:26:29 | 48.70835 | 18.13608 | 71° | 82km/h | 14296m | 4.2m/s | -54.4°C | 0% | 0hPa | 0V | 00:00:00 | 00:00:00 | 00:00:00 | |
| PETON7-10 | 2026-09-02 05:26:18 | 48.70766 | 18.13287 | 73° | 78km/h | 14242m | 3.3m/s | 0°C | 0% | 0hPa | 0V | 00:00:00 | 00:00:00 | 00:00:00 | |
| OE5DXL-15 | 2026-09-02 05:26:16 | 48.70755 | 18.13228 | 76° | 75km/h | 14233m | 4.0m/s | 0°C | 0% | 0hPa | 0V | 00:00:00 | 00:00:00 | 00:00:00 | |
| PG1ADW-2 | 2026-09-02 05:26:13 | 48.70738 | 18.13135 | 75° | 75km/h | 14219m | 4.1m/s | 0°C | 0% | 0hPa | 0V | 00:00:00 | 00:00:00 | 00:00:00 | |
| OE5DRO-10 | 2026-09-02 05:26:11 | 48.70727 | 18.13077 | 74° | 73km/h | 14208m | 4.9m/s | 0°C | 0% | 0hPa | 0V | 00:00:00 | 00:00:00 | 00:00:00 | |
| ATIDSZ-14 | 2026-09-02 05:26:08 | 48.70712 | 18.12994 | 78° | 73km/h | 14198m | 5.9m/s | -53.8°C | 0% | 0hPa | 0V | 00:00:00 | 00:00:00 | 00:00:00 | |
| OM5KV | 2026-09-02 05:26:05 | 48.70699 | 18.12911 | 79° | 73km/h | 14184m | 5.9m/s | -53.8°C | 0% | 0hPa | 0V | 00:00:00 | 00:00:00 | 00:00:00 | |
| OE3JTB-15 | 2026-09-02 05:26:04 | 48.70695 | 18.12883 | 79° | 73km/h | 14173m | 4.7m/s | 0°C | 0% | 0hPa | 0V | 00:00:00 | 00:00:00 | 00:00:00 | |
| PETON7-10 | 2026-09-02 05:26:03 | 48.70692 | 18.12856 | 80° | 73km/h | 14169m | 3.2m/s | 0°C | 0% | 0hPa | 0V | 00:00:00 | 00:00:00 | 00:00:00 | |
| OM5KV | 2026-09-02 05:26:02 | 48.70688 | 18.12828 | 80° | 75km/h | 14169m | 3.2m/s | -53.7°C | 0% | 0hPa | 0V | 00:00:00 | 00:00:00 | 00:00:00 | |
| OM5KV | 2026-09-02 05:25:59 | 48.70675 | 18.12715 | 78° | 75km/h | 14150m | 4.0m/s | -53.6°C | 0% | 0hPa | 0V | 00:00:00 | 00:00:00 | 00:00:00 | |
| OM5KV | 2026-09-02 05:25:55 | 48.70663 | 18.12634 | 79° | 69km/h | 14136m | 3.8m/s | -53.5°C | 0% | 0hPa | 0V | 00:00:00 | 00:00:00 | 00:00:00 | |
| PG1ADW-2 | 2026-09-02 05:25:53 | 48.70655 | 18.12582 | 80° | 73km/h | 14124m | 4.9m/s | 0°C | 0% | 0hPa | 0V | 00:00:00 | 00:00:00 | 00:00:00 | |
| OE5DRO-10 | 2026-09-02 05:25:52 | 48.70652 | 18.12554 | 86° | 73km/h | 14119m | 4.0m/s | 0°C | 0% | 0hPa | 0V | 00:00:00 | 00:00:00 | 00:00:00 | |
| OM5KV | 2026-09-02 05:25:49 | 48.70647 | 18.12472 | 84° | 73km/h | 14110m | 4.3m/s | -53.5°C | 0% | 0hPa | 0V | 00:00:00 | 00:00:00 | 00:00:00 | |
| PETON7-10 | 2026-09-02 05:25:48 | 48.70644 | 18.12445 | 84° | 73km/h | 14101m | 5.4m/s | 0°C | 0% | 0hPa | 0V | 00:00:00 | 00:00:00 | 00:00:00 | |
| OE5DXL-15 | 2026-09-02 05:25:46 | 48.70639 | 18.12387 | 83° | 75km/h | 14096m | 4.2m/s | 0°C | 0% | 0hPa | 0V | 00:00:00 | 00:00:00 | 00:00:00 | |
| OM5KV | 2026-09-02 05:25:38 | 48.70631 | 18.12141 | 88° | 73km/h | 14055m | 3.6m/s | -53.5°C | 0% | 0hPa | 0V | 00:00:00 | 00:00:00 | 00:00:00 | |
| OM5KV | 2026-09-02 05:25:37 | 48.70631 | 18.12141 | 88° | 73km/h | 14055m | 3.6m/s | -53.5°C | 0% | 0hPa | 0V | 00:00:00 | 00:00:00 | 00:00:00 | |
| OE3JTB-15 | 2026-09-02 05:25:35 | 48.70629 | 18.12084 | 87° | 78km/h | 14041m | 5.6m/s | 0°C | 0% | 0hPa | 0V | 00:00:00 | 00:00:00 | 00:00:00 | |
| PETON7-10 | 2026-09-02 05:25:33 | 48.70627 | 18.12030 | 86° | 77km/h | 14033m | 4.4m/s | 0°C | 0% | 0hPa | 0V | 00:00:00 | 00:00:00 | 00:00:00 | |
| OM5KV | 2026-09-02 05:25:32 | 48.70625 | 18.12000 | 87° | 75km/h | 14033m | 4.4m/s | -53.5°C | 0% | 0hPa | 0V | 00:00:00 | 00:00:00 | 00:00:00 | |
| ATIDSZ-14 | 2026-09-02 05:25:27 | 48.70621 | 18.11854 | 87° | 77km/h | 14011m | 5.0m/s | -53.5°C | 0% | 0hPa | 0V | 00:00:00 | 00:00:00 | 00:00:00 | |
| OM5KV | 2026-09-02 05:25:26 | 48.70619 | 18.11824 | 86° | 77km/h | 14007m | 3.6m/s | -53.6°C | 0% | 0hPa | 0V | 00:00:00 | 00:00:00 | 00:00:00 | |
| OM5KV | 2026-09-02 05:25:25 | 48.70618 | 18.11795 | 84° | 75km/h | 14003m | 5.1m/s | -53.6°C | 0% | 0hPa | 0V | 00:00:00 | 00:00:00 | 00:00:00 | |
| OM5KV | 2026-09-02 05:25:21 | 48.70602 | 18.11651 | 82° | 78km/h | 13981m | 5.0m/s | -53.7°C | 0% | 0hPa | 0V | 00:00:00 | 00:00:00 | 00:00:00 | |
| PETON7-10 | 2026-09-02 05:25:18 | 48.70597 | 18.11592 | 82° | 80km/h | 13968m | 3.5m/s | 0°C | 0% | 0hPa | 0V | 00:00:00 | 00:00:00 | 00:00:00 | |
| OE5DXL-15 | 2026-09-02 05:25:16 | 48.70591 | 18.11533 | 82° | 78km/h | 13960m | 4.6m/s | 0°C | 0% | 0hPa | 0V | 00:00:00 | 00:00:00 | 00:00:00 | |
| OE5DRO-10 | 2026-09-02 05:25:14 | 48.70585 | 18.11472 | 81° | 78km/h | 13951m | 4.9m/s | 0°C | 0% | 0hPa | 0V | 00:00:00 | 00:00:00 | 00:00:00 | |
| OM5KV | 2026-09-02 05:25:13 | 48.70577 | 18.11411 | 79° | 80km/h | 13947m | 4.0m/s | -53.7°C | 0% | 0hPa | 0V | 00:00:00 | 00:00:00 | 00:00:00 | |
| OM5KV | 2026-09-02 05:25:07 | 48.70555 | 18.11260 | 77° | 78km/h | 13924m | 5.1m/s | -53.6°C | 0% | 0hPa | 0V | 00:00:00 | 00:00:00 | 00:00:00 | |
| OE3JTB-15 | 2026-09-02 05:25:06 | 48.70550 | 18.11230 | 77° | 77km/h | 13915m | 5.3m/s | 0°C | 0% | 0hPa | 0V | 00:00:00 | 00:00:00 | 00:00:00 | |
| PETON7-10 | 2026-09-02 05:25:03 | 48.70537 | 18.11145 | 79° | 78km/h | 13902m | 3.7m/s | 0°C | 0% | 0hPa | 0V | 00:00:00 | 00:00:00 | 00:00:00 | |
| OE5DRO-10 | 2026-09-02 05:24:55 | 48.70495 | 18.10916 | 72° | 77km/h | 13866m | 4.3m/s | 0°C | 0% | 0hPa | 0V | 00:00:00 | 00:00:00 | 00:00:00 | |
| PG1ADW-2 | 2026-09-02 05:24:53 | 48.70482 | 18.10859 | 71° | 77km/h | 13857m | 4.2m/s | 0°C | 0% | 0hPa | 0V | 00:00:00 | 00:00:00 | 00:00:00 | |
| PETON7-10 | 2026-09-02 05:24:48 | 48.70449 | 18.10720 | 69° | 77km/h | 13832m | 4.9m/s | 0°C | 0% | 0hPa | 0V | 00:00:00 | 00:00:00 | 00:00:00 | |
| OE5DXL-15 | 2026-09-02 05:24:46 | 48.70436 | 18.10666 | 70° | 73km/h | 13791m | 4.8m/s | 0°C | 0% | 0hPa | 0V | 00:00:00 | 00:00:00 | 00:00:00 | |
| OE3JTB-15 | 2026-09-02 05:24:37 | 48.70364 | 18.10424 | 65° | 73km/h | 13782m | 4.6m/s | 0°C | 0% | 0hPa | 0V | 00:00:00 | 00:00:00 | 00:00:00 | |
| OE5DRO-10 | 2026-09-02 05:24:36 | 48.70356 | 18.10398 | 65° | 73km/h | 13778m | 4.6m/s | 0°C | 0% | 0hPa | 0V | 00:00:00 | 00:00:00 | 00:00:00 | |
| PETON7-10 | 2026-09-02 05:24:33 | 48.70333 | 18.10321 | 65° | 73km/h | 13764m | 3.4m/s | 0°C | 0% | 0hPa | 0V | 00:00:00 | 00:00:00 | 00:00:00 | |
| ATIDSZ-14 | 2026-09-02 05:24:26 | 48.70277 | 18.10143 | 67° | 73km/h | 13736m | 5.3m/s | -52.9°C | 0% | 0hPa | 0V | 00:00:00 | 00:00:00 | 00:00:00 | |
| OM5KV | 2026-09-02 05:24:24 | 48.70261 | 18.10092 | 66° | 73km/h | 13726m | 5.7m/s | -52.9°C | 0% | 0hPa | 0V | 00:00:00 | 00:00:00 | 00:00:00 | |
| PETON7-10 | 2026-09-02 05:24:18 | 48.70214 | 18.09941 | 66° | 71km/h | 13694m | 4.6m/s | 0°C | 0% | 0hPa | 0V | 00:00:00 | 00:00:00 | 00:00:00 | |
| OE5DRO-10 | 2026-09-02 05:24:17 | 48.70206 | 18.09916 | 65° | 71km/h | 13689m | 5.2m/s | 0°C | 0% | 0hPa | 0V | 00:00:00 | 00:00:00 | 00:00:00 | |
| OM5KV | 2026-09-02 05:24:16 | 48.70198 | 18.09891 | 65° | 73km/h | 13689m | 5.3m/s | -52.6°C | 0% | 0hPa | 0V | 00:00:00 | 00:00:00 | 00:00:00 | |
| PG1ADW-2 | 2026-09-02 05:24:13 | 48.70174 | 18.09819 | 64° | 71km/h | 13671m | 5.2m/s | 0°C | 0% | 0hPa | 0V | 00:00:00 | 00:00:00 | 00:00:00 | |
| OE5DXL-15 | 2026-09-02 05:24:11 | 48.70157 | 18.09769 | 65° | 69km/h | 13666m | 4.0m/s | 0°C | 0% | 0hPa | 0V | 00:00:00 | 00:00:00 | 00:00:00 | |
| OE3JTB-15 | 2026-09-02 05:24:08 | 48.70136 | 18.09694 | 67° | 69km/h | 13648m | 4.7m/s | 0°C | 0% | 0hPa | 0V | 00:00:00 | 00:00:00 | 00:00:00 | |
| ATIDSZ-14 | 2026-09-02 05:24:05 | 48.70112 | 18.09619 | 63° | 71km/h | 13639m | 4.5m/s | -52.3°C | 0% | 0hPa | 0V | 00:00:00 | 00:00:00 | 00:00:00 | |
| OE5DRO-10 | 2026-09-02 05:23:58 | 48.70055 | 18.09449 | 66° | 68km/h | 13602m | 4.6m/s | 0°C | 0% | 0hPa | 0V | 00:00:00 | 00:00:00 | 00:00:00 | |
| PG1ADW-2 | 2026-09-02 05:23:53 | 48.70019 | 18.09331 | 65° | 68km/h | 13578m | 4.3m/s | 0°C | 0% | 0hPa | 0V | 00:00:00 | 00:00:00 | 00:00:00 | |
| OM5KV | 2026-09-02 05:23:48 | 48.69973 | 18.09187 | 65° | 69km/h | 13554m | 5.4m/s | -51.9°C | 0% | 0hPa | 0V | 00:00:00 | 00:00:00 | 00:00:00 | |
| ATIDSZ-14 | 2026-09-02 05:23:45 | 48.69958 | 18.09140 | 67° | 68km/h | 13545m | 5.6m/s | -51.8°C | 0% | 0hPa | 0V | 00:00:00 | 00:00:00 | 00:00:00 | |
| OE5DXL-15 | 2026-09-02 05:23:41 | 48.69933 | 18.09047 | 65° | 66km/h | 13522m | 4.3m/s | 0°C | 0% | 0hPa | 0V | 00:00:00 | 00:00:00 | 00:00:00 | |
| OE3JTB-15 | 2026-09-02 05:23:39 | 48.69918 | 18.09001 | 63° | 66km/h | 13512m | 3.3m/s | 0°C | 0% | 0hPa | 0V | 00:00:00 | 00:00:00 | 00:00:00 | |
| OM5KV | 2026-09-02 05:23:37 | 48.69895 | 18.08932 | 68° | 71km/h | 13504m | 4.3m/s | -51.8°C | 0% | 0hPa | 0V | 00:00:00 | 00:00:00 | 00:00:00 | |
| OM5KV | 2026-09-02 05:23:35 | 48.69889 | 18.08907 | 71° | 69km/h | 13500m | 4.3m/s | -51.7°C | 0% | 0hPa | 0V | 00:00:00 | 00:00:00 | 00:00:00 | |
| PG1ADW-2 | 2026-09-02 05:23:33 | 48.69878 | 18.08858 | 74° | 64km/h | 13485m | 6.4m/s | 0°C | 0% | 0hPa | 0V | 00:00:00 | 00:00:00 | 00:00:00 | |
| OM5KV | 2026-09-02 05:23:31 | 48.69860 | 18.08765 | 73° | 60km/h | 13471m | 4.2m/s | -51.5°C | 0% | 0hPa | 0V | 00:00:00 | 00:00:00 | 00:00:00 | |
| OM5KV | 2026-09-02 05:23:28 | 48.69855 | 18.08743 | 71° | 62km/h | 13466m | 5.0m/s | -51.5°C | 0% | 0hPa | 0V | 00:00:00 | 00:00:00 | 00:00:00 | |
| ATIDSZ-14 | 2026-09-02 05:23:24 | 48.69834 | 18.08648 | 74° | 68km/h | 13448m | 5.2m/s | -51.3°C | 0% | 0hPa | 0V | 00:00:00 | 00:00:00 | 00:00:00 | |
| OM5KV | 2026-09-02 05:23:23 | 48.69829 | 18.08623 | 74° | 69km/h | 13443m | 4.3m/s | -51.4°C | 0% | 0hPa | 0V | 00:00:00 | 00:00:00 | 00:00:00 | |
| OM5KV | 2026-09-02 05:23:22 | 48.69824 | 18.08597 | 75° | 69km/h | 13438m | 5.4m/s | -51.4°C | 0% | 0hPa | 0V | 00:00:00 | 00:00:00 | 00:00:00 | |
| OE5DRO-10 | 2026-09-02 05:23:18 | 48.69808 | 18.08499 | 78° | 64km/h | 13415m | 5.2m/s | 0°C | 0% | 0hPa | 0V | 00:00:00 | 00:00:00 | 00:00:00 | |
| PG1ADW-2 | 2026-09-02 05:23:13 | 48.69788 | 18.08386 | 76° | 66km/h | 13391m | 4.5m/s | 0°C | 0% | 0hPa | 0V | 00:00:00 | 00:00:00 | 00:00:00 | |
| OE5DXL-15 | 2026-09-02 05:23:11 | 48.69780 | 18.08335 | 78° | 69km/h | 13382m | 3.5m/s | 0°C | 0% | 0hPa | 0V | 00:00:00 | 00:00:00 | 00:00:00 | |
| OE3JTB-15 | 2026-09-02 05:23:10 | 48.69776 | 18.08310 | 80° | 68km/h | 13378m | 4.9m/s | 0°C | 0% | 0hPa | 0V | 00:00:00 | 00:00:00 | 00:00:00 | |
| OM5KV | 2026-09-02 05:23:08 | 48.69767 | 18.08234 | 80° | 64km/h | 13373m | 4.7m/s | -50.9°C | 0% | 0hPa | 0V | 00:00:00 | 00:00:00 | 00:00:00 | |
| ATIDSZ-14 | 2026-09-02 05:23:04 | 48.69758 | 18.08167 | 77° | 58km/h | 13354m | 4.3m/s | -50.8°C | 0% | 0hPa | 0V | 00:00:00 | 00:00:00 | 00:00:00 | |
| PETON7-10 | 2026-09-02 05:23:03 | 48.69755 | 18.08145 | 78° | 68km/h | 13345m | 4.5m/s | 0°C | 0% | 0hPa | 0V | 00:00:00 | 00:00:00 | 00:00:00 | |
| OE5DRO-10 | 2026-09-02 05:22:59 | 48.69743 | 18.08045 | 81° | 69km/h | 13322m | 4.4m/s | 0°C | 0% | 0hPa | 0V | 00:00:00 | 00:00:00 | 00:00:00 | |
| OM5KV | 2026-09-02 05:22:58 | 48.69740 | 18.08019 | 83° | 69km/h | 13327m | 5.7m/s | -50.7°C | 0% | 0hPa | 0V | 00:00:00 | 00:00:00 | 00:00:00 | |
| PG1ADW-2 | 2026-09-02 05:22:53 | 48.69730 | 18.07892 | 83° | 69km/h | 13298m | 4.5m/s | 0°C | 0% | 0hPa | 0V | 00:00:00 | 00:00:00 | 00:00:00 | |
| OM5KV | 2026-09-02 05:22:49 | 48.69720 | 18.07784 | 84° | 73km/h | 13285m | 4.6m/s | -50.7°C | 0% | 0hPa | 0V | 00:00:00 | 00:00:00 | 00:00:00 | |
| PETON7-10 | 2026-09-02 05:22:48 | 48.69718 | 18.07756 | 85° | 68km/h | 13276m | 5.3m/s | 0°C | 0% | 0hPa | 0V | 00:00:00 | 00:00:00 | 00:00:00 | |
| ATIDSZ-14 | 2026-09-02 05:22:43 | 48.69713 | 18.07617 | 89° | 68km/h | 13258m | 4.2m/s | -50.6°C | 0% | 0hPa | 0V | 00:00:00 | 00:00:00 | 00:00:00 | |
| OE5DXL-15 | 2026-09-02 05:22:41 | 48.69711 | 18.07566 | 85° | 71km/h | 13244m | 4.9m/s | 0°C | 0% | 0hPa | 0V | 00:00:00 | 00:00:00 | 00:00:00 | |
| OE5DRO-10 | 2026-09-02 05:22:40 | 48.69709 | 18.07542 | 85° | 69km/h | 13240m | 3.8m/s | 0°C | 0% | 0hPa | 0V | 00:00:00 | 00:00:00 | 00:00:00 | |
| OM5KV | 2026-09-02 05:22:38 | 48.69706 | 18.07495 | 84° | 64km/h | 13235m | 5.0m/s | -50.6°C | 0% | 0hPa | 0V | 00:00:00 | 00:00:00 | 00:00:00 | |
| PG1ADW-2 | 2026-09-02 05:22:33 | 48.69698 | 18.07368 | 88° | 73km/h | 13208m | 5.1m/s | 0°C | 0% | 0hPa | 0V | 00:00:00 | 00:00:00 | 00:00:00 | |
| OM5KV | 2026-09-02 05:22:32 | 48.69698 | 18.07341 | 90° | 69km/h | 13208m | 5.2m/s | -50.4°C | 0% | 0hPa | 0V | 00:00:00 | 00:00:00 | 00:00:00 | |
| ATIDSZ-14 | 2026-09-02 05:22:22 | 48.69687 | 18.07070 | 85° | 71km/h | 13159m | 4.8m/s | -50.2°C | 0% | 0hPa | 0V | 00:00:00 | 00:00:00 | 00:00:00 | |
| OE5DRO-10 | 2026-09-02 05:22:21 | 48.69685 | 18.07043 | 87° | 77km/h | 13150m | 4.7m/s | 0°C | 0% | 0hPa | 0V | 00:00:00 | 00:00:00 | 00:00:00 | |
| PETON7-10 | 2026-09-02 05:22:18 | 48.69682 | 18.06959 | 89° | 78km/h | 13137m | 4.4m/s | 0°C | 0% | 0hPa | 0V | 00:00:00 | 00:00:00 | 00:00:00 | |
| PG1ADW-2 | 2026-09-02 05:22:13 | 48.69681 | 18.06812 | 88° | 82km/h | 13113m | 5.8m/s | 0°C | 0% | 0hPa | 0V | 00:00:00 | 00:00:00 | 00:00:00 | |
| OM5KV | 2026-09-02 05:22:12 | 48.69680 | 18.06754 | 90° | 75km/h | 13108m | 3.9m/s | -50.0°C | 0% | 0hPa | 0V | 00:00:00 | 00:00:00 | 00:00:00 | |
| OE5DXL-15 | 2026-09-02 05:22:11 | 48.69680 | 18.06754 | 89° | 84km/h | 13103m | 5.9m/s | 0°C | 0% | 0hPa | 0V | 00:00:00 | 00:00:00 | 00:00:00 | |
| OM5KV | 2026-09-02 05:22:06 | 48.69677 | 18.06605 | 90° | 80km/h | 13083m | 5.1m/s | -50.4°C | 0% | 0hPa | 0V | 00:00:00 | 00:00:00 | 00:00:00 | |
| PETON7-10 | 2026-09-02 05:22:03 | 48.69677 | 18.06513 | 92° | 86km/h | 13064m | 5.2m/s | 0°C | 0% | 0hPa | 0V | 00:00:00 | 00:00:00 | 00:00:00 | |
| OE5DRO-10 | 2026-09-02 05:22:02 | 48.69677 | 18.06484 | 87° | 86km/h | 13059m | 4.9m/s | 0°C | 0% | 0hPa | 0V | 00:00:00 | 00:00:00 | 00:00:00 | |
| OM5KV | 2026-09-02 05:21:54 | 48.69663 | 18.06223 | 86° | 84km/h | 13027m | 4.3m/s | -50.6°C | 0% | 0hPa | 0V | 00:00:00 | 00:00:00 | 00:00:00 | |
| PG1ADW-2 | 2026-09-02 05:21:53 | 48.69661 | 18.06191 | 84° | 86km/h | 13017m | 4.4m/s | 0°C | 0% | 0hPa | 0V | 00:00:00 | 00:00:00 | 00:00:00 | |
| OM5KV | 2026-09-02 05:21:50 | 48.69654 | 18.06094 | 85° | 88km/h | 13009m | 3.9m/s | -50.6°C | 0% | 0hPa | 0V | 00:00:00 | 00:00:00 | 00:00:00 | |
| OM5KV | 2026-09-02 05:21:49 | 48.69651 | 18.06061 | 83° | 89km/h | 13004m | 4.8m/s | -50.6°C | 0% | 0hPa | 0V | 00:00:00 | 00:00:00 | 00:00:00 | |
| PETON7-10 | 2026-09-02 05:21:48 | 48.69648 | 18.06027 | 82° | 86km/h | 12995m | 4.4m/s | 0°C | 0% | 0hPa | 0V | 00:00:00 | 00:00:00 | 00:00:00 | |
| OM5KV | 2026-09-02 05:21:44 | 48.69637 | 18.05889 | 83° | 88km/h | 12982m | 4.0m/s | -50.5°C | 0% | 0hPa | 0V | 00:00:00 | 00:00:00 | 00:00:00 | |
| OE3JTB-15 | 2026-09-02 05:21:43 | 48.69634 | 18.05856 | 83° | 82km/h | 12973m | 3.9m/s | 0°C | 0% | 0hPa | 0V | 00:00:00 | 00:00:00 | 00:00:00 | |
| OM5KV | 2026-09-02 05:21:42 | 48.69632 | 18.05824 | 85° | 82km/h | 12973m | 3.9m/s | -50.5°C | 0% | 0hPa | 0V | 00:00:00 | 00:00:00 | 00:00:00 | |
| OE5DXL-15 | 2026-09-02 05:21:41 | 48.69630 | 18.05793 | 84° | 82km/h | 12939m | 3.4m/s | 0°C | 0% | 0hPa | 0V | 00:00:00 | 00:00:00 | 00:00:00 | |
| OM5KV | 2026-09-02 05:21:35 | 48.69616 | 18.05606 | 85° | 84km/h | 12943m | 4.6m/s | -50.5°C | 0% | 0hPa | 0V | 00:00:00 | 00:00:00 | 00:00:00 | |
| PG1ADW-2 | 2026-09-02 05:21:33 | 48.69612 | 18.05542 | 84° | 82km/h | 12931m | 4.6m/s | 0°C | 0% | 0hPa | 0V | 00:00:00 | 00:00:00 | 00:00:00 | |
| OM5KV | 2026-09-02 05:21:28 | 48.69594 | 18.05386 | 82° | 84km/h | 12914m | 4.8m/s | -50.5°C | 0% | 0hPa | 0V | 00:00:00 | 00:00:00 | 00:00:00 | |
| OE5DRO-10 | 2026-09-02 05:21:24 | 48.69583 | 18.05258 | 85° | 84km/h | 12892m | 3.2m/s | 0°C | 0% | 0hPa | 0V | 00:00:00 | 00:00:00 | 00:00:00 | |
| OM5KV | 2026-09-02 05:21:22 | 48.69579 | 18.05193 | 86° | 84km/h | 12888m | 4.7m/s | -50.8°C | 0% | 0hPa | 0V | 00:00:00 | 00:00:00 | 00:00:00 | |
| ATIDSZ-14 | 2026-09-02 05:21:21 | 48.69577 | 18.05162 | 85° | 82km/h | 12884m | 4.0m/s | -50.8°C | 0% | 0hPa | 0V | 00:00:00 | 00:00:00 | 00:00:00 | |
| PETON7-10 | 2026-09-02 05:21:18 | 48.69570 | 18.05070 | 85° | 84km/h | 12867m | 4.7m/s | 0°C | 0% | 0hPa | 0V | 00:00:00 | 00:00:00 | 00:00:00 | |
| OE3JTB-15 | 2026-09-02 05:21:14 | 48.69561 | 18.04947 | 84° | 86km/h | 12851m | 4.7m/s | 0°C | 0% | 0hPa | 0V | 00:00:00 | 00:00:00 | 00:00:00 | |
| PG1ADW-2 | 2026-09-02 05:21:13 | 48.69559 | 18.04916 | 84° | 86km/h | 12847m | 3.9m/s | 0°C | 0% | 0hPa | 0V | 00:00:00 | 00:00:00 | 00:00:00 | |
| OE5DXL-15 | 2026-09-02 05:21:11 | 48.69553 | 18.04852 | 84° | 88km/h | 12834m | 4.4m/s | 0°C | 0% | 0hPa | 0V | 00:00:00 | 00:00:00 | 00:00:00 | |
| OM5KV | 2026-09-02 05:21:09 | 48.69545 | 18.04754 | 83° | 86km/h | 12830m | 3.7m/s | -51.2°C | 0% | 0hPa | 0V | 00:00:00 | 00:00:00 | 00:00:00 | |
| OE5DRO-10 | 2026-09-02 05:21:05 | 48.69537 | 18.04654 | 83° | 88km/h | 12813m | 4.5m/s | 0°C | 0% | 0hPa | 0V | 00:00:00 | 00:00:00 | 00:00:00 | |
| PETON7-10 | 2026-09-02 05:21:03 | 48.69532 | 18.04586 | 85° | 86km/h | 12805m | 4.7m/s | 0°C | 0% | 0hPa | 0V | 00:00:00 | 00:00:00 | 00:00:00 | |
| OM5KV | 2026-09-02 05:21:02 | 48.69530 | 18.04552 | 86° | 88km/h | 12805m | 4.8m/s | -51.4°C | 0% | 0hPa | 0V | 00:00:00 | 00:00:00 | 00:00:00 | |
| ATIDSZ-14 | 2026-09-02 05:21:00 | 48.69526 | 18.04488 | 87° | 82km/h | 12797m | 4.8m/s | -51.4°C | 0% | 0hPa | 0V | 00:00:00 | 00:00:00 | 00:00:00 | |
| PG1ADW-2 | 2026-09-02 05:20:53 | 48.69517 | 18.04262 | 89° | 91km/h | 12766m | 3.0m/s | 0°C | 0% | 0hPa | 0V | 00:00:00 | 00:00:00 | 00:00:00 | |
| OM5KV | 2026-09-02 05:20:50 | 48.69514 | 18.04161 | 88° | 91km/h | 12759m | 2.9m/s | -51.7°C | 0% | 0hPa | 0V | 00:00:00 | 00:00:00 | 00:00:00 | |
| PETON7-10 | 2026-09-02 05:20:48 | 48.69512 | 18.04093 | 87° | 91km/h | 12747m | 4.2m/s | 0°C | 0% | 0hPa | 0V | 00:00:00 | 00:00:00 | 00:00:00 | |
| OE5DRO-10 | 2026-09-02 05:20:46 | 48.69509 | 18.04023 | 86° | 91km/h | 12738m | 4.3m/s | 0°C | 0% | 0hPa | 0V | 00:00:00 | 00:00:00 | 00:00:00 | |
| OE3JTB-15 | 2026-09-02 05:20:45 | 48.69507 | 18.03987 | 86° | 91km/h | 12734m | 3.7m/s | 0°C | 0% | 0hPa | 0V | 00:00:00 | 00:00:00 | 00:00:00 | |
| ATIDSZ-14 | 2026-09-02 05:20:40 | 48.69495 | 18.03806 | 84° | 91km/h | 12720m | 4.1m/s | -51.6°C | 0% | 0hPa | 0V | 00:00:00 | 00:00:00 | 00:00:00 | |
| OM5KV | 2026-09-02 05:20:35 | 48.69485 | 18.03638 | 87° | 86km/h | 12699m | 3.4m/s | -51.4°C | 0% | 0hPa | 0V | 00:00:00 | 00:00:00 | 00:00:00 | |
| OM5KV | 2026-09-02 05:20:28 | 48.69477 | 18.03398 | 85° | 93km/h | 12672m | 4.3m/s | -51.5°C | 0% | 0hPa | 0V | 00:00:00 | 00:00:00 | 00:00:00 | |
| OE5DRO-10 | 2026-09-02 05:20:27 | 48.69475 | 18.03363 | 84° | 89km/h | 12665m | 4.2m/s | 0°C | 0% | 0hPa | 0V | 00:00:00 | 00:00:00 | 00:00:00 | |
| OM5KV | 2026-09-02 05:20:21 | 48.69464 | 18.03155 | 88° | 91km/h | 12646m | 3.4m/s | -51.6°C | 0% | 0hPa | 0V | 00:00:00 | 00:00:00 | 00:00:00 | |
| ATIDSZ-14 | 2026-09-02 05:20:19 | 48.69461 | 18.03086 | 87° | 89km/h | 12637m | 3.3m/s | -51.5°C | 0% | 0hPa | 0V | 00:00:00 | 00:00:00 | 00:00:00 | |
| PETON7-10 | 2026-09-02 05:20:18 | 48.69459 | 18.03052 | 86° | 89km/h | 12630m | 2.6m/s | 0°C | 0% | 0hPa | 0V | 00:00:00 | 00:00:00 | 00:00:00 | |
| OM5KV | 2026-09-02 05:20:17 | 48.69455 | 18.02981 | 86° | 91km/h | 12626m | 4.5m/s | -51.5°C | 0% | 0hPa | 0V | 00:00:00 | 00:00:00 | 00:00:00 | |
| OE3JTB-15 | 2026-09-02 05:20:16 | 48.69456 | 18.02981 | 84° | 88km/h | 12622m | 4.1m/s | 0°C | 0% | 0hPa | 0V | 00:00:00 | 00:00:00 | 00:00:00 | |
| OM5KV | 2026-09-02 05:20:15 | 48.69453 | 18.02947 | 85° | 89km/h | 12622m | 4.1m/s | -51.5°C | 0% | 0hPa | 0V | 00:00:00 | 00:00:00 | 00:00:00 | |
| PG1ADW-2 | 2026-09-02 05:20:13 | 48.69448 | 18.02879 | 84° | 89km/h | 12610m | 4.4m/s | 0°C | 0% | 0hPa | 0V | 00:00:00 | 00:00:00 | 00:00:00 | |
| OE5DXL-15 | 2026-09-02 05:20:11 | 48.69442 | 18.02812 | 84° | 88km/h | 12602m | 4.8m/s | 0°C | 0% | 0hPa | 0V | 00:00:00 | 00:00:00 | 00:00:00 | |
| OM5KV | 2026-09-02 05:20:09 | 48.69438 | 18.02744 | 86° | 89km/h | 12598m | 3.1m/s | -51.4°C | 0% | 0hPa | 0V | 00:00:00 | 00:00:00 | 00:00:00 | |
| OE5DRO-10 | 2026-09-02 05:20:08 | 48.69436 | 18.02710 | 86° | 88km/h | 12590m | 3.6m/s | 0°C | 0% | 0hPa | 0V | 00:00:00 | 00:00:00 | 00:00:00 | |
| PETON7-10 | 2026-09-02 05:20:03 | 48.69425 | 18.02540 | 82° | 88km/h | 12570m | 3.9m/s | 0°C | 0% | 0hPa | 0V | 00:00:00 | 00:00:00 | 00:00:00 | |
| ATIDSZ-14 | 2026-09-02 05:19:59 | 48.69412 | 18.02403 | 83° | 89km/h | 12558m | 4.8m/s | -51.7°C | 0% | 0hPa | 0V | 00:00:00 | 00:00:00 | 00:00:00 | |
| OM5KV | 2026-09-02 05:19:57 | 48.69406 | 18.02335 | 83° | 89km/h | 12550m | 5.0m/s | -51.7°C | 0% | 0hPa | 0V | 00:00:00 | 00:00:00 | 00:00:00 | |
| OM5KV | 2026-09-02 05:19:56 | 48.69403 | 18.02301 | 83° | 88km/h | 12545m | 3.3m/s | -51.7°C | 0% | 0hPa | 0V | 00:00:00 | 00:00:00 | 00:00:00 | |
| PG1ADW-2 | 2026-09-02 05:19:53 | 48.69393 | 18.02203 | 82° | 88km/h | 12529m | 4.5m/s | 0°C | 0% | 0hPa | 0V | 00:00:00 | 00:00:00 | 00:00:00 | |
| OM5KV | 2026-09-02 05:19:49 | 48.69379 | 18.02077 | 81° | 84km/h | 12517m | 3.5m/s | -51.8°C | 0% | 0hPa | 0V | 00:00:00 | 00:00:00 | 00:00:00 | |
| PETON7-10 | 2026-09-02 05:19:48 | 48.69376 | 18.02047 | 82° | 89km/h | 12510m | 4.1m/s | 0°C | 0% | 0hPa | 0V | 00:00:00 | 00:00:00 | 00:00:00 | |
| OE3JTB-15 | 2026-09-02 05:19:47 | 48.69372 | 18.02012 | 82° | 88km/h | 12507m | 2.8m/s | 0°C | 0% | 0hPa | 0V | 00:00:00 | 00:00:00 | 00:00:00 | |
| OE5DXL-15 | 2026-09-02 05:19:40 | 48.69353 | 18.01775 | 82° | 88km/h | 12468m | 5.1m/s | 0°C | 0% | 0hPa | 0V | 00:00:00 | 00:00:00 | 00:00:00 | |
| ATIDSZ-14 | 2026-09-02 05:19:38 | 48.69345 | 18.01708 | 82° | 89km/h | 12476m | 4.3m/s | -52.3°C | 0% | 0hPa | 0V | 00:00:00 | 00:00:00 | 00:00:00 | |
| OM5KV | 2026-09-02 05:19:37 | 48.69342 | 18.01674 | 83° | 89km/h | 12472m | 3.4m/s | -52.4°C | 0% | 0hPa | 0V | 00:00:00 | 00:00:00 | 00:00:00 | |
| PETON7-10 | 2026-09-02 05:19:33 | 48.69331 | 18.01541 | 87° | 88km/h | 12451m | 4.6m/s | 0°C | 0% | 0hPa | 0V | 00:00:00 | 00:00:00 | 00:00:00 | |
| OM5KV | 2026-09-02 05:19:31 | 48.69328 | 18.01476 | 87° | 84km/h | 12447m | 4.1m/s | -52.5°C | 0% | 0hPa | 0V | 00:00:00 | 00:00:00 | 00:00:00 | |
| OE5DRO-10 | 2026-09-02 05:19:30 | 48.69327 | 18.01444 | 87° | 91km/h | 12439m | 4.6m/s | 0°C | 0% | 0hPa | 0V | 00:00:00 | 00:00:00 | 00:00:00 | |
| OM5KV | 2026-09-02 05:19:25 | 48.69319 | 18.01286 | 87° | 84km/h | 12422m | 4.4m/s | -52.6°C | 0% | 0hPa | 0V | 00:00:00 | 00:00:00 | 00:00:00 | |
| OM5KV | 2026-09-02 05:19:20 | 48.69313 | 18.01115 | 88° | 95km/h | 12401m | 3.7m/s | -52.6°C | 0% | 0hPa | 0V | 00:00:00 | 00:00:00 | 00:00:00 | |
| OM5KV | 2026-09-02 05:19:19 | 48.69312 | 18.01079 | 86° | 93km/h | 12397m | 4.7m/s | -52.7°C | 0% | 0hPa | 0V | 00:00:00 | 00:00:00 | 00:00:00 | |
| OE3JTB-15 | 2026-09-02 05:19:18 | 48.69309 | 18.01044 | 85° | 102km/h | 12383m | 4.3m/s | 0°C | 0% | 0hPa | 0V | 00:00:00 | 00:00:00 | 00:00:00 | |
| PG1ADW-2 | 2026-09-02 05:19:13 | 48.69299 | 18.00863 | 86° | 102km/h | 12365m | 4.3m/s | 0°C | 0% | 0hPa | 0V | 00:00:00 | 00:00:00 | 00:00:00 | |
| OE5DRO-10 | 2026-09-02 05:19:11 | 48.69295 | 18.00786 | 86° | 104km/h | 12356m | 3.9m/s | 0°C | 0% | 0hPa | 0V | 00:00:00 | 00:00:00 | 00:00:00 | |
| OM5KV | 2026-09-02 05:19:06 | 48.69284 | 18.00590 | 85° | 102km/h | 12338m | 3.9m/s | -53.7°C | 0% | 0hPa | 0V | 00:00:00 | 00:00:00 | 00:00:00 | |
| OE5DXL-15 | 2026-09-02 05:19:05 | 48.69281 | 18.00551 | 84° | 100km/h | 12334m | 4.9m/s | 0°C | 0% | 0hPa | 0V | 00:00:00 | 00:00:00 | 00:00:00 | |
| OM5KV | 2026-09-02 05:19:04 | 48.69277 | 18.00512 | 85° | 104km/h | 12330m | 4.0m/s | -54.0°C | 0% | 0hPa | 0V | 00:00:00 | 00:00:00 | 00:00:00 | |
| OE3OSB-13 | 2026-09-02 05:19:03 | 48.69272 | 18.00435 | 83° | 99km/h | 12321m | 3.8m/s | -55.2°C | -1.0% | -1.0hPa | 0V | 00:00:00 | 00:00:00 | 00:00:00 | |
| OM5KV | 2026-09-02 05:19:00 | 48.69267 | 18.00357 | 84° | 104km/h | 12312m | 4.2m/s | -54.9°C | 0% | 0hPa | 0V | 00:00:00 | 00:00:00 | 00:00:00 | |
| OM5KV | 2026-09-02 05:18:58 | 48.69260 | 18.00279 | 83° | 104km/h | 12304m | 4.7m/s | -55.0°C | 0% | 0hPa | 0V | 00:00:00 | 00:00:00 | 00:00:00 | |
| ATIDSZ-14 | 2026-09-02 05:18:57 | 48.69256 | 18.00239 | 82° | 108km/h | 12299m | 4.6m/s | -55.1°C | 0% | 0hPa | 0V | 00:00:00 | 00:00:00 | 00:00:00 | |
| PG1ADW-2 | 2026-09-02 05:18:53 | 48.69239 | 18.00080 | 81° | 97km/h | 12277m | 3.9m/s | 0°C | 0% | 0hPa | 0V | 00:00:00 | 00:00:00 | 00:00:00 | |
| OE5DRO-10 | 2026-09-02 05:18:52 | 48.69235 | 18.00041 | 81° | 95km/h | 12273m | 4.8m/s | 0°C | 0% | 0hPa | 0V | 00:00:00 | 00:00:00 | 00:00:00 | |
| OM5KV | 2026-09-02 05:18:51 | 48.69230 | 18.00004 | 81° | 99km/h | 12273m | 4.9m/s | -55.2°C | 0% | 0hPa | 0V | 00:00:00 | 00:00:00 | 00:00:00 | |
| OE3JTB-15 | 2026-09-02 05:18:49 | 48.69221 | 17.99930 | 79° | 95km/h | 12260m | 4.0m/s | 0°C | 0% | 0hPa | 0V | 00:00:00 | 00:00:00 | 00:00:00 | |
| PETON7-10 | 2026-09-02 05:18:48 | 48.69216 | 17.99893 | 78° | 95km/h | 12255m | 5.1m/s | 0°C | 0% | 0hPa | 0V | 00:00:00 | 00:00:00 | 00:00:00 | |
| OM5KV | 2026-09-02 05:18:47 | 48.69212 | 17.99856 | 79° | 99km/h | 12255m | 5.2m/s | -55.2°C | 0% | 0hPa | 0V | 00:00:00 | 00:00:00 | 00:00:00 | |
| OM5KV | 2026-09-02 05:18:45 | 48.69194 | 17.99748 | 77° | 97km/h | 12242m | 4.2m/s | -55.2°C | 0% | 0hPa | 0V | 00:00:00 | 00:00:00 | 00:00:00 | |
| OM5KV | 2026-09-02 05:18:40 | 48.69173 | 17.99607 | 79° | 93km/h | 12223m | 4.3m/s | -55.2°C | 0% | 0hPa | 0V | 00:00:00 | 00:00:00 | 00:00:00 | |
| OM5KV | 2026-09-02 05:18:39 | 48.69168 | 17.99573 | 80° | 91km/h | 12219m | 4.4m/s | -55.2°C | 0% | 0hPa | 0V | 00:00:00 | 00:00:00 | 00:00:00 | |
| ATIDSZ-14 | 2026-09-02 05:18:37 | 48.69159 | 17.99503 | 80° | 93km/h | 12211m | 4.0m/s | -55.2°C | 0% | 0hPa | 0V | 00:00:00 | 00:00:00 | 00:00:00 | |
| OM5KV | 2026-09-02 05:18:35 | 48.69146 | 17.99399 | 80° | 93km/h | 12197m | 5.3m/s | -55.1°C | 0% | 0hPa | 0V | 00:00:00 | 00:00:00 | 00:00:00 | |
| PETON7-10 | 2026-09-02 05:18:34 | 48.69142 | 17.99365 | 80° | 95km/h | 12187m | 4.3m/s | 0°C | 0% | 0hPa | 0V | 00:00:00 | 00:00:00 | 00:00:00 | |
| PG1ADW-2 | 2026-09-02 05:18:33 | 48.69142 | 17.99365 | 80° | 97km/h | 12187m | 4.3m/s | 0°C | 0% | 0hPa | 0V | 00:00:00 | 00:00:00 | 00:00:00 | |
| OE5DXL-15 | 2026-09-02 05:18:32 | 48.69137 | 17.99330 | 80° | 99km/h | 12179m | 5.0m/s | 0°C | 0% | 0hPa | 0V | 00:00:00 | 00:00:00 | 00:00:00 | |
| OM5KV | 2026-09-02 05:18:27 | 48.69116 | 17.99150 | 83° | 95km/h | 12165m | 3.7m/s | -55.0°C | 0% | 0hPa | 0V | 00:00:00 | 00:00:00 | 00:00:00 | |
| OE3JTB-15 | 2026-09-02 05:18:19 | 48.69085 | 17.98861 | 81° | 104km/h | 12124m | 4.7m/s | 0°C | 0% | 0hPa | 0V | 00:00:00 | 00:00:00 | 00:00:00 | |
| PETON7-10 | 2026-09-02 05:18:18 | 48.69081 | 17.98825 | 81° | 100km/h | 12119m | 4.4m/s | 0°C | 0% | 0hPa | 0V | 00:00:00 | 00:00:00 | 00:00:00 | |
| OM5KV | 2026-09-02 05:18:17 | 48.69072 | 17.98749 | 81° | 100km/h | 12115m | 4.1m/s | -54.7°C | 0% | 0hPa | 0V | 00:00:00 | 00:00:00 | 00:00:00 | |
| ATIDSZ-14 | 2026-09-02 05:18:16 | 48.69072 | 17.98749 | 81° | 100km/h | 12115m | 4.1m/s | -54.7°C | 0% | 0hPa | 0V | 00:00:00 | 00:00:00 | 00:00:00 | |
| OE5DRO-10 | 2026-09-02 05:18:14 | 48.69064 | 17.98675 | 79° | 104km/h | 12101m | 4.4m/s | 0°C | 0% | 0hPa | 0V | 00:00:00 | 00:00:00 | 00:00:00 | |
| OM5KV | 2026-09-02 05:18:11 | 48.69049 | 17.98566 | 80° | 97km/h | 12092m | 3.9m/s | -54.7°C | 0% | 0hPa | 0V | 00:00:00 | 00:00:00 | 00:00:00 | |
| OM5KV | 2026-09-02 05:18:10 | 48.69044 | 17.98529 | 80° | 99km/h | 12088m | 4.9m/s | -54.8°C | 0% | 0hPa | 0V | 00:00:00 | 00:00:00 | 00:00:00 | |
| OM5KV | 2026-09-02 05:18:05 | 48.69020 | 17.98338 | 80° | 104km/h | 12066m | 4.7m/s | -54.9°C | 0% | 0hPa | 0V | 00:00:00 | 00:00:00 | 00:00:00 | |
| PETON7-10 | 2026-09-02 05:18:03 | 48.69011 | 17.98260 | 81° | 110km/h | 12053m | 4.6m/s | 0°C | 0% | 0hPa | 0V | 00:00:00 | 00:00:00 | 00:00:00 | |
| OM5KV | 2026-09-02 05:18:00 | 48.68992 | 17.98101 | 82° | 108km/h | 12040m | 4.3m/s | -55.0°C | 0% | 0hPa | 0V | 00:00:00 | 00:00:00 | 00:00:00 | |
| ATIDSZ-14 | 2026-09-02 05:17:56 | 48.68978 | 17.97977 | 81° | 108km/h | 12026m | 4.0m/s | -55.1°C | 0% | 0hPa | 0V | 00:00:00 | 00:00:00 | 00:00:00 | |
| OE5DRO-10 | 2026-09-02 05:17:55 | 48.68973 | 17.97936 | 80° | 110km/h | 12018m | 4.5m/s | 0°C | 0% | 0hPa | 0V | 00:00:00 | 00:00:00 | 00:00:00 | |
| OM5KV | 2026-09-02 05:17:54 | 48.68968 | 17.97894 | 80° | 111km/h | 12018m | 4.6m/s | -55.2°C | 0% | 0hPa | 0V | 00:00:00 | 00:00:00 | 00:00:00 | |
| PG1ADW-2 | 2026-09-02 05:17:53 | 48.68962 | 17.97852 | 80° | 108km/h | 12010m | 5.0m/s | 0°C | 0% | 0hPa | 0V | 00:00:00 | 00:00:00 | 00:00:00 | |
| GYPAP8-17 | 2026-09-02 05:17:51 | 48.68948 | 17.97726 | 82° | 111km/h | 12001m | 4.5m/s | -55.4°C | 0% | 0hPa | 0V | 00:00:00 | 00:00:00 | 00:00:00 | |
| OE3JTB-15 | 2026-09-02 05:17:50 | 48.68948 | 17.97726 | 81° | 110km/h | 11997m | 3.7m/s | 0°C | 0% | 0hPa | 0V | 00:00:00 | 00:00:00 | 00:00:00 | |
| PETON7-10 | 2026-09-02 05:17:48 | 48.68939 | 17.97644 | 81° | 108km/h | 11988m | 4.4m/s | 0°C | 0% | 0hPa | 0V | 00:00:00 | 00:00:00 | 00:00:00 | |
| OM5KV | 2026-09-02 05:17:46 | 48.68930 | 17.97565 | 81° | 106km/h | 11983m | 4.8m/s | -55.8°C | 0% | 0hPa | 0V | 00:00:00 | 00:00:00 | 00:00:00 | |
| OM5KV | 2026-09-02 05:17:42 | 48.68912 | 17.97404 | 82° | 110km/h | 11966m | 4.9m/s | -55.8°C | 0% | 0hPa | 0V | 00:00:00 | 00:00:00 | 00:00:00 | |
| OM5KV | 2026-09-02 05:17:37 | 48.68892 | 17.97196 | 82° | 108km/h | 11944m | 5.0m/s | -55.7°C | 0% | 0hPa | 0V | 00:00:00 | 00:00:00 | 00:00:00 | |
| OM5KV | 2026-09-02 05:17:36 | 48.68882 | 17.97116 | 79° | 106km/h | 11935m | 5.1m/s | -55.6°C | 0% | 0hPa | 0V | 00:00:00 | 00:00:00 | 00:00:00 | |
| ATIDSZ-14 | 2026-09-02 05:17:35 | 48.68882 | 17.97116 | 79° | 106km/h | 11935m | 5.1m/s | -55.6°C | 0% | 0hPa | 0V | 00:00:00 | 00:00:00 | 00:00:00 | |
| PETON7-10 | 2026-09-02 05:17:33 | 48.68870 | 17.97035 | 77° | 110km/h | 11921m | 3.8m/s | 0°C | 0% | 0hPa | 0V | 00:00:00 | 00:00:00 | 00:00:00 | |
| OE5DXL-15 | 2026-09-02 05:17:30 | 48.68852 | 17.96909 | 80° | 111km/h | 11908m | 4.7m/s | 0°C | 0% | 0hPa | 0V | 00:00:00 | 00:00:00 | 00:00:00 | |
| OM5KV | 2026-09-02 05:17:23 | 48.68819 | 17.96623 | 80° | 110km/h | 11881m | 4.2m/s | -55.7°C | 0% | 0hPa | 0V | 00:00:00 | 00:00:00 | 00:00:00 | |
| OE3JTB-15 | 2026-09-02 05:17:21 | 48.68808 | 17.96541 | 80° | 113km/h | 11868m | 4.7m/s | 0°C | 0% | 0hPa | 0V | 00:00:00 | 00:00:00 | 00:00:00 | |
| OM5KV | 2026-09-02 05:17:19 | 48.68799 | 17.96459 | 82° | 111km/h | 11863m | 4.4m/s | -55.6°C | 0% | 0hPa | 0V | 00:00:00 | 00:00:00 | 00:00:00 | |
| PETON7-10 | 2026-09-02 05:17:18 | 48.68794 | 17.96418 | 81° | 111km/h | 11855m | 3.6m/s | 0°C | 0% | 0hPa | 0V | 00:00:00 | 00:00:00 | 00:00:00 | |
| OE5DRO-10 | 2026-09-02 05:17:17 | 48.68790 | 17.96377 | 81° | 113km/h | 11850m | 4.4m/s | 0°C | 0% | 0hPa | 0V | 00:00:00 | 00:00:00 | 00:00:00 | |
| ATIDSZ-14 | 2026-09-02 05:17:15 | 48.68780 | 17.96294 | 81° | 111km/h | 11846m | 4.3m/s | -55.6°C | 0% | 0hPa | 0V | 00:00:00 | 00:00:00 | 00:00:00 | |
| OM5KV | 2026-09-02 05:17:14 | 48.68775 | 17.96252 | 81° | 111km/h | 11842m | 4.3m/s | -55.6°C | 0% | 0hPa | 0V | 00:00:00 | 00:00:00 | 00:00:00 | |
| PG1ADW-2 | 2026-09-02 05:17:13 | 48.68770 | 17.96210 | 78° | 115km/h | 11833m | 3.6m/s | 0°C | 0% | 0hPa | 0V | 00:00:00 | 00:00:00 | 00:00:00 | |
| OM5KV | 2026-09-02 05:17:12 | 48.68764 | 17.96169 | 79° | 110km/h | 11833m | 3.7m/s | -55.6°C | 0% | 0hPa | 0V | 00:00:00 | 00:00:00 | 00:00:00 | |
| OM5KV | 2026-09-02 05:17:09 | 48.68746 | 17.96044 | 79° | 111km/h | 11820m | 4.4m/s | -55.8°C | 0% | 0hPa | 0V | 00:00:00 | 00:00:00 | 00:00:00 | |
| OM5KV | 2026-09-02 05:17:05 | 48.68725 | 17.95876 | 80° | 110km/h | 11804m | 4.1m/s | -55.8°C | 0% | 0hPa | 0V | 00:00:00 | 00:00:00 | 00:00:00 | |
| OE5DXL-15 | 2026-09-02 05:17:00 | 48.68698 | 17.95661 | 80° | 122km/h | 11778m | 4.1m/s | 0°C | 0% | 0hPa | 0V | 00:00:00 | 00:00:00 | 00:00:00 | |
| OM5KV | 2026-09-02 05:16:58 | 48.68686 | 17.95571 | 80° | 120km/h | 11773m | 5.1m/s | -55.7°C | 0% | 0hPa | 0V | 00:00:00 | 00:00:00 | 00:00:00 | |
| OM5KV | 2026-09-02 05:16:55 | 48.68662 | 17.95392 | 79° | 120km/h | 11756m | 4.6m/s | -55.7°C | 0% | 0hPa | 0V | 00:00:00 | 00:00:00 | 00:00:00 | |
| ATIDSZ-14 | 2026-09-02 05:16:54 | 48.68662 | 17.95392 | 79° | 120km/h | 11756m | 4.6m/s | -55.7°C | 0% | 0hPa | 0V | 00:00:00 | 00:00:00 | 00:00:00 | |
| PG1ADW-2 | 2026-09-02 05:16:53 | 48.68655 | 17.95347 | 78° | 120km/h | 11748m | 5.0m/s | 0°C | 0% | 0hPa | 0V | 00:00:00 | 00:00:00 | 00:00:00 | |
| OE3JTB-15 | 2026-09-02 05:16:52 | 48.68649 | 17.95303 | 78° | 122km/h | 11743m | 4.2m/s | 0°C | 0% | 0hPa | 0V | 00:00:00 | 00:00:00 | 00:00:00 | |
| OM5KV | 2026-09-02 05:16:49 | 48.68630 | 17.95169 | 80° | 120km/h | 11734m | 3.8m/s | -55.8°C | 0% | 0hPa | 0V | 00:00:00 | 00:00:00 | 00:00:00 | |
| PETON7-10 | 2026-09-02 05:16:48 | 48.68623 | 17.95124 | 78° | 122km/h | 11725m | 5.2m/s | 0°C | 0% | 0hPa | 0V | 00:00:00 | 00:00:00 | 00:00:00 | |
| OM5KV | 2026-09-02 05:16:46 | 48.68609 | 17.95033 | 78° | 122km/h | 11721m | 4.7m/s | -55.9°C | 0% | 0hPa | 0V | 00:00:00 | 00:00:00 | 00:00:00 | |
| OM5KV | 2026-09-02 05:16:43 | 48.68587 | 17.94898 | 76° | 120km/h | 11708m | 4.1m/s | -55.8°C | 0% | 0hPa | 0V | 00:00:00 | 00:00:00 | 00:00:00 | |
| OE5DRO-10 | 2026-09-02 05:16:39 | 48.68558 | 17.94717 | 77° | 124km/h | 11686m | 4.5m/s | 0°C | 0% | 0hPa | 0V | 00:00:00 | 00:00:00 | 00:00:00 | |
| OM5KV | 2026-09-02 05:16:38 | 48.68544 | 17.94625 | 78° | 122km/h | 11682m | 4.1m/s | -55.6°C | 0% | 0hPa | 0V | 00:00:00 | 00:00:00 | 00:00:00 | |
| PETON7-10 | 2026-09-02 05:16:33 | 48.68513 | 17.94446 | 76° | 124km/h | 11661m | 5.1m/s | 0°C | 0% | 0hPa | 0V | 00:00:00 | 00:00:00 | 00:00:00 | |
| OM5KV | 2026-09-02 05:16:31 | 48.68497 | 17.94354 | 76° | 126km/h | 11657m | 4.2m/s | -55.5°C | 0% | 0hPa | 0V | 00:00:00 | 00:00:00 | 00:00:00 | |
| OE5DXL-15 | 2026-09-02 05:16:29 | 48.68481 | 17.94260 | 77° | 122km/h | 11644m | 5.0m/s | 0°C | 0% | 0hPa | 0V | 00:00:00 | 00:00:00 | 00:00:00 | |
| OM5KV | 2026-09-02 05:16:27 | 48.68464 | 17.94166 | 76° | 128km/h | 11640m | 3.8m/s | -55.4°C | 0% | 0hPa | 0V | 00:00:00 | 00:00:00 | 00:00:00 | |
| OM5KV | 2026-09-02 05:16:25 | 48.68449 | 17.94073 | 77° | 124km/h | 11631m | 3.9m/s | -55.4°C | 0% | 0hPa | 0V | 00:00:00 | 00:00:00 | 00:00:00 | |
| OE3JTB-15 | 2026-09-02 05:16:23 | 48.68433 | 17.93981 | 76° | 122km/h | 11617m | 5.1m/s | 0°C | 0% | 0hPa | 0V | 00:00:00 | 00:00:00 | 00:00:00 | |
| OE5DRO-10 | 2026-09-02 05:16:20 | 48.68410 | 17.93846 | 76° | 122km/h | 11604m | 5.4m/s | 0°C | 0% | 0hPa | 0V | 00:00:00 | 00:00:00 | 00:00:00 | |
| PETON7-10 | 2026-09-02 05:16:18 | 48.68395 | 17.93755 | 77° | 122km/h | 11595m | 5.1m/s | 0°C | 0% | 0hPa | 0V | 00:00:00 | 00:00:00 | 00:00:00 | |
| OM5KV | 2026-09-02 05:16:15 | 48.68373 | 17.93615 | 77° | 128km/h | 11587m | 3.4m/s | -55.2°C | 0% | 0hPa | 0V | 00:00:00 | 00:00:00 | 00:00:00 | |
| PG1ADW-2 | 2026-09-02 05:16:13 | 48.68358 | 17.93521 | 76° | 120km/h | 11575m | 4.1m/s | 0°C | 0% | 0hPa | 0V | 00:00:00 | 00:00:00 | 00:00:00 | |
| S52SK | 2026-09-02 05:16:05 | 48.68299 | 17.93162 | 76° | 122km/h | 11546m | 4.1m/s | -55.1°C | 0% | 0hPa | 0V | 00:00:00 | 00:00:00 | 00:00:00 | |
| OM5KV | 2026-09-02 05:16:03 | 48.68283 | 17.93072 | 76° | 122km/h | 11537m | 4.5m/s | -55.1°C | 0% | 0hPa | 0V | 00:00:00 | 00:00:00 | 00:00:00 | |
| OE5DRO-10 | 2026-09-02 05:16:01 | 48.68268 | 17.92983 | 77° | 120km/h | 11525m | 3.8m/s | 0°C | 0% | 0hPa | 0V | 00:00:00 | 00:00:00 | 00:00:00 | |
| OE5DXL-15 | 2026-09-02 05:15:59 | 48.68253 | 17.92895 | 77° | 117km/h | 11511m | 4.5m/s | 0°C | 0% | 0hPa | 0V | 00:00:00 | 00:00:00 | 00:00:00 | |
| OM5KV | 2026-09-02 05:15:58 | 48.68246 | 17.92851 | 78° | 117km/h | 11516m | 4.0m/s | -55.1°C | 0% | 0hPa | 0V | 00:00:00 | 00:00:00 | 00:00:00 | |
| OM5KV | 2026-09-02 05:15:57 | 48.68232 | 17.92764 | 77° | 119km/h | 11507m | 4.0m/s | -55.0°C | 0% | 0hPa | 0V | 00:00:00 | 00:00:00 | 00:00:00 | |
| OE3JTB-15 | 2026-09-02 05:15:54 | 48.68217 | 17.92674 | 76° | 120km/h | 11495m | 3.6m/s | 0°C | 0% | 0hPa | 0V | 00:00:00 | 00:00:00 | 00:00:00 | |
| PG1ADW-2 | 2026-09-02 05:15:53 | 48.68209 | 17.92629 | 75° | 120km/h | 11491m | 3.8m/s | 0°C | 0% | 0hPa | 0V | 00:00:00 | 00:00:00 | 00:00:00 | |
| ATIDSZ-14 | 2026-09-02 05:15:52 | 48.68201 | 17.92583 | 75° | 126km/h | 11491m | 3.9m/s | -55.0°C | 0% | 0hPa | 0V | 00:00:00 | 00:00:00 | 00:00:00 | |
| PETON7-10 | 2026-09-02 05:15:48 | 48.68170 | 17.92399 | 77° | 119km/h | 11471m | 4.6m/s | 0°C | 0% | 0hPa | 0V | 00:00:00 | 00:00:00 | 00:00:00 | |
| OE5DRO-10 | 2026-09-02 05:15:42 | 48.68127 | 17.92129 | 78° | 117km/h | 11446m | 4.1m/s | 0°C | 0% | 0hPa | 0V | 00:00:00 | 00:00:00 | 00:00:00 | |
| OM5KV | 2026-09-02 05:15:39 | 48.68106 | 17.91996 | 78° | 119km/h | 11438m | 3.8m/s | -55.0°C | 0% | 0hPa | 0V | 00:00:00 | 00:00:00 | 00:00:00 | |
| OM5KV | 2026-09-02 05:15:34 | 48.68073 | 17.91778 | 78° | 117km/h | 11416m | 5.1m/s | -54.9°C | 0% | 0hPa | 0V | 00:00:00 | 00:00:00 | 00:00:00 | |
| PG1ADW-2 | 2026-09-02 05:15:33 | 48.68066 | 17.91734 | 77° | 117km/h | 11408m | 4.7m/s | 0°C | 0% | 0hPa | 0V | 00:00:00 | 00:00:00 | 00:00:00 | |
| ATIDSZ-14 | 2026-09-02 05:15:32 | 48.68059 | 17.91690 | 78° | 119km/h | 11408m | 4.8m/s | -54.8°C | 0% | 0hPa | 0V | 00:00:00 | 00:00:00 | 00:00:00 | |
| OM5KV | 2026-09-02 05:15:30 | 48.68045 | 17.91602 | 78° | 117km/h | 11400m | 4.5m/s | -54.8°C | 0% | 0hPa | 0V | 00:00:00 | 00:00:00 | 00:00:00 | |
| OE3JTB-15 | 2026-09-02 05:15:25 | 48.68010 | 17.91387 | 78° | 117km/h | 11375m | 3.4m/s | 0°C | 0% | 0hPa | 0V | 00:00:00 | 00:00:00 | 00:00:00 | |
| OE5DRO-10 | 2026-09-02 05:15:23 | 48.67997 | 17.91298 | 77° | 117km/h | 11366m | 4.0m/s | 0°C | 0% | 0hPa | 0V | 00:00:00 | 00:00:00 | 00:00:00 | |
| OM5KV | 2026-09-02 05:15:22 | 48.67991 | 17.91254 | 78° | 117km/h | 11366m | 4.1m/s | -54.5°C | 0% | 0hPa | 0V | 00:00:00 | 00:00:00 | 00:00:00 | |
| PETON7-10 | 2026-09-02 05:15:18 | 48.67962 | 17.91079 | 76° | 117km/h | 11346m | 3.9m/s | 0°C | 0% | 0hPa | 0V | 00:00:00 | 00:00:00 | 00:00:00 | |
| OM5KV | 2026-09-02 05:15:17 | 48.67955 | 17.91035 | 76° | 117km/h | 11346m | 4.0m/s | -54.5°C | 0% | 0hPa | 0V | 00:00:00 | 00:00:00 | 00:00:00 | |
| OE5DXL-15 | 2026-09-02 05:15:14 | 48.67932 | 17.90907 | 75° | 113km/h | 11330m | 3.9m/s | 0°C | 0% | 0hPa | 0V | 00:00:00 | 00:00:00 | 00:00:00 | |
| PG1ADW-2 | 2026-09-02 05:15:13 | 48.67924 | 17.90864 | 76° | 113km/h | 11326m | 3.7m/s | 0°C | 0% | 0hPa | 0V | 00:00:00 | 00:00:00 | 00:00:00 | |
| ATIDSZ-14 | 2026-09-02 05:15:11 | 48.67909 | 17.90777 | 76° | 117km/h | 11322m | 3.8m/s | -54.5°C | 0% | 0hPa | 0V | 00:00:00 | 00:00:00 | 00:00:00 | |
| OM5KV | 2026-09-02 05:15:08 | 48.67887 | 17.90645 | 77° | 117km/h | 11310m | 4.4m/s | -54.4°C | 0% | 0hPa | 0V | 00:00:00 | 00:00:00 | 00:00:00 | |
| OE5DRO-10 | 2026-09-02 05:15:04 | 48.67860 | 17.90477 | 76° | 111km/h | 11288m | 3.6m/s | 0°C | 0% | 0hPa | 0V | 00:00:00 | 00:00:00 | 00:00:00 | |
| OE3JTB-15 | 2026-09-02 05:14:56 | 48.67807 | 17.90141 | 80° | 110km/h | 11255m | 3.6m/s | 0°C | 0% | 0hPa | 0V | 00:00:00 | 00:00:00 | 00:00:00 | |
| PG1ADW-2 | 2026-09-02 05:14:53 | 48.67790 | 17.90019 | 77° | 111km/h | 11242m | 4.6m/s | 0°C | 0% | 0hPa | 0V | 00:00:00 | 00:00:00 | 00:00:00 | |
| ATIDSZ-14 | 2026-09-02 05:14:51 | 48.67778 | 17.89935 | 78° | 113km/h | 11238m | 3.4m/s | -54.0°C | 0% | 0hPa | 0V | 00:00:00 | 00:00:00 | 00:00:00 | |
| OM5KV | 2026-09-02 05:14:49 | 48.67764 | 17.89851 | 77° | 111km/h | 11230m | 3.0m/s | -54.0°C | 0% | 0hPa | 0V | 00:00:00 | 00:00:00 | 00:00:00 | |
| PETON7-10 | 2026-09-02 05:14:48 | 48.67758 | 17.89810 | 78° | 110km/h | 11222m | 4.4m/s | 0°C | 0% | 0hPa | 0V | 00:00:00 | 00:00:00 | 00:00:00 | |
| OE5DRO-10 | 2026-09-02 05:14:45 | 48.67741 | 17.89686 | 80° | 110km/h | 11210m | 3.4m/s | 0°C | 0% | 0hPa | 0V | 00:00:00 | 00:00:00 | 00:00:00 | |
| OE5DXL-15 | 2026-09-02 05:14:44 | 48.67736 | 17.89646 | 80° | 110km/h | 11206m | 4.5m/s | 0°C | 0% | 0hPa | 0V | 00:00:00 | 00:00:00 | 00:00:00 | |
| OM5KV | 2026-09-02 05:14:37 | 48.67696 | 17.89356 | 80° | 111km/h | 11182m | 4.4m/s | -53.7°C | 0% | 0hPa | 0V | 00:00:00 | 00:00:00 | 00:00:00 | |
| PETON7-10 | 2026-09-02 05:14:33 | 48.67674 | 17.89190 | 80° | 108km/h | 11161m | 4.3m/s | 0°C | 0% | 0hPa | 0V | 00:00:00 | 00:00:00 | 00:00:00 | |
| OM5KV | 2026-09-02 05:14:31 | 48.67663 | 17.89106 | 80° | 110km/h | 11157m | 3.6m/s | -53.6°C | 0% | 0hPa | 0V | 00:00:00 | 00:00:00 | 00:00:00 | |
| ATIDSZ-14 | 2026-09-02 05:14:30 | 48.67657 | 17.89065 | 81° | 110km/h | 11154m | 3.7m/s | -53.6°C | 0% | 0hPa | 0V | 00:00:00 | 00:00:00 | 00:00:00 | |
| OE3JTB-15 | 2026-09-02 05:14:27 | 48.67643 | 17.88945 | 82° | 110km/h | 11137m | 3.0m/s | 0°C | 0% | 0hPa | 0V | 00:00:00 | 00:00:00 | 00:00:00 | |
| OE5DRO-10 | 2026-09-02 05:14:26 | 48.67639 | 17.88906 | 82° | 110km/h | 11133m | 4.5m/s | 0°C | 0% | 0hPa | 0V | 00:00:00 | 00:00:00 | 00:00:00 | |
| OM5KV | 2026-09-02 05:14:24 | 48.67630 | 17.88825 | 79° | 106km/h | 11129m | 4.0m/s | -53.5°C | 0% | 0hPa | 0V | 00:00:00 | 00:00:00 | 00:00:00 | |
| OM5KV | 2026-09-02 05:14:21 | 48.67613 | 17.88704 | 78° | 110km/h | 11116m | 4.3m/s | -53.4°C | 0% | 0hPa | 0V | 00:00:00 | 00:00:00 | 00:00:00 | |
| PETON7-10 | 2026-09-02 05:14:18 | 48.67596 | 17.88580 | 80° | 110km/h | 11101m | 3.8m/s | 0°C | 0% | 0hPa | 0V | 00:00:00 | 00:00:00 | 00:00:00 | |
| OM5KV | 2026-09-02 05:14:17 | 48.67591 | 17.88539 | 80° | 110km/h | 11101m | 3.8m/s | -53.3°C | 0% | 0hPa | 0V | 00:00:00 | 00:00:00 | 00:00:00 | |
| OE5DXL-15 | 2026-09-02 05:14:14 | 48.67574 | 17.88414 | 79° | 108km/h | 11086m | 3.3m/s | 0°C | 0% | 0hPa | 0V | 00:00:00 | 00:00:00 | 00:00:00 | |
| PG1ADW-2 | 2026-09-02 05:14:13 | 48.67569 | 17.88373 | 79° | 110km/h | 11082m | 4.5m/s | 0°C | 0% | 0hPa | 0V | 00:00:00 | 00:00:00 | 00:00:00 | |
| GYPAP8-17 | 2026-09-02 05:14:12 | 48.67563 | 17.88332 | 79° | 110km/h | 11082m | 4.6m/s | -53.1°C | 0% | 0hPa | 0V | 00:00:00 | 00:00:00 | 00:00:00 | |
| OM5KV | 2026-09-02 05:14:11 | 48.67557 | 17.88291 | 79° | 110km/h | 11077m | 3.8m/s | -53.1°C | 0% | 0hPa | 0V | 00:00:00 | 00:00:00 | 00:00:00 | |
| ATIDSZ-14 | 2026-09-02 05:14:10 | 48.67551 | 17.88251 | 78° | 110km/h | 11073m | 4.0m/s | -53.1°C | 0% | 0hPa | 0V | 00:00:00 | 00:00:00 | 00:00:00 | |
| OM5KV | 2026-09-02 05:14:09 | 48.67545 | 17.88210 | 79° | 110km/h | 11069m | 4.8m/s | -53.1°C | 0% | 0hPa | 0V | 00:00:00 | 00:00:00 | 00:00:00 | |
| OE5DRO-10 | 2026-09-02 05:14:07 | 48.67534 | 17.88127 | 79° | 108km/h | 11057m | 4.0m/s | 0°C | 0% | 0hPa | 0V | 00:00:00 | 00:00:00 | 00:00:00 | |
| OM5KV | 2026-09-02 05:14:04 | 48.67519 | 17.88004 | 82° | 110km/h | 11048m | 4.7m/s | -53.1°C | 0% | 0hPa | 0V | 00:00:00 | 00:00:00 | 00:00:00 | |
| PETON7-10 | 2026-09-02 05:14:03 | 48.67515 | 17.87963 | 82° | 108km/h | 11041m | 3.9m/s | 0°C | 0% | 0hPa | 0V | 00:00:00 | 00:00:00 | 00:00:00 | |
| OE3JTB-15 | 2026-09-02 05:13:58 | 48.67489 | 17.87756 | 79° | 106km/h | 11022m | 3.5m/s | 0°C | 0% | 0hPa | 0V | 00:00:00 | 00:00:00 | 00:00:00 | |
| OM5KV | 2026-09-02 05:13:57 | 48.67484 | 17.87716 | 80° | 106km/h | 11022m | 3.5m/s | -52.9°C | 0% | 0hPa | 0V | 00:00:00 | 00:00:00 | 00:00:00 | |
| PG1ADW-2 | 2026-09-02 05:13:53 | 48.67466 | 17.87554 | 80° | 106km/h | 11003m | 3.4m/s | 0°C | 0% | 0hPa | 0V | 00:00:00 | 00:00:00 | 00:00:00 | |
| ATIDSZ-14 | 2026-09-02 05:13:49 | 48.67445 | 17.87393 | 79° | 106km/h | 10992m | 3.8m/s | -52.8°C | 0% | 0hPa | 0V | 00:00:00 | 00:00:00 | 00:00:00 | |
| PETON7-10 | 2026-09-02 05:13:48 | 48.67439 | 17.87353 | 79° | 106km/h | 10984m | 3.7m/s | 0°C | 0% | 0hPa | 0V | 00:00:00 | 00:00:00 | 00:00:00 | |
| OE5DXL-15 | 2026-09-02 05:13:44 | 48.67421 | 17.87192 | 82° | 106km/h | 10973m | 4.3m/s | 0°C | 0% | 0hPa | 0V | 00:00:00 | 00:00:00 | 00:00:00 | |
| OM5KV | 2026-09-02 05:13:39 | 48.67397 | 17.86990 | 80° | 106km/h | 10953m | 4.5m/s | -52.7°C | 0% | 0hPa | 0V | 00:00:00 | 00:00:00 | 00:00:00 | |
| OM5KV | 2026-09-02 05:13:35 | 48.67377 | 17.86831 | 79° | 104km/h | 10938m | 3.8m/s | -52.5°C | 0% | 0hPa | 0V | 00:00:00 | 00:00:00 | 00:00:00 | |
| PG1ADW-2 | 2026-09-02 05:13:33 | 48.67366 | 17.86752 | 79° | 104km/h | 10925m | 5.0m/s | 0°C | 0% | 0hPa | 0V | 00:00:00 | 00:00:00 | 00:00:00 | |
| S52SK | 2026-09-02 05:13:32 | 48.67361 | 17.86713 | 80° | 104km/h | 10925m | 5.0m/s | -52.4°C | 0% | 0hPa | 0V | 00:00:00 | 00:00:00 | 00:00:00 | |
| OE3JTB-15 | 2026-09-02 05:13:29 | 48.67347 | 17.86594 | 81° | 102km/h | 10909m | 4.3m/s | 0°C | 0% | 0hPa | 0V | 00:00:00 | 00:00:00 | 00:00:00 | |
| OM5KV | 2026-09-02 05:13:28 | 48.67343 | 17.86554 | 82° | 108km/h | 10909m | 4.4m/s | -52.3°C | 0% | 0hPa | 0V | 00:00:00 | 00:00:00 | 00:00:00 | |
| OM5KV | 2026-09-02 05:13:22 | 48.67308 | 17.86279 | 82° | 102km/h | 10882m | 3.7m/s | -52.1°C | 0% | 0hPa | 0V | 00:00:00 | 00:00:00 | 00:00:00 | |
| PETON7-10 | 2026-09-02 05:13:18 | 48.67294 | 17.86162 | 80° | 102km/h | 10866m | 3.4m/s | 0°C | 0% | 0hPa | 0V | 00:00:00 | 00:00:00 | 00:00:00 | |
| OM5KV | 2026-09-02 05:13:15 | 48.67279 | 17.86045 | 80° | 104km/h | 10859m | 3.2m/s | -51.8°C | 0% | 0hPa | 0V | 00:00:00 | 00:00:00 | 00:00:00 | |
| PG1ADW-2 | 2026-09-02 05:13:13 | 48.67269 | 17.85967 | 80° | 100km/h | 10847m | 4.0m/s | 0°C | 0% | 0hPa | 0V | 00:00:00 | 00:00:00 | 00:00:00 | |
| OE5DRO-10 | 2026-09-02 05:13:10 | 48.67255 | 17.85851 | 80° | 100km/h | 10839m | 3.6m/s | 0°C | 0% | 0hPa | 0V | 00:00:00 | 00:00:00 | 00:00:00 | |
| OM5KV | 2026-09-02 05:13:09 | 48.67250 | 17.85812 | 80° | 104km/h | 10834m | 4.8m/s | -51.7°C | 0% | 0hPa | 0V | 00:00:00 | 00:00:00 | 00:00:00 | |
| ATIDSZ-14 | 2026-09-02 05:13:08 | 48.67244 | 17.85773 | 80° | 104km/h | 10830m | 2.9m/s | -51.7°C | 0% | 0hPa | 0V | 00:00:00 | 00:00:00 | 00:00:00 | |
| PETON7-10 | 2026-09-02 05:13:03 | 48.67223 | 17.85585 | 81° | 99km/h | 10809m | 2.9m/s | 0°C | 0% | 0hPa | 0V | 00:00:00 | 00:00:00 | 00:00:00 | |
| OM5KV | 2026-09-02 05:13:02 | 48.67219 | 17.85549 | 82° | 95km/h | 10809m | 3.0m/s | -51.5°C | 0% | 0hPa | 0V | 00:00:00 | 00:00:00 | 00:00:00 | |
| OE3JTB-15 | 2026-09-02 05:13:00 | 48.67211 | 17.85477 | 81° | 100km/h | 10797m | 3.1m/s | 0°C | 0% | 0hPa | 0V | 00:00:00 | 00:00:00 | 00:00:00 | |
| OM5KV | 2026-09-02 05:12:57 | 48.67198 | 17.85364 | 80° | 100km/h | 10790m | 3.2m/s | -51.5°C | 0% | 0hPa | 0V | 00:00:00 | 00:00:00 | 00:00:00 | |
| PG1ADW-2 | 2026-09-02 05:12:53 | 48.67180 | 17.85212 | 80° | 99km/h | 10770m | 4.4m/s | 0°C | 0% | 0hPa | 0V | 00:00:00 | 00:00:00 | 00:00:00 | |
| PETON7-10 | 2026-09-02 05:12:48 | 48.67159 | 17.85028 | 81° | 100km/h | 10751m | 4.0m/s | 0°C | 0% | 0hPa | 0V | 00:00:00 | 00:00:00 | 00:00:00 | |
| OM5KV | 2026-09-02 05:12:46 | 48.67151 | 17.84954 | 80° | 99km/h | 10748m | 3.1m/s | -51.3°C | 0% | 0hPa | 0V | 00:00:00 | 00:00:00 | 00:00:00 | |
| OE5DXL-15 | 2026-09-02 05:12:43 | 48.67138 | 17.84840 | 80° | 97km/h | 10732m | 4.4m/s | 0°C | 0% | 0hPa | 0V | 00:00:00 | 00:00:00 | 00:00:00 | |
| OM5KV | 2026-09-02 05:12:40 | 48.67125 | 17.84725 | 82° | 99km/h | 10725m | 4.0m/s | -51.2°C | 0% | 0hPa | 0V | 00:00:00 | 00:00:00 | 00:00:00 | |
| OM5KV | 2026-09-02 05:12:34 | 48.67101 | 17.84502 | 82° | 100km/h | 10702m | 3.9m/s | -51.2°C | 0% | 0hPa | 0V | 00:00:00 | 00:00:00 | 00:00:00 | |
| PETON7-10 | 2026-09-02 05:12:33 | 48.67097 | 17.84463 | 81° | 95km/h | 10693m | 3.4m/s | 0°C | 0% | 0hPa | 0V | 00:00:00 | 00:00:00 | 00:00:00 | |
| OE5DRO-10 | 2026-09-02 05:12:32 | 48.67093 | 17.84425 | 81° | 95km/h | 10689m | 4.5m/s | 0°C | 0% | 0hPa | 0V | 00:00:00 | 00:00:00 | 00:00:00 | |
| OE3JTB-15 | 2026-09-02 05:12:31 | 48.67090 | 17.84387 | 83° | 93km/h | 10685m | 2.7m/s | 0°C | 0% | 0hPa | 0V | 00:00:00 | 00:00:00 | 00:00:00 | |
| OM5KV | 2026-09-02 05:12:29 | 48.67083 | 17.84315 | 83° | 95km/h | 10682m | 4.2m/s | -51.1°C | 0% | 0hPa | 0V | 00:00:00 | 00:00:00 | 00:00:00 | |
| ATIDSZ-14 | 2026-09-02 05:12:27 | 48.67075 | 17.84243 | 82° | 95km/h | 10674m | 5.1m/s | -51.1°C | 0% | 0hPa | 0V | 00:00:00 | 00:00:00 | 00:00:00 | |
| OM5KV | 2026-09-02 05:12:23 | 48.67061 | 17.84098 | 84° | 97km/h | 10658m | 2.5m/s | -51.0°C | 0% | 0hPa | 0V | 00:00:00 | 00:00:00 | 00:00:00 | |
| PETON7-10 | 2026-09-02 05:12:18 | 48.67045 | 17.83924 | 80° | 91km/h | 10637m | 3.8m/s | 0°C | 0% | 0hPa | 0V | 00:00:00 | 00:00:00 | 00:00:00 | |
| OM5KV | 2026-09-02 05:12:17 | 48.67042 | 17.83890 | 81° | 91km/h | 10637m | 3.9m/s | -50.8°C | 0% | 0hPa | 0V | 00:00:00 | 00:00:00 | 00:00:00 | |
| PG1ADW-2 | 2026-09-02 05:12:13 | 48.67025 | 17.83749 | 81° | 91km/h | 10617m | 4.6m/s | 0°C | 0% | 0hPa | 0V | 00:00:00 | 00:00:00 | 00:00:00 | |
| OM5KV | 2026-09-02 05:12:10 | 48.67016 | 17.83645 | 83° | 89km/h | 10610m | 4.3m/s | -50.5°C | 0% | 0hPa | 0V | 00:00:00 | 00:00:00 | 00:00:00 | |
| ATIDSZ-14 | 2026-09-02 05:12:07 | 48.67002 | 17.83510 | 81° | 89km/h | 10594m | 2.9m/s | -50.4°C | 0% | 0hPa | 0V | 00:00:00 | 00:00:00 | 00:00:00 | |
| OM5KV | 2026-09-02 05:12:05 | 48.66998 | 17.83475 | 81° | 91km/h | 10591m | 4.0m/s | -50.4°C | 0% | 0hPa | 0V | 00:00:00 | 00:00:00 | 00:00:00 | |
| PETON7-10 | 2026-09-02 05:12:03 | 48.66990 | 17.83406 | 79° | 93km/h | 10578m | 3.6m/s | 0°C | 0% | 0hPa | 0V | 00:00:00 | 00:00:00 | 00:00:00 | |
| OE3JTB-15 | 2026-09-02 05:12:02 | 48.66986 | 17.83371 | 79° | 93km/h | 10575m | 3.5m/s | 0°C | 0% | 0hPa | 0V | 00:00:00 | 00:00:00 | 00:00:00 | |
| OM5KV | 2026-09-02 05:12:01 | 48.66982 | 17.83335 | 82° | 95km/h | 10575m | 3.5m/s | -50.3°C | 0% | 0hPa | 0V | 00:00:00 | 00:00:00 | 00:00:00 | |
| OE5DRO-10 | 2026-09-02 05:11:54 | 48.66959 | 17.83093 | 81° | 95km/h | 10547m | 4.2m/s | 0°C | 0% | 0hPa | 0V | 00:00:00 | 00:00:00 | 00:00:00 | |
| PG1ADW-2 | 2026-09-02 05:11:53 | 48.66955 | 17.83057 | 81° | 95km/h | 10544m | 3.3m/s | 0°C | 0% | 0hPa | 0V | 00:00:00 | 00:00:00 | 00:00:00 | |
| OM5KV | 2026-09-02 05:11:49 | 48.66936 | 17.82913 | 80° | 95km/h | 10533m | 3.7m/s | -49.8°C | 0% | 0hPa | 0V | 00:00:00 | 00:00:00 | 00:00:00 | |
| PETON7-10 | 2026-09-02 05:11:48 | 48.66932 | 17.82877 | 81° | 95km/h | 10525m | 4.5m/s | 0°C | 0% | 0hPa | 0V | 00:00:00 | 00:00:00 | 00:00:00 | |
| ATIDSZ-14 | 2026-09-02 05:11:46 | 48.66925 | 17.82806 | 82° | 93km/h | 10521m | 3.4m/s | -49.8°C | 0% | 0hPa | 0V | 00:00:00 | 00:00:00 | 00:00:00 | |
| OM5KV | 2026-09-02 05:11:43 | 48.66910 | 17.82664 | 81° | 93km/h | 10506m | 2.9m/s | -49.7°C | 0% | 0hPa | 0V | 00:00:00 | 00:00:00 | 00:00:00 | |
| OE5DRO-10 | 2026-09-02 05:11:35 | 48.66880 | 17.82416 | 81° | 93km/h | 10476m | 2.9m/s | 0°C | 0% | 0hPa | 0V | 00:00:00 | 00:00:00 | 00:00:00 | |
| PETON7-10 | 2026-09-02 05:11:33 | 48.66873 | 17.82347 | 82° | 93km/h | 10469m | 3.3m/s | 0°C | 0% | 0hPa | 0V | 00:00:00 | 00:00:00 | 00:00:00 | |
| ATIDSZ-14 | 2026-09-02 05:11:25 | 48.66836 | 17.82063 | 78° | 95km/h | 10443m | 4.1m/s | -49.3°C | 0% | 0hPa | 0V | 00:00:00 | 00:00:00 | 00:00:00 | |
| GYPAP8-17 | 2026-09-02 05:11:23 | 48.66822 | 17.81957 | 81° | 93km/h | 10431m | 3.3m/s | -49.1°C | 0% | 0hPa | 0V | 00:00:00 | 00:00:00 | 00:00:00 | |
| OM5KV | 2026-09-02 05:11:18 | 48.66803 | 17.81787 | 82° | 89km/h | 10410m | 4.2m/s | -49.1°C | 0% | 0hPa | 0V | 00:00:00 | 00:00:00 | 00:00:00 | |
| OE5DRO-10 | 2026-09-02 05:11:16 | 48.66799 | 17.81753 | 82° | 89km/h | 10402m | 4.0m/s | 0°C | 0% | 0hPa | 0V | 00:00:00 | 00:00:00 | 00:00:00 | |
| PG1ADW-2 | 2026-09-02 05:11:13 | 48.66788 | 17.81648 | 80° | 88km/h | 10390m | 4.3m/s | 0°C | 0% | 0hPa | 0V | 00:00:00 | 00:00:00 | 00:00:00 | |
| OM5KV | 2026-09-02 05:11:10 | 48.66775 | 17.81546 | 79° | 89km/h | 10381m | 5.3m/s | -48.7°C | 0% | 0hPa | 0V | 00:00:00 | 00:00:00 | 00:00:00 | |
| ATIDSZ-14 | 2026-09-02 05:11:05 | 48.66754 | 17.81385 | 81° | 84km/h | 10360m | 3.7m/s | -48.5°C | 0% | 0hPa | 0V | 00:00:00 | 00:00:00 | 00:00:00 | |
| OE3JTB-15 | 2026-09-02 05:11:04 | 48.66750 | 17.81353 | 80° | 86km/h | 10351m | 4.6m/s | 0°C | 0% | 0hPa | 0V | 00:00:00 | 00:00:00 | 00:00:00 | |
| PETON7-10 | 2026-09-02 05:11:03 | 48.66745 | 17.81322 | 78° | 88km/h | 10346m | 3.9m/s | 0°C | 0% | 0hPa | 0V | 00:00:00 | 00:00:00 | 00:00:00 | |
| OE5DRO-10 | 2026-09-02 05:10:57 | 48.66718 | 17.81121 | 82° | 86km/h | 10320m | 5.3m/s | 0°C | 0% | 0hPa | 0V | 00:00:00 | 00:00:00 | 00:00:00 | |
| OM5KV | 2026-09-02 05:10:55 | 48.66712 | 17.81056 | 83° | 84km/h | 10315m | 3.5m/s | -48.2°C | 0% | 0hPa | 0V | 00:00:00 | 00:00:00 | 00:00:00 | |
| PG1ADW-2 | 2026-09-02 05:10:53 | 48.66706 | 17.80990 | 82° | 86km/h | 10301m | 4.8m/s | 0°C | 0% | 0hPa | 0V | 00:00:00 | 00:00:00 | 00:00:00 | |
| OM5KV | 2026-09-02 05:10:50 | 48.66696 | 17.80892 | 81° | 86km/h | 10292m | 3.8m/s | -48.1°C | 0% | 0hPa | 0V | 00:00:00 | 00:00:00 | 00:00:00 | |
| PETON7-10 | 2026-09-02 05:10:48 | 48.66687 | 17.80827 | 80° | 84km/h | 10278m | 3.8m/s | 0°C | 0% | 0hPa | 0V | 00:00:00 | 00:00:00 | 00:00:00 | |
| OM5KV | 2026-09-02 05:10:46 | 48.66680 | 17.80763 | 81° | 84km/h | 10275m | 3.7m/s | -48.0°C | 0% | 0hPa | 0V | 00:00:00 | 00:00:00 | 00:00:00 | |
| ATIDSZ-14 | 2026-09-02 05:10:44 | 48.66671 | 17.80699 | 78° | 84km/h | 10266m | 3.7m/s | -48.0°C | 0% | 0hPa | 0V | 00:00:00 | 00:00:00 | 00:00:00 | |
| OM5KV | 2026-09-02 05:10:41 | 48.66658 | 17.80606 | 79° | 86km/h | 10252m | 3.9m/s | -47.8°C | 0% | 0hPa | 0V | 00:00:00 | 00:00:00 | 00:00:00 | |
| OE5DRO-10 | 2026-09-02 05:10:38 | 48.66646 | 17.80510 | 82° | 84km/h | 10236m | 4.5m/s | 0°C | 0% | 0hPa | 0V | 00:00:00 | 00:00:00 | 00:00:00 | |
| OE3JTB-15 | 2026-09-02 05:10:35 | 48.66635 | 17.80415 | 78° | 84km/h | 10224m | 4.6m/s | 0°C | 0% | 0hPa | 0V | 00:00:00 | 00:00:00 | 00:00:00 | |
| PG1ADW-2 | 2026-09-02 05:10:33 | 48.66625 | 17.80353 | 76° | 84km/h | 10217m | 4.0m/s | 0°C | 0% | 0hPa | 0V | 00:00:00 | 00:00:00 | 00:00:00 | |
| OM5KV | 2026-09-02 05:10:32 | 48.66620 | 17.80323 | 77° | 82km/h | 10217m | 4.0m/s | -47.5°C | 0% | 0hPa | 0V | 00:00:00 | 00:00:00 | 00:00:00 | |
| OM5KV | 2026-09-02 05:10:29 | 48.66608 | 17.80229 | 82° | 84km/h | 10204m | 4.6m/s | -47.4°C | 0% | 0hPa | 0V | 00:00:00 | 00:00:00 | 00:00:00 | |
| OM5KV | 2026-09-02 05:10:25 | 48.66592 | 17.80100 | 80° | 88km/h | 10188m | 4.6m/s | -47.2°C | 0% | 0hPa | 0V | 00:00:00 | 00:00:00 | 00:00:00 | |
| ATIDSZ-14 | 2026-09-02 05:10:24 | 48.66588 | 17.80068 | 79° | 84km/h | 10184m | 3.8m/s | -47.2°C | 0% | 0hPa | 0V | 00:00:00 | 00:00:00 | 00:00:00 | |
| OM5KV | 2026-09-02 05:10:19 | 48.66568 | 17.79914 | 80° | 82km/h | 10163m | 4.3m/s | -47.1°C | 0% | 0hPa | 0V | 00:00:00 | 00:00:00 | 00:00:00 | |
| PETON7-10 | 2026-09-02 05:10:18 | 48.66563 | 17.79882 | 79° | 84km/h | 10156m | 4.4m/s | 0°C | 0% | 0hPa | 0V | 00:00:00 | 00:00:00 | 00:00:00 | |
| PG1ADW-2 | 2026-09-02 05:10:13 | 48.66541 | 17.79724 | 80° | 82km/h | 10135m | 4.6m/s | 0°C | 0% | 0hPa | 0V | 00:00:00 | 00:00:00 | 00:00:00 | |
| OM5KV | 2026-09-02 05:10:12 | 48.66537 | 17.79693 | 80° | 80km/h | 10135m | 4.6m/s | -46.9°C | 0% | 0hPa | 0V | 00:00:00 | 00:00:00 | 00:00:00 | |
| OM5KV | 2026-09-02 05:10:07 | 48.66516 | 17.79542 | 78° | 86km/h | 10114m | 3.7m/s | -46.8°C | 0% | 0hPa | 0V | 00:00:00 | 00:00:00 | 00:00:00 | |
| OM5KV | 2026-09-02 05:10:06 | 48.66506 | 17.79480 | 76° | 84km/h | 10107m | 3.8m/s | -46.7°C | 0% | 0hPa | 0V | 00:00:00 | 00:00:00 | 00:00:00 | |
| PETON7-10 | 2026-09-02 05:10:03 | 48.66496 | 17.79418 | 78° | 82km/h | 10094m | 4.6m/s | 0°C | 0% | 0hPa | 0V | 00:00:00 | 00:00:00 | 00:00:00 | |
| OM5KV | 2026-09-02 05:10:01 | 48.66486 | 17.79358 | 77° | 80km/h | 10090m | 3.4m/s | -46.6°C | 0% | 0hPa | 0V | 00:00:00 | 00:00:00 | 00:00:00 | |
| OE5DRO-10 | 2026-09-02 05:10:00 | 48.66481 | 17.79328 | 77° | 82km/h | 10082m | 3.8m/s | 0°C | 0% | 0hPa | 0V | 00:00:00 | 00:00:00 | 00:00:00 | |
| OM5KV | 2026-09-02 05:09:57 | 48.66467 | 17.79238 | 76° | 80km/h | 10074m | 4.5m/s | -46.5°C | 0% | 0hPa | 0V | 00:00:00 | 00:00:00 | 00:00:00 | |
| OM5KV | 2026-09-02 05:09:56 | 48.66461 | 17.79208 | 77° | 82km/h | 10069m | 4.0m/s | -46.4°C | 0% | 0hPa | 0V | 00:00:00 | 00:00:00 | 00:00:00 | |
| PG1ADW-2 | 2026-09-02 05:09:53 | 48.66445 | 17.79116 | 77° | 82km/h | 10052m | 4.0m/s | 0°C | 0% | 0hPa | 0V | 00:00:00 | 00:00:00 | 00:00:00 | |
| OM5KV | 2026-09-02 05:09:50 | 48.66431 | 17.79025 | 78° | 80km/h | 10043m | 4.6m/s | -46.3°C | 0% | 0hPa | 0V | 00:00:00 | 00:00:00 | 00:00:00 | |
| PETON7-10 | 2026-09-02 05:09:48 | 48.66423 | 17.78965 | 78° | 82km/h | 10030m | 3.8m/s | 0°C | 0% | 0hPa | 0V | 00:00:00 | 00:00:00 | 00:00:00 | |
| ATIDSZ-14 | 2026-09-02 05:09:43 | 48.66398 | 17.78812 | 77° | 82km/h | 10013m | 3.9m/s | -46.1°C | 0% | 0hPa | 0V | 00:00:00 | 00:00:00 | 00:00:00 | |
| OE5DRO-10 | 2026-09-02 05:09:41 | 48.66388 | 17.78750 | 77° | 82km/h | 10001m | 4.2m/s | 0°C | 0% | 0hPa | 0V | 00:00:00 | 00:00:00 | 00:00:00 | |
| OM5KV | 2026-09-02 05:09:39 | 48.66380 | 17.78691 | 78° | 78km/h | 9997m | 3.9m/s | -45.9°C | 0% | 0hPa | 0V | 00:00:00 | 00:00:00 | 00:00:00 | |
| OM5KV | 2026-09-02 05:09:38 | 48.66375 | 17.78661 | 79° | 80km/h | 9992m | 4.8m/s | -45.9°C | 0% | 0hPa | 0V | 00:00:00 | 00:00:00 | 00:00:00 | |
| OE3JTB-15 | 2026-09-02 05:09:37 | 48.66370 | 17.78631 | 78° | 82km/h | 9984m | 4.5m/s | 0°C | 0% | 0hPa | 0V | 00:00:00 | 00:00:00 | 00:00:00 | |
| PG1ADW-2 | 2026-09-02 05:09:33 | 48.66353 | 17.78508 | 79° | 82km/h | 9967m | 4.1m/s | 0°C | 0% | 0hPa | 0V | 00:00:00 | 00:00:00 | 00:00:00 | |
| OM5KV | 2026-09-02 05:09:31 | 48.66344 | 17.78447 | 78° | 80km/h | 9963m | 3.7m/s | -45.8°C | 0% | 0hPa | 0V | 00:00:00 | 00:00:00 | 00:00:00 | |
| OE5DXL-15 | 2026-09-02 05:09:29 | 48.66335 | 17.78386 | 77° | 82km/h | 9951m | 4.2m/s | 0°C | 0% | 0hPa | 0V | 00:00:00 | 00:00:00 | 00:00:00 | |
| OM5KV | 2026-09-02 05:09:26 | 48.66320 | 17.78296 | 78° | 82km/h | 9943m | 4.2m/s | -45.6°C | 0% | 0hPa | 0V | 00:00:00 | 00:00:00 | 00:00:00 | |
| OE5DRO-10 | 2026-09-02 05:09:22 | 48.66301 | 17.78174 | 78° | 82km/h | 9922m | 4.8m/s | 0°C | 0% | 0hPa | 0V | 00:00:00 | 00:00:00 | 00:00:00 | |
| OM5KV | 2026-09-02 05:09:21 | 48.66291 | 17.78112 | 78° | 82km/h | 9917m | 4.9m/s | -45.5°C | 0% | 0hPa | 0V | 00:00:00 | 00:00:00 | 00:00:00 | |
| PETON7-10 | 2026-09-02 05:09:18 | 48.66282 | 17.78050 | 77° | 82km/h | 9904m | 4.4m/s | 0°C | 0% | 0hPa | 0V | 00:00:00 | 00:00:00 | 00:00:00 | |
| OM5KV | 2026-09-02 05:09:15 | 48.66263 | 17.77929 | 76° | 82km/h | 9891m | 3.7m/s | -45.3°C | 0% | 0hPa | 0V | 00:00:00 | 00:00:00 | 00:00:00 | |
| PG1ADW-2 | 2026-09-02 05:09:13 | 48.66258 | 17.77899 | 78° | 82km/h | 9882m | 3.3m/s | 0°C | 0% | 0hPa | 0V | 00:00:00 | 00:00:00 | 00:00:00 | |
| OM5KV | 2026-09-02 05:09:10 | 48.66244 | 17.77806 | 79° | 82km/h | 9873m | 4.5m/s | -45.2°C | 0% | 0hPa | 0V | 00:00:00 | 00:00:00 | 00:00:00 | |
| OE3JTB-15 | 2026-09-02 05:09:08 | 48.66236 | 17.77745 | 77° | 82km/h | 9859m | 4.0m/s | 0°C | 0% | 0hPa | 0V | 00:00:00 | 00:00:00 | 00:00:00 | |
| PETON7-10 | 2026-09-02 05:09:03 | 48.66212 | 17.77593 | 78° | 82km/h | 9838m | 4.2m/s | 0°C | 0% | 0hPa | 0V | 00:00:00 | 00:00:00 | 00:00:00 | |
| ATIDSZ-14 | 2026-09-02 05:09:02 | 48.66208 | 17.77562 | 80° | 84km/h | 9838m | 4.2m/s | -44.9°C | 0% | 0hPa | 0V | 00:00:00 | 00:00:00 | 00:00:00 | |
| OM5KV | 2026-09-02 05:08:57 | 48.66186 | 17.77408 | 77° | 84km/h | 9815m | 3.5m/s | -44.8°C | 0% | 0hPa | 0V | 00:00:00 | 00:00:00 | 00:00:00 | |
| OM5KV | 2026-09-02 05:08:56 | 48.66181 | 17.77377 | 77° | 86km/h | 9811m | 5.4m/s | -44.7°C | 0% | 0hPa | 0V | 00:00:00 | 00:00:00 | 00:00:00 | |
| PG1ADW-2 | 2026-09-02 05:08:53 | 48.66166 | 17.77283 | 79° | 82km/h | 9793m | 3.7m/s | 0°C | 0% | 0hPa | 0V | 00:00:00 | 00:00:00 | 00:00:00 | |
| OM5KV | 2026-09-02 05:08:51 | 48.66154 | 17.77193 | 78° | 80km/h | 9784m | 3.8m/s | -44.6°C | 0% | 0hPa | 0V | 00:00:00 | 00:00:00 | 00:00:00 | |
| PETON7-10 | 2026-09-02 05:08:48 | 48.66145 | 17.77132 | 77° | 82km/h | 9772m | 4.5m/s | 0°C | 0% | 0hPa | 0V | 00:00:00 | 00:00:00 | 00:00:00 | |
| OM5KV | 2026-09-02 05:08:45 | 48.66129 | 17.77040 | 77° | 82km/h | 9762m | 3.8m/s | -44.5°C | 0% | 0hPa | 0V | 00:00:00 | 00:00:00 | 00:00:00 | |
| OE5DRO-10 | 2026-09-02 05:08:44 | 48.66124 | 17.77010 | 76° | 84km/h | 9754m | 4.0m/s | 0°C | 0% | 0hPa | 0V | 00:00:00 | 00:00:00 | 00:00:00 | |
| ATIDSZ-14 | 2026-09-02 05:08:41 | 48.66110 | 17.76918 | 78° | 82km/h | 9745m | 4.9m/s | -44.4°C | 0% | 0hPa | 0V | 00:00:00 | 00:00:00 | 00:00:00 | |
| OE3JTB-15 | 2026-09-02 05:08:39 | 48.66100 | 17.76856 | 78° | 82km/h | 9732m | 4.2m/s | 0°C | 0% | 0hPa | 0V | 00:00:00 | 00:00:00 | 00:00:00 | |
| OM5KV | 2026-09-02 05:08:34 | 48.66077 | 17.76704 | 77° | 82km/h | 9716m | 4.5m/s | -44.1°C | 0% | 0hPa | 0V | 00:00:00 | 00:00:00 | 00:00:00 | |
| PG1ADW-2 | 2026-09-02 05:08:33 | 48.66071 | 17.76673 | 75° | 82km/h | 9707m | 5.0m/s | 0°C | 0% | 0hPa | 0V | 00:00:00 | 00:00:00 | 00:00:00 | |
| OM5KV | 2026-09-02 05:08:28 | 48.66041 | 17.76519 | 75° | 84km/h | 9690m | 5.0m/s | -44.0°C | 0% | 0hPa | 0V | 00:00:00 | 00:00:00 | 00:00:00 | |
| OM5KV | 2026-09-02 05:08:27 | 48.66036 | 17.76488 | 77° | 84km/h | 9686m | 3.5m/s | -44.0°C | 0% | 0hPa | 0V | 00:00:00 | 00:00:00 | 00:00:00 | |
| OE5DRO-10 | 2026-09-02 05:08:25 | 48.66026 | 17.76425 | 77° | 80km/h | 9677m | 4.2m/s | 0°C | 0% | 0hPa | 0V | 00:00:00 | 00:00:00 | 00:00:00 | |
| ATIDSZ-14 | 2026-09-02 05:08:21 | 48.66005 | 17.76302 | 75° | 84km/h | 9659m | 4.9m/s | -44.0°C | 0% | 0hPa | 0V | 00:00:00 | 00:00:00 | 00:00:00 | |
| OM5KV | 2026-09-02 05:08:20 | 48.65999 | 17.76272 | 74° | 84km/h | 9655m | 3.5m/s | -43.9°C | 0% | 0hPa | 0V | 00:00:00 | 00:00:00 | 00:00:00 | |
| PETON7-10 | 2026-09-02 05:08:18 | 48.65986 | 17.76212 | 70° | 77km/h | 9642m | 4.6m/s | 0°C | 0% | 0hPa | 0V | 00:00:00 | 00:00:00 | 00:00:00 | |
| OM5KV | 2026-09-02 05:08:17 | 48.65979 | 17.76184 | 72° | 78km/h | 9642m | 4.7m/s | -43.9°C | 0% | 0hPa | 0V | 00:00:00 | 00:00:00 | 00:00:00 | |
| OM5KV | 2026-09-02 05:08:14 | 48.65961 | 17.76101 | 72° | 77km/h | 9628m | 4.0m/s | -43.7°C | 0% | 0hPa | 0V | 00:00:00 | 00:00:00 | 00:00:00 | |
| PG1ADW-2 | 2026-09-02 05:08:13 | 48.65955 | 17.76072 | 73° | 82km/h | 9619m | 4.2m/s | 0°C | 0% | 0hPa | 0V | 00:00:00 | 00:00:00 | 00:00:00 | |
| OM5KV | 2026-09-02 05:08:11 | 48.65943 | 17.76015 | 73° | 78km/h | 9616m | 3.7m/s | -43.6°C | 0% | 0hPa | 0V | 00:00:00 | 00:00:00 | 00:00:00 | |
| OE3JTB-15 | 2026-09-02 05:08:10 | 48.65937 | 17.75986 | 74° | 78km/h | 9608m | 3.6m/s | 0°C | 0% | 0hPa | 0V | 00:00:00 | 00:00:00 | 00:00:00 | |
| OM5KV | 2026-09-02 05:08:07 | 48.65919 | 17.75903 | 70° | 75km/h | 9598m | 3.7m/s | -43.5°C | 0% | 0hPa | 0V | 00:00:00 | 00:00:00 | 00:00:00 | |
| OE5DRO-10 | 2026-09-02 05:08:06 | 48.65913 | 17.75877 | 71° | 78km/h | 9591m | 4.4m/s | 0°C | 0% | 0hPa | 0V | 00:00:00 | 00:00:00 | 00:00:00 | |
| OM5KV | 2026-09-02 05:08:05 | 48.65906 | 17.75849 | 71° | 77km/h | 9591m | 4.5m/s | -43.5°C | 0% | 0hPa | 0V | 00:00:00 | 00:00:00 | 00:00:00 | |
| PETON7-10 | 2026-09-02 05:08:03 | 48.65893 | 17.75793 | 70° | 78km/h | 9577m | 4.2m/s | 0°C | 0% | 0hPa | 0V | 00:00:00 | 00:00:00 | 00:00:00 | |
| ATIDSZ-14 | 2026-09-02 05:08:00 | 48.65872 | 17.75706 | 71° | 80km/h | 9569m | 4.9m/s | -43.3°C | 0% | 0hPa | 0V | 00:00:00 | 00:00:00 | 00:00:00 | |
| OM5KV | 2026-09-02 05:07:59 | 48.65858 | 17.75650 | 71° | 77km/h | 9560m | 5.3m/s | -43.2°C | 0% | 0hPa | 0V | 00:00:00 | 00:00:00 | 00:00:00 | |
| OM5KV | 2026-09-02 05:07:53 | 48.65825 | 17.75512 | 72° | 78km/h | 9539m | 3.1m/s | -43.1°C | 0% | 0hPa | 0V | 00:00:00 | 00:00:00 | 00:00:00 | |
| PETON7-10 | 2026-09-02 05:07:48 | 48.65790 | 17.75371 | 68° | 77km/h | 9512m | 5.4m/s | 0°C | 0% | 0hPa | 0V | 00:00:00 | 00:00:00 | 00:00:00 | |
| OE5DRO-10 | 2026-09-02 05:07:47 | 48.65782 | 17.75343 | 68° | 78km/h | 9508m | 3.5m/s | 0°C | 0% | 0hPa | 0V | 00:00:00 | 00:00:00 | 00:00:00 | |
| OE3JTB-15 | 2026-09-02 05:07:41 | 48.65735 | 17.75179 | 66° | 80km/h | 9482m | 2.9m/s | 0°C | 0% | 0hPa | 0V | 00:00:00 | 00:00:00 | 00:00:00 | |
| ATIDSZ-14 | 2026-09-02 05:07:40 | 48.65727 | 17.75153 | 66° | 75km/h | 9482m | 3.0m/s | -42.8°C | 0% | 0hPa | 0V | 00:00:00 | 00:00:00 | 00:00:00 | |
| OM5KV | 2026-09-02 05:07:36 | 48.65695 | 17.75046 | 68° | 77km/h | 9466m | 3.6m/s | -42.7°C | 0% | 0hPa | 0V | 00:00:00 | 00:00:00 | 00:00:00 | |
| PETON7-10 | 2026-09-02 05:07:33 | 48.65673 | 17.74964 | 67° | 78km/h | 9449m | 2.6m/s | 0°C | 0% | 0hPa | 0V | 00:00:00 | 00:00:00 | 00:00:00 | |
| OM5KV | 2026-09-02 05:07:32 | 48.65665 | 17.74937 | 65° | 77km/h | 9449m | 2.7m/s | -42.6°C | 0% | 0hPa | 0V | 00:00:00 | 00:00:00 | 00:00:00 | |
| OM5KV | 2026-09-02 05:07:30 | 48.65647 | 17.74884 | 63° | 80km/h | 9439m | 5.3m/s | -42.5°C | 0% | 0hPa | 0V | 00:00:00 | 00:00:00 | 00:00:00 | |
| OE5DRO-10 | 2026-09-02 05:07:28 | 48.65628 | 17.74830 | 64° | 82km/h | 9423m | 5.0m/s | 0°C | 0% | 0hPa | 0V | 00:00:00 | 00:00:00 | 00:00:00 | |
| OM5KV | 2026-09-02 05:07:26 | 48.65611 | 17.74775 | 69° | 82km/h | 9418m | 4.5m/s | -42.3°C | 0% | 0hPa | 0V | 00:00:00 | 00:00:00 | 00:00:00 | |
| OM5KV | 2026-09-02 05:07:25 | 48.65603 | 17.74746 | 70° | 82km/h | 9413m | 4.2m/s | -42.3°C | 0% | 0hPa | 0V | 00:00:00 | 00:00:00 | 00:00:00 | |
| OM5KV | 2026-09-02 05:07:20 | 48.65556 | 17.74578 | 67° | 80km/h | 9382m | 7.8m/s | -42.0°C | 0% | 0hPa | 0V | 00:00:00 | 00:00:00 | 00:00:00 | |
| ATIDSZ-14 | 2026-09-02 05:07:19 | 48.65556 | 17.74578 | 67° | 80km/h | 9382m | 7.8m/s | -42.0°C | 0% | 0hPa | 0V | 00:00:00 | 00:00:00 | 00:00:00 | |
| PETON7-10 | 2026-09-02 05:07:18 | 48.65547 | 17.74550 | 65° | 82km/h | 9371m | 5.8m/s | 0°C | 0% | 0hPa | 0V | 00:00:00 | 00:00:00 | 00:00:00 | |
| OM5KV | 2026-09-02 05:07:13 | 48.65501 | 17.74401 | 63° | 89km/h | 9351m | 5.2m/s | -41.7°C | 0% | 0hPa | 0V | 00:00:00 | 00:00:00 | 00:00:00 | |
| OE3JTB-15 | 2026-09-02 05:07:12 | 48.65490 | 17.74369 | 66° | 84km/h | 9341m | 3.7m/s | 0°C | 0% | 0hPa | 0V | 00:00:00 | 00:00:00 | 00:00:00 | |
| OE5DRO-10 | 2026-09-02 05:07:09 | 48.65464 | 17.74286 | 66° | 82km/h | 9325m | 4.4m/s | 0°C | 0% | 0hPa | 0V | 00:00:00 | 00:00:00 | 00:00:00 | |
| OM5KV | 2026-09-02 05:07:07 | 48.65447 | 17.74231 | 67° | 78km/h | 9320m | 5.5m/s | -41.5°C | 0% | 0hPa | 0V | 00:00:00 | 00:00:00 | 00:00:00 | |
| OM5KV | 2026-09-02 05:06:59 | 48.65384 | 17.73997 | 68° | 84km/h | 9278m | 4.2m/s | -40.9°C | 0% | 0hPa | 0V | 00:00:00 | 00:00:00 | 00:00:00 | |
| OM5KV | 2026-09-02 05:06:53 | 48.65332 | 17.73823 | 68° | 89km/h | 9247m | 6.5m/s | -40.8°C | 0% | 0hPa | 0V | 00:00:00 | 00:00:00 | 00:00:00 | |
| OM5KV | 2026-09-02 05:06:50 | 48.65297 | 17.73701 | 66° | 82km/h | 9226m | 5.8m/s | -40.7°C | 0% | 0hPa | 0V | 00:00:00 | 00:00:00 | 00:00:00 | |
| OM5KV | 2026-09-02 05:06:48 | 48.65279 | 17.73644 | 67° | 80km/h | 9216m | 3.0m/s | -40.5°C | 0% | 0hPa | 0V | 00:00:00 | 00:00:00 | 00:00:00 | |
| OE3JTB-15 | 2026-09-02 05:06:43 | 48.65244 | 17.73530 | 68° | 84km/h | 9191m | 5.3m/s | 0°C | 0% | 0hPa | 0V | 00:00:00 | 00:00:00 | 00:00:00 | |
| ATIDSZ-14 | 2026-09-02 05:06:38 | 48.65203 | 17.73380 | 69° | 84km/h | 9173m | 4.0m/s | -40.1°C | 0% | 0hPa | 0V | 00:00:00 | 00:00:00 | 00:00:00 | |
| PG1ADW-2 | 2026-09-02 05:06:37 | 48.65195 | 17.73350 | 67° | 84km/h | 9164m | 4.1m/s | 0°C | 0% | 0hPa | 0V | 00:00:00 | 00:00:00 | 00:00:00 | |
| OM5KV | 2026-09-02 05:06:35 | 48.65159 | 17.73232 | 65° | 86km/h | 9149m | 3.5m/s | -39.9°C | 0% | 0hPa | 0V | 00:00:00 | 00:00:00 | 00:00:00 | |
| PETON7-10 | 2026-09-02 05:06:33 | 48.65159 | 17.73231 | 65° | 84km/h | 9145m | 5.1m/s | 0°C | 0% | 0hPa | 0V | 00:00:00 | 00:00:00 | 00:00:00 | |
| OE5DRO-10 | 2026-09-02 05:06:31 | 48.65142 | 17.73175 | 65° | 84km/h | 9136m | 5.0m/s | 0°C | 0% | 0hPa | 0V | 00:00:00 | 00:00:00 | 00:00:00 | |
| OM5KV | 2026-09-02 05:06:30 | 48.65133 | 17.73148 | 65° | 78km/h | 9136m | 5.0m/s | -39.8°C | 0% | 0hPa | 0V | 00:00:00 | 00:00:00 | 00:00:00 | |
| PETON7-10 | 2026-09-02 05:06:18 | 48.65034 | 17.72798 | 67° | 84km/h | 9074m | 4.6m/s | 0°C | 0% | 0hPa | 0V | 00:00:00 | 00:00:00 | 00:00:00 | |
| PG1ADW-2 | 2026-09-02 05:06:17 | 48.65025 | 17.72769 | 67° | 84km/h | 9070m | 4.0m/s | 0°C | 0% | 0hPa | 0V | 00:00:00 | 00:00:00 | 00:00:00 | |
| OM5KV | 2026-09-02 05:06:16 | 48.65010 | 17.72739 | 70° | 86km/h | 9070m | 4.0m/s | -39.2°C | 0% | 0hPa | 0V | 00:00:00 | 00:00:00 | 00:00:00 | |
| OE3JTB-15 | 2026-09-02 05:06:14 | 48.65003 | 17.72677 | 68° | 84km/h | 9056m | 4.3m/s | 0°C | 0% | 0hPa | 0V | 00:00:00 | 00:00:00 | 00:00:00 | |
| OE5DRO-10 | 2026-09-02 05:06:12 | 48.64987 | 17.72618 | 67° | 84km/h | 9046m | 5.6m/s | 0°C | 0% | 0hPa | 0V | 00:00:00 | 00:00:00 | 00:00:00 | |
| OM5KV | 2026-09-02 05:06:10 | 48.64968 | 17.72557 | 67° | 88km/h | 9042m | 4.2m/s | -39.1°C | 0% | 0hPa | 0V | 00:00:00 | 00:00:00 | 00:00:00 | |
| OM5KV | 2026-09-02 05:06:06 | 48.64937 | 17.72439 | 71° | 82km/h | 9023m | 4.4m/s | -38.9°C | 0% | 0hPa | 0V | 00:00:00 | 00:00:00 | 00:00:00 | |
| OM5KV | 2026-09-02 05:06:05 | 48.64923 | 17.72380 | 71° | 84km/h | 9013m | 4.1m/s | -38.8°C | 0% | 0hPa | 0V | 00:00:00 | 00:00:00 | 00:00:00 | |
| PETON7-10 | 2026-09-02 05:06:03 | 48.64916 | 17.72349 | 70° | 84km/h | 9003m | 5.8m/s | 0°C | 0% | 0hPa | 0V | 00:00:00 | 00:00:00 | 00:00:00 | |
| OM5KV | 2026-09-02 05:06:01 | 48.64892 | 17.72259 | 70° | 84km/h | 8993m | 5.9m/s | -38.6°C | 0% | 0hPa | 0V | 00:00:00 | 00:00:00 | 00:00:00 | |
| OM5KV | 2026-09-02 05:05:59 | 48.64885 | 17.72229 | 71° | 84km/h | 8988m | 4.3m/s | -38.6°C | 0% | 0hPa | 0V | 00:00:00 | 00:00:00 | 00:00:00 | |
| OE5DRO-10 | 2026-09-02 05:05:53 | 48.64836 | 17.72058 | 67° | 86km/h | 8954m | 4.9m/s | 0°C | 0% | 0hPa | 0V | 00:00:00 | 00:00:00 | 00:00:00 | |
| PETON7-10 | 2026-09-02 05:05:48 | 48.64797 | 17.71897 | 72° | 86km/h | 8930m | 5.0m/s | 0°C | 0% | 0hPa | 0V | 00:00:00 | 00:00:00 | 00:00:00 | |
| OE3JTB-15 | 2026-09-02 05:05:45 | 48.64774 | 17.71806 | 66° | 86km/h | 8914m | 5.6m/s | 0°C | 0% | 0hPa | 0V | 00:00:00 | 00:00:00 | 00:00:00 | |
| OM5KV | 2026-09-02 05:05:41 | 48.64741 | 17.71692 | 68° | 82km/h | 8898m | 6.5m/s | -37.7°C | 0% | 0hPa | 0V | 00:00:00 | 00:00:00 | 00:00:00 | |
| PG1ADW-2 | 2026-09-02 05:05:37 | 48.64711 | 17.71568 | 74° | 88km/h | 8872m | 4.2m/s | 0°C | 0% | 0hPa | 0V | 00:00:00 | 00:00:00 | 00:00:00 | |
| ATIDSZ-14 | 2026-09-02 05:05:36 | 48.64704 | 17.71534 | 75° | 91km/h | 8872m | 4.2m/s | -37.5°C | 0% | 0hPa | 0V | 00:00:00 | 00:00:00 | 00:00:00 | |
| OE5DRO-10 | 2026-09-02 05:05:34 | 48.64691 | 17.71468 | 71° | 86km/h | 8856m | 5.0m/s | 0°C | 0% | 0hPa | 0V | 00:00:00 | 00:00:00 | 00:00:00 | |
| PETON7-10 | 2026-09-02 05:05:33 | 48.64683 | 17.71434 | 66° | 86km/h | 8852m | 3.4m/s | 0°C | 0% | 0hPa | 0V | 00:00:00 | 00:00:00 | 00:00:00 | |
| OM5KV | 2026-09-02 05:05:24 | 48.64610 | 17.71166 | 71° | 89km/h | 8807m | 4.0m/s | -37.0°C | 0% | 0hPa | 0V | 00:00:00 | 00:00:00 | 00:00:00 | |
| OM5KV | 2026-09-02 05:05:23 | 48.64593 | 17.71102 | 70° | 88km/h | 8797m | 7.1m/s | -36.8°C | 0% | 0hPa | 0V | 00:00:00 | 00:00:00 | 00:00:00 | |
| PETON7-10 | 2026-09-02 05:05:18 | 48.64561 | 17.70977 | 71° | 89km/h | 8769m | 5.6m/s | 0°C | 0% | 0hPa | 0V | 00:00:00 | 00:00:00 | 00:00:00 | |
| PG1ADW-2 | 2026-09-02 05:05:17 | 48.64553 | 17.70945 | 71° | 91km/h | 8764m | 3.9m/s | 0°C | 0% | 0hPa | 0V | 00:00:00 | 00:00:00 | 00:00:00 | |
| OE3JTB-15 | 2026-09-02 05:05:16 | 48.64545 | 17.70911 | 70° | 91km/h | 8759m | 5.3m/s | 0°C | 0% | 0hPa | 0V | 00:00:00 | 00:00:00 | 00:00:00 | |
| OE5DRO-10 | 2026-09-02 05:05:15 | 48.64538 | 17.70880 | 70° | 91km/h | 8754m | 5.3m/s | 0°C | 0% | 0hPa | 0V | 00:00:00 | 00:00:00 | 00:00:00 | |
| OM5KV | 2026-09-02 05:05:11 | 48.64498 | 17.70719 | 72° | 91km/h | 8733m | 5.3m/s | -36.4°C | 0% | 0hPa | 0V | 00:00:00 | 00:00:00 | 00:00:00 | |
| OM5KV | 2026-09-02 05:05:05 | 48.64458 | 17.70557 | 70° | 88km/h | 8707m | 7.7m/s | -36.2°C | 0% | 0hPa | 0V | 00:00:00 | 00:00:00 | 00:00:00 | |
| PETON7-10 | 2026-09-02 05:05:03 | 48.64443 | 17.70495 | 71° | 91km/h | 8690m | 4.9m/s | 0°C | 0% | 0hPa | 0V | 00:00:00 | 00:00:00 | 00:00:00 | |
| PG1ADW-2 | 2026-09-02 05:04:57 | 48.64396 | 17.70295 | 71° | 91km/h | 8659m | 4.0m/s | 0°C | 0% | 0hPa | 0V | 00:00:00 | 00:00:00 | 00:00:00 | |
| OE5DRO-10 | 2026-09-02 05:04:56 | 48.64388 | 17.70262 | 73° | 91km/h | 8654m | 7.2m/s | 0°C | 0% | 0hPa | 0V | 00:00:00 | 00:00:00 | 00:00:00 | |
| ATIDSZ-14 | 2026-09-02 05:04:55 | 48.64381 | 17.70229 | 73° | 89km/h | 8654m | 7.3m/s | -35.7°C | 0% | 0hPa | 0V | 00:00:00 | 00:00:00 | 00:00:00 | |
| PETON7-10 | 2026-09-02 05:04:48 | 48.64327 | 17.70002 | 69° | 91km/h | 8611m | 6.2m/s | 0°C | 0% | 0hPa | 0V | 00:00:00 | 00:00:00 | 00:00:00 | |
| OE3JTB-15 | 2026-09-02 05:04:47 | 48.64318 | 17.69969 | 69° | 91km/h | 8606m | 3.3m/s | 0°C | 0% | 0hPa | 0V | 00:00:00 | 00:00:00 | 00:00:00 | |
| PG1ADW-2 | 2026-09-02 05:04:37 | 48.64238 | 17.69645 | 67° | 91km/h | 8553m | 3.9m/s | 0°C | 0% | 0hPa | 0V | 00:00:00 | 00:00:00 | 00:00:00 | |
| ATIDSZ-14 | 2026-09-02 05:04:35 | 48.64219 | 17.69581 | 68° | 91km/h | 8548m | 5.9m/s | -34.9°C | 0% | 0hPa | 0V | 00:00:00 | 00:00:00 | 00:00:00 | |
| PETON7-10 | 2026-09-02 05:04:33 | 48.64202 | 17.69519 | 71° | 91km/h | 8534m | 3.0m/s | 0°C | 0% | 0hPa | 0V | 00:00:00 | 00:00:00 | 00:00:00 | |
| OM5KV | 2026-09-02 05:04:30 | 48.64179 | 17.69423 | 72° | 91km/h | 8523m | 4.7m/s | -34.6°C | 0% | 0hPa | 0V | 00:00:00 | 00:00:00 | 00:00:00 | |
| OM5KV | 2026-09-02 05:04:27 | 48.64158 | 17.69320 | 74° | 95km/h | 8508m | 4.7m/s | -34.5°C | 0% | 0hPa | 0V | 00:00:00 | 00:00:00 | 00:00:00 | |
| OM5KV | 2026-09-02 05:04:23 | 48.64125 | 17.69190 | 69° | 89km/h | 8489m | 3.9m/s | -34.3°C | 0% | 0hPa | 0V | 00:00:00 | 00:00:00 | 00:00:00 | |
| OM5KV | 2026-09-02 05:04:21 | 48.64108 | 17.69126 | 71° | 89km/h | 8478m | 6.2m/s | -34.2°C | 0% | 0hPa | 0V | 00:00:00 | 00:00:00 | 00:00:00 | |
| OE3JTB-15 | 2026-09-02 05:04:18 | 48.64085 | 17.69029 | 71° | 93km/h | 8457m | 4.1m/s | 0°C | 0% | 0hPa | 0V | 00:00:00 | 00:00:00 | 00:00:00 | |
| OM5KV | 2026-09-02 05:04:17 | 48.64069 | 17.68961 | 72° | 95km/h | 8453m | 3.4m/s | -34.1°C | 0% | 0hPa | 0V | 00:00:00 | 00:00:00 | 00:00:00 | |
| OM5KV | 2026-09-02 05:04:15 | 48.64060 | 17.68927 | 71° | 95km/h | 8448m | 7.0m/s | -34.0°C | 0% | 0hPa | 0V | 00:00:00 | 00:00:00 | 00:00:00 | |
| ATIDSZ-14 | 2026-09-02 05:04:14 | 48.64052 | 17.68893 | 69° | 91km/h | 8441m | 6.4m/s | -34.0°C | 0% | 0hPa | 0V | 00:00:00 | 00:00:00 | 00:00:00 | |
| OM5KV | 2026-09-02 05:04:03 | 48.63963 | 17.68531 | 70° | 91km/h | 8384m | 4.2m/s | -33.6°C | 0% | 0hPa | 0V | 00:00:00 | 00:00:00 | 00:00:00 | |
| OE5DRO-10 | 2026-09-02 05:03:59 | 48.63932 | 17.68402 | 74° | 93km/h | 8356m | 5.0m/s | 0°C | 0% | 0hPa | 0V | 00:00:00 | 00:00:00 | 00:00:00 | |
| PG1ADW-2 | 2026-09-02 05:03:57 | 48.63919 | 17.68334 | 76° | 91km/h | 8344m | 5.7m/s | 0°C | 0% | 0hPa | 0V | 00:00:00 | 00:00:00 | 00:00:00 | |
| ATIDSZ-14 | 2026-09-02 05:03:54 | 48.63900 | 17.68228 | 74° | 95km/h | 8335m | 4.6m/s | -33.2°C | 0% | 0hPa | 0V | 00:00:00 | 00:00:00 | 00:00:00 | |
| OE3JTB-15 | 2026-09-02 05:03:49 | 48.63864 | 17.68062 | 71° | 91km/h | 8308m | 4.7m/s | 0°C | 0% | 0hPa | 0V | 00:00:00 | 00:00:00 | 00:00:00 | |
| PETON7-10 | 2026-09-02 05:03:48 | 48.63857 | 17.68031 | 71° | 91km/h | 8303m | 5.5m/s | 0°C | 0% | 0hPa | 0V | 00:00:00 | 00:00:00 | 00:00:00 | |
| OM5KV | 2026-09-02 05:03:44 | 48.63826 | 17.67896 | 74° | 95km/h | 8289m | 5.3m/s | -33.0°C | 0% | 0hPa | 0V | 00:00:00 | 00:00:00 | 00:00:00 | |
| OM5KV | 2026-09-02 05:03:42 | 48.63812 | 17.67828 | 74° | 91km/h | 8280m | 4.5m/s | -32.9°C | 0% | 0hPa | 0V | 00:00:00 | 00:00:00 | 00:00:00 | |
| OE5DRO-10 | 2026-09-02 05:03:40 | 48.63800 | 17.67762 | 75° | 89km/h | 8265m | 5.6m/s | 0°C | 0% | 0hPa | 0V | 00:00:00 | 00:00:00 | 00:00:00 | |
| OM5KV | 2026-09-02 05:03:38 | 48.63787 | 17.67696 | 73° | 91km/h | 8259m | 4.7m/s | -32.7°C | 0% | 0hPa | 0V | 00:00:00 | 00:00:00 | 00:00:00 | |
| PG1ADW-2 | 2026-09-02 05:03:37 | 48.63780 | 17.67663 | 73° | 89km/h | 8251m | 5.0m/s | 0°C | 0% | 0hPa | 0V | 00:00:00 | 00:00:00 | 00:00:00 | |
| PETON7-10 | 2026-09-02 05:03:33 | 48.63753 | 17.67531 | 72° | 89km/h | 8234m | 5.2m/s | 0°C | 0% | 0hPa | 0V | 00:00:00 | 00:00:00 | 00:00:00 | |
| OM5KV | 2026-09-02 05:03:25 | 48.63699 | 17.67267 | 76° | 91km/h | 8204m | 5.2m/s | -32.3°C | 0% | 0hPa | 0V | 00:00:00 | 00:00:00 | 00:00:00 | |
| OE5DRO-10 | 2026-09-02 05:03:21 | 48.63675 | 17.67137 | 73° | 88km/h | 8182m | 4.8m/s | 0°C | 0% | 0hPa | 0V | 00:00:00 | 00:00:00 | 00:00:00 | |
| OE3JTB-15 | 2026-09-02 05:03:20 | 48.63668 | 17.67105 | 73° | 88km/h | 8177m | 4.0m/s | 0°C | 0% | 0hPa | 0V | 00:00:00 | 00:00:00 | 00:00:00 | |
| PETON7-10 | 2026-09-02 05:03:18 | 48.63655 | 17.67041 | 73° | 88km/h | 8168m | 4.6m/s | 0°C | 0% | 0hPa | 0V | 00:00:00 | 00:00:00 | 00:00:00 | |
| PG1ADW-2 | 2026-09-02 05:03:17 | 48.63648 | 17.67009 | 75° | 89km/h | 8164m | 3.9m/s | 0°C | 0% | 0hPa | 0V | 00:00:00 | 00:00:00 | 00:00:00 | |
| OM5KV | 2026-09-02 05:03:16 | 48.63642 | 17.66978 | 76° | 86km/h | 8164m | 3.9m/s | -32.0°C | 0% | 0hPa | 0V | 00:00:00 | 00:00:00 | 00:00:00 | |
| OM5KV | 2026-09-02 05:03:13 | 48.63620 | 17.66848 | 76° | 89km/h | 8145m | 5.2m/s | -31.8°C | 0% | 0hPa | 0V | 00:00:00 | 00:00:00 | 00:00:00 | |
| OM5KV | 2026-09-02 05:03:11 | 48.63614 | 17.66815 | 75° | 91km/h | 8141m | 3.8m/s | -31.8°C | 0% | 0hPa | 0V | 00:00:00 | 00:00:00 | 00:00:00 | |
| OM5KV | 2026-09-02 05:03:05 | 48.63577 | 17.66621 | 74° | 89km/h | 8113m | 4.9m/s | -31.6°C | 0% | 0hPa | 0V | 00:00:00 | 00:00:00 | 00:00:00 | |
| OE5DRO-10 | 2026-09-02 05:03:02 | 48.63557 | 17.66519 | 78° | 88km/h | 8092m | 3.9m/s | 0°C | 0% | 0hPa | 0V | 00:00:00 | 00:00:00 | 00:00:00 | |
| OM5KV | 2026-09-02 05:03:00 | 48.63547 | 17.66453 | 79° | 88km/h | 8088m | 4.5m/s | -31.4°C | 0% | 0hPa | 0V | 00:00:00 | 00:00:00 | 00:00:00 | |
| PG1ADW-2 | 2026-09-02 05:02:57 | 48.63531 | 17.66356 | 74° | 88km/h | 8069m | 5.6m/s | 0°C | 0% | 0hPa | 0V | 00:00:00 | 00:00:00 | 00:00:00 | |
| OM5KV | 2026-09-02 05:02:55 | 48.63511 | 17.66260 | 73° | 88km/h | 8060m | 3.8m/s | -31.2°C | 0% | 0hPa | 0V | 00:00:00 | 00:00:00 | 00:00:00 | |
| ATIDSZ-14 | 2026-09-02 05:02:52 | 48.63499 | 17.66197 | 76° | 86km/h | 8051m | 3.3m/s | -31.1°C | 0% | 0hPa | 0V | 00:00:00 | 00:00:00 | 00:00:00 | |
| OE3JTB-15 | 2026-09-02 05:02:51 | 48.63493 | 17.66164 | 76° | 88km/h | 8043m | 3.3m/s | 0°C | 0% | 0hPa | 0V | 00:00:00 | 00:00:00 | 00:00:00 | |
| PETON7-10 | 2026-09-02 05:02:48 | 48.63476 | 17.66064 | 77° | 88km/h | 8031m | 4.2m/s | 0°C | 0% | 0hPa | 0V | 00:00:00 | 00:00:00 | 00:00:00 | |
| OE5DRO-10 | 2026-09-02 05:02:43 | 48.63447 | 17.65901 | 75° | 88km/h | 8010m | 5.0m/s | 0°C | 0% | 0hPa | 0V | 00:00:00 | 00:00:00 | 00:00:00 | |
| PG1ADW-2 | 2026-09-02 05:02:37 | 48.63412 | 17.65706 | 76° | 88km/h | 7984m | 4.1m/s | 0°C | 0% | 0hPa | 0V | 00:00:00 | 00:00:00 | 00:00:00 | |
| PETON7-10 | 2026-09-02 05:02:33 | 48.63388 | 17.65577 | 76° | 88km/h | 7967m | 4.2m/s | 0°C | 0% | 0hPa | 0V | 00:00:00 | 00:00:00 | 00:00:00 | |
| OM5KV | 2026-09-02 05:02:32 | 48.63376 | 17.65510 | 76° | 91km/h | 7963m | 4.6m/s | -30.4°C | 0% | 0hPa | 0V | 00:00:00 | 00:00:00 | 00:00:00 | |
| OM5KV | 2026-09-02 05:02:26 | 48.63349 | 17.65347 | 77° | 86km/h | 7941m | 3.7m/s | -30.2°C | 0% | 0hPa | 0V | 00:00:00 | 00:00:00 | 00:00:00 | |
| OE5DRO-10 | 2026-09-02 05:02:24 | 48.63338 | 17.65284 | 76° | 89km/h | 7928m | 3.7m/s | 0°C | 0% | 0hPa | 0V | 00:00:00 | 00:00:00 | 00:00:00 | |
| OE3JTB-15 | 2026-09-02 05:02:22 | 48.63327 | 17.65220 | 76° | 89km/h | 7921m | 4.5m/s | 0°C | 0% | 0hPa | 0V | 00:00:00 | 00:00:00 | 00:00:00 | |
| PETON7-10 | 2026-09-02 05:02:18 | 48.63302 | 17.65090 | 74° | 89km/h | 7903m | 3.5m/s | 0°C | 0% | 0hPa | 0V | 00:00:00 | 00:00:00 | 00:00:00 | |
| PG1ADW-2 | 2026-09-02 05:02:17 | 48.63295 | 17.65058 | 77° | 89km/h | 7899m | 5.1m/s | 0°C | 0% | 0hPa | 0V | 00:00:00 | 00:00:00 | 00:00:00 | |
| OM5KV | 2026-09-02 05:02:12 | 48.63263 | 17.64857 | 75° | 89km/h | 7878m | 3.7m/s | -29.9°C | 0% | 0hPa | 0V | 00:00:00 | 00:00:00 | 00:00:00 | |
| ATIDSZ-14 | 2026-09-02 05:02:11 | 48.63263 | 17.64857 | 75° | 89km/h | 7878m | 3.7m/s | -29.9°C | 0% | 0hPa | 0V | 00:00:00 | 00:00:00 | 00:00:00 | |
| OM5KV | 2026-09-02 05:02:06 | 48.63230 | 17.64695 | 75° | 89km/h | 7857m | 4.9m/s | -29.8°C | 0% | 0hPa | 0V | 00:00:00 | 00:00:00 | 00:00:00 | |
| OE5DRO-10 | 2026-09-02 05:02:05 | 48.63224 | 17.64662 | 75° | 91km/h | 7849m | 4.0m/s | 0°C | 0% | 0hPa | 0V | 00:00:00 | 00:00:00 | 00:00:00 | |
| OM5KV | 2026-09-02 05:02:00 | 48.63195 | 17.64495 | 78° | 93km/h | 7832m | 3.8m/s | -29.5°C | 0% | 0hPa | 0V | 00:00:00 | 00:00:00 | 00:00:00 | |
| PG1ADW-2 | 2026-09-02 05:01:57 | 48.63179 | 17.64392 | 78° | 91km/h | 7815m | 5.0m/s | 0°C | 0% | 0hPa | 0V | 00:00:00 | 00:00:00 | 00:00:00 | |
| OE3JTB-15 | 2026-09-02 05:01:53 | 48.63157 | 17.64262 | 72° | 93km/h | 7798m | 4.1m/s | 0°C | 0% | 0hPa | 0V | 00:00:00 | 00:00:00 | 00:00:00 | |
| ATIDSZ-14 | 2026-09-02 05:01:51 | 48.63143 | 17.64196 | 73° | 91km/h | 7793m | 4.7m/s | -29.2°C | 0% | 0hPa | 0V | 00:00:00 | 00:00:00 | 00:00:00 | |
| PETON7-10 | 2026-09-02 05:01:48 | 48.63123 | 17.64093 | 75° | 93km/h | 7776m | 4.0m/s | 0°C | 0% | 0hPa | 0V | 00:00:00 | 00:00:00 | 00:00:00 | |
| OE5DRO-10 | 2026-09-02 05:01:46 | 48.63112 | 17.64022 | 77° | 93km/h | 7768m | 4.3m/s | 0°C | 0% | 0hPa | 0V | 00:00:00 | 00:00:00 | 00:00:00 | |
| OM5KV | 2026-09-02 05:01:39 | 48.63068 | 17.63783 | 76° | 93km/h | 7744m | 3.3m/s | -28.8°C | 0% | 0hPa | 0V | 00:00:00 | 00:00:00 | 00:00:00 | |
| PG1ADW-2 | 2026-09-02 05:01:37 | 48.63056 | 17.63713 | 75° | 95km/h | 7733m | 4.4m/s | 0°C | 0% | 0hPa | 0V | 00:00:00 | 00:00:00 | 00:00:00 | |
| PETON7-10 | 2026-09-02 05:01:33 | 48.63032 | 17.63573 | 76° | 93km/h | 7717m | 3.7m/s | 0°C | 0% | 0hPa | 0V | 00:00:00 | 00:00:00 | 00:00:00 | |
| ATIDSZ-14 | 2026-09-02 05:01:30 | 48.63013 | 17.63469 | 75° | 95km/h | 7709m | 4.4m/s | -28.5°C | 0% | 0hPa | 0V | 00:00:00 | 00:00:00 | 00:00:00 | |
| OE5DRO-10 | 2026-09-02 05:01:27 | 48.62994 | 17.63365 | 75° | 95km/h | 7693m | 4.1m/s | 0°C | 0% | 0hPa | 0V | 00:00:00 | 00:00:00 | 00:00:00 | |
| OE3JTB-15 | 2026-09-02 05:01:24 | 48.62975 | 17.63260 | 76° | 93km/h | 7681m | 3.4m/s | 0°C | 0% | 0hPa | 0V | 00:00:00 | 00:00:00 | 00:00:00 | |
| OM5KV | 2026-09-02 05:01:21 | 48.62958 | 17.63159 | 76° | 93km/h | 7673m | 4.0m/s | -28.2°C | 0% | 0hPa | 0V | 00:00:00 | 00:00:00 | 00:00:00 | |
| PETON7-10 | 2026-09-02 05:01:18 | 48.62938 | 17.63054 | 73° | 95km/h | 7657m | 4.4m/s | 0°C | 0% | 0hPa | 0V | 00:00:00 | 00:00:00 | 00:00:00 | |
| PG1ADW-2 | 2026-09-02 05:01:17 | 48.62930 | 17.63018 | 72° | 95km/h | 7653m | 3.2m/s | 0°C | 0% | 0hPa | 0V | 00:00:00 | 00:00:00 | 00:00:00 | |
| OM5KV | 2026-09-02 05:01:14 | 48.62902 | 17.62879 | 75° | 95km/h | 7640m | 4.2m/s | -28.0°C | 0% | 0hPa | 0V | 00:00:00 | 00:00:00 | 00:00:00 | |
| ATIDSZ-14 | 2026-09-02 05:01:09 | 48.62877 | 17.62741 | 77° | 91km/h | 7623m | 3.7m/s | -27.8°C | 0% | 0hPa | 0V | 00:00:00 | 00:00:00 | 00:00:00 | |
| OE5DRO-10 | 2026-09-02 05:01:08 | 48.62871 | 17.62707 | 79° | 95km/h | 7615m | 3.3m/s | 0°C | 0% | 0hPa | 0V | 00:00:00 | 00:00:00 | 00:00:00 | |
| PG1ADW-2 | 2026-09-02 05:00:57 | 48.62805 | 17.62325 | 76° | 97km/h | 7570m | 4.5m/s | 0°C | 0% | 0hPa | 0V | 00:00:00 | 00:00:00 | 00:00:00 | |
| OE3JTB-15 | 2026-09-02 05:00:55 | 48.62793 | 17.62256 | 77° | 97km/h | 7562m | 3.7m/s | 0°C | 0% | 0hPa | 0V | 00:00:00 | 00:00:00 | 00:00:00 | |
| OM5KV | 2026-09-02 05:00:50 | 48.62766 | 17.62077 | 77° | 99km/h | 7547m | 4.2m/s | -27.4°C | 0% | 0hPa | 0V | 00:00:00 | 00:00:00 | 00:00:00 | |
| OE5DRO-10 | 2026-09-02 05:00:49 | 48.62760 | 17.62040 | 74° | 97km/h | 7538m | 5.0m/s | 0°C | 0% | 0hPa | 0V | 00:00:00 | 00:00:00 | 00:00:00 | |
| OM5KV | 2026-09-02 05:00:48 | 48.62745 | 17.61968 | 73° | 99km/h | 7534m | 3.6m/s | -27.3°C | 0% | 0hPa | 0V | 00:00:00 | 00:00:00 | 00:00:00 | |
| OM5KV | 2026-09-02 05:00:44 | 48.62723 | 17.61865 | 74° | 95km/h | 7523m | 3.7m/s | -27.2°C | 0% | 0hPa | 0V | 00:00:00 | 00:00:00 | 00:00:00 | |
| OM5KV | 2026-09-02 05:00:42 | 48.62705 | 17.61759 | 79° | 97km/h | 7511m | 4.8m/s | -27.2°C | 0% | 0hPa | 0V | 00:00:00 | 00:00:00 | 00:00:00 | |
| OM5KV | 2026-09-02 05:00:39 | 48.62688 | 17.61648 | 77° | 97km/h | 7499m | 3.9m/s | -27.1°C | 0% | 0hPa | 0V | 00:00:00 | 00:00:00 | 00:00:00 | |
| PG1ADW-2 | 2026-09-02 05:00:37 | 48.62682 | 17.61613 | 75° | 93km/h | 7491m | 4.1m/s | 0°C | 0% | 0hPa | 0V | 00:00:00 | 00:00:00 | 00:00:00 | |
| OM5KV | 2026-09-02 05:00:36 | 48.62676 | 17.61579 | 74° | 93km/h | 7491m | 4.1m/s | -27.0°C | 0% | 0hPa | 0V | 00:00:00 | 00:00:00 | 00:00:00 | |
| PETON7-10 | 2026-09-02 05:00:33 | 48.62656 | 17.61480 | 74° | 93km/h | 7473m | 3.8m/s | 0°C | 0% | 0hPa | 0V | 00:00:00 | 00:00:00 | 00:00:00 | |
| OM5KV | 2026-09-02 05:00:32 | 48.62649 | 17.61445 | 74° | 97km/h | 7473m | 3.8m/s | -26.9°C | 0% | 0hPa | 0V | 00:00:00 | 00:00:00 | 00:00:00 | |
| OE5DRO-10 | 2026-09-02 05:00:30 | 48.62634 | 17.61374 | 73° | 89km/h | 7461m | 4.3m/s | 0°C | 0% | 0hPa | 0V | 00:00:00 | 00:00:00 | 00:00:00 | |
| ATIDSZ-14 | 2026-09-02 05:00:28 | 48.62620 | 17.61301 | 78° | 99km/h | 7457m | 3.0m/s | -26.8°C | 0% | 0hPa | 0V | 00:00:00 | 00:00:00 | 00:00:00 | |
| OM5KV | 2026-09-02 05:00:27 | 48.62609 | 17.61231 | 77° | 91km/h | 7448m | 5.5m/s | -26.9°C | 0% | 0hPa | 0V | 00:00:00 | 00:00:00 | 00:00:00 | |
| OE3JTB-15 | 2026-09-02 05:00:26 | 48.62609 | 17.61231 | 76° | 82km/h | 7442m | 5.4m/s | 0°C | 0% | 0hPa | 0V | 00:00:00 | 00:00:00 | 00:00:00 | |
| OM5KV | 2026-09-02 05:00:20 | 48.62571 | 17.60995 | 78° | 86km/h | 7413m | 4.5m/s | -26.8°C | 0% | 0hPa | 0V | 00:00:00 | 00:00:00 | 00:00:00 | |
| PETON7-10 | 2026-09-02 05:00:18 | 48.62567 | 17.60963 | 79° | 82km/h | 7402m | 4.0m/s | 0°C | 0% | 0hPa | 0V | 00:00:00 | 00:00:00 | 00:00:00 | |
| PG1ADW-2 | 2026-09-02 05:00:17 | 48.62562 | 17.60931 | 78° | 80km/h | 7398m | 4.2m/s | 0°C | 0% | 0hPa | 0V | 00:00:00 | 00:00:00 | 00:00:00 | |
| OE5DRO-10 | 2026-09-02 05:00:11 | 48.62531 | 17.60752 | 75° | 78km/h | 7373m | 5.9m/s | 0°C | 0% | 0hPa | 0V | 00:00:00 | 00:00:00 | 00:00:00 | |
| ATIDSZ-14 | 2026-09-02 05:00:08 | 48.62516 | 17.60658 | 78° | 86km/h | 7363m | 2.8m/s | -26.5°C | 0% | 0hPa | 0V | 00:00:00 | 00:00:00 | 00:00:00 | |
| PG1ADW-2 | 2026-09-02 04:59:57 | 48.62470 | 17.60341 | 77° | 75km/h | 7316m | 4.7m/s | 0°C | 0% | 0hPa | 0V | 00:00:00 | 00:00:00 | 00:00:00 | |
| OE5DRO-10 | 2026-09-02 04:59:52 | 48.62446 | 17.60197 | 79° | 73km/h | 7281m | 2.8m/s | 0°C | 0% | 0hPa | 0V | 00:00:00 | 00:00:00 | 00:00:00 | |
| ATIDSZ-14 | 2026-09-02 04:59:47 | 48.62429 | 17.60061 | 78° | 71km/h | 7281m | 2.8m/s | -26.0°C | 0% | 0hPa | 0V | 00:00:00 | 00:00:00 | 00:00:00 | |
| OM5KV | 2026-09-02 04:59:45 | 48.62421 | 17.60007 | 77° | 75km/h | 7274m | 3.9m/s | -25.9°C | 0% | 0hPa | 0V | 00:00:00 | 00:00:00 | 00:00:00 | |
| OM5KV | 2026-09-02 04:59:42 | 48.62406 | 17.59922 | 78° | 78km/h | 7262m | 3.6m/s | -25.9°C | 0% | 0hPa | 0V | 00:00:00 | 00:00:00 | 00:00:00 | |
| OM5KV | 2026-09-02 04:59:39 | 48.62393 | 17.59836 | 79° | 77km/h | 7250m | 4.6m/s | -25.8°C | 0% | 0hPa | 0V | 00:00:00 | 00:00:00 | 00:00:00 | |
| PG1ADW-2 | 2026-09-02 04:59:37 | 48.62386 | 17.59781 | 78° | 69km/h | 7239m | 2.8m/s | 0°C | 0% | 0hPa | 0V | 00:00:00 | 00:00:00 | 00:00:00 | |
| OM5KV | 2026-09-02 04:59:36 | 48.62381 | 17.59756 | 77° | 68km/h | 7239m | 2.9m/s | -25.7°C | 0% | 0hPa | 0V | 00:00:00 | 00:00:00 | 00:00:00 | |
| PETON7-10 | 2026-09-02 04:59:33 | 48.62368 | 17.59679 | 76° | 69km/h | 7224m | 3.5m/s | 0°C | 0% | 0hPa | 0V | 00:00:00 | 00:00:00 | 00:00:00 | |
| OE5DRO-10 | 2026-09-02 04:59:29 | 48.62351 | 17.59574 | 77° | 69km/h | 7209m | 3.8m/s | 0°C | 0% | 0hPa | 0V | 00:00:00 | 00:00:00 | 00:00:00 | |
| OE3JTB-15 | 2026-09-02 04:59:28 | 48.62347 | 17.59547 | 77° | 69km/h | 7205m | 3.4m/s | 0°C | 0% | 0hPa | 0V | 00:00:00 | 00:00:00 | 00:00:00 | |
| OM5KV | 2026-09-02 04:59:27 | 48.62343 | 17.59522 | 77° | 69km/h | 7205m | 3.5m/s | -25.4°C | 0% | 0hPa | 0V | 00:00:00 | 00:00:00 | 00:00:00 | |
| OM5KV | 2026-09-02 04:59:21 | 48.62318 | 17.59367 | 78° | 69km/h | 7182m | 4.6m/s | -25.3°C | 0% | 0hPa | 0V | 00:00:00 | 00:00:00 | 00:00:00 | |
| PETON7-10 | 2026-09-02 04:59:18 | 48.62306 | 17.59288 | 77° | 69km/h | 7166m | 3.6m/s | 0°C | 0% | 0hPa | 0V | 00:00:00 | 00:00:00 | 00:00:00 | |
| PG1ADW-2 | 2026-09-02 04:59:17 | 48.62302 | 17.59262 | 77° | 69km/h | 7162m | 3.5m/s | 0°C | 0% | 0hPa | 0V | 00:00:00 | 00:00:00 | 00:00:00 | |
| OM5KV | 2026-09-02 04:59:15 | 48.62293 | 17.59211 | 75° | 71km/h | 7159m | 3.8m/s | -25.1°C | 0% | 0hPa | 0V | 00:00:00 | 00:00:00 | 00:00:00 | |
| OM5KV | 2026-09-02 04:59:11 | 48.62271 | 17.59083 | 77° | 68km/h | 7140m | 3.5m/s | -24.9°C | 0% | 0hPa | 0V | 00:00:00 | 00:00:00 | 00:00:00 | |
| OE5DRO-10 | 2026-09-02 04:59:10 | 48.62271 | 17.59083 | 76° | 68km/h | 7136m | 3.7m/s | 0°C | 0% | 0hPa | 0V | 00:00:00 | 00:00:00 | 00:00:00 | |
| ATIDSZ-14 | 2026-09-02 04:59:06 | 48.62252 | 17.58984 | 76° | 66km/h | 7126m | 3.3m/s | -24.8°C | 0% | 0hPa | 0V | 00:00:00 | 00:00:00 | 00:00:00 | |
| PETON7-10 | 2026-09-02 04:59:03 | 48.62238 | 17.58907 | 74° | 69km/h | 7110m | 3.6m/s | 0°C | 0% | 0hPa | 0V | 00:00:00 | 00:00:00 | 00:00:00 | |
| OE3JTB-15 | 2026-09-02 04:58:59 | 48.62219 | 17.58806 | 77° | 68km/h | 7096m | 3.2m/s | 0°C | 0% | 0hPa | 0V | 00:00:00 | 00:00:00 | 00:00:00 | |
| PG1ADW-2 | 2026-09-02 04:58:57 | 48.62211 | 17.58757 | 80° | 68km/h | 7084m | 4.5m/s | 0°C | 0% | 0hPa | 0V | 00:00:00 | 00:00:00 | 00:00:00 | |
| OM5KV | 2026-09-02 04:58:53 | 48.62196 | 17.58656 | 76° | 69km/h | 7076m | 3.9m/s | -24.5°C | 0% | 0hPa | 0V | 00:00:00 | 00:00:00 | 00:00:00 | |
| OE5DRO-10 | 2026-09-02 04:58:51 | 48.62186 | 17.58605 | 75° | 68km/h | 7064m | 4.3m/s | 0°C | 0% | 0hPa | 0V | 00:00:00 | 00:00:00 | 00:00:00 | |
| PETON7-10 | 2026-09-02 04:58:48 | 48.62172 | 17.58529 | 77° | 68km/h | 7053m | 3.4m/s | 0°C | 0% | 0hPa | 0V | 00:00:00 | 00:00:00 | 00:00:00 | |
| ATIDSZ-14 | 2026-09-02 04:58:46 | 48.62164 | 17.58479 | 78° | 68km/h | 7049m | 3.9m/s | -24.3°C | 0% | 0hPa | 0V | 00:00:00 | 00:00:00 | 00:00:00 | |
| OM5KV | 2026-09-02 04:58:42 | 48.62149 | 17.58381 | 75° | 68km/h | 7034m | 3.0m/s | -24.2°C | 0% | 0hPa | 0V | 00:00:00 | 00:00:00 | 00:00:00 | |
| OM5KV | 2026-09-02 04:58:36 | 48.62120 | 17.58232 | 76° | 68km/h | 7013m | 3.7m/s | -24.1°C | 0% | 0hPa | 0V | 00:00:00 | 00:00:00 | 00:00:00 | |
| PETON7-10 | 2026-09-02 04:58:33 | 48.62108 | 17.58156 | 78° | 69km/h | 6998m | 2.8m/s | 0°C | 0% | 0hPa | 0V | 00:00:00 | 00:00:00 | 00:00:00 | |
| OE5DRO-10 | 2026-09-02 04:58:32 | 48.62104 | 17.58130 | 78° | 69km/h | 6994m | 4.1m/s | 0°C | 0% | 0hPa | 0V | 00:00:00 | 00:00:00 | 00:00:00 | |
| OE3JTB-15 | 2026-09-02 04:58:30 | 48.62096 | 17.58078 | 76° | 68km/h | 6988m | 3.8m/s | 0°C | 0% | 0hPa | 0V | 00:00:00 | 00:00:00 | 00:00:00 | |
| OM5KV | 2026-09-02 04:58:19 | 48.62043 | 17.57799 | 80° | 69km/h | 6949m | 4.6m/s | -23.6°C | 0% | 0hPa | 0V | 00:00:00 | 00:00:00 | 00:00:00 | |
| PETON7-10 | 2026-09-02 04:58:18 | 48.62040 | 17.57775 | 75° | 68km/h | 6942m | 4.4m/s | 0°C | 0% | 0hPa | 0V | 00:00:00 | 00:00:00 | 00:00:00 | |
| OM5KV | 2026-09-02 04:58:17 | 48.62035 | 17.57750 | 75° | 68km/h | 6942m | 4.5m/s | -23.5°C | 0% | 0hPa | 0V | 00:00:00 | 00:00:00 | 00:00:00 | |
| OM5KV | 2026-09-02 04:58:13 | 48.62014 | 17.57651 | 75° | 66km/h | 6927m | 3.6m/s | -23.5°C | 0% | 0hPa | 0V | 00:00:00 | 00:00:00 | 00:00:00 | |
| OM5KV | 2026-09-02 04:58:11 | 48.62006 | 17.57601 | 77° | 66km/h | 6920m | 3.7m/s | -23.4°C | 0% | 0hPa | 0V | 00:00:00 | 00:00:00 | 00:00:00 | |
| ATIDSZ-14 | 2026-09-02 04:58:05 | 48.61980 | 17.57454 | 75° | 68km/h | 6895m | 3.1m/s | -23.4°C | 0% | 0hPa | 0V | 00:00:00 | 00:00:00 | 00:00:00 | |
| PETON7-10 | 2026-09-02 04:58:03 | 48.61970 | 17.57406 | 76° | 64km/h | 6885m | 4.2m/s | 0°C | 0% | 0hPa | 0V | 00:00:00 | 00:00:00 | 00:00:00 | |
| OM5KV | 2026-09-02 04:58:00 | 48.61955 | 17.57310 | 79° | 64km/h | 6873m | 2.9m/s | -23.2°C | 0% | 0hPa | 0V | 00:00:00 | 00:00:00 | 00:00:00 | |
| OM5KV | 2026-09-02 04:57:55 | 48.61940 | 17.57212 | 78° | 64km/h | 6859m | 3.7m/s | -23.1°C | 0% | 0hPa | 0V | 00:00:00 | 00:00:00 | 00:00:00 | |
| OM5KV | 2026-09-02 04:57:54 | 48.61936 | 17.57188 | 76° | 66km/h | 6855m | 4.2m/s | -23.0°C | 0% | 0hPa | 0V | 00:00:00 | 00:00:00 | 00:00:00 | |
| PETON7-10 | 2026-09-02 04:57:48 | 48.61915 | 17.57049 | 80° | 64km/h | 6826m | 3.8m/s | 0°C | 0% | 0hPa | 0V | 00:00:00 | 00:00:00 | 00:00:00 | |
| ATIDSZ-14 | 2026-09-02 04:57:44 | 48.61903 | 17.56952 | 79° | 66km/h | 6813m | 4.9m/s | -22.8°C | 0% | 0hPa | 0V | 00:00:00 | 00:00:00 | 00:00:00 | |
| OM5KV | 2026-09-02 04:57:37 | 48.61881 | 17.56783 | 81° | 68km/h | 6784m | 4.0m/s | -22.8°C | 0% | 0hPa | 0V | 00:00:00 | 00:00:00 | 00:00:00 | |
| PETON7-10 | 2026-09-02 04:57:33 | 48.61872 | 17.56685 | 85° | 62km/h | 6765m | 3.8m/s | 0°C | 0% | 0hPa | 0V | 00:00:00 | 00:00:00 | 00:00:00 | |
| OE3JTB-15 | 2026-09-02 04:57:31 | 48.61869 | 17.56642 | 82° | 60km/h | 6758m | 2.8m/s | 0°C | 0% | 0hPa | 0V | 00:00:00 | 00:00:00 | 00:00:00 | |
| OM5KV | 2026-09-02 04:57:27 | 48.61862 | 17.56551 | 84° | 64km/h | 6748m | 4.3m/s | -22.5°C | 0% | 0hPa | 0V | 00:00:00 | 00:00:00 | 00:00:00 | |
| OM5KV | 2026-09-02 04:57:25 | 48.61858 | 17.56502 | 86° | 66km/h | 6740m | 4.3m/s | -22.5°C | 0% | 0hPa | 0V | 00:00:00 | 00:00:00 | 00:00:00 | |
| ATIDSZ-14 | 2026-09-02 04:57:24 | 48.61856 | 17.56477 | 87° | 64km/h | 6736m | 3.3m/s | -22.4°C | 0% | 0hPa | 0V | 00:00:00 | 00:00:00 | 00:00:00 | |
| OM5KV | 2026-09-02 04:57:22 | 48.61854 | 17.56429 | 84° | 62km/h | 6729m | 2.9m/s | -22.4°C | 0% | 0hPa | 0V | 00:00:00 | 00:00:00 | 00:00:00 | |
| PETON7-10 | 2026-09-02 04:57:18 | 48.61847 | 17.56336 | 86° | 60km/h | 6710m | 3.8m/s | 0°C | 0% | 0hPa | 0V | 00:00:00 | 00:00:00 | 00:00:00 | |
| OM5KV | 2026-09-02 04:57:14 | 48.61843 | 17.56245 | 89° | 58km/h | 6698m | 3.8m/s | -22.2°C | 0% | 0hPa | 0V | 00:00:00 | 00:00:00 | 00:00:00 | |
| OM5KV | 2026-09-02 04:57:09 | 48.61839 | 17.56133 | 87° | 60km/h | 6679m | 3.1m/s | -22.0°C | 0% | 0hPa | 0V | 00:00:00 | 00:00:00 | 00:00:00 | |
| OM5KV | 2026-09-02 04:57:08 | 48.61838 | 17.56109 | 87° | 62km/h | 6675m | 3.8m/s | -22.0°C | 0% | 0hPa | 0V | 00:00:00 | 00:00:00 | 00:00:00 | |
| PETON7-10 | 2026-09-02 04:57:03 | 48.61832 | 17.55993 | 86° | 62km/h | 6652m | 3.4m/s | 0°C | 0% | 0hPa | 0V | 00:00:00 | 00:00:00 | 00:00:00 | |
| OE3JTB-15 | 2026-09-02 04:57:02 | 48.61831 | 17.55969 | 86° | 62km/h | 6648m | 3.8m/s | 0°C | 0% | 0hPa | 0V | 00:00:00 | 00:00:00 | 00:00:00 | |
| OM5KV | 2026-09-02 04:56:58 | 48.61827 | 17.55876 | 89° | 60km/h | 6638m | 3.1m/s | -21.7°C | 0% | 0hPa | 0V | 00:00:00 | 00:00:00 | 00:00:00 | |
| PETON7-10 | 2026-09-02 04:56:51 | 48.61817 | 17.55642 | 86° | 64km/h | 6597m | 4.4m/s | 0°C | 0% | 0hPa | 0V | 00:00:00 | 00:00:00 | 00:00:00 | |
| OM5KV | 2026-09-02 04:56:44 | 48.61812 | 17.55547 | 84° | 68km/h | 6585m | 3.4m/s | -21.3°C | 0% | 0hPa | 0V | 00:00:00 | 00:00:00 | 00:00:00 | |
| ATIDSZ-14 | 2026-09-02 04:56:43 | 48.61811 | 17.55522 | 86° | 68km/h | 6581m | 4.5m/s | -21.3°C | 0% | 0hPa | 0V | 00:00:00 | 00:00:00 | 00:00:00 | |
| OM5KV | 2026-09-02 04:56:39 | 48.61805 | 17.55425 | 87° | 60km/h | 6566m | 3.6m/s | -21.2°C | 0% | 0hPa | 0V | 00:00:00 | 00:00:00 | 00:00:00 | |
| OM5KV | 2026-09-02 04:56:38 | 48.61803 | 17.55403 | 86° | 60km/h | 6562m | 4.1m/s | -21.2°C | 0% | 0hPa | 0V | 00:00:00 | 00:00:00 | 00:00:00 | |
| PETON7-10 | 2026-09-02 04:56:33 | 48.61793 | 17.55280 | 83° | 64km/h | 6541m | 3.5m/s | 0°C | 0% | 0hPa | 0V | 00:00:00 | 00:00:00 | 00:00:00 | |
| OM5KV | 2026-09-02 04:56:32 | 48.61791 | 17.55256 | 85° | 66km/h | 6541m | 3.5m/s | -21.1°C | 0% | 0hPa | 0V | 00:00:00 | 00:00:00 | 00:00:00 | |
| OM5KV | 2026-09-02 04:56:25 | 48.61778 | 17.55089 | 86° | 64km/h | 6516m | 3.1m/s | -20.9°C | 0% | 0hPa | 0V | 00:00:00 | 00:00:00 | 00:00:00 | |
| ATIDSZ-14 | 2026-09-02 04:56:22 | 48.61773 | 17.55016 | 85° | 66km/h | 6505m | 4.0m/s | -20.8°C | 0% | 0hPa | 0V | 00:00:00 | 00:00:00 | 00:00:00 | |
| OM5KV | 2026-09-02 04:56:19 | 48.61766 | 17.54915 | 84° | 66km/h | 6490m | 3.8m/s | -20.7°C | 0% | 0hPa | 0V | 00:00:00 | 00:00:00 | 00:00:00 | |
| PETON7-10 | 2026-09-02 04:56:18 | 48.61766 | 17.54915 | 83° | 64km/h | 6486m | 4.5m/s | 0°C | 0% | 0hPa | 0V | 00:00:00 | 00:00:00 | 00:00:00 | |
| OM5KV | 2026-09-02 04:56:17 | 48.61761 | 17.54866 | 83° | 62km/h | 6482m | 3.3m/s | -20.7°C | 0% | 0hPa | 0V | 00:00:00 | 00:00:00 | 00:00:00 | |
| OM5KV | 2026-09-02 04:56:07 | 48.61749 | 17.54648 | 83° | 68km/h | 6448m | 3.4m/s | -20.6°C | 0% | 0hPa | 0V | 00:00:00 | 00:00:00 | 00:00:00 | |
| OE3JTB-15 | 2026-09-02 04:56:04 | 48.61740 | 17.54573 | 81° | 62km/h | 6434m | 2.8m/s | 0°C | 0% | 0hPa | 0V | 00:00:00 | 00:00:00 | 00:00:00 | |
| PETON7-10 | 2026-09-02 04:56:03 | 48.61738 | 17.54549 | 81° | 64km/h | 6430m | 4.4m/s | 0°C | 0% | 0hPa | 0V | 00:00:00 | 00:00:00 | 00:00:00 | |
| ATIDSZ-14 | 2026-09-02 04:56:01 | 48.61732 | 17.54501 | 83° | 64km/h | 6426m | 4.4m/s | -20.7°C | 0% | 0hPa | 0V | 00:00:00 | 00:00:00 | 00:00:00 | |
| PETON7-10 | 2026-09-02 04:55:48 | 48.61708 | 17.54191 | 82° | 60km/h | 6371m | 3.4m/s | 0°C | 0% | 0hPa | 0V | 00:00:00 | 00:00:00 | 00:00:00 | |
| OM5KV | 2026-09-02 04:55:44 | 48.61704 | 17.54099 | 91° | 60km/h | 6358m | 4.7m/s | -20.4°C | 0% | 0hPa | 0V | 00:00:00 | 00:00:00 | 00:00:00 | |
| OM5KV | 2026-09-02 04:55:43 | 48.61705 | 17.54076 | 93° | 62km/h | 6353m | 4.2m/s | -20.4°C | 0% | 0hPa | 0V | 00:00:00 | 00:00:00 | 00:00:00 | |
| ATIDSZ-14 | 2026-09-02 04:55:41 | 48.61703 | 17.54029 | 84° | 60km/h | 6344m | 3.4m/s | -20.4°C | 0% | 0hPa | 0V | 00:00:00 | 00:00:00 | 00:00:00 | |
| OE3JTB-15 | 2026-09-02 04:55:35 | 48.61692 | 17.53894 | 80° | 55km/h | 6315m | 3.8m/s | 0°C | 0% | 0hPa | 0V | 00:00:00 | 00:00:00 | 00:00:00 | |
| PETON7-10 | 2026-09-02 04:55:33 | 48.61687 | 17.53849 | 82° | 55km/h | 6306m | 4.9m/s | 0°C | 0% | 0hPa | 0V | 00:00:00 | 00:00:00 | 00:00:00 | |
| OM5KV | 2026-09-02 04:55:31 | 48.61682 | 17.53805 | 82° | 57km/h | 6302m | 3.9m/s | -20.0°C | 0% | 0hPa | 0V | 00:00:00 | 00:00:00 | 00:00:00 | |
| OM5KV | 2026-09-02 04:55:25 | 48.61672 | 17.53682 | 87° | 53km/h | 6277m | 4.1m/s | -19.7°C | 0% | 0hPa | 0V | 00:00:00 | 00:00:00 | 00:00:00 | |
| ATIDSZ-14 | 2026-09-02 04:55:20 | 48.61661 | 17.53579 | 76° | 57km/h | 6255m | 4.9m/s | -19.6°C | 0% | 0hPa | 0V | 00:00:00 | 00:00:00 | 00:00:00 | |
| PETON7-10 | 2026-09-02 04:55:18 | 48.61653 | 17.53538 | 74° | 53km/h | 6242m | 4.4m/s | 0°C | 0% | 0hPa | 0V | 00:00:00 | 00:00:00 | 00:00:00 | |
| OM5KV | 2026-09-02 04:55:14 | 48.61640 | 17.53436 | 85° | 53km/h | 6225m | 3.5m/s | -19.3°C | 0% | 0hPa | 0V | 00:00:00 | 00:00:00 | 00:00:00 | |
| OM5KV | 2026-09-02 04:55:13 | 48.61640 | 17.53436 | 85° | 53km/h | 6225m | 3.5m/s | -19.3°C | 0% | 0hPa | 0V | 00:00:00 | 00:00:00 | 00:00:00 | |
| OM5KV | 2026-09-02 04:55:07 | 48.61626 | 17.53316 | 82° | 55km/h | 6197m | 4.4m/s | -19.1°C | 0% | 0hPa | 0V | 00:00:00 | 00:00:00 | 00:00:00 | |
| OE3JTB-15 | 2026-09-02 04:55:06 | 48.61624 | 17.53295 | 83° | 51km/h | 6187m | 5.8m/s | 0°C | 0% | 0hPa | 0V | 00:00:00 | 00:00:00 | 00:00:00 | |
| PETON7-10 | 2026-09-02 04:55:03 | 48.61619 | 17.53236 | 83° | 51km/h | 6173m | 5.8m/s | 0°C | 0% | 0hPa | 0V | 00:00:00 | 00:00:00 | 00:00:00 | |
| OM5KV | 2026-09-02 04:55:02 | 48.61617 | 17.53217 | 81° | 53km/h | 6173m | 5.8m/s | -18.8°C | 0% | 0hPa | 0V | 00:00:00 | 00:00:00 | 00:00:00 | |
| OM5KV | 2026-09-02 04:55:01 | 48.61614 | 17.53197 | 80° | 55km/h | 6167m | 4.7m/s | -18.8°C | 0% | 0hPa | 0V | 00:00:00 | 00:00:00 | 00:00:00 | |
| ATIDSZ-14 | 2026-09-02 04:55:00 | 48.61612 | 17.53177 | 82° | 53km/h | 6162m | 4.5m/s | -18.7°C | 0% | 0hPa | 0V | 00:00:00 | 00:00:00 | 00:00:00 | |
| PETON7-10 | 2026-09-02 04:54:48 | 48.61583 | 17.52950 | 85° | 49km/h | 6104m | 4.7m/s | 0°C | 0% | 0hPa | 0V | 00:00:00 | 00:00:00 | 00:00:00 | |
| OM5KV | 2026-09-02 04:54:44 | 48.61569 | 17.52849 | 78° | 47km/h | 6088m | 3.3m/s | -18.3°C | 0% | 0hPa | 0V | 00:00:00 | 00:00:00 | 00:00:00 | |
| ATIDSZ-14 | 2026-09-02 04:54:39 | 48.61556 | 17.52782 | 77° | 51km/h | 6070m | 3.1m/s | -18.3°C | 0% | 0hPa | 0V | 00:00:00 | 00:00:00 | 00:00:00 | |
| OE3JTB-15 | 2026-09-02 04:54:37 | 48.61549 | 17.52743 | 76° | 49km/h | 6055m | 3.7m/s | 0°C | 0% | 0hPa | 0V | 00:00:00 | 00:00:00 | 00:00:00 | |
| OM5KV | 2026-09-02 04:54:34 | 48.61539 | 17.52690 | 73° | 47km/h | 6045m | 4.7m/s | -18.2°C | 0% | 0hPa | 0V | 00:00:00 | 00:00:00 | 00:00:00 | |
| PETON7-10 | 2026-09-02 04:54:33 | 48.61536 | 17.52673 | 73° | 47km/h | 6038m | 3.3m/s | 0°C | 0% | 0hPa | 0V | 00:00:00 | 00:00:00 | 00:00:00 | |
| OM5KV | 2026-09-02 04:54:26 | 48.61510 | 17.52557 | 68° | 46km/h | 6016m | 3.2m/s | -18.2°C | 0% | 0hPa | 0V | 00:00:00 | 00:00:00 | 00:00:00 | |
| OM5KV | 2026-09-02 04:54:21 | 48.61490 | 17.52471 | 76° | 51km/h | 5999m | 4.0m/s | -18.2°C | 0% | 0hPa | 0V | 00:00:00 | 00:00:00 | 00:00:00 | |
| ATIDSZ-14 | 2026-09-02 04:54:19 | 48.61484 | 17.52434 | 77° | 49km/h | 5992m | 3.8m/s | -18.1°C | 0% | 0hPa | 0V | 00:00:00 | 00:00:00 | 00:00:00 | |
| PETON7-10 | 2026-09-02 04:54:18 | 48.61481 | 17.52416 | 73° | 51km/h | 5985m | 3.5m/s | 0°C | 0% | 0hPa | 0V | 00:00:00 | 00:00:00 | 00:00:00 | |
| OM5KV | 2026-09-02 04:54:15 | 48.61470 | 17.52362 | 74° | 51km/h | 5977m | 4.3m/s | -18.1°C | 0% | 0hPa | 0V | 00:00:00 | 00:00:00 | 00:00:00 | |
| OM5KV | 2026-09-02 04:54:11 | 48.61456 | 17.52284 | 75° | 55km/h | 5963m | 3.4m/s | -18.0°C | 0% | 0hPa | 0V | 00:00:00 | 00:00:00 | 00:00:00 | |
| OM5KV | 2026-09-02 04:54:09 | 48.61449 | 17.52245 | 77° | 51km/h | 5955m | 3.0m/s | -18.0°C | 0% | 0hPa | 0V | 00:00:00 | 00:00:00 | 00:00:00 | |
| OE3JTB-15 | 2026-09-02 04:54:08 | 48.61445 | 17.52226 | 73° | 51km/h | 5948m | 3.5m/s | 0°C | 0% | 0hPa | 0V | 00:00:00 | 00:00:00 | 00:00:00 | |
| OM5KV | 2026-09-02 04:54:05 | 48.61434 | 17.52172 | 73° | 51km/h | 5941m | 4.7m/s | -18.0°C | 0% | 0hPa | 0V | 00:00:00 | 00:00:00 | 00:00:00 | |
| PETON7-10 | 2026-09-02 04:54:03 | 48.61426 | 17.52135 | 72° | 51km/h | 5930m | 3.0m/s | 0°C | 0% | 0hPa | 0V | 00:00:00 | 00:00:00 | 00:00:00 | |
| OM5KV | 2026-09-02 04:53:59 | 48.61407 | 17.52041 | 75° | 51km/h | 5915m | 2.9m/s | -17.8°C | 0% | 0hPa | 0V | 00:00:00 | 00:00:00 | 00:00:00 | |
| ATIDSZ-14 | 2026-09-02 04:53:58 | 48.61407 | 17.52041 | 75° | 51km/h | 5915m | 2.9m/s | -17.8°C | 0% | 0hPa | 0V | 00:00:00 | 00:00:00 | 00:00:00 | |
| OM5KV | 2026-09-02 04:53:52 | 48.61384 | 17.51932 | 73° | 49km/h | 5894m | 2.8m/s | -17.7°C | 0% | 0hPa | 0V | 00:00:00 | 00:00:00 | 00:00:00 | |
| PETON7-10 | 2026-09-02 04:53:48 | 48.61367 | 17.51858 | 74° | 51km/h | 5876m | 3.8m/s | 0°C | 0% | 0hPa | 0V | 00:00:00 | 00:00:00 | 00:00:00 | |
| OM5KV | 2026-09-02 04:53:46 | 48.61360 | 17.51821 | 74° | 49km/h | 5872m | 4.5m/s | -17.6°C | 0% | 0hPa | 0V | 00:00:00 | 00:00:00 | 00:00:00 | |
| OM5KV | 2026-09-02 04:53:45 | 48.61356 | 17.51803 | 76° | 49km/h | 5868m | 3.4m/s | -17.6°C | 0% | 0hPa | 0V | 00:00:00 | 00:00:00 | 00:00:00 | |
| OM5KV | 2026-09-02 04:53:40 | 48.61338 | 17.51711 | 73° | 51km/h | 5849m | 3.8m/s | -17.4°C | 0% | 0hPa | 0V | 00:00:00 | 00:00:00 | 00:00:00 | |
| OE3JTB-15 | 2026-09-02 04:53:39 | 48.61334 | 17.51693 | 73° | 51km/h | 5841m | 3.4m/s | 0°C | 0% | 0hPa | 0V | 00:00:00 | 00:00:00 | 00:00:00 | |
| ATIDSZ-14 | 2026-09-02 04:53:38 | 48.61330 | 17.51674 | 75° | 51km/h | 5841m | 3.5m/s | -17.3°C | 0% | 0hPa | 0V | 00:00:00 | 00:00:00 | 00:00:00 | |
| OM5KV | 2026-09-02 04:53:34 | 48.61316 | 17.51598 | 76° | 51km/h | 5825m | 4.5m/s | -17.1°C | 0% | 0hPa | 0V | 00:00:00 | 00:00:00 | 00:00:00 | |
| PETON7-10 | 2026-09-02 04:53:33 | 48.61312 | 17.51579 | 74° | 51km/h | 5818m | 4.2m/s | 0°C | 0% | 0hPa | 0V | 00:00:00 | 00:00:00 | 00:00:00 | |
| OM5KV | 2026-09-02 04:53:23 | 48.61272 | 17.51373 | 76° | 49km/h | 5782m | 3.9m/s | -16.8°C | 0% | 0hPa | 0V | 00:00:00 | 00:00:00 | 00:00:00 | |
| PETON7-10 | 2026-09-02 04:53:18 | 48.61259 | 17.51297 | 73° | 51km/h | 5762m | 4.1m/s | 0°C | 0% | 0hPa | 0V | 00:00:00 | 00:00:00 | 00:00:00 | |
| OM5KV | 2026-09-02 04:53:15 | 48.61247 | 17.51240 | 74° | 51km/h | 5754m | 5.4m/s | -16.6°C | 0% | 0hPa | 0V | 00:00:00 | 00:00:00 | 00:00:00 | |
| OE3JTB-15 | 2026-09-02 04:53:10 | 48.61229 | 17.51148 | 75° | 51km/h | 5731m | 3.8m/s | 0°C | 0% | 0hPa | 0V | 00:00:00 | 00:00:00 | 00:00:00 | |
| OM5KV | 2026-09-02 04:53:06 | 48.61215 | 17.51072 | 77° | 53km/h | 5719m | 4.0m/s | -16.3°C | 0% | 0hPa | 0V | 00:00:00 | 00:00:00 | 00:00:00 | |
| OM5KV | 2026-09-02 04:53:05 | 48.61208 | 17.51032 | 74° | 53km/h | 5711m | 4.4m/s | -16.3°C | 0% | 0hPa | 0V | 00:00:00 | 00:00:00 | 00:00:00 | |
| PETON7-10 | 2026-09-02 04:53:03 | 48.61204 | 17.51013 | 73° | 49km/h | 5703m | 4.4m/s | 0°C | 0% | 0hPa | 0V | 00:00:00 | 00:00:00 | 00:00:00 | |
| OM5KV | 2026-09-02 04:53:00 | 48.61193 | 17.50958 | 77° | 46km/h | 5694m | 3.8m/s | -16.2°C | 0% | 0hPa | 0V | 00:00:00 | 00:00:00 | 00:00:00 | |
| OM5KV | 2026-09-02 04:52:59 | 48.61191 | 17.50941 | 79° | 47km/h | 5690m | 4.9m/s | -16.2°C | 0% | 0hPa | 0V | 00:00:00 | 00:00:00 | 00:00:00 | |
| ATIDSZ-14 | 2026-09-02 04:52:57 | 48.61185 | 17.50906 | 78° | 47km/h | 5682m | 3.8m/s | -16.2°C | 0% | 0hPa | 0V | 00:00:00 | 00:00:00 | 00:00:00 | |
| OM5KV | 2026-09-02 04:52:53 | 48.61173 | 17.50829 | 77° | 51km/h | 5665m | 2.7m/s | -16.1°C | 0% | 0hPa | 0V | 00:00:00 | 00:00:00 | 00:00:00 | |
| PETON7-10 | 2026-09-02 04:52:48 | 48.61160 | 17.50734 | 84° | 51km/h | 5639m | 4.2m/s | 0°C | 0% | 0hPa | 0V | 00:00:00 | 00:00:00 | 00:00:00 | |
| OM5KV | 2026-09-02 04:52:47 | 48.61159 | 17.50715 | 85° | 49km/h | 5639m | 4.2m/s | -15.9°C | 0% | 0hPa | 0V | 00:00:00 | 00:00:00 | 00:00:00 | |
| OM5KV | 2026-09-02 04:52:42 | 48.61150 | 17.50617 | 82° | 53km/h | 5621m | 4.5m/s | -15.8°C | 0% | 0hPa | 0V | 00:00:00 | 00:00:00 | 00:00:00 | |
| OE3JTB-15 | 2026-09-02 04:52:41 | 48.61148 | 17.50597 | 81° | 51km/h | 5612m | 4.6m/s | 0°C | 0% | 0hPa | 0V | 00:00:00 | 00:00:00 | 00:00:00 | |
| OM5KV | 2026-09-02 04:52:37 | 48.61136 | 17.50501 | 79° | 49km/h | 5596m | 3.5m/s | -15.7°C | 0% | 0hPa | 0V | 00:00:00 | 00:00:00 | 00:00:00 | |
| ATIDSZ-14 | 2026-09-02 04:52:36 | 48.61136 | 17.50501 | 79° | 49km/h | 5596m | 3.5m/s | -15.7°C | 0% | 0hPa | 0V | 00:00:00 | 00:00:00 | 00:00:00 | |
| PETON7-10 | 2026-09-02 04:52:33 | 48.61128 | 17.50442 | 80° | 53km/h | 5581m | 4.9m/s | 0°C | 0% | 0hPa | 0V | 00:00:00 | 00:00:00 | 00:00:00 | |
| OM5KV | 2026-09-02 04:52:30 | 48.61121 | 17.50377 | 83° | 57km/h | 5573m | 4.4m/s | -15.6°C | 0% | 0hPa | 0V | 00:00:00 | 00:00:00 | 00:00:00 | |
| OM5KV | 2026-09-02 04:52:25 | 48.61112 | 17.50282 | 80° | 46km/h | 5554m | 2.0m/s | -15.4°C | 0% | 0hPa | 0V | 00:00:00 | 00:00:00 | 00:00:00 | |
| OM5KV | 2026-09-02 04:52:19 | 48.61098 | 17.50163 | 85° | 53km/h | 5531m | 4.7m/s | -15.2°C | 0% | 0hPa | 0V | 00:00:00 | 00:00:00 | 00:00:00 | |
| PETON7-10 | 2026-09-02 04:52:18 | 48.61096 | 17.50143 | 82° | 49km/h | 5521m | 5.7m/s | 0°C | 0% | 0hPa | 0V | 00:00:00 | 00:00:00 | 00:00:00 | |
| ATIDSZ-14 | 2026-09-02 04:52:16 | 48.61092 | 17.50107 | 81° | 47km/h | 5516m | 3.9m/s | -15.1°C | 0% | 0hPa | 0V | 00:00:00 | 00:00:00 | 00:00:00 | |
| OM5KV | 2026-09-02 04:52:14 | 48.61087 | 17.50074 | 76° | 42km/h | 5508m | 3.6m/s | -15.0°C | 0% | 0hPa | 0V | 00:00:00 | 00:00:00 | 00:00:00 | |
| OE3JTB-15 | 2026-09-02 04:52:12 | 48.61083 | 17.50041 | 85° | 49km/h | 5495m | 5.7m/s | 0°C | 0% | 0hPa | 0V | 00:00:00 | 00:00:00 | 00:00:00 | |
| PETON7-10 | 2026-09-02 04:52:03 | 48.61071 | 17.49870 | 84° | 49km/h | 5455m | 4.1m/s | 0°C | 0% | 0hPa | 0V | 00:00:00 | 00:00:00 | 00:00:00 | |
| OM5KV | 2026-09-02 04:52:02 | 48.61070 | 17.49851 | 84° | 49km/h | 5455m | 4.1m/s | -14.6°C | 0% | 0hPa | 0V | 00:00:00 | 00:00:00 | 00:00:00 | |
| OM5KV | 2026-09-02 04:51:57 | 48.61057 | 17.49739 | 86° | 49km/h | 5430m | 3.8m/s | -14.5°C | 0% | 0hPa | 0V | 00:00:00 | 00:00:00 | 00:00:00 | |
| ATIDSZ-14 | 2026-09-02 04:51:55 | 48.61056 | 17.49720 | 88° | 49km/h | 5426m | 3.3m/s | -14.4°C | 0% | 0hPa | 0V | 00:00:00 | 00:00:00 | 00:00:00 | |
| OM5KV | 2026-09-02 04:51:51 | 48.61053 | 17.49647 | 86° | 49km/h | 5410m | 3.9m/s | -14.3°C | 0% | 0hPa | 0V | 00:00:00 | 00:00:00 | 00:00:00 | |
| OM5KV | 2026-09-02 04:51:49 | 48.61051 | 17.49610 | 85° | 47km/h | 5402m | 4.7m/s | -14.2°C | 0% | 0hPa | 0V | 00:00:00 | 00:00:00 | 00:00:00 | |
| PETON7-10 | 2026-09-02 04:51:48 | 48.61050 | 17.49592 | 88° | 51km/h | 5394m | 4.3m/s | 0°C | 0% | 0hPa | 0V | 00:00:00 | 00:00:00 | 00:00:00 | |
| OM5KV | 2026-09-02 04:51:45 | 48.61049 | 17.49535 | 91° | 51km/h | 5385m | 4.5m/s | -14.1°C | 0% | 0hPa | 0V | 00:00:00 | 00:00:00 | 00:00:00 | |
| OM5KV | 2026-09-02 04:51:43 | 48.61049 | 17.49477 | 93° | 49km/h | 5373m | 3.1m/s | -14.0°C | 0% | 0hPa | 0V | 00:00:00 | 00:00:00 | 00:00:00 | |
| OM5KV | 2026-09-02 04:51:38 | 48.61050 | 17.49397 | 96° | 53km/h | 5354m | 3.4m/s | -13.8°C | 0% | 0hPa | 0V | 00:00:00 | 00:00:00 | 00:00:00 | |
| ATIDSZ-14 | 2026-09-02 04:51:35 | 48.61051 | 17.49336 | 91° | 53km/h | 5341m | 3.5m/s | -13.7°C | 0% | 0hPa | 0V | 00:00:00 | 00:00:00 | 00:00:00 | |
| PETON7-10 | 2026-09-02 04:51:33 | 48.61052 | 17.49296 | 93° | 49km/h | 5328m | 3.9m/s | 0°C | 0% | 0hPa | 0V | 00:00:00 | 00:00:00 | 00:00:00 | |
| OM5KV | 2026-09-02 04:51:28 | 48.61055 | 17.49186 | 93° | 47km/h | 5307m | 4.1m/s | -13.5°C | 0% | 0hPa | 0V | 00:00:00 | 00:00:00 | 00:00:00 | |
| OM5KV | 2026-09-02 04:51:25 | 48.61056 | 17.49150 | 94° | 47km/h | 5299m | 3.6m/s | -13.4°C | 0% | 0hPa | 0V | 00:00:00 | 00:00:00 | 00:00:00 | |
| PETON7-10 | 2026-09-02 04:51:18 | 48.61064 | 17.49019 | 95° | 47km/h | 5268m | 3.4m/s | 0°C | 0% | 0hPa | 0V | 00:00:00 | 00:00:00 | 00:00:00 | |
| OE3JTB-15 | 2026-09-02 04:51:14 | 48.61065 | 17.48947 | 90° | 46km/h | 5252m | 3.5m/s | 0°C | 0% | 0hPa | 0V | 00:00:00 | 00:00:00 | 00:00:00 | |
| OM5KV | 2026-09-02 04:51:13 | 48.61065 | 17.48929 | 93° | 47km/h | 5252m | 3.5m/s | -13.1°C | 0% | 0hPa | 0V | 00:00:00 | 00:00:00 | 00:00:00 | |
| OM5KV | 2026-09-02 04:51:06 | 48.61075 | 17.48801 | 96° | 49km/h | 5225m | 4.8m/s | -12.9°C | 0% | 0hPa | 0V | 00:00:00 | 00:00:00 | 00:00:00 | |
| PETON7-10 | 2026-09-02 04:51:03 | 48.61079 | 17.48745 | 96° | 46km/h | 5207m | 3.8m/s | 0°C | 0% | 0hPa | 0V | 00:00:00 | 00:00:00 | 00:00:00 | |
| OM5KV | 2026-09-02 04:51:01 | 48.61081 | 17.48710 | 100° | 46km/h | 5203m | 3.9m/s | -12.8°C | 0% | 0hPa | 0V | 00:00:00 | 00:00:00 | 00:00:00 | |
| OM5KV | 2026-09-02 04:50:57 | 48.61088 | 17.48642 | 100° | 46km/h | 5186m | 3.4m/s | -12.7°C | 0% | 0hPa | 0V | 00:00:00 | 00:00:00 | 00:00:00 | |
| ATIDSZ-14 | 2026-09-02 04:50:54 | 48.61092 | 17.48591 | 99° | 46km/h | 5175m | 4.0m/s | -12.6°C | 0% | 0hPa | 0V | 00:00:00 | 00:00:00 | 00:00:00 | |
| OM5KV | 2026-09-02 04:50:52 | 48.61095 | 17.48557 | 99° | 44km/h | 5168m | 4.0m/s | -12.6°C | 0% | 0hPa | 0V | 00:00:00 | 00:00:00 | 00:00:00 | |
| PETON7-10 | 2026-09-02 04:50:48 | 48.61100 | 17.48488 | 93° | 46km/h | 5147m | 3.3m/s | 0°C | 0% | 0hPa | 0V | 00:00:00 | 00:00:00 | 00:00:00 | |
| OE3JTB-15 | 2026-09-02 04:50:45 | 48.61102 | 17.48436 | 95° | 44km/h | 5136m | 3.2m/s | 0°C | 0% | 0hPa | 0V | 00:00:00 | 00:00:00 | 00:00:00 | |
| OM5KV | 2026-09-02 04:50:44 | 48.61103 | 17.48419 | 99° | 46km/h | 5136m | 3.2m/s | -12.3°C | 0% | 0hPa | 0V | 00:00:00 | 00:00:00 | 00:00:00 | |
| OM5KV | 2026-09-02 04:50:39 | 48.61113 | 17.48333 | 98° | 46km/h | 5115m | 4.5m/s | -12.2°C | 0% | 0hPa | 0V | 00:00:00 | 00:00:00 | 00:00:00 | |
| OM5KV | 2026-09-02 04:50:34 | 48.61123 | 17.48232 | 104° | 44km/h | 5092m | 3.5m/s | -12.0°C | 0% | 0hPa | 0V | 00:00:00 | 00:00:00 | 00:00:00 | |
| PETON7-10 | 2026-09-02 04:50:33 | 48.61122 | 17.48232 | 104° | 44km/h | 5088m | 4.0m/s | 0°C | 0% | 0hPa | 0V | 00:00:00 | 00:00:00 | 00:00:00 | |
| OM5KV | 2026-09-02 04:50:21 | 48.61143 | 17.48033 | 102° | 46km/h | 5044m | 3.5m/s | -11.6°C | 0% | 0hPa | 0V | 00:00:00 | 00:00:00 | 00:00:00 | |
| OM5KV | 2026-09-02 04:50:19 | 48.61148 | 17.47983 | 98° | 44km/h | 5032m | 4.0m/s | -11.5°C | 0% | 0hPa | 0V | 00:00:00 | 00:00:00 | 00:00:00 | |
| PETON7-10 | 2026-09-02 04:50:18 | 48.61148 | 17.47983 | 97° | 42km/h | 5029m | 3.2m/s | 0°C | 0% | 0hPa | 0V | 00:00:00 | 00:00:00 | 00:00:00 | |
| OE3JTB-15 | 2026-09-02 04:50:16 | 48.61150 | 17.47951 | 97° | 40km/h | 5021m | 3.3m/s | 0°C | 0% | 0hPa | 0V | 00:00:00 | 00:00:00 | 00:00:00 | |
| OM5KV | 2026-09-02 04:50:13 | 48.61157 | 17.47889 | 103° | 42km/h | 5010m | 4.0m/s | -11.3°C | 0% | 0hPa | 0V | 00:00:00 | 00:00:00 | 00:00:00 | |
| ATIDSZ-14 | 2026-09-02 04:50:12 | 48.61157 | 17.47889 | 103° | 42km/h | 5010m | 4.0m/s | -11.3°C | 0% | 0hPa | 0V | 00:00:00 | 00:00:00 | 00:00:00 | |
| OM5KV | 2026-09-02 04:50:07 | 48.61164 | 17.47807 | 96° | 42km/h | 4989m | 4.1m/s | -11.2°C | 0% | 0hPa | 0V | 00:00:00 | 00:00:00 | 00:00:00 | |
| PETON7-10 | 2026-09-02 04:50:03 | 48.61168 | 17.47747 | 98° | 40km/h | 4970m | 3.2m/s | 0°C | 0% | 0hPa | 0V | 00:00:00 | 00:00:00 | 00:00:00 | |
| OM5KV | 2026-09-02 04:49:56 | 48.61176 | 17.47638 | 95° | 40km/h | 4946m | 3.9m/s | -11.0°C | 0% | 0hPa | 0V | 00:00:00 | 00:00:00 | 00:00:00 | |
| ATIDSZ-14 | 2026-09-02 04:49:52 | 48.61180 | 17.47577 | 99° | 40km/h | 4931m | 4.2m/s | -10.9°C | 0% | 0hPa | 0V | 00:00:00 | 00:00:00 | 00:00:00 | |
| OM5KV | 2026-09-02 04:49:51 | 48.61184 | 17.47547 | 99° | 38km/h | 4923m | 3.5m/s | -10.9°C | 0% | 0hPa | 0V | 00:00:00 | 00:00:00 | 00:00:00 | |
| PETON7-10 | 2026-09-02 04:49:48 | 48.61186 | 17.47517 | 94° | 40km/h | 4911m | 4.8m/s | 0°C | 0% | 0hPa | 0V | 00:00:00 | 00:00:00 | 00:00:00 | |
| OE3JTB-15 | 2026-09-02 04:49:47 | 48.61186 | 17.47501 | 95° | 40km/h | 4907m | 3.3m/s | 0°C | 0% | 0hPa | 0V | 00:00:00 | 00:00:00 | 00:00:00 | |
| OM5KV | 2026-09-02 04:49:45 | 48.61187 | 17.47470 | 93° | 40km/h | 4903m | 4.8m/s | -10.8°C | 0% | 0hPa | 0V | 00:00:00 | 00:00:00 | 00:00:00 | |
| OM5KV | 2026-09-02 04:49:38 | 48.61198 | 17.47349 | 105° | 38km/h | 4871m | 3.1m/s | -10.5°C | 0% | 0hPa | 0V | 00:00:00 | 00:00:00 | 00:00:00 | |
| PETON7-10 | 2026-09-02 04:49:33 | 48.61207 | 17.47290 | 101° | 40km/h | 4852m | 4.7m/s | 0°C | 0% | 0hPa | 0V | 00:00:00 | 00:00:00 | 00:00:00 | |
| OM5KV | 2026-09-02 04:49:32 | 48.61209 | 17.47276 | 101° | 40km/h | 4852m | 4.7m/s | -10.4°C | 0% | 0hPa | 0V | 00:00:00 | 00:00:00 | 00:00:00 | |
| ATIDSZ-14 | 2026-09-02 04:49:31 | 48.61211 | 17.47260 | 103° | 42km/h | 4848m | 3.2m/s | -10.4°C | 0% | 0hPa | 0V | 00:00:00 | 00:00:00 | 00:00:00 | |
| OM5KV | 2026-09-02 04:49:26 | 48.61221 | 17.47181 | 103° | 40km/h | 4829m | 3.9m/s | -10.2°C | 0% | 0hPa | 0V | 00:00:00 | 00:00:00 | 00:00:00 | |
| OM5KV | 2026-09-02 04:49:20 | 48.61236 | 17.47100 | 107° | 38km/h | 4805m | 4.0m/s | -10.1°C | 0% | 0hPa | 0V | 00:00:00 | 00:00:00 | 00:00:00 | |
| PETON7-10 | 2026-09-02 04:49:18 | 48.61241 | 17.47070 | 103° | 40km/h | 4793m | 5.1m/s | 0°C | 0% | 0hPa | 0V | 00:00:00 | 00:00:00 | 00:00:00 | |
| OM5KV | 2026-09-02 04:49:15 | 48.61249 | 17.47023 | 105° | 42km/h | 4785m | 3.9m/s | -9.9°C | 0% | 0hPa | 0V | 00:00:00 | 00:00:00 | 00:00:00 | |
| OM5KV | 2026-09-02 04:49:12 | 48.61259 | 17.46977 | 112° | 38km/h | 4772m | 4.7m/s | -9.9°C | 0% | 0hPa | 0V | 00:00:00 | 00:00:00 | 00:00:00 | |
| ATIDSZ-14 | 2026-09-02 04:49:11 | 48.61263 | 17.46964 | 112° | 37km/h | 4769m | 3.0m/s | -9.8°C | 0% | 0hPa | 0V | 00:00:00 | 00:00:00 | 00:00:00 | |
| OM5KV | 2026-09-02 04:49:08 | 48.61273 | 17.46923 | 109° | 38km/h | 4756m | 4.7m/s | -9.7°C | 0% | 0hPa | 0V | 00:00:00 | 00:00:00 | 00:00:00 | |
| OM5KV | 2026-09-02 04:49:06 | 48.61279 | 17.46894 | 112° | 40km/h | 4748m | 4.2m/s | -9.7°C | 0% | 0hPa | 0V | 00:00:00 | 00:00:00 | 00:00:00 | |
| PETON7-10 | 2026-09-02 04:49:03 | 48.61289 | 17.46849 | 106° | 40km/h | 4732m | 4.4m/s | 0°C | 0% | 0hPa | 0V | 00:00:00 | 00:00:00 | 00:00:00 | |
| OM5KV | 2026-09-02 04:49:02 | 48.61296 | 17.46818 | 112° | 44km/h | 4728m | 3.2m/s | -9.6°C | 0% | 0hPa | 0V | 00:00:00 | 00:00:00 | 00:00:00 | |
| OM5KV | 2026-09-02 04:48:59 | 48.61303 | 17.46786 | 110° | 40km/h | 4721m | 3.4m/s | -9.5°C | 0% | 0hPa | 0V | 00:00:00 | 00:00:00 | 00:00:00 | |
| OM5KV | 2026-09-02 04:48:55 | 48.61316 | 17.46732 | 107° | 38km/h | 4704m | 3.3m/s | -9.4°C | 0% | 0hPa | 0V | 00:00:00 | 00:00:00 | 00:00:00 | |
| OM5KV | 2026-09-02 04:48:52 | 48.61326 | 17.46689 | 108° | 40km/h | 4693m | 4.7m/s | -9.3°C | 0% | 0hPa | 0V | 00:00:00 | 00:00:00 | 00:00:00 | |
| ATIDSZ-14 | 2026-09-02 04:48:50 | 48.61332 | 17.46659 | 110° | 44km/h | 4684m | 3.5m/s | -9.2°C | 0% | 0hPa | 0V | 00:00:00 | 00:00:00 | 00:00:00 | |
| OE3JTB-15 | 2026-09-02 04:48:49 | 48.61336 | 17.46642 | 111° | 42km/h | 4676m | 4.3m/s | 0°C | 0% | 0hPa | 0V | 00:00:00 | 00:00:00 | 00:00:00 | |
| PETON7-10 | 2026-09-02 04:48:48 | 48.61340 | 17.46628 | 111° | 42km/h | 4672m | 3.2m/s | 0°C | 0% | 0hPa | 0V | 00:00:00 | 00:00:00 | 00:00:00 | |
| OM5KV | 2026-09-02 04:48:47 | 48.61343 | 17.46612 | 113° | 42km/h | 4672m | 3.3m/s | -9.2°C | 0% | 0hPa | 0V | 00:00:00 | 00:00:00 | 00:00:00 | |
| OM5KV | 2026-09-02 04:48:43 | 48.61357 | 17.46556 | 110° | 38km/h | 4657m | 3.4m/s | -9.0°C | 0% | 0hPa | 0V | 00:00:00 | 00:00:00 | 00:00:00 | |
| OM5KV | 2026-09-02 04:48:42 | 48.61363 | 17.46528 | 111° | 38km/h | 4649m | 4.6m/s | -9.0°C | 0% | 0hPa | 0V | 00:00:00 | 00:00:00 | 00:00:00 | |
| OM5KV | 2026-09-02 04:48:38 | 48.61378 | 17.46468 | 114° | 44km/h | 4635m | 4.2m/s | -8.8°C | 0% | 0hPa | 0V | 00:00:00 | 00:00:00 | 00:00:00 | |
| OM5KV | 2026-09-02 04:48:36 | 48.61383 | 17.46452 | 115° | 44km/h | 4631m | 3.6m/s | -8.8°C | 0% | 0hPa | 0V | 00:00:00 | 00:00:00 | 00:00:00 | |
| PETON7-10 | 2026-09-02 04:48:33 | 48.61396 | 17.46404 | 113° | 42km/h | 4615m | 3.9m/s | 0°C | 0% | 0hPa | 0V | 00:00:00 | 00:00:00 | 00:00:00 | |
| OM5KV | 2026-09-02 04:48:32 | 48.61400 | 17.46389 | 113° | 42km/h | 4615m | 3.9m/s | -8.7°C | 0% | 0hPa | 0V | 00:00:00 | 00:00:00 | 00:00:00 | |
| OM5KV | 2026-09-02 04:48:31 | 48.61407 | 17.46358 | 108° | 40km/h | 4608m | 3.3m/s | -8.6°C | 0% | 0hPa | 0V | 00:00:00 | 00:00:00 | 00:00:00 | |
| ATIDSZ-14 | 2026-09-02 04:48:30 | 48.61407 | 17.46358 | 108° | 40km/h | 4608m | 3.3m/s | -8.6°C | 0% | 0hPa | 0V | 00:00:00 | 00:00:00 | 00:00:00 | |
| OM5KV | 2026-09-02 04:48:27 | 48.61420 | 17.46299 | 110° | 42km/h | 4593m | 3.3m/s | -8.6°C | 0% | 0hPa | 0V | 00:00:00 | 00:00:00 | 00:00:00 | |
| OM5KV | 2026-09-02 04:48:23 | 48.61432 | 17.46253 | 109° | 44km/h | 4582m | 3.8m/s | -8.5°C | 0% | 0hPa | 0V | 00:00:00 | 00:00:00 | 00:00:00 | |
| OM5KV | 2026-09-02 04:48:21 | 48.61438 | 17.46222 | 108° | 42km/h | 4574m | 3.4m/s | -8.5°C | 0% | 0hPa | 0V | 00:00:00 | 00:00:00 | 00:00:00 | |
| OE3JTB-15 | 2026-09-02 04:48:20 | 48.61440 | 17.46206 | 107° | 40km/h | 4566m | 2.7m/s | 0°C | 0% | 0hPa | 0V | 00:00:00 | 00:00:00 | 00:00:00 | |
| PETON7-10 | 2026-09-02 04:48:18 | 48.61447 | 17.46174 | 109° | 42km/h | 4559m | 3.6m/s | 0°C | 0% | 0hPa | 0V | 00:00:00 | 00:00:00 | 00:00:00 | |
| OM5KV | 2026-09-02 04:48:14 | 48.61462 | 17.46112 | 109° | 40km/h | 4548m | 4.3m/s | -8.3°C | 0% | 0hPa | 0V | 00:00:00 | 00:00:00 | 00:00:00 | |
| ATIDSZ-14 | 2026-09-02 04:48:09 | 48.61477 | 17.46038 | 111° | 42km/h | 4527m | 4.5m/s | -8.2°C | 0% | 0hPa | 0V | 00:00:00 | 00:00:00 | 00:00:00 | |
| OM5KV | 2026-09-02 04:48:07 | 48.61485 | 17.46007 | 110° | 42km/h | 4520m | 4.6m/s | -8.2°C | 0% | 0hPa | 0V | 00:00:00 | 00:00:00 | 00:00:00 | |
| OM5KV | 2026-09-02 04:48:05 | 48.61491 | 17.45977 | 108° | 38km/h | 4512m | 4.1m/s | -8.2°C | 0% | 0hPa | 0V | 00:00:00 | 00:00:00 | 00:00:00 | |
| PETON7-10 | 2026-09-02 04:48:04 | 48.61496 | 17.45949 | 105° | 38km/h | 4500m | 3.1m/s | 0°C | 0% | 0hPa | 0V | 00:00:00 | 00:00:00 | 00:00:00 | |
| OM5KV | 2026-09-02 04:47:54 | 48.61525 | 17.45820 | 106° | 38km/h | 4471m | 5.0m/s | -7.9°C | 0% | 0hPa | 0V | 00:00:00 | 00:00:00 | 00:00:00 | |
| OE3JTB-15 | 2026-09-02 04:47:51 | 48.61532 | 17.45778 | 109° | 40km/h | 4455m | 2.8m/s | 0°C | 0% | 0hPa | 0V | 00:00:00 | 00:00:00 | 00:00:00 | |
| ATIDSZ-14 | 2026-09-02 04:47:49 | 48.61538 | 17.45750 | 110° | 38km/h | 4452m | 4.0m/s | -7.8°C | 0% | 0hPa | 0V | 00:00:00 | 00:00:00 | 00:00:00 | |
| PETON7-10 | 2026-09-02 04:47:48 | 48.61541 | 17.45736 | 110° | 40km/h | 4444m | 3.8m/s | 0°C | 0% | 0hPa | 0V | 00:00:00 | 00:00:00 | 00:00:00 | |
| OM5KV | 2026-09-02 04:47:42 | 48.61558 | 17.45649 | 107° | 40km/h | 4424m | 3.3m/s | -7.7°C | 0% | 0hPa | 0V | 00:00:00 | 00:00:00 | 00:00:00 | |
| OM5KV | 2026-09-02 04:47:36 | 48.61574 | 17.45562 | 111° | 42km/h | 4401m | 3.8m/s | -7.6°C | 0% | 0hPa | 0V | 00:00:00 | 00:00:00 | 00:00:00 | |
| PETON7-10 | 2026-09-02 04:47:33 | 48.61584 | 17.45517 | 108° | 42km/h | 4385m | 3.8m/s | 0°C | 0% | 0hPa | 0V | 00:00:00 | 00:00:00 | 00:00:00 | |
| OM5KV | 2026-09-02 04:47:31 | 48.61593 | 17.45474 | 104° | 38km/h | 4377m | 3.9m/s | -7.4°C | 0% | 0hPa | 0V | 00:00:00 | 00:00:00 | 00:00:00 | |
| ATIDSZ-14 | 2026-09-02 04:47:28 | 48.61598 | 17.45444 | 105° | 40km/h | 4368m | 4.2m/s | -7.4°C | 0% | 0hPa | 0V | 00:00:00 | 00:00:00 | 00:00:00 | |
| OM5KV | 2026-09-02 04:47:24 | 48.61610 | 17.45383 | 110° | 44km/h | 4353m | 4.1m/s | -7.2°C | 0% | 0hPa | 0V | 00:00:00 | 00:00:00 | 00:00:00 | |
| OE3JTB-15 | 2026-09-02 04:47:22 | 48.61618 | 17.45351 | 110° | 44km/h | 4342m | 2.0m/s | 0°C | 0% | 0hPa | 0V | 00:00:00 | 00:00:00 | 00:00:00 | |
| OM5KV | 2026-09-02 04:47:19 | 48.61627 | 17.45301 | 107° | 46km/h | 4335m | 4.5m/s | -7.1°C | 0% | 0hPa | 0V | 00:00:00 | 00:00:00 | 00:00:00 | |
| PETON7-10 | 2026-09-02 04:47:18 | 48.61630 | 17.45285 | 105° | 44km/h | 4326m | 3.5m/s | 0°C | 0% | 0hPa | 0V | 00:00:00 | 00:00:00 | 00:00:00 | |
| OM5KV | 2026-09-02 04:47:13 | 48.61642 | 17.45203 | 103° | 44km/h | 4311m | 3.1m/s | -6.9°C | 0% | 0hPa | 0V | 00:00:00 | 00:00:00 | 00:00:00 | |
| ATIDSZ-14 | 2026-09-02 04:47:08 | 48.61654 | 17.45125 | 107° | 42km/h | 4291m | 5.6m/s | -6.8°C | 0% | 0hPa | 0V | 00:00:00 | 00:00:00 | 00:00:00 | |
| PETON7-10 | 2026-09-02 04:47:03 | 48.61665 | 17.45044 | 102° | 42km/h | 4266m | 3.1m/s | 0°C | 0% | 0hPa | 0V | 00:00:00 | 00:00:00 | 00:00:00 | |
| OM5KV | 2026-09-02 04:47:02 | 48.61667 | 17.45027 | 101° | 46km/h | 4266m | 3.2m/s | -6.7°C | 0% | 0hPa | 0V | 00:00:00 | 00:00:00 | 00:00:00 | |
| OM5KV | 2026-09-02 04:46:56 | 48.61680 | 17.44933 | 101° | 42km/h | 4242m | 4.9m/s | -6.5°C | 0% | 0hPa | 0V | 00:00:00 | 00:00:00 | 00:00:00 | |
| OE3JTB-15 | 2026-09-02 04:46:53 | 48.61686 | 17.44886 | 102° | 42km/h | 4227m | 3.4m/s | 0°C | 0% | 0hPa | 0V | 00:00:00 | 00:00:00 | 00:00:00 | |
| PETON7-10 | 2026-09-02 04:46:48 | 48.61700 | 17.44810 | 108° | 42km/h | 4210m | 3.8m/s | 0°C | 0% | 0hPa | 0V | 00:00:00 | 00:00:00 | 00:00:00 | |
| ATIDSZ-14 | 2026-09-02 04:46:47 | 48.61703 | 17.44797 | 107° | 38km/h | 4210m | 3.8m/s | -6.3°C | 0% | 0hPa | 0V | 00:00:00 | 00:00:00 | 00:00:00 | |
| OM5KV | 2026-09-02 04:46:44 | 48.61712 | 17.44753 | 107° | 40km/h | 4197m | 5.3m/s | -6.2°C | 0% | 0hPa | 0V | 00:00:00 | 00:00:00 | 00:00:00 | |
| OM5KV | 2026-09-02 04:46:43 | 48.61714 | 17.44738 | 106° | 44km/h | 4193m | 3.9m/s | -6.2°C | 0% | 0hPa | 0V | 00:00:00 | 00:00:00 | 00:00:00 | |
| OM5KV | 2026-09-02 04:46:38 | 48.61730 | 17.44657 | 108° | 40km/h | 4171m | 3.6m/s | -6.0°C | 0% | 0hPa | 0V | 00:00:00 | 00:00:00 | 00:00:00 | |
| OM5KV | 2026-09-02 04:46:37 | 48.61734 | 17.44642 | 108° | 40km/h | 4167m | 3.7m/s | -6.0°C | 0% | 0hPa | 0V | 00:00:00 | 00:00:00 | 00:00:00 | |
| PETON7-10 | 2026-09-02 04:46:33 | 48.61744 | 17.44582 | 104° | 42km/h | 4149m | 4.4m/s | 0°C | 0% | 0hPa | 0V | 00:00:00 | 00:00:00 | 00:00:00 | |
| OM5KV | 2026-09-02 04:46:31 | 48.61752 | 17.44531 | 102° | 44km/h | 4141m | 3.6m/s | -5.8°C | 0% | 0hPa | 0V | 00:00:00 | 00:00:00 | 00:00:00 | |
| ATIDSZ-14 | 2026-09-02 04:46:27 | 48.61761 | 17.44485 | 111° | 40km/h | 4129m | 4.3m/s | -5.7°C | 0% | 0hPa | 0V | 00:00:00 | 00:00:00 | 00:00:00 | |
| OE3JTB-15 | 2026-09-02 04:46:25 | 48.61770 | 17.44443 | 103° | 38km/h | 4113m | 3.7m/s | 0°C | 0% | 0hPa | 0V | 00:00:00 | 00:00:00 | 00:00:00 | |
| OM5KV | 2026-09-02 04:46:18 | 48.61782 | 17.44332 | 101° | 44km/h | 4087m | 4.5m/s | -5.5°C | 0% | 0hPa | 0V | 00:00:00 | 00:00:00 | 00:00:00 | |
| OM5KV | 2026-09-02 04:46:12 | 48.61794 | 17.44258 | 102° | 37km/h | 4066m | 4.5m/s | -5.4°C | 0% | 0hPa | 0V | 00:00:00 | 00:00:00 | 00:00:00 | |
| ATIDSZ-14 | 2026-09-02 04:46:06 | 48.61806 | 17.44170 | 100° | 40km/h | 4040m | 5.3m/s | -5.2°C | 0% | 0hPa | 0V | 00:00:00 | 00:00:00 | 00:00:00 | |
| PETON7-10 | 2026-09-02 04:46:03 | 48.61812 | 17.44127 | 102° | 35km/h | 4023m | 4.5m/s | 0°C | 0% | 0hPa | 0V | 00:00:00 | 00:00:00 | 00:00:00 | |
| OM5KV | 2026-09-02 04:46:00 | 48.61816 | 17.44088 | 98° | 35km/h | 4016m | 4.1m/s | -5.1°C | 0% | 0hPa | 0V | 00:00:00 | 00:00:00 | 00:00:00 | |
| OE3JTB-15 | 2026-09-02 04:45:55 | 48.61821 | 17.44018 | 97° | 35km/h | 3991m | 3.9m/s | 0°C | 0% | 0hPa | 0V | 00:00:00 | 00:00:00 | 00:00:00 | |
| OM5KV | 2026-09-02 04:45:54 | 48.61823 | 17.43992 | 95° | 33km/h | 3987m | 4.6m/s | -4.8°C | 0% | 0hPa | 0V | 00:00:00 | 00:00:00 | 00:00:00 | |
| OM5KV | 2026-09-02 04:45:49 | 48.61825 | 17.43940 | 93° | 35km/h | 3971m | 3.9m/s | -4.7°C | 0% | 0hPa | 0V | 00:00:00 | 00:00:00 | 00:00:00 | |
| PETON7-10 | 2026-09-02 04:45:48 | 48.61826 | 17.43927 | 98° | 35km/h | 3963m | 3.3m/s | 0°C | 0% | 0hPa | 0V | 00:00:00 | 00:00:00 | 00:00:00 | |
| OM5KV | 2026-09-02 04:45:45 | 48.61829 | 17.43873 | 95° | 37km/h | 3952m | 3.3m/s | -4.6°C | 0% | 0hPa | 0V | 00:00:00 | 00:00:00 | 00:00:00 | |
| OM5KV | 2026-09-02 04:45:36 | 48.61836 | 17.43767 | 97° | 37km/h | 3921m | 4.1m/s | -4.4°C | 0% | 0hPa | 0V | 00:00:00 | 00:00:00 | 00:00:00 | |
| PETON7-10 | 2026-09-02 04:45:33 | 48.61838 | 17.43726 | 96° | 37km/h | 3904m | 3.9m/s | 0°C | 0% | 0hPa | 0V | 00:00:00 | 00:00:00 | 00:00:00 | |
| OM5KV | 2026-09-02 04:45:32 | 48.61839 | 17.43712 | 97° | 37km/h | 3904m | 3.9m/s | -4.2°C | 0% | 0hPa | 0V | 00:00:00 | 00:00:00 | 00:00:00 | |
| OM5KV | 2026-09-02 04:45:27 | 48.61845 | 17.43642 | 99° | 37km/h | 3884m | 3.4m/s | -4.1°C | 0% | 0hPa | 0V | 00:00:00 | 00:00:00 | 00:00:00 | |
| OE3JTB-15 | 2026-09-02 04:45:26 | 48.61846 | 17.43628 | 99° | 37km/h | 3876m | 4.8m/s | 0°C | 0% | 0hPa | 0V | 00:00:00 | 00:00:00 | 00:00:00 | |
| ATIDSZ-14 | 2026-09-02 04:45:25 | 48.61847 | 17.43615 | 100° | 35km/h | 3876m | 4.8m/s | -4.0°C | 0% | 0hPa | 0V | 00:00:00 | 00:00:00 | 00:00:00 | |
| PETON7-10 | 2026-09-02 04:45:18 | 48.61856 | 17.43514 | 97° | 37km/h | 3844m | 3.4m/s | 0°C | 0% | 0hPa | 0V | 00:00:00 | 00:00:00 | 00:00:00 | |
| OM5KV | 2026-09-02 04:45:10 | 48.61866 | 17.43407 | 99° | 38km/h | 3816m | 3.6m/s | -3.6°C | 0% | 0hPa | 0V | 00:00:00 | 00:00:00 | 00:00:00 | |
| ATIDSZ-14 | 2026-09-02 04:45:04 | 48.61874 | 17.43320 | 99° | 37km/h | 3793m | 3.8m/s | -3.4°C | 0% | 0hPa | 0V | 00:00:00 | 00:00:00 | 00:00:00 | |
| OM5KV | 2026-09-02 04:44:59 | 48.61880 | 17.43256 | 97° | 33km/h | 3773m | 3.8m/s | -3.2°C | 0% | 0hPa | 0V | 00:00:00 | 00:00:00 | 00:00:00 | |
| OM5KV | 2026-09-02 04:44:58 | 48.61882 | 17.43230 | 100° | 35km/h | 3764m | 2.9m/s | -3.1°C | 0% | 0hPa | 0V | 00:00:00 | 00:00:00 | 00:00:00 | |
| OE3JTB-15 | 2026-09-02 04:44:56 | 48.61883 | 17.43217 | 97° | 35km/h | 3757m | 3.2m/s | 0°C | 0% | 0hPa | 0V | 00:00:00 | 00:00:00 | 00:00:00 | |
| PETON7-10 | 2026-09-02 04:44:48 | 48.61890 | 17.43113 | 95° | 35km/h | 3728m | 4.0m/s | 0°C | 0% | 0hPa | 0V | 00:00:00 | 00:00:00 | 00:00:00 | |
| ATIDSZ-14 | 2026-09-02 04:44:44 | 48.61893 | 17.43060 | 98° | 35km/h | 3715m | 3.2m/s | -2.7°C | 0% | 0hPa | 0V | 00:00:00 | 00:00:00 | 00:00:00 | |
| PETON7-10 | 2026-09-02 04:44:33 | 48.61901 | 17.42918 | 91° | 33km/h | 3667m | 3.0m/s | 0°C | 0% | 0hPa | 0V | 00:00:00 | 00:00:00 | 00:00:00 | |
| OM5KV | 2026-09-02 04:44:31 | 48.61901 | 17.42892 | 92° | 35km/h | 3663m | 5.4m/s | -2.3°C | 0% | 0hPa | 0V | 00:00:00 | 00:00:00 | 00:00:00 | |
| OE3JTB-15 | 2026-09-02 04:44:27 | 48.61904 | 17.42840 | 100° | 31km/h | 3642m | 4.3m/s | 0°C | 0% | 0hPa | 0V | 00:00:00 | 00:00:00 | 00:00:00 | |
| ATIDSZ-14 | 2026-09-02 04:44:23 | 48.61908 | 17.42792 | 97° | 33km/h | 3630m | 3.9m/s | -2.1°C | 0% | 0hPa | 0V | 00:00:00 | 00:00:00 | 00:00:00 | |
| PETON7-10 | 2026-09-02 04:44:18 | 48.61909 | 17.42728 | 98° | 31km/h | 3607m | 4.2m/s | 0°C | 0% | 0hPa | 0V | 00:00:00 | 00:00:00 | 00:00:00 | |
| OM5KV | 2026-09-02 04:44:14 | 48.61914 | 17.42679 | 101° | 33km/h | 3595m | 4.5m/s | -1.8°C | 0% | 0hPa | 0V | 00:00:00 | 00:00:00 | 00:00:00 | |
| OM5KV | 2026-09-02 04:44:08 | 48.61918 | 17.42609 | 92° | 27km/h | 3571m | 3.2m/s | -1.7°C | 0% | 0hPa | 0V | 00:00:00 | 00:00:00 | 00:00:00 | |
| PETON7-10 | 2026-09-02 04:44:03 | 48.61921 | 17.42553 | 100° | 31km/h | 3546m | 4.2m/s | 0°C | 0% | 0hPa | 0V | 00:00:00 | 00:00:00 | 00:00:00 | |
| OE3JTB-15 | 2026-09-02 04:43:58 | 48.61926 | 17.42493 | 95° | 33km/h | 3526m | 3.1m/s | 0°C | 0% | 0hPa | 0V | 00:00:00 | 00:00:00 | 00:00:00 | |
| OM5KV | 2026-09-02 04:43:57 | 48.61926 | 17.42483 | 94° | 27km/h | 3526m | 3.2m/s | -1.5°C | 0% | 0hPa | 0V | 00:00:00 | 00:00:00 | 00:00:00 | |
| OM5KV | 2026-09-02 04:43:52 | 48.61929 | 17.42423 | 98° | 35km/h | 3506m | 3.2m/s | -1.3°C | 0% | 0hPa | 0V | 00:00:00 | 00:00:00 | 00:00:00 | |
| PETON7-10 | 2026-09-02 04:43:48 | 48.61934 | 17.42375 | 97° | 35km/h | 3488m | 4.4m/s | 0°C | 0% | 0hPa | 0V | 00:00:00 | 00:00:00 | 00:00:00 | |
| ATIDSZ-14 | 2026-09-02 04:43:42 | 48.61941 | 17.42299 | 100° | 37km/h | 3469m | 4.4m/s | -1.2°C | 0% | 0hPa | 0V | 00:00:00 | 00:00:00 | 00:00:00 | |
| OM5KV | 2026-09-02 04:43:40 | 48.61944 | 17.42272 | 100° | 35km/h | 3461m | 3.6m/s | -1.3°C | 0% | 0hPa | 0V | 00:00:00 | 00:00:00 | 00:00:00 | |
| PETON7-10 | 2026-09-02 04:43:33 | 48.61948 | 17.42179 | 99° | 37km/h | 3428m | 3.8m/s | 0°C | 0% | 0hPa | 0V | 00:00:00 | 00:00:00 | 00:00:00 | |
| OE3JTB-15 | 2026-09-02 04:43:29 | 48.61951 | 17.42129 | 96° | 40km/h | 3413m | 5.1m/s | 0°C | 0% | 0hPa | 0V | 00:00:00 | 00:00:00 | 00:00:00 | |
| OM5KV | 2026-09-02 04:43:27 | 48.61952 | 17.42101 | 89° | 37km/h | 3408m | 3.8m/s | -2.0°C | 0% | 0hPa | 0V | 00:00:00 | 00:00:00 | 00:00:00 | |
| ATIDSZ-14 | 2026-09-02 04:43:22 | 48.61950 | 17.42030 | 93° | 38km/h | 3388m | 4.5m/s | -1.8°C | 0% | 0hPa | 0V | 00:00:00 | 00:00:00 | 00:00:00 | |
| PETON7-10 | 2026-09-02 04:43:18 | 48.61956 | 17.41973 | 96° | 42km/h | 3367m | 5.1m/s | 0°C | 0% | 0hPa | 0V | 00:00:00 | 00:00:00 | 00:00:00 | |
| OM5KV | 2026-09-02 04:43:05 | 48.61959 | 17.41768 | 93° | 44km/h | 3312m | 5.0m/s | -2.3°C | 0% | 0hPa | 0V | 00:00:00 | 00:00:00 | 00:00:00 | |
| OM5KV | 2026-09-02 04:43:04 | 48.61960 | 17.41751 | 93° | 46km/h | 3307m | 3.8m/s | -2.3°C | 0% | 0hPa | 0V | 00:00:00 | 00:00:00 | 00:00:00 | |
| PETON7-10 | 2026-09-02 04:43:03 | 48.61960 | 17.41733 | 91° | 51km/h | 3298m | 4.0m/s | 0°C | 0% | 0hPa | 0V | 00:00:00 | 00:00:00 | 00:00:00 | |
| OE3JTB-15 | 2026-09-02 04:43:00 | 48.61960 | 17.41678 | 89° | 53km/h | 3285m | 4.0m/s | 0°C | 0% | 0hPa | 0V | 00:00:00 | 00:00:00 | 00:00:00 | |
| PETON7-10 | 2026-09-02 04:42:48 | 48.61968 | 17.41443 | 95° | 53km/h | 3237m | 4.1m/s | 0°C | 0% | 0hPa | 0V | 00:00:00 | 00:00:00 | 00:00:00 | |
| OM5KV | 2026-09-02 04:42:43 | 48.61971 | 17.41340 | 91° | 51km/h | 3221m | 4.1m/s | -2.4°C | 0% | 0hPa | 0V | 00:00:00 | 00:00:00 | 00:00:00 | |
| ATIDSZ-14 | 2026-09-02 04:42:41 | 48.61971 | 17.41300 | 92° | 51km/h | 3213m | 2.8m/s | -2.3°C | 0% | 0hPa | 0V | 00:00:00 | 00:00:00 | 00:00:00 | |
| OM5KV | 2026-09-02 04:42:35 | 48.61979 | 17.41181 | 97° | 53km/h | 3189m | 4.1m/s | -2.1°C | 0% | 0hPa | 0V | 00:00:00 | 00:00:00 | 00:00:00 | |
| PETON7-10 | 2026-09-02 04:42:33 | 48.61982 | 17.41140 | 98° | 53km/h | 3177m | 4.6m/s | 0°C | 0% | 0hPa | 0V | 00:00:00 | 00:00:00 | 00:00:00 | |
| OE3JTB-15 | 2026-09-02 04:42:31 | 48.61985 | 17.41100 | 95° | 53km/h | 3170m | 4.2m/s | 0°C | 0% | 0hPa | 0V | 00:00:00 | 00:00:00 | 00:00:00 | |
| OM5KV | 2026-09-02 04:42:29 | 48.61986 | 17.41062 | 93° | 53km/h | 3165m | 5.6m/s | -1.9°C | 0% | 0hPa | 0V | 00:00:00 | 00:00:00 | 00:00:00 | |
| OM5KV | 2026-09-02 04:42:26 | 48.61988 | 17.41000 | 94° | 55km/h | 3151m | 4.4m/s | -1.8°C | 0% | 0hPa | 0V | 00:00:00 | 00:00:00 | 00:00:00 | |
| OM5KV | 2026-09-02 04:42:24 | 48.61990 | 17.40959 | 99° | 55km/h | 3142m | 4.0m/s | -1.8°C | 0% | 0hPa | 0V | 00:00:00 | 00:00:00 | 00:00:00 | |
| ATIDSZ-14 | 2026-09-02 04:42:20 | 48.61997 | 17.40876 | 97° | 55km/h | 3127m | 6.5m/s | -1.7°C | 0% | 0hPa | 0V | 00:00:00 | 00:00:00 | 00:00:00 | |
| OM5KV | 2026-09-02 04:42:13 | 48.62004 | 17.40744 | 94° | 51km/h | 3094m | 3.6m/s | -1.5°C | 0% | 0hPa | 0V | 00:00:00 | 00:00:00 | 00:00:00 | |
| OM5KV | 2026-09-02 04:42:06 | 48.62013 | 17.40602 | 98° | 51km/h | 3062m | 5.1m/s | -1.3°C | 0% | 0hPa | 0V | 00:00:00 | 00:00:00 | 00:00:00 | |
| PETON7-10 | 2026-09-02 04:42:03 | 48.62016 | 17.40543 | 94° | 51km/h | 3041m | 3.1m/s | 0°C | 0% | 0hPa | 0V | 00:00:00 | 00:00:00 | 00:00:00 | |
| OE3JTB-15 | 2026-09-02 04:42:02 | 48.62017 | 17.40523 | 96° | 49km/h | 3036m | 7.0m/s | 0°C | 0% | 0hPa | 0V | 00:00:00 | 00:00:00 | 00:00:00 | |
| ATIDSZ-14 | 2026-09-02 04:42:00 | 48.62020 | 17.40482 | 101° | 53km/h | 3030m | 5.2m/s | -1.2°C | 0% | 0hPa | 0V | 00:00:00 | 00:00:00 | 00:00:00 | |
| OM5KV | 2026-09-02 04:41:59 | 48.62022 | 17.40462 | 103° | 57km/h | 3025m | 5.0m/s | -1.1°C | 0% | 0hPa | 0V | 00:00:00 | 00:00:00 | 00:00:00 | |
| OM5KV | 2026-09-02 04:41:58 | 48.62025 | 17.40441 | 106° | 57km/h | 3020m | 3.8m/s | -1.1°C | 0% | 0hPa | 0V | 00:00:00 | 00:00:00 | 00:00:00 | |
| OM5KV | 2026-09-02 04:41:53 | 48.62039 | 17.40340 | 102° | 47km/h | 2995m | 6.7m/s | -1.0°C | 0% | 0hPa | 0V | 00:00:00 | 00:00:00 | 00:00:00 | |
| OM5KV | 2026-09-02 04:41:52 | 48.62041 | 17.40323 | 103° | 44km/h | 2989m | 6.0m/s | -0.9°C | 0% | 0hPa | 0V | 00:00:00 | 00:00:00 | 00:00:00 | |
| PETON7-10 | 2026-09-02 04:41:48 | 48.62048 | 17.40255 | 95° | 47km/h | 2966m | 6.6m/s | 0°C | 0% | 0hPa | 0V | 00:00:00 | 00:00:00 | 00:00:00 | |
| OM5KV | 2026-09-02 04:41:46 | 48.62051 | 17.40214 | 102° | 55km/h | 2960m | 4.7m/s | -0.7°C | 0% | 0hPa | 0V | 00:00:00 | 00:00:00 | 00:00:00 | |
| OM5KV | 2026-09-02 04:41:43 | 48.62059 | 17.40161 | 105° | 40km/h | 2943m | 4.2m/s | -0.5°C | 0% | 0hPa | 0V | 00:00:00 | 00:00:00 | 00:00:00 | |
| ATIDSZ-14 | 2026-09-02 04:41:40 | 48.62065 | 17.40092 | 100° | 51km/h | 2925m | 4.4m/s | -0.4°C | 0% | 0hPa | 0V | 00:00:00 | 00:00:00 | 00:00:00 | |
| OM5KV | 2026-09-02 04:41:37 | 48.62070 | 17.40053 | 103° | 51km/h | 2917m | 5.0m/s | -0.3°C | 0% | 0hPa | 0V | 00:00:00 | 00:00:00 | 00:00:00 | |
| PETON7-10 | 2026-09-02 04:41:33 | 48.62078 | 17.39992 | 99° | 46km/h | 2896m | 4.4m/s | 0°C | 0% | 0hPa | 0V | 00:00:00 | 00:00:00 | 00:00:00 | |
| OM5KV | 2026-09-02 04:41:32 | 48.62079 | 17.39979 | 98° | 35km/h | 2896m | 4.4m/s | -0.2°C | 0% | 0hPa | 0V | 00:00:00 | 00:00:00 | 00:00:00 | |
| OM5KV | 2026-09-02 04:41:27 | 48.62096 | 17.39879 | 108° | 44km/h | 2863m | 4.8m/s | 0.1°C | 0% | 0hPa | 0V | 00:00:00 | 00:00:00 | 00:00:00 | |
| OM5KV | 2026-09-02 04:41:26 | 48.62096 | 17.39879 | 108° | 44km/h | 2863m | 4.8m/s | 0.1°C | 0% | 0hPa | 0V | 00:00:00 | 00:00:00 | 00:00:00 | |
| OM5KV | 2026-09-02 04:41:22 | 48.62110 | 17.39792 | 105° | 49km/h | 2840m | 4.1m/s | 0.4°C | 0% | 0hPa | 0V | 00:00:00 | 00:00:00 | 00:00:00 | |
| OM5KV | 2026-09-02 04:41:21 | 48.62113 | 17.39774 | 103° | 49km/h | 2836m | 3.8m/s | 0.4°C | 0% | 0hPa | 0V | 00:00:00 | 00:00:00 | 00:00:00 | |
| ATIDSZ-14 | 2026-09-02 04:41:19 | 48.62116 | 17.39756 | 104° | 47km/h | 2832m | 4.8m/s | 0.4°C | 0% | 0hPa | 0V | 00:00:00 | 00:00:00 | 00:00:00 | |
| PETON7-10 | 2026-09-02 04:41:18 | 48.62119 | 17.39739 | 105° | 49km/h | 2824m | 3.8m/s | 0°C | 0% | 0hPa | 0V | 00:00:00 | 00:00:00 | 00:00:00 | |
| OM5KV | 2026-09-02 04:41:15 | 48.62127 | 17.39689 | 107° | 44km/h | 2816m | 4.6m/s | 0.6°C | 0% | 0hPa | 0V | 00:00:00 | 00:00:00 | 00:00:00 | |
| OM5KV | 2026-09-02 04:41:14 | 48.62130 | 17.39672 | 108° | 44km/h | 2811m | 4.1m/s | 0.6°C | 0% | 0hPa | 0V | 00:00:00 | 00:00:00 | 00:00:00 | |
| OM5KV | 2026-09-02 04:41:12 | 48.62140 | 17.39618 | 106° | 49km/h | 2798m | 5.8m/s | 0.7°C | 0% | 0hPa | 0V | 00:00:00 | 00:00:00 | 00:00:00 | |
| OM5KV | 2026-09-02 04:41:09 | 48.62146 | 17.39581 | 102° | 51km/h | 2790m | 5.4m/s | 0.8°C | 0% | 0hPa | 0V | 00:00:00 | 00:00:00 | 00:00:00 | |
| OM5KV | 2026-09-02 04:41:06 | 48.62154 | 17.39521 | 104° | 53km/h | 2778m | 2.9m/s | 0.9°C | 0% | 0hPa | 0V | 00:00:00 | 00:00:00 | 00:00:00 | |
| OE3JTB-15 | 2026-09-02 04:41:04 | 48.62159 | 17.39482 | 101° | 49km/h | 2766m | 3.1m/s | 0°C | 0% | 0hPa | 0V | 00:00:00 | 00:00:00 | 00:00:00 | |
| OM5KV | 2026-09-02 04:41:03 | 48.62161 | 17.39466 | 102° | 42km/h | 2766m | 3.2m/s | 1.0°C | 0% | 0hPa | 0V | 00:00:00 | 00:00:00 | 00:00:00 | |
| OM5KV | 2026-09-02 04:41:00 | 48.62171 | 17.39418 | 115° | 49km/h | 2754m | 3.9m/s | 1.1°C | 0% | 0hPa | 0V | 00:00:00 | 00:00:00 | 00:00:00 | |
| ATIDSZ-14 | 2026-09-02 04:40:58 | 48.62181 | 17.39382 | 111° | 51km/h | 2744m | 3.6m/s | 1.2°C | 0% | 0hPa | 0V | 00:00:00 | 00:00:00 | 00:00:00 | |
| OM5KV | 2026-09-02 04:40:54 | 48.62198 | 17.39308 | 111° | 51km/h | 2727m | 5.6m/s | 1.3°C | 0% | 0hPa | 0V | 00:00:00 | 00:00:00 | 00:00:00 | |
| OM5KV | 2026-09-02 04:40:51 | 48.62212 | 17.39253 | 113° | 51km/h | 2713m | 5.2m/s | 1.3°C | 0% | 0hPa | 0V | 00:00:00 | 00:00:00 | 00:00:00 | |
| OM5KV | 2026-09-02 04:40:49 | 48.62220 | 17.39216 | 108° | 49km/h | 2704m | 3.0m/s | 1.4°C | 0% | 0hPa | 0V | 00:00:00 | 00:00:00 | 00:00:00 | |
| PETON7-10 | 2026-09-02 04:40:48 | 48.62224 | 17.39198 | 107° | 49km/h | 2695m | 4.9m/s | 0°C | 0% | 0hPa | 0V | 00:00:00 | 00:00:00 | 00:00:00 | |
| OM5KV | 2026-09-02 04:40:43 | 48.62243 | 17.39108 | 111° | 47km/h | 2680m | 2.3m/s | 1.5°C | 0% | 0hPa | 0V | 00:00:00 | 00:00:00 | 00:00:00 | |
| OM5KV | 2026-09-02 04:40:40 | 48.62253 | 17.39055 | 108° | 49km/h | 2669m | 4.3m/s | 1.6°C | 0% | 0hPa | 0V | 00:00:00 | 00:00:00 | 00:00:00 | |
| ATIDSZ-14 | 2026-09-02 04:40:38 | 48.62261 | 17.39019 | 109° | 49km/h | 2661m | 5.0m/s | 1.6°C | 0% | 0hPa | 0V | 00:00:00 | 00:00:00 | 00:00:00 | |
| OM5KV | 2026-09-02 04:40:37 | 48.62265 | 17.39001 | 110° | 49km/h | 2657m | 3.9m/s | 1.6°C | 0% | 0hPa | 0V | 00:00:00 | 00:00:00 | 00:00:00 | |
| OE3JTB-15 | 2026-09-02 04:40:35 | 48.62273 | 17.38968 | 108° | 44km/h | 2645m | 3.9m/s | 0°C | 0% | 0hPa | 0V | 00:00:00 | 00:00:00 | 00:00:00 | |
| OM5KV | 2026-09-02 04:40:34 | 48.62276 | 17.38951 | 106° | 44km/h | 2645m | 3.9m/s | 1.7°C | 0% | 0hPa | 0V | 00:00:00 | 00:00:00 | 00:00:00 | |
| PETON7-10 | 2026-09-02 04:40:33 | 48.62279 | 17.38935 | 107° | 46km/h | 2638m | 2.9m/s | 0°C | 0% | 0hPa | 0V | 00:00:00 | 00:00:00 | 00:00:00 | |
| OM5KV | 2026-09-02 04:40:28 | 48.62297 | 17.38850 | 109° | 46km/h | 2623m | 3.9m/s | 1.9°C | 0% | 0hPa | 0V | 00:00:00 | 00:00:00 | 00:00:00 | |
| OM5KV | 2026-09-02 04:40:27 | 48.62301 | 17.38833 | 108° | 44km/h | 2620m | 2.5m/s | 1.9°C | 0% | 0hPa | 0V | 00:00:00 | 00:00:00 | 00:00:00 | |
| OM5KV | 2026-09-02 04:40:22 | 48.62317 | 17.38751 | 111° | 46km/h | 2601m | 4.2m/s | 2.0°C | 0% | 0hPa | 0V | 00:00:00 | 00:00:00 | 00:00:00 | |
| OM5KV | 2026-09-02 04:40:21 | 48.62321 | 17.38735 | 110° | 46km/h | 2598m | 2.9m/s | 2.0°C | 0% | 0hPa | 0V | 00:00:00 | 00:00:00 | 00:00:00 | |
| ATIDSZ-14 | 2026-09-02 04:40:18 | 48.62336 | 17.38673 | 111° | 46km/h | 2583m | 3.5m/s | 2.1°C | 0% | 0hPa | 0V | 00:00:00 | 00:00:00 | 00:00:00 | |
| OM5KV | 2026-09-02 04:40:15 | 48.62344 | 17.38642 | 113° | 44km/h | 2576m | 4.2m/s | 2.1°C | 0% | 0hPa | 0V | 00:00:00 | 00:00:00 | 00:00:00 | |
| OM5KV | 2026-09-02 04:40:14 | 48.62348 | 17.38626 | 111° | 46km/h | 2572m | 3.7m/s | 2.1°C | 0% | 0hPa | 0V | 00:00:00 | 00:00:00 | 00:00:00 | |
| OM5KV | 2026-09-02 04:40:09 | 48.62368 | 17.38546 | 112° | 42km/h | 2552m | 3.6m/s | 2.2°C | 0% | 0hPa | 0V | 00:00:00 | 00:00:00 | 00:00:00 | |
| OM5KV | 2026-09-02 04:40:08 | 48.62371 | 17.38531 | 111° | 42km/h | 2548m | 4.3m/s | 2.2°C | 0% | 0hPa | 0V | 00:00:00 | 00:00:00 | 00:00:00 | |
| OE3JTB-15 | 2026-09-02 04:40:06 | 48.62379 | 17.38501 | 115° | 40km/h | 2537m | 3.3m/s | 0°C | 0% | 0hPa | 0V | 00:00:00 | 00:00:00 | 00:00:00 | |
| OM5KV | 2026-09-02 04:40:04 | 48.62387 | 17.38471 | 116° | 44km/h | 2534m | 4.2m/s | 2.3°C | 0% | 0hPa | 0V | 00:00:00 | 00:00:00 | 00:00:00 | |
| PETON7-10 | 2026-09-02 04:40:03 | 48.62392 | 17.38456 | 114° | 40km/h | 2526m | 4.2m/s | 0°C | 0% | 0hPa | 0V | 00:00:00 | 00:00:00 | 00:00:00 | |
| OM5KV | 2026-09-02 04:40:02 | 48.62397 | 17.38441 | 117° | 44km/h | 2526m | 4.2m/s | 2.3°C | 0% | 0hPa | 0V | 00:00:00 | 00:00:00 | 00:00:00 | |
| OM5KV | 2026-09-02 04:39:58 | 48.62413 | 17.38383 | 115° | 42km/h | 2511m | 3.3m/s | 2.4°C | 0% | 0hPa | 0V | 00:00:00 | 00:00:00 | 00:00:00 | |
| ATIDSZ-14 | 2026-09-02 04:39:56 | 48.62421 | 17.38353 | 112° | 44km/h | 2504m | 3.2m/s | 2.4°C | 0% | 0hPa | 0V | 00:00:00 | 00:00:00 | 00:00:00 | |
| OM5KV | 2026-09-02 04:39:51 | 48.62442 | 17.38280 | 116° | 37km/h | 2485m | 3.4m/s | 2.4°C | 0% | 0hPa | 0V | 00:00:00 | 00:00:00 | 00:00:00 | |
| PETON7-10 | 2026-09-02 04:39:48 | 48.62452 | 17.38244 | 111° | 37km/h | 2470m | 4.9m/s | 0°C | 0% | 0hPa | 0V | 00:00:00 | 00:00:00 | 00:00:00 | |
| OM5KV | 2026-09-02 04:39:46 | 48.62458 | 17.38218 | 110° | 38km/h | 2466m | 3.9m/s | 2.5°C | 0% | 0hPa | 0V | 00:00:00 | 00:00:00 | 00:00:00 | |
| OM5KV | 2026-09-02 04:39:45 | 48.62462 | 17.38203 | 114° | 40km/h | 2462m | 4.3m/s | 2.6°C | 0% | 0hPa | 0V | 00:00:00 | 00:00:00 | 00:00:00 | |
| OM5KV | 2026-09-02 04:39:41 | 48.62482 | 17.38149 | 125° | 40km/h | 2445m | 4.8m/s | 2.7°C | 0% | 0hPa | 0V | 00:00:00 | 00:00:00 | 00:00:00 | |
| OM5KV | 2026-09-02 04:39:40 | 48.62488 | 17.38137 | 129° | 38km/h | 2441m | 3.8m/s | 2.7°C | 0% | 0hPa | 0V | 00:00:00 | 00:00:00 | 00:00:00 | |
| OM5KV | 2026-09-02 04:39:39 | 48.62493 | 17.38126 | 127° | 37km/h | 2436m | 5.5m/s | 2.8°C | 0% | 0hPa | 0V | 00:00:00 | 00:00:00 | 00:00:00 | |
| OE3JTB-15 | 2026-09-02 04:39:37 | 48.62503 | 17.38104 | 120° | 35km/h | 2422m | 4.9m/s | 0°C | 0% | 0hPa | 0V | 00:00:00 | 00:00:00 | 00:00:00 | |
| ATIDSZ-14 | 2026-09-02 04:39:36 | 48.62507 | 17.38093 | 121° | 33km/h | 2422m | 5.0m/s | 2.8°C | 0% | 0hPa | 0V | 00:00:00 | 00:00:00 | 00:00:00 | |
| PETON7-10 | 2026-09-02 04:39:33 | 48.62521 | 17.38058 | 119° | 35km/h | 2406m | 4.0m/s | 0°C | 0% | 0hPa | 0V | 00:00:00 | 00:00:00 | 00:00:00 | |
| OM5KV | 2026-09-02 04:39:30 | 48.62534 | 17.38020 | 116° | 37km/h | 2398m | 4.8m/s | 3.0°C | 0% | 0hPa | 0V | 00:00:00 | 00:00:00 | 00:00:00 | |
| OM5KV | 2026-09-02 04:39:29 | 48.62538 | 17.38008 | 114° | 35km/h | 2395m | 2.8m/s | 3.1°C | 0% | 0hPa | 0V | 00:00:00 | 00:00:00 | 00:00:00 | |
| OM5KV | 2026-09-02 04:39:25 | 48.62553 | 17.37959 | 121° | 31km/h | 2378m | 3.9m/s | 3.2°C | 0% | 0hPa | 0V | 00:00:00 | 00:00:00 | 00:00:00 | |
| OM5KV | 2026-09-02 04:39:20 | 48.62582 | 17.37900 | 120° | 27km/h | 2356m | 4.5m/s | 3.4°C | 0% | 0hPa | 0V | 00:00:00 | 00:00:00 | 00:00:00 | |
| PETON7-10 | 2026-09-02 04:39:18 | 48.62585 | 17.37890 | 110° | 33km/h | 2350m | 6.2m/s | 0°C | 0% | 0hPa | 0V | 00:00:00 | 00:00:00 | 00:00:00 | |
| OM5KV | 2026-09-02 04:39:17 | 48.62587 | 17.37878 | 107° | 33km/h | 2350m | 6.3m/s | 3.4°C | 0% | 0hPa | 0V | 00:00:00 | 00:00:00 | 00:00:00 | |
| OM5KV | 2026-09-02 04:39:16 | 48.62590 | 17.37866 | 109° | 35km/h | 2344m | 5.3m/s | 3.4°C | 0% | 0hPa | 0V | 00:00:00 | 00:00:00 | 00:00:00 | |
| ATIDSZ-14 | 2026-09-02 04:39:15 | 48.62593 | 17.37853 | 111° | 37km/h | 2340m | 3.0m/s | 3.5°C | 0% | 0hPa | 0V | 00:00:00 | 00:00:00 | 00:00:00 | |
| OM5KV | 2026-09-02 04:39:13 | 48.62599 | 17.37827 | 110° | 35km/h | 2331m | 5.4m/s | 3.5°C | 0% | 0hPa | 0V | 00:00:00 | 00:00:00 | 00:00:00 | |
| OM5KV | 2026-09-02 04:39:10 | 48.62609 | 17.37791 | 116° | 38km/h | 2315m | 5.7m/s | 3.6°C | 0% | 0hPa | 0V | 00:00:00 | 00:00:00 | 00:00:00 | |
| OE3JTB-15 | 2026-09-02 04:39:08 | 48.62618 | 17.37766 | 129° | 29km/h | 2301m | 4.0m/s | 0°C | 0% | 0hPa | 0V | 00:00:00 | 00:00:00 | 00:00:00 | |
| OM5KV | 2026-09-02 04:39:07 | 48.62623 | 17.37757 | 129° | 31km/h | 2301m | 4.1m/s | 3.7°C | 0% | 0hPa | 0V | 00:00:00 | 00:00:00 | 00:00:00 | |
| OM5KV | 2026-09-02 04:39:04 | 48.62634 | 17.37729 | 116° | 27km/h | 2287m | 4.5m/s | 3.8°C | 0% | 0hPa | 0V | 00:00:00 | 00:00:00 | 00:00:00 | |
| OM5KV | 2026-09-02 04:39:01 | 48.62644 | 17.37698 | 113° | 29km/h | 2273m | 3.8m/s | 4.0°C | 0% | 0hPa | 0V | 00:00:00 | 00:00:00 | 00:00:00 | |
| OM5KV | 2026-09-02 04:38:58 | 48.62652 | 17.37665 | 113° | 29km/h | 2261m | 5.0m/s | 4.1°C | 0% | 0hPa | 0V | 00:00:00 | 00:00:00 | 00:00:00 | |
| ATIDSZ-14 | 2026-09-02 04:38:55 | 48.62661 | 17.37640 | 121° | 24km/h | 2249m | 4.2m/s | 4.2°C | 0% | 0hPa | 0V | 00:00:00 | 00:00:00 | 00:00:00 | |
| OM5KV | 2026-09-02 04:38:51 | 48.62668 | 17.37598 | 105° | 35km/h | 2232m | 3.4m/s | 4.3°C | 0% | 0hPa | 0V | 00:00:00 | 00:00:00 | 00:00:00 | |
| OM5KV | 2026-09-02 04:38:49 | 48.62671 | 17.37573 | 102° | 31km/h | 2222m | 5.1m/s | 4.4°C | 0% | 0hPa | 0V | 00:00:00 | 00:00:00 | 00:00:00 | |
| PETON7-10 | 2026-09-02 04:38:48 | 48.62673 | 17.37561 | 105° | 27km/h | 2211m | 5.1m/s | 0°C | 0% | 0hPa | 0V | 00:00:00 | 00:00:00 | 00:00:00 | |
| OM5KV | 2026-09-02 04:38:45 | 48.62679 | 17.37533 | 114° | 24km/h | 2202m | 5.6m/s | 4.6°C | 0% | 0hPa | 0V | 00:00:00 | 00:00:00 | 00:00:00 | |
| OM5KV | 2026-09-02 04:38:44 | 48.62681 | 17.37525 | 120° | 26km/h | 2197m | 4.8m/s | 4.6°C | 0% | 0hPa | 0V | 00:00:00 | 00:00:00 | 00:00:00 | |
| OE3JTB-15 | 2026-09-02 04:38:39 | 48.62696 | 17.37477 | 111° | 27km/h | 2175m | 3.7m/s | 0°C | 0% | 0hPa | 0V | 00:00:00 | 00:00:00 | 00:00:00 | |
| OM5KV | 2026-09-02 04:38:38 | 48.62699 | 17.37466 | 109° | 31km/h | 2175m | 3.8m/s | 4.8°C | 0% | 0hPa | 0V | 00:00:00 | 00:00:00 | 00:00:00 | |
| OM5KV | 2026-09-02 04:38:37 | 48.62701 | 17.37455 | 108° | 29km/h | 2172m | 4.4m/s | 4.9°C | 0% | 0hPa | 0V | 00:00:00 | 00:00:00 | 00:00:00 | |
| ATIDSZ-14 | 2026-09-02 04:38:35 | 48.62708 | 17.37436 | 110° | 26km/h | 2163m | 3.9m/s | 5.0°C | 0% | 0hPa | 0V | 00:00:00 | 00:00:00 | 00:00:00 | |
| PETON7-10 | 2026-09-02 04:38:33 | 48.62710 | 17.37417 | 118° | 27km/h | 2151m | 2.4m/s | 0°C | 0% | 0hPa | 0V | 00:00:00 | 00:00:00 | 00:00:00 | |
| OM5KV | 2026-09-02 04:38:32 | 48.62713 | 17.37408 | 119° | 26km/h | 2151m | 2.5m/s | 5.0°C | 0% | 0hPa | 0V | 00:00:00 | 00:00:00 | 00:00:00 | |
| OM5KV | 2026-09-02 04:38:31 | 48.62716 | 17.37400 | 116° | 26km/h | 2148m | 4.1m/s | 5.1°C | 0% | 0hPa | 0V | 00:00:00 | 00:00:00 | 00:00:00 | |
| OM5KV | 2026-09-02 04:38:27 | 48.62727 | 17.37360 | 110° | 29km/h | 2132m | 3.2m/s | 5.2°C | 0% | 0hPa | 0V | 00:00:00 | 00:00:00 | 00:00:00 | |
| OM5KV | 2026-09-02 04:38:25 | 48.62731 | 17.37340 | 112° | 27km/h | 2125m | 4.3m/s | 5.3°C | 0% | 0hPa | 0V | 00:00:00 | 00:00:00 | 00:00:00 | |
| OM5KV | 2026-09-02 04:38:21 | 48.62740 | 17.37301 | 113° | 26km/h | 2108m | 4.7m/s | 5.4°C | 0% | 0hPa | 0V | 00:00:00 | 00:00:00 | 00:00:00 | |
| OM5KV | 2026-09-02 04:38:20 | 48.62742 | 17.37292 | 113° | 24km/h | 2104m | 2.9m/s | 5.5°C | 0% | 0hPa | 0V | 00:00:00 | 00:00:00 | 00:00:00 | |
| PETON7-10 | 2026-09-02 04:38:18 | 48.62748 | 17.37274 | 111° | 26km/h | 2092m | 4.6m/s | 0°C | 0% | 0hPa | 0V | 00:00:00 | 00:00:00 | 00:00:00 | |
| OM5KV | 2026-09-02 04:38:16 | 48.62754 | 17.37244 | 101° | 27km/h | 2085m | 4.4m/s | 5.6°C | 0% | 0hPa | 0V | 00:00:00 | 00:00:00 | 00:00:00 | |
| ATIDSZ-14 | 2026-09-02 04:38:13 | 48.62756 | 17.37223 | 96° | 26km/h | 2077m | 4.5m/s | 5.7°C | 0% | 0hPa | 0V | 00:00:00 | 00:00:00 | 00:00:00 | |
| OE3JTB-15 | 2026-09-02 04:38:10 | 48.62759 | 17.37198 | 111° | 24km/h | 2060m | 4.2m/s | 0°C | 0% | 0hPa | 0V | 00:00:00 | 00:00:00 | 00:00:00 | |
| OM5KV | 2026-09-02 04:38:09 | 48.62764 | 17.37180 | 115° | 27km/h | 2056m | 3.9m/s | 5.9°C | 0% | 0hPa | 0V | 00:00:00 | 00:00:00 | 00:00:00 | |
| OM5KV | 2026-09-02 04:38:08 | 48.62764 | 17.37180 | 115° | 27km/h | 2056m | 3.9m/s | 5.9°C | 0% | 0hPa | 0V | 00:00:00 | 00:00:00 | 00:00:00 | |
| PETON7-10 | 2026-09-02 04:38:03 | 48.62774 | 17.37130 | 101° | 24km/h | 2034m | 3.2m/s | 0°C | 0% | 0hPa | 0V | 00:00:00 | 00:00:00 | 00:00:00 | |
| OM5KV | 2026-09-02 04:38:02 | 48.62776 | 17.37121 | 101° | 26km/h | 2034m | 3.3m/s | 6.1°C | 0% | 0hPa | 0V | 00:00:00 | 00:00:00 | 00:00:00 | |
| OM5KV | 2026-09-02 04:37:57 | 48.62783 | 17.37075 | 109° | 26km/h | 2014m | 2.9m/s | 6.2°C | 0% | 0hPa | 0V | 00:00:00 | 00:00:00 | 00:00:00 | |
| OM5KV | 2026-09-02 04:37:56 | 48.62784 | 17.37066 | 108° | 26km/h | 2010m | 4.0m/s | 6.2°C | 0% | 0hPa | 0V | 00:00:00 | 00:00:00 | 00:00:00 | |
| OM5KV | 2026-09-02 04:37:55 | 48.62786 | 17.37056 | 105° | 26km/h | 2007m | 3.3m/s | 6.2°C | 0% | 0hPa | 0V | 00:00:00 | 00:00:00 | 00:00:00 | |
| OM5KV | 2026-09-02 04:37:50 | 48.62792 | 17.37009 | 91° | 20km/h | 1984m | 4.7m/s | 6.4°C | 0% | 0hPa | 0V | 00:00:00 | 00:00:00 | 00:00:00 | |
| OM5KV | 2026-09-02 04:37:49 | 48.62792 | 17.37001 | 94° | 20km/h | 1979m | 6.2m/s | 6.4°C | 0% | 0hPa | 0V | 00:00:00 | 00:00:00 | 00:00:00 | |
| PETON7-10 | 2026-09-02 04:37:49 | 48.62793 | 17.36993 | 101° | 20km/h | 1971m | 4.2m/s | 0°C | 0% | 0hPa | 0V | 00:00:00 | 00:00:00 | 00:00:00 | |
| OE3JTB-15 | 2026-09-02 04:37:42 | 48.62795 | 17.36942 | 98° | 20km/h | 1941m | 4.4m/s | 0°C | 0% | 0hPa | 0V | 00:00:00 | 00:00:00 | 00:00:00 | |
| OM5KV | 2026-09-02 04:37:39 | 48.62796 | 17.36925 | 111° | 24km/h | 1938m | 2.4m/s | 6.8°C | 0% | 0hPa | 0V | 00:00:00 | 00:00:00 | 00:00:00 | |
| OM5KV | 2026-09-02 04:37:38 | 48.62799 | 17.36917 | 114° | 26km/h | 1934m | 5.1m/s | 6.8°C | 0% | 0hPa | 0V | 00:00:00 | 00:00:00 | 00:00:00 | |
| OM5KV | 2026-09-02 04:37:33 | 48.62812 | 17.36883 | 121° | 16km/h | 1911m | 5.3m/s | 7.0°C | 0% | 0hPa | 0V | 00:00:00 | 00:00:00 | 00:00:00 | |
| PETON7-10 | 2026-09-02 04:37:33 | 48.62812 | 17.36883 | 109° | 18km/h | 1907m | 4.2m/s | 0°C | 0% | 0hPa | 0V | 00:00:00 | 00:00:00 | 00:00:00 | |
| OM5KV | 2026-09-02 04:37:32 | 48.62814 | 17.36877 | 109° | 15km/h | 1907m | 4.3m/s | 7.1°C | 0% | 0hPa | 0V | 00:00:00 | 00:00:00 | 00:00:00 | |
| OM5KV | 2026-09-02 04:37:27 | 48.62817 | 17.36843 | 94° | 18km/h | 1887m | 6.3m/s | 7.3°C | 0% | 0hPa | 0V | 00:00:00 | 00:00:00 | 00:00:00 | |
| OM5KV | 2026-09-02 04:37:25 | 48.62817 | 17.36829 | 108° | 18km/h | 1875m | 5.0m/s | 7.3°C | 0% | 0hPa | 0V | 00:00:00 | 00:00:00 | 00:00:00 | |
| OM5KV | 2026-09-02 04:37:21 | 48.62828 | 17.36800 | 117° | 20km/h | 1856m | 3.8m/s | 7.5°C | 0% | 0hPa | 0V | 00:00:00 | 00:00:00 | 00:00:00 | |
| OM5KV | 2026-09-02 04:37:20 | 48.62830 | 17.36793 | 111° | 18km/h | 1853m | 3.6m/s | 7.5°C | 0% | 0hPa | 0V | 00:00:00 | 00:00:00 | 00:00:00 | |
| PETON7-10 | 2026-09-02 04:37:19 | 48.62833 | 17.36782 | 119° | 18km/h | 1842m | 2.9m/s | 0°C | 0% | 0hPa | 0V | 00:00:00 | 00:00:00 | 00:00:00 | |
| OM5KV | 2026-09-02 04:37:15 | 48.62840 | 17.36762 | 115° | 24km/h | 1833m | 3.9m/s | 7.7°C | 0% | 0hPa | 0V | 00:00:00 | 00:00:00 | 00:00:00 | |
| OM5KV | 2026-09-02 04:37:14 | 48.62842 | 17.36754 | 120° | 27km/h | 1829m | 3.6m/s | 7.7°C | 0% | 0hPa | 0V | 00:00:00 | 00:00:00 | 00:00:00 | |
| OE3JTB-15 | 2026-09-02 04:37:12 | 48.62849 | 17.36738 | 130° | 18km/h | 1817m | 5.2m/s | 0°C | 0% | 0hPa | 0V | 00:00:00 | 00:00:00 | 00:00:00 | |
| OM5KV | 2026-09-02 04:37:09 | 48.62857 | 17.36725 | 138° | 18km/h | 1808m | 6.1m/s | 7.9°C | 0% | 0hPa | 0V | 00:00:00 | 00:00:00 | 00:00:00 | |
| OM5KV | 2026-09-02 04:37:09 | 48.62861 | 17.36720 | 140° | 20km/h | 1803m | 4.3m/s | 7.9°C | 0% | 0hPa | 0V | 00:00:00 | 00:00:00 | 00:00:00 | |
| PETON7-10 | 2026-09-02 04:37:03 | 48.62875 | 17.36695 | 134° | 18km/h | 1775m | 4.1m/s | 0°C | 0% | 0hPa | 0V | 00:00:00 | 00:00:00 | 00:00:00 | |
| OM5KV | 2026-09-02 04:37:02 | 48.62877 | 17.36691 | 134° | 15km/h | 1775m | 4.1m/s | 8.2°C | 0% | 0hPa | 0V | 00:00:00 | 00:00:00 | 00:00:00 | |
| OM5KV | 2026-09-02 04:36:55 | 48.62903 | 17.36653 | 137° | 20km/h | 1743m | 5.4m/s | 8.5°C | 0% | 0hPa | 0V | 00:00:00 | 00:00:00 | 00:00:00 | |
| OM5KV | 2026-09-02 04:36:51 | 48.62919 | 17.36632 | 137° | 13km/h | 1722m | 3.1m/s | 8.6°C | 0% | 0hPa | 0V | 00:00:00 | 00:00:00 | 00:00:00 | |
| OM5KV | 2026-09-02 04:36:50 | 48.62921 | 17.36629 | 140° | 15km/h | 1718m | 4.9m/s | 8.7°C | 0% | 0hPa | 0V | 00:00:00 | 00:00:00 | 00:00:00 | |
| PETON7-10 | 2026-09-02 04:36:48 | 48.62924 | 17.36626 | 133° | 18km/h | 1711m | 4.3m/s | 0°C | 0% | 0hPa | 0V | 00:00:00 | 00:00:00 | 00:00:00 | |
| OE3JTB-15 | 2026-09-02 04:36:43 | 48.62942 | 17.36599 | 140° | 15km/h | 1690m | 4.6m/s | 0°C | 0% | 0hPa | 0V | 00:00:00 | 00:00:00 | 00:00:00 | |
| OM5KV | 2026-09-02 04:36:43 | 48.62946 | 17.36595 | 141° | 16km/h | 1690m | 4.6m/s | 8.9°C | 0% | 0hPa | 0V | 00:00:00 | 00:00:00 | 00:00:00 | |
| OM5KV | 2026-09-02 04:36:37 | 48.62961 | 17.36573 | 143° | 16km/h | 1665m | 3.7m/s | 9.2°C | 0% | 0hPa | 0V | 00:00:00 | 00:00:00 | 00:00:00 | |
| PETON7-10 | 2026-09-02 04:36:33 | 48.62976 | 17.36557 | 145° | 15km/h | 1643m | 4.2m/s | 0°C | 0% | 0hPa | 0V | 00:00:00 | 00:00:00 | 00:00:00 | |
| OM5KV | 2026-09-02 04:36:31 | 48.62982 | 17.36551 | 131° | 13km/h | 1638m | 5.1m/s | 9.4°C | 0% | 0hPa | 0V | 00:00:00 | 00:00:00 | 00:00:00 | |
| OM5KV | 2026-09-02 04:36:26 | 48.62993 | 17.36531 | 149° | 15km/h | 1616m | 5.3m/s | 9.6°C | 0% | 0hPa | 0V | 00:00:00 | 00:00:00 | 00:00:00 | |
| PETON7-10 | 2026-09-02 04:36:18 | 48.63010 | 17.36497 | 128° | 11km/h | 1574m | 2.6m/s | 0°C | 0% | 0hPa | 0V | 00:00:00 | 00:00:00 | 00:00:00 | |
| OE3JTB-15 | 2026-09-02 04:36:14 | 48.63017 | 17.36488 | 117° | 11km/h | 1557m | 5.1m/s | 0°C | 0% | 0hPa | 0V | 00:00:00 | 00:00:00 | 00:00:00 | |
| PETON7-10 | 2026-09-02 04:36:03 | 48.63028 | 17.36447 | 110° | 11km/h | 1508m | 4.5m/s | 0°C | 0% | 0hPa | 0V | 00:00:00 | 00:00:00 | 00:00:00 | |
| PETON7-10 | 2026-09-02 04:35:48 | 48.63045 | 17.36387 | 121° | 11km/h | 1440m | 5.3m/s | 0°C | 0% | 0hPa | 0V | 00:00:00 | 00:00:00 | 00:00:00 | |
| OE3JTB-15 | 2026-09-02 04:35:45 | 48.63049 | 17.36378 | 129° | 11km/h | 1427m | 4.2m/s | 0°C | 0% | 0hPa | 0V | 00:00:00 | 00:00:00 | 00:00:00 | |
| PETON7-10 | 2026-09-02 04:35:33 | 48.63066 | 17.36332 | 114° | 11km/h | 1358m | 5.8m/s | 0°C | 0% | 0hPa | 0V | 00:00:00 | 00:00:00 | 00:00:00 | |
| PETON7-10 | 2026-09-02 04:35:18 | 48.63074 | 17.36272 | 79° | 13km/h | 1294m | 5.0m/s | 0°C | 0% | 0hPa | 0V | 00:00:00 | 00:00:00 | 00:00:00 | |
| OE3JTB-15 | 2026-09-02 04:35:16 | 48.63072 | 17.36265 | 57° | 13km/h | 1284m | 5.3m/s | 0°C | 0% | 0hPa | 0V | 00:00:00 | 00:00:00 | 00:00:00 | |
| PETON7-10 | 2026-09-02 04:35:03 | 48.63061 | 17.36202 | 77° | 11km/h | 1227m | 3.0m/s | 0°C | 0% | 0hPa | 0V | 00:00:00 | 00:00:00 | 00:00:00 | |
| PETON7-10 | 2026-09-02 04:34:48 | 48.63046 | 17.36146 | 46° | 11km/h | 1168m | 5.2m/s | 0°C | 0% | 0hPa | 0V | 00:00:00 | 00:00:00 | 00:00:00 | |
| OE3JTB-15 | 2026-09-02 04:34:47 | 48.63044 | 17.36143 | 59° | 13km/h | 1164m | 2.9m/s | 0°C | 0% | 0hPa | 0V | 00:00:00 | 00:00:00 | 00:00:00 | |
| OE3JTB-15 | 2026-09-02 04:34:18 | 48.63012 | 17.36018 | 85° | 11km/h | 1034m | 5.2m/s | 0°C | 0% | 0hPa | 0V | 00:00:00 | 00:00:00 | 00:00:00 | |
| PETON7-10 | 2026-09-02 04:34:18 | 48.63012 | 17.36018 | 85° | 11km/h | 1034m | 5.2m/s | 0°C | 0% | 0hPa | 0V | 00:00:00 | 00:00:00 | 00:00:00 | |
| PETON7-10 | 2026-09-02 04:34:03 | 48.62995 | 17.35961 | 52° | 11km/h | 972m | 3.9m/s | 0°C | 0% | 0hPa | 0V | 00:00:00 | 00:00:00 | 00:00:00 | |
| OE3JTB-15 | 2026-09-02 04:33:49 | 48.62972 | 17.35913 | 78° | 9km/h | 916m | 4.1m/s | 0°C | 0% | 0hPa | 0V | 00:00:00 | 00:00:00 | 00:00:00 | |
| PETON7-10 | 2026-09-02 04:33:48 | 48.62971 | 17.35910 | 78° | 11km/h | 911m | 5.3m/s | 0°C | 0% | 0hPa | 0V | 00:00:00 | 00:00:00 | 00:00:00 | |
| PETON7-10 | 2026-09-02 04:33:33 | 48.62953 | 17.35858 | 75° | 7km/h | 850m | 4.8m/s | 0°C | 0% | 0hPa | 0V | 00:00:00 | 00:00:00 | 00:00:00 |